Wetterdaten: Mittwoch, 24.01.2018
Datum Zeit Temp. A. Feuchte A. Luftdruck Regen Wind Richtung Richtung Sonnenschein ET UV Solar Taupunkt Windchill Windböen
24.01.2018 00:00 -1,8 °C 93 % 1027,8 hPa 0,0 mm 0,0 km/h (0 Bft) W-SW 238 ° 0 min 0,000 mm 0,0 UV-I 0 W/m² -2,8 °C -1,8 °C 0,0 km/h (0 Bft)
24.01.2018 00:01 -1,8 °C 93 % 1027,8 hPa 0,0 mm 0,1 km/h (0 Bft) W-SW 238 ° 0 min 0,000 mm 0,0 UV-I 0 W/m² -2,8 °C -1,8 °C 1,6 km/h (1 Bft)
24.01.2018 00:02 -1,8 °C 94 % 1027,8 hPa 0,0 mm 1,4 km/h (1 Bft) W-SW 238 ° 0 min 0,000 mm 0,0 UV-I 0 W/m² -2,6 °C -1,8 °C 3,2 km/h (1 Bft)
24.01.2018 00:03 -1,8 °C 94 % 1027,8 hPa 0,0 mm 1,0 km/h (0 Bft) W-SW 238 ° 0 min 0,000 mm 0,0 UV-I 0 W/m² -2,6 °C -1,8 °C 3,2 km/h (1 Bft)
24.01.2018 00:04 -1,8 °C 94 % 1027,8 hPa 0,0 mm 0,8 km/h (0 Bft) W-SW 238 ° 0 min 0,000 mm 0,0 UV-I 0 W/m² -2,6 °C -1,8 °C 3,2 km/h (1 Bft)
24.01.2018 00:05 -1,8 °C 94 % 1027,8 hPa 0,0 mm 1,5 km/h (1 Bft) W-SW 238 ° 0 min 0,000 mm 0,0 UV-I 0 W/m² -2,6 °C -1,8 °C 3,2 km/h (1 Bft)
24.01.2018 00:06 -1,7 °C 94 % 1027,8 hPa 0,0 mm 0,0 km/h (0 Bft) W-SW 238 ° 0 min 0,000 mm 0,0 UV-I 0 W/m² -2,5 °C -1,7 °C 0,0 km/h (0 Bft)
24.01.2018 00:07 -1,7 °C 94 % 1027,9 hPa 0,0 mm 0,0 km/h (0 Bft) W-SW 238 ° 0 min 0,000 mm 0,0 UV-I 0 W/m² -2,5 °C -1,7 °C 0,0 km/h (0 Bft)
24.01.2018 00:08 -1,7 °C 94 % 1027,9 hPa 0,0 mm 0,3 km/h (0 Bft) W-SW 238 ° 0 min 0,000 mm 0,0 UV-I 0 W/m² -2,5 °C -1,7 °C 1,6 km/h (1 Bft)
24.01.2018 00:09 -1,7 °C 94 % 1027,9 hPa 0,0 mm 0,6 km/h (0 Bft) W-SW 238 ° 0 min 0,000 mm 0,0 UV-I 0 W/m² -2,5 °C -1,7 °C 1,6 km/h (1 Bft)
24.01.2018 00:10 -1,7 °C 94 % 1028,0 hPa 0,0 mm 0,0 km/h (0 Bft) W-SW 238 ° 0 min 0,000 mm 0,0 UV-I 0 W/m² -2,5 °C -1,7 °C 0,0 km/h (0 Bft)
24.01.2018 00:11 -1,7 °C 94 % 1028,0 hPa 0,0 mm 0,0 km/h (0 Bft) W-SW 238 ° 0 min 0,000 mm 0,0 UV-I 0 W/m² -2,5 °C -1,7 °C 0,0 km/h (0 Bft)
24.01.2018 00:12 -1,6 °C 94 % 1028,0 hPa 0,0 mm 0,0 km/h (0 Bft) W-SW 238 ° 0 min 0,000 mm 0,0 UV-I 0 W/m² -2,4 °C -1,6 °C 0,0 km/h (0 Bft)
24.01.2018 00:13 -1,7 °C 94 % 1028,0 hPa 0,0 mm 0,0 km/h (0 Bft) W-SW 238 ° 0 min 0,000 mm 0,0 UV-I 0 W/m² -2,5 °C -1,7 °C 0,0 km/h (0 Bft)
24.01.2018 00:14 -1,7 °C 94 % 1028,0 hPa 0,0 mm 0,0 km/h (0 Bft) W-SW 238 ° 0 min 0,000 mm 0,0 UV-I 0 W/m² -2,5 °C -1,7 °C 0,0 km/h (0 Bft)
24.01.2018 00:15 -1,7 °C 94 % 1028,1 hPa 0,0 mm 2,5 km/h (1 Bft) SW 236 ° 0 min 0,000 mm 0,0 UV-I 0 W/m² -2,5 °C -1,7 °C 4,8 km/h (1 Bft)
24.01.2018 00:16 -1,6 °C 94 % 1028,0 hPa 0,0 mm 3,8 km/h (1 Bft) SW 236 ° 0 min 0,000 mm 0,0 UV-I 0 W/m² -2,4 °C -1,6 °C 4,8 km/h (1 Bft)
24.01.2018 00:17 -1,6 °C 94 % 1028,1 hPa 0,0 mm 2,3 km/h (1 Bft) SW 233 ° 0 min 0,000 mm 0,0 UV-I 0 W/m² -2,4 °C -1,6 °C 3,2 km/h (1 Bft)
24.01.2018 00:18 -1,6 °C 94 % 1028,1 hPa 0,0 mm 1,9 km/h (1 Bft) SW 232 ° 0 min 0,000 mm 0,0 UV-I 0 W/m² -2,4 °C -1,6 °C 3,2 km/h (1 Bft)
24.01.2018 00:19 -1,6 °C 94 % 1028,1 hPa 0,0 mm 2,5 km/h (1 Bft) SW 230 ° 0 min 0,000 mm 0,0 UV-I 0 W/m² -2,4 °C -1,6 °C 3,2 km/h (1 Bft)
24.01.2018 00:20 -1,5 °C 94 % 1028,1 hPa 0,0 mm 1,6 km/h (1 Bft) SW 225 ° 0 min 0,000 mm 0,0 UV-I 0 W/m² -2,3 °C -1,5 °C 3,2 km/h (1 Bft)
24.01.2018 00:21 -1,5 °C 94 % 1028,1 hPa 0,0 mm 0,0 km/h (0 Bft) SW 225 ° 0 min 0,000 mm 0,0 UV-I 0 W/m² -2,3 °C -1,5 °C 0,0 km/h (0 Bft)
24.01.2018 00:22 -1,4 °C 94 % 1028,2 hPa 0,0 mm 0,0 km/h (0 Bft) SW 225 ° 0 min 0,000 mm 0,0 UV-I 0 W/m² -2,2 °C -1,4 °C 0,0 km/h (0 Bft)
24.01.2018 00:23 -1,4 °C 94 % 1028,2 hPa 0,0 mm 0,0 km/h (0 Bft) SW 225 ° 0 min 0,000 mm 0,0 UV-I 0 W/m² -2,2 °C -1,4 °C 0,0 km/h (0 Bft)
24.01.2018 00:24 -1,3 °C 94 % 1028,3 hPa 0,0 mm 0,0 km/h (0 Bft) SW 225 ° 0 min 0,000 mm 0,0 UV-I 0 W/m² -2,1 °C -1,3 °C 0,0 km/h (0 Bft)
24.01.2018 00:25 -1,3 °C 94 % 1028,2 hPa 0,0 mm 0,0 km/h (0 Bft) SW 225 ° 0 min 0,000 mm 0,0 UV-I 0 W/m² -2,1 °C -1,3 °C 0,0 km/h (0 Bft)
24.01.2018 00:26 -1,4 °C 94 % 1028,2 hPa 0,0 mm 0,0 km/h (0 Bft) SW 225 ° 0 min 0,000 mm 0,0 UV-I 0 W/m² -2,2 °C -1,4 °C 0,0 km/h (0 Bft)
24.01.2018 00:27 -1,4 °C 94 % 1028,3 hPa 0,0 mm 0,0 km/h (0 Bft) SW 225 ° 0 min 0,000 mm 0,0 UV-I 0 W/m² -2,2 °C -1,4 °C 0,0 km/h (0 Bft)
24.01.2018 00:28 -1,4 °C 94 % 1028,2 hPa 0,0 mm 0,0 km/h (0 Bft) SW 225 ° 0 min 0,000 mm 0,0 UV-I 0 W/m² -2,2 °C -1,4 °C 0,0 km/h (0 Bft)
24.01.2018 00:29 -1,4 °C 94 % 1028,2 hPa 0,0 mm 0,0 km/h (0 Bft) SW 225 ° 0 min 0,000 mm 0,0 UV-I 0 W/m² -2,2 °C -1,4 °C 0,0 km/h (0 Bft)
24.01.2018 00:30 -1,3 °C 94 % 1028,2 hPa 0,0 mm 0,0 km/h (0 Bft) SW 225 ° 0 min 0,000 mm 0,0 UV-I 0 W/m² -2,1 °C -1,3 °C 0,0 km/h (0 Bft)
24.01.2018 00:31 -1,4 °C 94 % 1028,2 hPa 0,0 mm 0,0 km/h (0 Bft) SW 225 ° 0 min 0,000 mm 0,0 UV-I 0 W/m² -2,2 °C -1,4 °C 0,0 km/h (0 Bft)
24.01.2018 00:32 -1,4 °C 94 % 1028,2 hPa 0,0 mm 0,0 km/h (0 Bft) SW 225 ° 0 min 0,000 mm 0,0 UV-I 0 W/m² -2,2 °C -1,4 °C 0,0 km/h (0 Bft)
24.01.2018 00:33 -1,4 °C 94 % 1028,2 hPa 0,0 mm 0,0 km/h (0 Bft) SW 225 ° 0 min 0,000 mm 0,0 UV-I 0 W/m² -2,2 °C -1,4 °C 0,0 km/h (0 Bft)
24.01.2018 00:34 -1,4 °C 94 % 1028,2 hPa 0,0 mm 1,5 km/h (1 Bft) SW 221 ° 0 min 0,000 mm 0,0 UV-I 0 W/m² -2,2 °C -1,4 °C 3,2 km/h (1 Bft)
24.01.2018 00:35 -1,4 °C 94 % 1028,2 hPa 0,0 mm 3,4 km/h (1 Bft) SW 218 ° 0 min 0,000 mm 0,0 UV-I 0 W/m² -2,2 °C -1,4 °C 4,8 km/h (1 Bft)
24.01.2018 00:36 -1,4 °C 94 % 1028,2 hPa 0,0 mm 2,0 km/h (1 Bft) SW 218 ° 0 min 0,000 mm 0,0 UV-I 0 W/m² -2,2 °C -1,4 °C 4,8 km/h (1 Bft)
24.01.2018 00:37 -1,4 °C 94 % 1028,2 hPa 0,0 mm 1,4 km/h (1 Bft) SW 218 ° 0 min 0,000 mm 0,0 UV-I 0 W/m² -2,2 °C -1,4 °C 3,2 km/h (1 Bft)
24.01.2018 00:38 -1,4 °C 94 % 1028,1 hPa 0,0 mm 2,3 km/h (1 Bft) SW 218 ° 0 min 0,000 mm 0,0 UV-I 0 W/m² -2,2 °C -1,4 °C 3,2 km/h (1 Bft)
24.01.2018 00:39 -1,4 °C 94 % 1028,1 hPa 0,0 mm 2,4 km/h (1 Bft) SW 218 ° 0 min 0,000 mm 0,0 UV-I 0 W/m² -2,2 °C -1,4 °C 3,2 km/h (1 Bft)
24.01.2018 00:40 -1,4 °C 94 % 1028,1 hPa 0,0 mm 2,3 km/h (1 Bft) SW 218 ° 0 min 0,000 mm 0,0 UV-I 0 W/m² -2,2 °C -1,4 °C 3,2 km/h (1 Bft)
24.01.2018 00:41 -1,4 °C 94 % 1028,1 hPa 0,0 mm 3,0 km/h (1 Bft) SW 218 ° 0 min 0,000 mm 0,0 UV-I 0 W/m² -2,2 °C -1,4 °C 3,2 km/h (1 Bft)
24.01.2018 00:42 -1,3 °C 94 % 1028,1 hPa 0,0 mm 2,2 km/h (1 Bft) SW 218 ° 0 min 0,000 mm 0,0 UV-I 0 W/m² -2,1 °C -1,3 °C 3,2 km/h (1 Bft)
24.01.2018 00:43 -1,3 °C 94 % 1028,0 hPa 0,0 mm 1,9 km/h (1 Bft) SW 218 ° 0 min 0,000 mm 0,0 UV-I 0 W/m² -2,1 °C -1,3 °C 3,2 km/h (1 Bft)
24.01.2018 00:44 -1,3 °C 94 % 1028,1 hPa 0,0 mm 2,5 km/h (1 Bft) SW 218 ° 0 min 0,000 mm 0,0 UV-I 0 W/m² -2,1 °C -1,3 °C 3,2 km/h (1 Bft)
24.01.2018 00:45 -1,3 °C 94 % 1028,1 hPa 0,0 mm 1,9 km/h (1 Bft) SW 218 ° 0 min 0,000 mm 0,0 UV-I 0 W/m² -2,1 °C -1,3 °C 3,2 km/h (1 Bft)
24.01.2018 00:46 -1,3 °C 94 % 1028,1 hPa 0,0 mm 2,3 km/h (1 Bft) SW 218 ° 0 min 0,000 mm 0,0 UV-I 0 W/m² -2,1 °C -1,3 °C 3,2 km/h (1 Bft)
24.01.2018 00:47 -1,3 °C 94 % 1028,0 hPa 0,0 mm 1,9 km/h (1 Bft) SW 218 ° 0 min 0,000 mm 0,0 UV-I 0 W/m² -2,1 °C -1,3 °C 3,2 km/h (1 Bft)
24.01.2018 00:48 -1,3 °C 94 % 1028,0 hPa 0,0 mm 2,1 km/h (1 Bft) SW 218 ° 0 min 0,000 mm 0,0 UV-I 0 W/m² -2,1 °C -1,3 °C 3,2 km/h (1 Bft)
24.01.2018 00:49 -1,3 °C 94 % 1027,9 hPa 0,0 mm 2,5 km/h (1 Bft) SW 218 ° 0 min 0,000 mm 0,0 UV-I 0 W/m² -2,1 °C -1,3 °C 3,2 km/h (1 Bft)
24.01.2018 00:50 -1,2 °C 94 % 1028,0 hPa 0,0 mm 0,9 km/h (0 Bft) SW 218 ° 0 min 0,000 mm 0,0 UV-I 0 W/m² -2,0 °C -1,2 °C 1,6 km/h (1 Bft)
24.01.2018 00:51 -1,2 °C 94 % 1027,9 hPa 0,0 mm 0,0 km/h (0 Bft) SW 218 ° 0 min 0,000 mm 0,0 UV-I 0 W/m² -2,0 °C -1,2 °C 0,0 km/h (0 Bft)
24.01.2018 00:52 -1,2 °C 94 % 1027,9 hPa 0,0 mm 0,0 km/h (0 Bft) SW 218 ° 0 min 0,000 mm 0,0 UV-I 0 W/m² -2,0 °C -1,2 °C 0,0 km/h (0 Bft)
24.01.2018 00:53 -1,2 °C 94 % 1028,0 hPa 0,0 mm 0,0 km/h (0 Bft) SW 218 ° 0 min 0,000 mm 0,0 UV-I 0 W/m² -2,0 °C -1,2 °C 0,0 km/h (0 Bft)
24.01.2018 00:54 -1,2 °C 94 % 1028,0 hPa 0,0 mm 0,0 km/h (0 Bft) SW 218 ° 0 min 0,000 mm 0,0 UV-I 0 W/m² -2,0 °C -1,2 °C 0,0 km/h (0 Bft)
24.01.2018 00:55 -1,2 °C 94 % 1028,0 hPa 0,0 mm 0,0 km/h (0 Bft) SW 218 ° 0 min 0,000 mm 0,0 UV-I 0 W/m² -2,0 °C -1,2 °C 0,0 km/h (0 Bft)
24.01.2018 00:56 -1,2 °C 94 % 1028,0 hPa 0,0 mm 0,0 km/h (0 Bft) SW 218 ° 0 min 0,000 mm 0,0 UV-I 0 W/m² -2,0 °C -1,2 °C 0,0 km/h (0 Bft)
24.01.2018 00:57 -1,2 °C 94 % 1028,0 hPa 0,0 mm 0,0 km/h (0 Bft) SW 218 ° 0 min 0,000 mm 0,0 UV-I 0 W/m² -2,0 °C -1,2 °C 0,0 km/h (0 Bft)
24.01.2018 00:58 -1,2 °C 94 % 1028,0 hPa 0,0 mm 0,0 km/h (0 Bft) SW 218 ° 0 min 0,000 mm 0,0 UV-I 0 W/m² -2,0 °C -1,2 °C 0,0 km/h (0 Bft)
24.01.2018 00:59 -1,3 °C 94 % 1028,0 hPa 0,0 mm 0,0 km/h (0 Bft) SW 218 ° 0 min 0,000 mm 0,0 UV-I 0 W/m² -2,1 °C -1,3 °C 0,0 km/h (0 Bft)
24.01.2018 01:00 -1,3 °C 94 % 1028,0 hPa 0,0 mm 0,0 km/h (0 Bft) SW 218 ° 0 min 0,000 mm 0,0 UV-I 0 W/m² -2,1 °C -1,3 °C 0,0 km/h (0 Bft)
24.01.2018 01:01 -1,3 °C 94 % 1027,9 hPa 0,0 mm 0,0 km/h (0 Bft) SW 218 ° 0 min 0,000 mm 0,0 UV-I 0 W/m² -2,1 °C -1,3 °C 0,0 km/h (0 Bft)
24.01.2018 01:02 -1,3 °C 94 % 1027,9 hPa 0,0 mm 0,0 km/h (0 Bft) SW 218 ° 0 min 0,000 mm 0,0 UV-I 0 W/m² -2,1 °C -1,3 °C 0,0 km/h (0 Bft)
24.01.2018 01:03 -1,3 °C 94 % 1027,9 hPa 0,0 mm 0,0 km/h (0 Bft) SW 218 ° 0 min 0,000 mm 0,0 UV-I 0 W/m² -2,1 °C -1,3 °C 0,0 km/h (0 Bft)
24.01.2018 01:04 -1,3 °C 94 % 1027,9 hPa 0,0 mm 1,4 km/h (1 Bft) S-SW 209 ° 0 min 0,000 mm 0,0 UV-I 0 W/m² -2,1 °C -1,3 °C 3,2 km/h (1 Bft)
24.01.2018 01:05 -1,3 °C 94 % 1027,9 hPa 0,0 mm 1,9 km/h (1 Bft) S-SW 209 ° 0 min 0,000 mm 0,0 UV-I 0 W/m² -2,1 °C -1,3 °C 3,2 km/h (1 Bft)
24.01.2018 01:06 -1,4 °C 94 % 1027,9 hPa 0,0 mm 0,4 km/h (0 Bft) S-SW 209 ° 0 min 0,000 mm 0,0 UV-I 0 W/m² -2,2 °C -1,4 °C 1,6 km/h (1 Bft)
24.01.2018 01:07 -1,4 °C 94 % 1027,9 hPa 0,0 mm 0,2 km/h (0 Bft) S-SW 209 ° 0 min 0,000 mm 0,0 UV-I 0 W/m² -2,2 °C -1,4 °C 1,6 km/h (1 Bft)
24.01.2018 01:08 -1,5 °C 94 % 1027,9 hPa 0,0 mm 0,0 km/h (0 Bft) S-SW 209 ° 0 min 0,000 mm 0,0 UV-I 0 W/m² -2,3 °C -1,5 °C 0,0 km/h (0 Bft)
24.01.2018 01:09 -1,5 °C 94 % 1027,9 hPa 0,0 mm 0,0 km/h (0 Bft) S-SW 209 ° 0 min 0,000 mm 0,0 UV-I 0 W/m² -2,3 °C -1,5 °C 0,0 km/h (0 Bft)
24.01.2018 01:10 -1,5 °C 94 % 1027,9 hPa 0,0 mm 0,0 km/h (0 Bft) S-SW 209 ° 0 min 0,000 mm 0,0 UV-I 0 W/m² -2,3 °C -1,5 °C 0,0 km/h (0 Bft)
24.01.2018 01:11 -1,6 °C 94 % 1027,9 hPa 0,0 mm 0,3 km/h (0 Bft) S-SW 209 ° 0 min 0,000 mm 0,0 UV-I 0 W/m² -2,4 °C -1,6 °C 1,6 km/h (1 Bft)
24.01.2018 01:12 -1,6 °C 94 % 1027,9 hPa 0,0 mm 0,7 km/h (0 Bft) S-SW 209 ° 0 min 0,000 mm 0,0 UV-I 0 W/m² -2,4 °C -1,6 °C 1,6 km/h (1 Bft)
24.01.2018 01:13 -1,6 °C 94 % 1027,9 hPa 0,0 mm 0,2 km/h (0 Bft) S-SW 209 ° 0 min 0,000 mm 0,0 UV-I 0 W/m² -2,4 °C -1,6 °C 1,6 km/h (1 Bft)
24.01.2018 01:14 -1,6 °C 94 % 1027,9 hPa 0,0 mm 0,1 km/h (0 Bft) S-SW 209 ° 0 min 0,000 mm 0,0 UV-I 0 W/m² -2,4 °C -1,6 °C 1,6 km/h (1 Bft)
24.01.2018 01:15 -1,6 °C 94 % 1027,8 hPa 0,0 mm 0,0 km/h (0 Bft) S-SW 209 ° 0 min 0,000 mm 0,0 UV-I 0 W/m² -2,4 °C -1,6 °C 0,0 km/h (0 Bft)
24.01.2018 01:16 -1,7 °C 94 % 1027,8 hPa 0,0 mm 0,0 km/h (0 Bft) S-SW 209 ° 0 min 0,000 mm 0,0 UV-I 0 W/m² -2,5 °C -1,7 °C 0,0 km/h (0 Bft)
24.01.2018 01:17 -1,7 °C 94 % 1027,8 hPa 0,0 mm 0,6 km/h (0 Bft) S-SW 209 ° 0 min 0,000 mm 0,0 UV-I 0 W/m² -2,5 °C -1,7 °C 1,6 km/h (1 Bft)
24.01.2018 01:18 -1,7 °C 94 % 1027,8 hPa 0,0 mm 0,7 km/h (0 Bft) S-SW 209 ° 0 min 0,000 mm 0,0 UV-I 0 W/m² -2,5 °C -1,7 °C 1,6 km/h (1 Bft)
24.01.2018 01:19 -1,8 °C 94 % 1027,9 hPa 0,0 mm 0,9 km/h (0 Bft) S-SW 209 ° 0 min 0,000 mm 0,0 UV-I 0 W/m² -2,6 °C -1,8 °C 1,6 km/h (1 Bft)
24.01.2018 01:20 -1,8 °C 94 % 1027,9 hPa 0,0 mm 0,1 km/h (0 Bft) S-SW 209 ° 0 min 0,000 mm 0,0 UV-I 0 W/m² -2,6 °C -1,8 °C 1,6 km/h (1 Bft)
24.01.2018 01:21 -1,8 °C 94 % 1027,8 hPa 0,0 mm 0,0 km/h (0 Bft) S-SW 209 ° 0 min 0,000 mm 0,0 UV-I 0 W/m² -2,6 °C -1,8 °C 0,0 km/h (0 Bft)
24.01.2018 01:22 -1,8 °C 94 % 1027,8 hPa 0,0 mm 0,0 km/h (0 Bft) S-SW 209 ° 0 min 0,000 mm 0,0 UV-I 0 W/m² -2,6 °C -1,8 °C 0,0 km/h (0 Bft)
24.01.2018 01:23 -1,8 °C 94 % 1027,8 hPa 0,0 mm 0,0 km/h (0 Bft) S-SW 209 ° 0 min 0,000 mm 0,0 UV-I 0 W/m² -2,6 °C -1,8 °C 0,0 km/h (0 Bft)
24.01.2018 01:24 -1,8 °C 94 % 1027,8 hPa 0,0 mm 0,0 km/h (0 Bft) S-SW 209 ° 0 min 0,000 mm 0,0 UV-I 0 W/m² -2,6 °C -1,8 °C 0,0 km/h (0 Bft)
24.01.2018 01:25 -1,9 °C 94 % 1027,9 hPa 0,0 mm 0,0 km/h (0 Bft) S-SW 209 ° 0 min 0,000 mm 0,0 UV-I 0 W/m² -2,7 °C -1,9 °C 0,0 km/h (0 Bft)
24.01.2018 01:26 -1,9 °C 94 % 1028,0 hPa 0,0 mm 0,0 km/h (0 Bft) S-SW 209 ° 0 min 0,000 mm 0,0 UV-I 0 W/m² -2,7 °C -1,9 °C 0,0 km/h (0 Bft)
24.01.2018 01:27 -1,9 °C 94 % 1028,0 hPa 0,0 mm 0,0 km/h (0 Bft) S-SW 209 ° 0 min 0,000 mm 0,0 UV-I 0 W/m² -2,7 °C -1,9 °C 0,0 km/h (0 Bft)
24.01.2018 01:28 -1,9 °C 94 % 1028,0 hPa 0,0 mm 0,0 km/h (0 Bft) S-SW 209 ° 0 min 0,000 mm 0,0 UV-I 0 W/m² -2,7 °C -1,9 °C 0,0 km/h (0 Bft)
24.01.2018 01:29 -1,9 °C 94 % 1027,9 hPa 0,0 mm 0,0 km/h (0 Bft) S-SW 209 ° 0 min 0,000 mm 0,0 UV-I 0 W/m² -2,7 °C -1,9 °C 0,0 km/h (0 Bft)
24.01.2018 01:30 -1,9 °C 94 % 1027,9 hPa 0,0 mm 0,0 km/h (0 Bft) S-SW 209 ° 0 min 0,000 mm 0,0 UV-I 0 W/m² -2,7 °C -1,9 °C 0,0 km/h (0 Bft)
24.01.2018 01:31 -1,9 °C 94 % 1027,9 hPa 0,0 mm 0,0 km/h (0 Bft) S-SW 209 ° 0 min 0,000 mm 0,0 UV-I 0 W/m² -2,7 °C -1,9 °C 0,0 km/h (0 Bft)
24.01.2018 01:32 -2,0 °C 94 % 1027,9 hPa 0,0 mm 0,0 km/h (0 Bft) S-SW 209 ° 0 min 0,000 mm 0,0 UV-I 0 W/m² -2,8 °C -2,0 °C 0,0 km/h (0 Bft)
24.01.2018 01:33 -2,0 °C 94 % 1027,9 hPa 0,0 mm 0,0 km/h (0 Bft) S-SW 209 ° 0 min 0,000 mm 0,0 UV-I 0 W/m² -2,8 °C -2,0 °C 0,0 km/h (0 Bft)
24.01.2018 01:34 -2,0 °C 94 % 1027,9 hPa 0,0 mm 0,0 km/h (0 Bft) S-SW 209 ° 0 min 0,000 mm 0,0 UV-I 0 W/m² -2,8 °C -2,0 °C 0,0 km/h (0 Bft)
24.01.2018 01:35 -2,0 °C 94 % 1027,9 hPa 0,0 mm 0,0 km/h (0 Bft) S-SW 209 ° 0 min 0,000 mm 0,0 UV-I 0 W/m² -2,8 °C -2,0 °C 0,0 km/h (0 Bft)
24.01.2018 01:36 -2,1 °C 94 % 1027,9 hPa 0,0 mm 0,0 km/h (0 Bft) S-SW 209 ° 0 min 0,000 mm 0,0 UV-I 0 W/m² -2,9 °C -2,1 °C 0,0 km/h (0 Bft)
24.01.2018 01:37 -2,0 °C 94 % 1027,9 hPa 0,0 mm 0,0 km/h (0 Bft) S-SW 209 ° 0 min 0,000 mm 0,0 UV-I 0 W/m² -2,8 °C -2,0 °C 0,0 km/h (0 Bft)
24.01.2018 01:38 -2,1 °C 94 % 1027,9 hPa 0,0 mm 0,0 km/h (0 Bft) S-SW 209 ° 0 min 0,000 mm 0,0 UV-I 0 W/m² -2,9 °C -2,1 °C 0,0 km/h (0 Bft)
24.01.2018 01:39 -2,1 °C 94 % 1027,9 hPa 0,0 mm 0,0 km/h (0 Bft) S-SW 209 ° 0 min 0,000 mm 0,0 UV-I 0 W/m² -2,9 °C -2,1 °C 0,0 km/h (0 Bft)
24.01.2018 01:40 -2,1 °C 94 % 1027,9 hPa 0,0 mm 0,0 km/h (0 Bft) S-SW 209 ° 0 min 0,000 mm 0,0 UV-I 0 W/m² -2,9 °C -2,1 °C 0,0 km/h (0 Bft)
24.01.2018 01:41 -2,1 °C 94 % 1027,9 hPa 0,0 mm 0,0 km/h (0 Bft) S-SW 209 ° 0 min 0,000 mm 0,0 UV-I 0 W/m² -2,9 °C -2,1 °C 0,0 km/h (0 Bft)
24.01.2018 01:42 -2,1 °C 94 % 1027,9 hPa 0,0 mm 0,0 km/h (0 Bft) S-SW 209 ° 0 min 0,000 mm 0,0 UV-I 0 W/m² -2,9 °C -2,1 °C 0,0 km/h (0 Bft)
24.01.2018 01:43 -2,1 °C 94 % 1028,0 hPa 0,0 mm 0,0 km/h (0 Bft) S-SW 209 ° 0 min 0,000 mm 0,0 UV-I 0 W/m² -2,9 °C -2,1 °C 0,0 km/h (0 Bft)
24.01.2018 01:44 -2,1 °C 94 % 1028,0 hPa 0,0 mm 0,0 km/h (0 Bft) S-SW 209 ° 0 min 0,000 mm 0,0 UV-I 0 W/m² -2,9 °C -2,1 °C 0,0 km/h (0 Bft)
24.01.2018 01:45 -2,1 °C 94 % 1028,0 hPa 0,0 mm 0,0 km/h (0 Bft) S-SW 209 ° 0 min 0,000 mm 0,0 UV-I 0 W/m² -2,9 °C -2,1 °C 0,0 km/h (0 Bft)
24.01.2018 01:46 -2,1 °C 94 % 1028,0 hPa 0,0 mm 0,0 km/h (0 Bft) S-SW 209 ° 0 min 0,000 mm 0,0 UV-I 0 W/m² -2,9 °C -2,1 °C 0,0 km/h (0 Bft)
24.01.2018 01:47 -2,1 °C 94 % 1028,1 hPa 0,0 mm 0,0 km/h (0 Bft) S-SW 209 ° 0 min 0,000 mm 0,0 UV-I 0 W/m² -2,9 °C -2,1 °C 0,0 km/h (0 Bft)
24.01.2018 01:48 -2,1 °C 94 % 1028,1 hPa 0,0 mm 0,0 km/h (0 Bft) S-SW 209 ° 0 min 0,000 mm 0,0 UV-I 0 W/m² -2,9 °C -2,1 °C 0,0 km/h (0 Bft)
24.01.2018 01:49 -2,1 °C 94 % 1028,1 hPa 0,0 mm 0,0 km/h (0 Bft) S-SW 209 ° 0 min 0,000 mm 0,0 UV-I 0 W/m² -2,9 °C -2,1 °C 0,0 km/h (0 Bft)
24.01.2018 01:50 -2,1 °C 94 % 1028,1 hPa 0,0 mm 0,0 km/h (0 Bft) S-SW 209 ° 0 min 0,000 mm 0,0 UV-I 0 W/m² -2,9 °C -2,1 °C 0,0 km/h (0 Bft)
24.01.2018 01:51 -2,1 °C 94 % 1028,1 hPa 0,0 mm 0,0 km/h (0 Bft) S-SW 209 ° 0 min 0,000 mm 0,0 UV-I 0 W/m² -2,9 °C -2,1 °C 0,0 km/h (0 Bft)
24.01.2018 01:52 -2,1 °C 94 % 1028,1 hPa 0,0 mm 0,0 km/h (0 Bft) S-SW 209 ° 0 min 0,000 mm 0,0 UV-I 0 W/m² -2,9 °C -2,1 °C 0,0 km/h (0 Bft)
24.01.2018 01:53 -2,2 °C 94 % 1028,1 hPa 0,0 mm 0,0 km/h (0 Bft) S-SW 209 ° 0 min 0,000 mm 0,0 UV-I 0 W/m² -3,0 °C -2,2 °C 0,0 km/h (0 Bft)
24.01.2018 01:54 -2,2 °C 94 % 1028,0 hPa 0,0 mm 0,0 km/h (0 Bft) S-SW 209 ° 0 min 0,000 mm 0,0 UV-I 0 W/m² -3,0 °C -2,2 °C 0,0 km/h (0 Bft)
24.01.2018 01:55 -2,2 °C 94 % 1028,1 hPa 0,0 mm 0,0 km/h (0 Bft) S-SW 209 ° 0 min 0,000 mm 0,0 UV-I 0 W/m² -3,0 °C -2,2 °C 0,0 km/h (0 Bft)
24.01.2018 01:56 -2,1 °C 94 % 1028,0 hPa 0,0 mm 0,0 km/h (0 Bft) S-SW 209 ° 0 min 0,000 mm 0,0 UV-I 0 W/m² -2,9 °C -2,1 °C 0,0 km/h (0 Bft)
24.01.2018 01:57 -2,1 °C 94 % 1028,0 hPa 0,0 mm 0,0 km/h (0 Bft) S-SW 209 ° 0 min 0,000 mm 0,0 UV-I 0 W/m² -2,9 °C -2,1 °C 0,0 km/h (0 Bft)
24.01.2018 01:58 -2,1 °C 94 % 1028,0 hPa 0,0 mm 0,0 km/h (0 Bft) S-SW 209 ° 0 min 0,000 mm 0,0 UV-I 0 W/m² -2,9 °C -2,1 °C 0,0 km/h (0 Bft)
24.01.2018 01:59 -2,1 °C 94 % 1028,0 hPa 0,0 mm 0,0 km/h (0 Bft) S-SW 209 ° 0 min 0,000 mm 0,0 UV-I 0 W/m² -2,9 °C -2,1 °C 0,0 km/h (0 Bft)
24.01.2018 02:00 -2,1 °C 94 % 1028,0 hPa 0,0 mm 1,5 km/h (1 Bft) W 281 ° 0 min 0,000 mm 0,0 UV-I 0 W/m² -2,9 °C -2,1 °C 3,2 km/h (1 Bft)
24.01.2018 02:01 -2,1 °C 94 % 1028,0 hPa 0,0 mm 0,0 km/h (0 Bft) W 281 ° 0 min 0,000 mm 0,0 UV-I 0 W/m² -2,9 °C -2,1 °C 0,0 km/h (0 Bft)
24.01.2018 02:02 -2,1 °C 94 % 1028,0 hPa 0,0 mm 0,0 km/h (0 Bft) W 281 ° 0 min 0,000 mm 0,0 UV-I 0 W/m² -2,9 °C -2,1 °C 0,0 km/h (0 Bft)
24.01.2018 02:03 -2,1 °C 94 % 1028,0 hPa 0,0 mm 0,0 km/h (0 Bft) W 281 ° 0 min 0,000 mm 0,0 UV-I 0 W/m² -2,9 °C -2,1 °C 0,0 km/h (0 Bft)
24.01.2018 02:04 -2,1 °C 94 % 1028,0 hPa 0,0 mm 0,0 km/h (0 Bft) W 281 ° 0 min 0,000 mm 0,0 UV-I 0 W/m² -2,9 °C -2,1 °C 0,0 km/h (0 Bft)
24.01.2018 02:05 -2,1 °C 94 % 1028,0 hPa 0,0 mm 0,0 km/h (0 Bft) W 281 ° 0 min 0,000 mm 0,0 UV-I 0 W/m² -2,9 °C -2,1 °C 0,0 km/h (0 Bft)
24.01.2018 02:06 -2,1 °C 94 % 1028,0 hPa 0,0 mm 0,0 km/h (0 Bft) W 281 ° 0 min 0,000 mm 0,0 UV-I 0 W/m² -2,9 °C -2,1 °C 0,0 km/h (0 Bft)
24.01.2018 02:07 -2,1 °C 94 % 1028,0 hPa 0,0 mm 0,0 km/h (0 Bft) W 281 ° 0 min 0,000 mm 0,0 UV-I 0 W/m² -2,9 °C -2,1 °C 0,0 km/h (0 Bft)
24.01.2018 02:08 -2,1 °C 94 % 1028,0 hPa 0,0 mm 0,0 km/h (0 Bft) W 281 ° 0 min 0,000 mm 0,0 UV-I 0 W/m² -2,9 °C -2,1 °C 0,0 km/h (0 Bft)
24.01.2018 02:09 -2,1 °C 94 % 1028,0 hPa 0,0 mm 0,0 km/h (0 Bft) W 281 ° 0 min 0,000 mm 0,0 UV-I 0 W/m² -2,9 °C -2,1 °C 0,0 km/h (0 Bft)
24.01.2018 02:10 -2,1 °C 94 % 1028,0 hPa 0,0 mm 0,0 km/h (0 Bft) W 281 ° 0 min 0,000 mm 0,0 UV-I 0 W/m² -2,9 °C -2,1 °C 0,0 km/h (0 Bft)
24.01.2018 02:11 -2,1 °C 94 % 1028,0 hPa 0,0 mm 0,0 km/h (0 Bft) W 281 ° 0 min 0,000 mm 0,0 UV-I 0 W/m² -2,9 °C -2,1 °C 0,0 km/h (0 Bft)
24.01.2018 02:12 -2,1 °C 94 % 1028,0 hPa 0,0 mm 0,0 km/h (0 Bft) W 281 ° 0 min 0,000 mm 0,0 UV-I 0 W/m² -2,9 °C -2,1 °C 0,0 km/h (0 Bft)
24.01.2018 02:13 -2,1 °C 94 % 1028,0 hPa 0,0 mm 0,0 km/h (0 Bft) W 281 ° 0 min 0,000 mm 0,0 UV-I 0 W/m² -2,9 °C -2,1 °C 0,0 km/h (0 Bft)
24.01.2018 02:14 -2,1 °C 94 % 1028,0 hPa 0,0 mm 0,0 km/h (0 Bft) W 281 ° 0 min 0,000 mm 0,0 UV-I 0 W/m² -2,9 °C -2,1 °C 0,0 km/h (0 Bft)
24.01.2018 02:15 -2,0 °C 94 % 1028,0 hPa 0,0 mm 0,0 km/h (0 Bft) W 281 ° 0 min 0,000 mm 0,0 UV-I 0 W/m² -2,8 °C -2,0 °C 0,0 km/h (0 Bft)
24.01.2018 02:16 -2,0 °C 94 % 1028,0 hPa 0,0 mm 0,0 km/h (0 Bft) W 281 ° 0 min 0,000 mm 0,0 UV-I 0 W/m² -2,8 °C -2,0 °C 0,0 km/h (0 Bft)
24.01.2018 02:17 -2,0 °C 94 % 1028,0 hPa 0,0 mm 0,0 km/h (0 Bft) W 281 ° 0 min 0,000 mm 0,0 UV-I 0 W/m² -2,8 °C -2,0 °C 0,0 km/h (0 Bft)
24.01.2018 02:18 -2,0 °C 94 % 1028,1 hPa 0,0 mm 0,0 km/h (0 Bft) W 281 ° 0 min 0,000 mm 0,0 UV-I 0 W/m² -2,8 °C -2,0 °C 0,0 km/h (0 Bft)
24.01.2018 02:19 -1,9 °C 94 % 1028,0 hPa 0,0 mm 0,0 km/h (0 Bft) S-SW 197 ° 0 min 0,000 mm 0,0 UV-I 0 W/m² -2,7 °C -1,9 °C 0,0 km/h (0 Bft)
24.01.2018 02:20 -1,9 °C 94 % 1028,0 hPa 0,0 mm 1,4 km/h (1 Bft) S-SW 197 ° 0 min 0,000 mm 0,0 UV-I 0 W/m² -2,7 °C -1,9 °C 3,2 km/h (1 Bft)
24.01.2018 02:21 -1,9 °C 94 % 1028,1 hPa 0,0 mm 0,0 km/h (0 Bft) S-SW 197 ° 0 min 0,000 mm 0,0 UV-I 0 W/m² -2,7 °C -1,9 °C 0,0 km/h (0 Bft)
24.01.2018 02:22 -1,9 °C 94 % 1028,1 hPa 0,0 mm 0,0 km/h (0 Bft) S-SW 197 ° 0 min 0,000 mm 0,0 UV-I 0 W/m² -2,7 °C -1,9 °C 0,0 km/h (0 Bft)
24.01.2018 02:23 -1,9 °C 94 % 1028,1 hPa 0,0 mm 0,3 km/h (0 Bft) S-SW 197 ° 0 min 0,000 mm 0,0 UV-I 0 W/m² -2,7 °C -1,9 °C 1,6 km/h (1 Bft)
24.01.2018 02:24 -1,9 °C 94 % 1028,1 hPa 0,0 mm 0,0 km/h (0 Bft) S-SW 197 ° 0 min 0,000 mm 0,0 UV-I 0 W/m² -2,7 °C -1,9 °C 0,0 km/h (0 Bft)
24.01.2018 02:25 -1,9 °C 94 % 1028,1 hPa 0,0 mm 0,0 km/h (0 Bft) S-SW 197 ° 0 min 0,000 mm 0,0 UV-I 0 W/m² -2,7 °C -1,9 °C 0,0 km/h (0 Bft)
24.01.2018 02:26 -1,9 °C 94 % 1028,1 hPa 0,0 mm 0,0 km/h (0 Bft) S-SW 197 ° 0 min 0,000 mm 0,0 UV-I 0 W/m² -2,7 °C -1,9 °C 0,0 km/h (0 Bft)
24.01.2018 02:27 -1,8 °C 94 % 1028,1 hPa 0,0 mm 0,0 km/h (0 Bft) S-SW 197 ° 0 min 0,000 mm 0,0 UV-I 0 W/m² -2,6 °C -1,8 °C 0,0 km/h (0 Bft)
24.01.2018 02:28 -1,8 °C 94 % 1028,1 hPa 0,0 mm 0,0 km/h (0 Bft) S-SW 197 ° 0 min 0,000 mm 0,0 UV-I 0 W/m² -2,6 °C -1,8 °C 0,0 km/h (0 Bft)
24.01.2018 02:29 -1,8 °C 94 % 1028,0 hPa 0,0 mm 0,0 km/h (0 Bft) S-SW 197 ° 0 min 0,000 mm 0,0 UV-I 0 W/m² -2,6 °C -1,8 °C 0,0 km/h (0 Bft)
24.01.2018 02:30 -1,8 °C 94 % 1028,0 hPa 0,0 mm 0,0 km/h (0 Bft) S-SW 197 ° 0 min 0,000 mm 0,0 UV-I 0 W/m² -2,6 °C -1,8 °C 0,0 km/h (0 Bft)
24.01.2018 02:31 -1,8 °C 94 % 1028,0 hPa 0,0 mm 0,0 km/h (0 Bft) S-SW 197 ° 0 min 0,000 mm 0,0 UV-I 0 W/m² -2,6 °C -1,8 °C 0,0 km/h (0 Bft)
24.01.2018 02:32 -1,7 °C 94 % 1028,0 hPa 0,0 mm 0,0 km/h (0 Bft) S-SW 197 ° 0 min 0,000 mm 0,0 UV-I 0 W/m² -2,5 °C -1,7 °C 0,0 km/h (0 Bft)
24.01.2018 02:33 -1,7 °C 94 % 1028,0 hPa 0,0 mm 0,0 km/h (0 Bft) S-SW 197 ° 0 min 0,000 mm 0,0 UV-I 0 W/m² -2,5 °C -1,7 °C 0,0 km/h (0 Bft)
24.01.2018 02:34 -1,7 °C 94 % 1028,0 hPa 0,0 mm 0,0 km/h (0 Bft) S-SW 197 ° 0 min 0,000 mm 0,0 UV-I 0 W/m² -2,5 °C -1,7 °C 0,0 km/h (0 Bft)
24.01.2018 02:35 -1,7 °C 94 % 1028,0 hPa 0,0 mm 0,0 km/h (0 Bft) S-SW 197 ° 0 min 0,000 mm 0,0 UV-I 0 W/m² -2,5 °C -1,7 °C 0,0 km/h (0 Bft)
24.01.2018 02:36 -1,6 °C 95 % 1027,9 hPa 0,0 mm 0,0 km/h (0 Bft) S-SW 197 ° 0 min 0,000 mm 0,0 UV-I 0 W/m² -2,3 °C -1,6 °C 0,0 km/h (0 Bft)
24.01.2018 02:37 -1,6 °C 95 % 1027,9 hPa 0,0 mm 0,0 km/h (0 Bft) S-SW 197 ° 0 min 0,000 mm 0,0 UV-I 0 W/m² -2,3 °C -1,6 °C 0,0 km/h (0 Bft)
24.01.2018 02:38 -1,6 °C 95 % 1027,9 hPa 0,0 mm 0,0 km/h (0 Bft) SW 234 ° 0 min 0,000 mm 0,0 UV-I 0 W/m² -2,3 °C -1,6 °C 0,0 km/h (0 Bft)
24.01.2018 02:39 -1,6 °C 95 % 1027,9 hPa 0,0 mm 0,0 km/h (0 Bft) S-SW 211 ° 0 min 0,000 mm 0,0 UV-I 0 W/m² -2,3 °C -1,6 °C 0,0 km/h (0 Bft)
24.01.2018 02:40 -1,6 °C 95 % 1027,9 hPa 0,0 mm 0,0 km/h (0 Bft) S-SW 211 ° 0 min 0,000 mm 0,0 UV-I 0 W/m² -2,3 °C -1,6 °C 0,0 km/h (0 Bft)
24.01.2018 02:41 -1,5 °C 95 % 1027,8 hPa 0,0 mm 0,0 km/h (0 Bft) S-SW 213 ° 0 min 0,000 mm 0,0 UV-I 0 W/m² -2,2 °C -1,5 °C 0,0 km/h (0 Bft)
24.01.2018 02:42 -1,5 °C 95 % 1027,8 hPa 0,0 mm 0,0 km/h (0 Bft) S-SW 213 ° 0 min 0,000 mm 0,0 UV-I 0 W/m² -2,2 °C -1,5 °C 0,0 km/h (0 Bft)
24.01.2018 02:43 -1,5 °C 94 % 1027,8 hPa 0,0 mm 0,0 km/h (0 Bft) S-SW 213 ° 0 min 0,000 mm 0,0 UV-I 0 W/m² -2,3 °C -1,5 °C 0,0 km/h (0 Bft)
24.01.2018 02:44 -1,4 °C 94 % 1027,8 hPa 0,0 mm 0,0 km/h (0 Bft) S-SW 213 ° 0 min 0,000 mm 0,0 UV-I 0 W/m² -2,2 °C -1,4 °C 0,0 km/h (0 Bft)
24.01.2018 02:45 -1,4 °C 94 % 1027,8 hPa 0,0 mm 0,0 km/h (0 Bft) S-SW 213 ° 0 min 0,000 mm 0,0 UV-I 0 W/m² -2,2 °C -1,4 °C 0,0 km/h (0 Bft)
24.01.2018 02:46 -1,4 °C 94 % 1027,8 hPa 0,0 mm 0,0 km/h (0 Bft) S-SW 213 ° 0 min 0,000 mm 0,0 UV-I 0 W/m² -2,2 °C -1,4 °C 0,0 km/h (0 Bft)
24.01.2018 02:47 -1,4 °C 94 % 1027,8 hPa 0,0 mm 0,0 km/h (0 Bft) S-SW 213 ° 0 min 0,000 mm 0,0 UV-I 0 W/m² -2,2 °C -1,4 °C 0,0 km/h (0 Bft)
24.01.2018 02:48 -1,4 °C 94 % 1027,8 hPa 0,0 mm 0,0 km/h (0 Bft) W 259 ° 0 min 0,000 mm 0,0 UV-I 0 W/m² -2,2 °C -1,4 °C 0,0 km/h (0 Bft)
24.01.2018 02:49 -1,4 °C 94 % 1027,8 hPa 0,0 mm 0,0 km/h (0 Bft) W 259 ° 0 min 0,000 mm 0,0 UV-I 0 W/m² -2,2 °C -1,4 °C 0,0 km/h (0 Bft)
24.01.2018 02:50 -1,4 °C 94 % 1027,8 hPa 0,0 mm 1,3 km/h (1 Bft) S-SW 204 ° 0 min 0,000 mm 0,0 UV-I 0 W/m² -2,2 °C -1,4 °C 6,4 km/h (2 Bft)
24.01.2018 02:51 -1,3 °C 94 % 1027,8 hPa 0,0 mm 0,6 km/h (0 Bft) S-SW 204 ° 0 min 0,000 mm 0,0 UV-I 0 W/m² -2,1 °C -1,3 °C 4,8 km/h (1 Bft)
24.01.2018 02:52 -1,3 °C 94 % 1027,7 hPa 0,0 mm 0,0 km/h (0 Bft) S-SW 204 ° 0 min 0,000 mm 0,0 UV-I 0 W/m² -2,1 °C -1,3 °C 0,0 km/h (0 Bft)
24.01.2018 02:53 -1,3 °C 94 % 1027,7 hPa 0,0 mm 2,5 km/h (1 Bft) W-NW 290 ° 0 min 0,000 mm 0,0 UV-I 0 W/m² -2,1 °C -1,3 °C 6,4 km/h (2 Bft)
24.01.2018 02:54 -1,3 °C 95 % 1027,7 hPa 0,0 mm 0,8 km/h (0 Bft) W-NW 290 ° 0 min 0,000 mm 0,0 UV-I 0 W/m² -2,0 °C -1,3 °C 3,2 km/h (1 Bft)
24.01.2018 02:55 -1,3 °C 95 % 1027,7 hPa 0,0 mm 4,9 km/h (1 Bft) N-NW 330 ° 0 min 0,000 mm 0,0 UV-I 0 W/m² -2,0 °C -3,0 °C 6,4 km/h (2 Bft)
24.01.2018 02:56 -1,2 °C 95 % 1027,6 hPa 0,0 mm 2,8 km/h (1 Bft) NW 308 ° 0 min 0,000 mm 0,0 UV-I 0 W/m² -1,9 °C -1,2 °C 6,4 km/h (2 Bft)
24.01.2018 02:57 -1,2 °C 95 % 1027,7 hPa 0,0 mm 3,9 km/h (1 Bft) NW 313 ° 0 min 0,000 mm 0,0 UV-I 0 W/m² -1,9 °C -1,2 °C 6,4 km/h (2 Bft)
24.01.2018 02:58 -1,2 °C 95 % 1027,6 hPa 0,0 mm 3,3 km/h (1 Bft) N-NW 329 ° 0 min 0,000 mm 0,0 UV-I 0 W/m² -1,9 °C -1,2 °C 4,8 km/h (1 Bft)
24.01.2018 02:59 -1,2 °C 95 % 1027,5 hPa 0,0 mm 1,1 km/h (1 Bft) N-NW 329 ° 0 min 0,000 mm 0,0 UV-I 0 W/m² -1,9 °C -1,2 °C 4,8 km/h (1 Bft)
24.01.2018 03:00 -1,1 °C 95 % 1027,5 hPa 0,0 mm 0,0 km/h (0 Bft) N-NW 329 ° 0 min 0,000 mm 0,0 UV-I 0 W/m² -1,8 °C -1,1 °C 0,0 km/h (0 Bft)
24.01.2018 03:01 -1,1 °C 95 % 1027,5 hPa 0,0 mm 0,0 km/h (0 Bft) N-NW 329 ° 0 min 0,000 mm 0,0 UV-I 0 W/m² -1,8 °C -1,1 °C 0,0 km/h (0 Bft)
24.01.2018 03:02 -1,1 °C 95 % 1027,5 hPa 0,0 mm 0,7 km/h (0 Bft) N-NW 329 ° 0 min 0,000 mm 0,0 UV-I 0 W/m² -1,8 °C -1,1 °C 1,6 km/h (1 Bft)
24.01.2018 03:03 -1,0 °C 95 % 1027,5 hPa 0,0 mm 0,1 km/h (0 Bft) N-NW 329 ° 0 min 0,000 mm 0,0 UV-I 0 W/m² -1,7 °C -1,0 °C 1,6 km/h (1 Bft)
24.01.2018 03:04 -1,0 °C 95 % 1027,5 hPa 0,0 mm 0,0 km/h (0 Bft) N-NW 329 ° 0 min 0,000 mm 0,0 UV-I 0 W/m² -1,7 °C -1,0 °C 0,0 km/h (0 Bft)
24.01.2018 03:05 -0,9 °C 95 % 1027,5 hPa 0,0 mm 0,0 km/h (0 Bft) N-NW 329 ° 0 min 0,000 mm 0,0 UV-I 0 W/m² -1,6 °C -0,9 °C 0,0 km/h (0 Bft)
24.01.2018 03:06 -0,9 °C 95 % 1027,5 hPa 0,0 mm 0,0 km/h (0 Bft) N-NW 329 ° 0 min 0,000 mm 0,0 UV-I 0 W/m² -1,6 °C -0,9 °C 0,0 km/h (0 Bft)
24.01.2018 03:07 -0,9 °C 95 % 1027,5 hPa 0,0 mm 0,0 km/h (0 Bft) N-NW 329 ° 0 min 0,000 mm 0,0 UV-I 0 W/m² -1,6 °C -0,9 °C 0,0 km/h (0 Bft)
24.01.2018 03:08 -0,9 °C 95 % 1027,5 hPa 0,0 mm 0,0 km/h (0 Bft) N-NW 329 ° 0 min 0,000 mm 0,0 UV-I 0 W/m² -1,6 °C -0,9 °C 0,0 km/h (0 Bft)
24.01.2018 03:09 -0,9 °C 95 % 1027,5 hPa 0,0 mm 0,0 km/h (0 Bft) N-NW 329 ° 0 min 0,000 mm 0,0 UV-I 0 W/m² -1,6 °C -0,9 °C 0,0 km/h (0 Bft)
24.01.2018 03:10 -0,8 °C 95 % 1027,5 hPa 0,0 mm 0,0 km/h (0 Bft) N-NW 329 ° 0 min 0,000 mm 0,0 UV-I 0 W/m² -1,5 °C -0,8 °C 0,0 km/h (0 Bft)
24.01.2018 03:11 -0,8 °C 95 % 1027,4 hPa 0,0 mm 0,0 km/h (0 Bft) N-NW 329 ° 0 min 0,000 mm 0,0 UV-I 0 W/m² -1,5 °C -0,8 °C 0,0 km/h (0 Bft)
24.01.2018 03:12 -0,8 °C 95 % 1027,5 hPa 0,0 mm 0,0 km/h (0 Bft) N-NW 329 ° 0 min 0,000 mm 0,0 UV-I 0 W/m² -1,5 °C -0,8 °C 0,0 km/h (0 Bft)
24.01.2018 03:13 -0,7 °C 95 % 1027,4 hPa 0,0 mm 0,0 km/h (0 Bft) N-NW 329 ° 0 min 0,000 mm 0,0 UV-I 0 W/m² -1,4 °C -0,7 °C 0,0 km/h (0 Bft)
24.01.2018 03:14 -0,7 °C 95 % 1027,5 hPa 0,0 mm 0,0 km/h (0 Bft) N-NW 329 ° 0 min 0,000 mm 0,0 UV-I 0 W/m² -1,4 °C -0,7 °C 0,0 km/h (0 Bft)
24.01.2018 03:15 -0,7 °C 95 % 1027,5 hPa 0,0 mm 0,0 km/h (0 Bft) N-NW 329 ° 0 min 0,000 mm 0,0 UV-I 0 W/m² -1,4 °C -0,7 °C 0,0 km/h (0 Bft)
24.01.2018 03:16 -0,7 °C 95 % 1027,4 hPa 0,0 mm 0,0 km/h (0 Bft) N-NW 329 ° 0 min 0,000 mm 0,0 UV-I 0 W/m² -1,4 °C -0,7 °C 0,0 km/h (0 Bft)
24.01.2018 03:17 -0,6 °C 95 % 1027,4 hPa 0,0 mm 0,0 km/h (0 Bft) N-NW 329 ° 0 min 0,000 mm 0,0 UV-I 0 W/m² -1,3 °C -0,6 °C 0,0 km/h (0 Bft)
24.01.2018 03:18 -0,6 °C 95 % 1027,4 hPa 0,0 mm 0,0 km/h (0 Bft) N-NW 329 ° 0 min 0,000 mm 0,0 UV-I 0 W/m² -1,3 °C -0,6 °C 0,0 km/h (0 Bft)
24.01.2018 03:19 -0,6 °C 95 % 1027,3 hPa 0,0 mm 0,0 km/h (0 Bft) N-NW 329 ° 0 min 0,000 mm 0,0 UV-I 0 W/m² -1,3 °C -0,6 °C 0,0 km/h (0 Bft)
24.01.2018 03:20 -0,6 °C 95 % 1027,3 hPa 0,0 mm 0,0 km/h (0 Bft) N-NW 329 ° 0 min 0,000 mm 0,0 UV-I 0 W/m² -1,3 °C -0,6 °C 0,0 km/h (0 Bft)
24.01.2018 03:21 -0,6 °C 95 % 1027,4 hPa 0,0 mm 1,1 km/h (1 Bft) N-NW 329 ° 0 min 0,000 mm 0,0 UV-I 0 W/m² -1,3 °C -0,6 °C 3,2 km/h (1 Bft)
24.01.2018 03:22 -0,5 °C 95 % 1027,4 hPa 0,0 mm 0,3 km/h (0 Bft) N-NW 329 ° 0 min 0,000 mm 0,0 UV-I 0 W/m² -1,2 °C -0,5 °C 1,6 km/h (1 Bft)
24.01.2018 03:23 -0,5 °C 95 % 1027,4 hPa 0,0 mm 0,0 km/h (0 Bft) N-NW 329 ° 0 min 0,000 mm 0,0 UV-I 0 W/m² -1,2 °C -0,5 °C 0,0 km/h (0 Bft)
24.01.2018 03:24 -0,4 °C 95 % 1027,4 hPa 0,0 mm 0,0 km/h (0 Bft) N-NW 329 ° 0 min 0,000 mm 0,0 UV-I 0 W/m² -1,1 °C -0,4 °C 0,0 km/h (0 Bft)
24.01.2018 03:25 -0,4 °C 95 % 1027,4 hPa 0,0 mm 0,0 km/h (0 Bft) N-NW 329 ° 0 min 0,000 mm 0,0 UV-I 0 W/m² -1,1 °C -0,4 °C 0,0 km/h (0 Bft)
24.01.2018 03:26 -0,4 °C 95 % 1027,4 hPa 0,0 mm 0,0 km/h (0 Bft) N-NW 329 ° 0 min 0,000 mm 0,0 UV-I 0 W/m² -1,1 °C -0,4 °C 0,0 km/h (0 Bft)
24.01.2018 03:27 -0,4 °C 95 % 1027,4 hPa 0,0 mm 0,0 km/h (0 Bft) N-NW 329 ° 0 min 0,000 mm 0,0 UV-I 0 W/m² -1,1 °C -0,4 °C 0,0 km/h (0 Bft)
24.01.2018 03:28 -0,4 °C 95 % 1027,4 hPa 0,0 mm 0,0 km/h (0 Bft) N-NW 329 ° 0 min 0,000 mm 0,0 UV-I 0 W/m² -1,1 °C -0,4 °C 0,0 km/h (0 Bft)
24.01.2018 03:29 -0,3 °C 95 % 1027,5 hPa 0,0 mm 0,0 km/h (0 Bft) N-NW 329 ° 0 min 0,000 mm 0,0 UV-I 0 W/m² -1,0 °C -0,3 °C 0,0 km/h (0 Bft)
24.01.2018 03:30 -0,3 °C 95 % 1027,5 hPa 0,0 mm 0,0 km/h (0 Bft) N-NW 329 ° 0 min 0,000 mm 0,0 UV-I 0 W/m² -1,0 °C -0,3 °C 0,0 km/h (0 Bft)
24.01.2018 03:31 -0,3 °C 95 % 1027,6 hPa 0,0 mm 0,0 km/h (0 Bft) N-NW 329 ° 0 min 0,000 mm 0,0 UV-I 0 W/m² -1,0 °C -0,3 °C 0,0 km/h (0 Bft)
24.01.2018 03:32 -0,3 °C 95 % 1027,5 hPa 0,0 mm 1,3 km/h (1 Bft) N-NW 329 ° 0 min 0,000 mm 0,0 UV-I 0 W/m² -1,0 °C -0,3 °C 3,2 km/h (1 Bft)
24.01.2018 03:33 -0,3 °C 95 % 1027,6 hPa 0,0 mm 3,0 km/h (1 Bft) W 263 ° 0 min 0,000 mm 0,0 UV-I 0 W/m² -1,0 °C -0,3 °C 3,2 km/h (1 Bft)
24.01.2018 03:34 -0,3 °C 95 % 1027,6 hPa 0,0 mm 0,9 km/h (0 Bft) W 263 ° 0 min 0,000 mm 0,0 UV-I 0 W/m² -1,0 °C -0,3 °C 3,2 km/h (1 Bft)
24.01.2018 03:35 -0,2 °C 95 % 1027,5 hPa 0,0 mm 0,0 km/h (0 Bft) W 263 ° 0 min 0,000 mm 0,0 UV-I 0 W/m² -0,9 °C -0,2 °C 0,0 km/h (0 Bft)
24.01.2018 03:36 -0,2 °C 95 % 1027,6 hPa 0,0 mm 0,0 km/h (0 Bft) W 263 ° 0 min 0,000 mm 0,0 UV-I 0 W/m² -0,9 °C -0,2 °C 0,0 km/h (0 Bft)
24.01.2018 03:37 -0,2 °C 95 % 1027,5 hPa 0,0 mm 0,0 km/h (0 Bft) W 263 ° 0 min 0,000 mm 0,0 UV-I 0 W/m² -0,9 °C -0,2 °C 0,0 km/h (0 Bft)
24.01.2018 03:38 -0,2 °C 95 % 1027,5 hPa 0,0 mm 0,0 km/h (0 Bft) W 263 ° 0 min 0,000 mm 0,0 UV-I 0 W/m² -0,9 °C -0,2 °C 0,0 km/h (0 Bft)
24.01.2018 03:39 -0,2 °C 95 % 1027,5 hPa 0,0 mm 0,0 km/h (0 Bft) W 263 ° 0 min 0,000 mm 0,0 UV-I 0 W/m² -0,9 °C -0,2 °C 0,0 km/h (0 Bft)
24.01.2018 03:40 -0,2 °C 95 % 1027,5 hPa 0,0 mm 0,0 km/h (0 Bft) W 263 ° 0 min 0,000 mm 0,0 UV-I 0 W/m² -0,9 °C -0,2 °C 0,0 km/h (0 Bft)
24.01.2018 03:41 -0,2 °C 95 % 1027,5 hPa 0,0 mm 0,0 km/h (0 Bft) W 263 ° 0 min 0,000 mm 0,0 UV-I 0 W/m² -0,9 °C -0,2 °C 0,0 km/h (0 Bft)
24.01.2018 03:42 -0,2 °C 95 % 1027,5 hPa 0,0 mm 0,0 km/h (0 Bft) W 263 ° 0 min 0,000 mm 0,0 UV-I 0 W/m² -0,9 °C -0,2 °C 0,0 km/h (0 Bft)
24.01.2018 03:43 -0,1 °C 95 % 1027,4 hPa 0,0 mm 0,0 km/h (0 Bft) W 263 ° 0 min 0,000 mm 0,0 UV-I 0 W/m² -0,8 °C -0,1 °C 0,0 km/h (0 Bft)
24.01.2018 03:44 -0,2 °C 95 % 1027,5 hPa 0,0 mm 0,0 km/h (0 Bft) W 263 ° 0 min 0,000 mm 0,0 UV-I 0 W/m² -0,9 °C -0,2 °C 0,0 km/h (0 Bft)
24.01.2018 03:45 -0,2 °C 95 % 1027,5 hPa 0,0 mm 0,0 km/h (0 Bft) W 263 ° 0 min 0,000 mm 0,0 UV-I 0 W/m² -0,9 °C -0,2 °C 0,0 km/h (0 Bft)
24.01.2018 03:46 -0,2 °C 95 % 1027,5 hPa 0,0 mm 0,1 km/h (0 Bft) W 263 ° 0 min 0,000 mm 0,0 UV-I 0 W/m² -0,9 °C -0,2 °C 1,6 km/h (1 Bft)
24.01.2018 03:47 -0,1 °C 95 % 1027,5 hPa 0,0 mm 0,0 km/h (0 Bft) W 263 ° 0 min 0,000 mm 0,0 UV-I 0 W/m² -0,8 °C -0,1 °C 0,0 km/h (0 Bft)
24.01.2018 03:48 -0,1 °C 95 % 1027,5 hPa 0,0 mm 0,0 km/h (0 Bft) W 263 ° 0 min 0,000 mm 0,0 UV-I 0 W/m² -0,8 °C -0,1 °C 0,0 km/h (0 Bft)
24.01.2018 03:49 -0,1 °C 95 % 1027,5 hPa 0,0 mm 1,7 km/h (1 Bft) W-NW 290 ° 0 min 0,000 mm 0,0 UV-I 0 W/m² -0,8 °C -0,1 °C 4,8 km/h (1 Bft)
24.01.2018 03:50 -0,1 °C 95 % 1027,4 hPa 0,0 mm 0,2 km/h (0 Bft) W-NW 290 ° 0 min 0,000 mm 0,0 UV-I 0 W/m² -0,8 °C -0,1 °C 1,6 km/h (1 Bft)
24.01.2018 03:51 -0,1 °C 95 % 1027,4 hPa 0,0 mm 0,0 km/h (0 Bft) W-NW 290 ° 0 min 0,000 mm 0,0 UV-I 0 W/m² -0,8 °C -0,1 °C 0,0 km/h (0 Bft)
24.01.2018 03:52 -0,1 °C 95 % 1027,4 hPa 0,0 mm 0,3 km/h (0 Bft) W-NW 290 ° 0 min 0,000 mm 0,0 UV-I 0 W/m² -0,8 °C -0,1 °C 1,6 km/h (1 Bft)
24.01.2018 03:53 -0,1 °C 95 % 1027,5 hPa 0,0 mm 0,2 km/h (0 Bft) W-NW 290 ° 0 min 0,000 mm 0,0 UV-I 0 W/m² -0,8 °C -0,1 °C 1,6 km/h (1 Bft)
24.01.2018 03:54 -0,1 °C 95 % 1027,5 hPa 0,0 mm 0,0 km/h (0 Bft) W-NW 290 ° 0 min 0,000 mm 0,0 UV-I 0 W/m² -0,8 °C -0,1 °C 0,0 km/h (0 Bft)
24.01.2018 03:55 -0,1 °C 95 % 1027,5 hPa 0,0 mm 0,0 km/h (0 Bft) W-NW 290 ° 0 min 0,000 mm 0,0 UV-I 0 W/m² -0,8 °C -0,1 °C 0,0 km/h (0 Bft)
24.01.2018 03:56 -0,1 °C 95 % 1027,6 hPa 0,0 mm 0,3 km/h (0 Bft) W-NW 290 ° 0 min 0,000 mm 0,0 UV-I 0 W/m² -0,8 °C -0,1 °C 1,6 km/h (1 Bft)
24.01.2018 03:57 -0,1 °C 95 % 1027,6 hPa 0,0 mm 0,0 km/h (0 Bft) W-NW 290 ° 0 min 0,000 mm 0,0 UV-I 0 W/m² -0,8 °C -0,1 °C 0,0 km/h (0 Bft)
24.01.2018 03:58 -0,1 °C 95 % 1027,6 hPa 0,0 mm 0,0 km/h (0 Bft) W-NW 290 ° 0 min 0,000 mm 0,0 UV-I 0 W/m² -0,8 °C -0,1 °C 0,0 km/h (0 Bft)
24.01.2018 03:59 -0,1 °C 95 % 1027,7 hPa 0,0 mm 0,0 km/h (0 Bft) W-NW 290 ° 0 min 0,000 mm 0,0 UV-I 0 W/m² -0,8 °C -0,1 °C 0,0 km/h (0 Bft)
24.01.2018 04:00 -0,1 °C 95 % 1027,6 hPa 0,0 mm 0,8 km/h (0 Bft) W-NW 290 ° 0 min 0,000 mm 0,0 UV-I 0 W/m² -0,8 °C -0,1 °C 1,6 km/h (1 Bft)
24.01.2018 04:01 -0,1 °C 95 % 1027,6 hPa 0,0 mm 0,1 km/h (0 Bft) W-NW 290 ° 0 min 0,000 mm 0,0 UV-I 0 W/m² -0,8 °C -0,1 °C 1,6 km/h (1 Bft)
24.01.2018 04:02 -0,1 °C 95 % 1027,6 hPa 0,0 mm 0,9 km/h (0 Bft) W-SW 251 ° 0 min 0,000 mm 0,0 UV-I 0 W/m² -0,8 °C -0,1 °C 3,2 km/h (1 Bft)
24.01.2018 04:03 -0,1 °C 95 % 1027,7 hPa 0,0 mm 0,3 km/h (0 Bft) W-SW 251 ° 0 min 0,000 mm 0,0 UV-I 0 W/m² -0,8 °C -0,1 °C 1,6 km/h (1 Bft)
24.01.2018 04:04 -0,1 °C 95 % 1027,6 hPa 0,0 mm 0,0 km/h (0 Bft) W-SW 250 ° 0 min 0,000 mm 0,0 UV-I 0 W/m² -0,8 °C -0,1 °C 0,0 km/h (0 Bft)
24.01.2018 04:05 0,0 °C 95 % 1027,7 hPa 0,0 mm 0,0 km/h (0 Bft) W-SW 250 ° 0 min 0,000 mm 0,0 UV-I 0 W/m² -0,7 °C 0,0 °C 0,0 km/h (0 Bft)
24.01.2018 04:06 0,0 °C 95 % 1027,7 hPa 0,0 mm 0,0 km/h (0 Bft) W-SW 251 ° 0 min 0,000 mm 0,0 UV-I 0 W/m² -0,7 °C 0,0 °C 0,0 km/h (0 Bft)
24.01.2018 04:07 0,0 °C 95 % 1027,7 hPa 0,0 mm 0,0 km/h (0 Bft) W-SW 251 ° 0 min 0,000 mm 0,0 UV-I 0 W/m² -0,7 °C 0,0 °C 0,0 km/h (0 Bft)
24.01.2018 04:08 0,0 °C 95 % 1027,7 hPa 0,0 mm 0,0 km/h (0 Bft) W-SW 251 ° 0 min 0,000 mm 0,0 UV-I 0 W/m² -0,7 °C 0,0 °C 0,0 km/h (0 Bft)
24.01.2018 04:09 0,0 °C 95 % 1027,8 hPa 0,0 mm 0,0 km/h (0 Bft) W-SW 250 ° 0 min 0,000 mm 0,0 UV-I 0 W/m² -0,7 °C 0,0 °C 0,0 km/h (0 Bft)
24.01.2018 04:10 0,0 °C 95 % 1027,7 hPa 0,0 mm 0,0 km/h (0 Bft) W-SW 250 ° 0 min 0,000 mm 0,0 UV-I 0 W/m² -0,7 °C 0,0 °C 0,0 km/h (0 Bft)
24.01.2018 04:11 0,0 °C 95 % 1027,7 hPa 0,0 mm 0,0 km/h (0 Bft) W-SW 251 ° 0 min 0,000 mm 0,0 UV-I 0 W/m² -0,7 °C 0,0 °C 0,0 km/h (0 Bft)
24.01.2018 04:12 0,0 °C 95 % 1027,7 hPa 0,0 mm 0,0 km/h (0 Bft) W-SW 251 ° 0 min 0,000 mm 0,0 UV-I 0 W/m² -0,7 °C 0,0 °C 0,0 km/h (0 Bft)
24.01.2018 04:13 0,1 °C 95 % 1027,7 hPa 0,0 mm 0,0 km/h (0 Bft) W-SW 251 ° 0 min 0,000 mm 0,0 UV-I 0 W/m² -0,6 °C 0,1 °C 0,0 km/h (0 Bft)
24.01.2018 04:14 0,1 °C 95 % 1027,7 hPa 0,0 mm 0,0 km/h (0 Bft) W-SW 251 ° 0 min 0,000 mm 0,0 UV-I 0 W/m² -0,6 °C 0,1 °C 0,0 km/h (0 Bft)
24.01.2018 04:15 0,1 °C 95 % 1027,7 hPa 0,0 mm 0,0 km/h (0 Bft) W-SW 251 ° 0 min 0,000 mm 0,0 UV-I 0 W/m² -0,6 °C 0,1 °C 0,0 km/h (0 Bft)
24.01.2018 04:16 0,1 °C 95 % 1027,8 hPa 0,0 mm 0,0 km/h (0 Bft) W-SW 250 ° 0 min 0,000 mm 0,0 UV-I 0 W/m² -0,6 °C 0,1 °C 0,0 km/h (0 Bft)
24.01.2018 04:17 0,1 °C 95 % 1027,7 hPa 0,0 mm 0,0 km/h (0 Bft) W-SW 251 ° 0 min 0,000 mm 0,0 UV-I 0 W/m² -0,6 °C 0,1 °C 0,0 km/h (0 Bft)
24.01.2018 04:18 0,1 °C 95 % 1027,7 hPa 0,0 mm 0,0 km/h (0 Bft) W-SW 251 ° 0 min 0,000 mm 0,0 UV-I 0 W/m² -0,6 °C 0,1 °C 0,0 km/h (0 Bft)
24.01.2018 04:19 0,1 °C 95 % 1027,7 hPa 0,0 mm 0,0 km/h (0 Bft) W-SW 251 ° 0 min 0,000 mm 0,0 UV-I 0 W/m² -0,6 °C 0,1 °C 0,0 km/h (0 Bft)
24.01.2018 04:20 0,1 °C 95 % 1027,6 hPa 0,0 mm 0,0 km/h (0 Bft) W-SW 251 ° 0 min 0,000 mm 0,0 UV-I 0 W/m² -0,6 °C 0,1 °C 0,0 km/h (0 Bft)
24.01.2018 04:21 0,1 °C 95 % 1027,6 hPa 0,0 mm 0,0 km/h (0 Bft) W-SW 250 ° 0 min 0,000 mm 0,0 UV-I 0 W/m² -0,6 °C 0,1 °C 0,0 km/h (0 Bft)
24.01.2018 04:22 0,1 °C 95 % 1027,7 hPa 0,0 mm 0,0 km/h (0 Bft) W-SW 251 ° 0 min 0,000 mm 0,0 UV-I 0 W/m² -0,6 °C 0,1 °C 0,0 km/h (0 Bft)
24.01.2018 04:23 0,1 °C 95 % 1027,7 hPa 0,0 mm 0,0 km/h (0 Bft) W-SW 251 ° 0 min 0,000 mm 0,0 UV-I 0 W/m² -0,6 °C 0,1 °C 0,0 km/h (0 Bft)
24.01.2018 04:24 0,2 °C 95 % 1027,7 hPa 0,0 mm 2,2 km/h (1 Bft) W-NW 287 ° 0 min 0,000 mm 0,0 UV-I 0 W/m² -0,5 °C 0,2 °C 4,8 km/h (1 Bft)
24.01.2018 04:25 0,1 °C 95 % 1027,7 hPa 0,0 mm 0,1 km/h (0 Bft) W-NW 287 ° 0 min 0,000 mm 0,0 UV-I 0 W/m² -0,6 °C 0,1 °C 1,6 km/h (1 Bft)
24.01.2018 04:26 0,2 °C 95 % 1027,7 hPa 0,0 mm 2,1 km/h (1 Bft) SW 222 ° 0 min 0,000 mm 0,0 UV-I 0 W/m² -0,5 °C 0,2 °C 4,8 km/h (1 Bft)
24.01.2018 04:27 0,2 °C 95 % 1027,6 hPa 0,0 mm 1,0 km/h (0 Bft) SW 220 ° 0 min 0,000 mm 0,0 UV-I 0 W/m² -0,5 °C 0,2 °C 3,2 km/h (1 Bft)
24.01.2018 04:28 0,2 °C 95 % 1027,6 hPa 0,0 mm 0,1 km/h (0 Bft) SW 220 ° 0 min 0,000 mm 0,0 UV-I 0 W/m² -0,5 °C 0,2 °C 1,6 km/h (1 Bft)
24.01.2018 04:29 0,2 °C 95 % 1027,7 hPa 0,0 mm 0,0 km/h (0 Bft) SW 220 ° 0 min 0,000 mm 0,0 UV-I 0 W/m² -0,5 °C 0,2 °C 0,0 km/h (0 Bft)
24.01.2018 04:30 0,2 °C 95 % 1027,6 hPa 0,0 mm 0,0 km/h (0 Bft) SW 220 ° 0 min 0,000 mm 0,0 UV-I 0 W/m² -0,5 °C 0,2 °C 0,0 km/h (0 Bft)
24.01.2018 04:31 0,2 °C 95 % 1027,7 hPa 0,0 mm 0,0 km/h (0 Bft) SW 220 ° 0 min 0,000 mm 0,0 UV-I 0 W/m² -0,5 °C 0,2 °C 0,0 km/h (0 Bft)
24.01.2018 04:32 0,2 °C 95 % 1027,7 hPa 0,0 mm 0,0 km/h (0 Bft) SW 220 ° 0 min 0,000 mm 0,0 UV-I 0 W/m² -0,5 °C 0,2 °C 0,0 km/h (0 Bft)
24.01.2018 04:33 0,2 °C 95 % 1027,6 hPa 0,0 mm 0,0 km/h (0 Bft) SW 220 ° 0 min 0,000 mm 0,0 UV-I 0 W/m² -0,5 °C 0,2 °C 0,0 km/h (0 Bft)
24.01.2018 04:34 0,2 °C 95 % 1027,6 hPa 0,0 mm 0,0 km/h (0 Bft) SW 220 ° 0 min 0,000 mm 0,0 UV-I 0 W/m² -0,5 °C 0,2 °C 0,0 km/h (0 Bft)
24.01.2018 04:35 0,2 °C 95 % 1027,7 hPa 0,0 mm 0,0 km/h (0 Bft) SW 220 ° 0 min 0,000 mm 0,0 UV-I 0 W/m² -0,5 °C 0,2 °C 0,0 km/h (0 Bft)
24.01.2018 04:36 0,2 °C 95 % 1027,7 hPa 0,0 mm 0,0 km/h (0 Bft) SW 220 ° 0 min 0,000 mm 0,0 UV-I 0 W/m² -0,5 °C 0,2 °C 0,0 km/h (0 Bft)
24.01.2018 04:37 0,2 °C 95 % 1027,6 hPa 0,0 mm 0,0 km/h (0 Bft) SW 220 ° 0 min 0,000 mm 0,0 UV-I 0 W/m² -0,5 °C 0,2 °C 0,0 km/h (0 Bft)
24.01.2018 04:38 0,2 °C 95 % 1027,6 hPa 0,0 mm 0,0 km/h (0 Bft) SW 220 ° 0 min 0,000 mm 0,0 UV-I 0 W/m² -0,5 °C 0,2 °C 0,0 km/h (0 Bft)
24.01.2018 04:39 0,2 °C 95 % 1027,6 hPa 0,0 mm 0,6 km/h (0 Bft) SW 220 ° 0 min 0,000 mm 0,0 UV-I 0 W/m² -0,5 °C 0,2 °C 1,6 km/h (1 Bft)
24.01.2018 04:40 0,3 °C 95 % 1027,6 hPa 0,0 mm 5,5 km/h (1 Bft) SW 225 ° 0 min 0,000 mm 0,0 UV-I 0 W/m² -0,4 °C -1,5 °C 8,0 km/h (2 Bft)
24.01.2018 04:41 0,3 °C 95 % 1027,6 hPa 0,0 mm 4,2 km/h (1 Bft) S-SW 209 ° 0 min 0,000 mm 0,0 UV-I 0 W/m² -0,4 °C 0,3 °C 9,7 km/h (2 Bft)
24.01.2018 04:42 0,3 °C 95 % 1027,6 hPa 0,0 mm 3,2 km/h (1 Bft) S-SW 209 ° 0 min 0,000 mm 0,0 UV-I 0 W/m² -0,4 °C 0,3 °C 4,8 km/h (1 Bft)
24.01.2018 04:43 0,3 °C 95 % 1027,6 hPa 0,0 mm 1,8 km/h (1 Bft) W-SW 252 ° 0 min 0,000 mm 0,0 UV-I 0 W/m² -0,4 °C 0,3 °C 4,8 km/h (1 Bft)
24.01.2018 04:44 0,4 °C 95 % 1027,6 hPa 0,0 mm 3,9 km/h (1 Bft) SW 220 ° 0 min 0,000 mm 0,0 UV-I 0 W/m² -0,3 °C 0,4 °C 6,4 km/h (2 Bft)
24.01.2018 04:45 0,5 °C 95 % 1027,6 hPa 0,0 mm 6,4 km/h (2 Bft) S 183 ° 0 min 0,000 mm 0,0 UV-I 0 W/m² -0,2 °C -1,6 °C 9,7 km/h (2 Bft)
24.01.2018 04:46 0,5 °C 95 % 1027,6 hPa 0,0 mm 0,6 km/h (0 Bft) S 183 ° 0 min 0,000 mm 0,0 UV-I 0 W/m² -0,2 °C 0,5 °C 4,8 km/h (1 Bft)
24.01.2018 04:47 0,6 °C 95 % 1027,6 hPa 0,0 mm 0,2 km/h (0 Bft) S 183 ° 0 min 0,000 mm 0,0 UV-I 0 W/m² -0,1 °C 0,6 °C 1,6 km/h (1 Bft)
24.01.2018 04:48 0,6 °C 95 % 1027,6 hPa 0,0 mm 0,0 km/h (0 Bft) S 183 ° 0 min 0,000 mm 0,0 UV-I 0 W/m² -0,1 °C 0,6 °C 0,0 km/h (0 Bft)
24.01.2018 04:49 0,6 °C 95 % 1027,6 hPa 0,0 mm 0,0 km/h (0 Bft) S 183 ° 0 min 0,000 mm 0,0 UV-I 0 W/m² -0,1 °C 0,6 °C 0,0 km/h (0 Bft)
24.01.2018 04:50 0,7 °C 95 % 1027,6 hPa 0,0 mm 0,0 km/h (0 Bft) S 183 ° 0 min 0,000 mm 0,0 UV-I 0 W/m² -0,0 °C 0,7 °C 0,0 km/h (0 Bft)
24.01.2018 04:51 0,7 °C 95 % 1027,6 hPa 0,0 mm 0,0 km/h (0 Bft) S 183 ° 0 min 0,000 mm 0,0 UV-I 0 W/m² -0,0 °C 0,7 °C 0,0 km/h (0 Bft)
24.01.2018 04:52 0,7 °C 95 % 1027,6 hPa 0,0 mm 0,0 km/h (0 Bft) S 183 ° 0 min 0,000 mm 0,0 UV-I 0 W/m² -0,0 °C 0,7 °C 0,0 km/h (0 Bft)
24.01.2018 04:53 0,7 °C 95 % 1027,6 hPa 0,0 mm 0,0 km/h (0 Bft) S 183 ° 0 min 0,000 mm 0,0 UV-I 0 W/m² -0,0 °C 0,7 °C 0,0 km/h (0 Bft)
24.01.2018 04:54 0,7 °C 95 % 1027,6 hPa 0,0 mm 0,0 km/h (0 Bft) S 183 ° 0 min 0,000 mm 0,0 UV-I 0 W/m² -0,0 °C 0,7 °C 0,0 km/h (0 Bft)
24.01.2018 04:55 0,7 °C 95 % 1027,7 hPa 0,0 mm 0,0 km/h (0 Bft) S 183 ° 0 min 0,000 mm 0,0 UV-I 0 W/m² -0,0 °C 0,7 °C 0,0 km/h (0 Bft)
24.01.2018 04:56 0,7 °C 95 % 1027,7 hPa 0,0 mm 0,0 km/h (0 Bft) S 183 ° 0 min 0,000 mm 0,0 UV-I 0 W/m² -0,0 °C 0,7 °C 0,0 km/h (0 Bft)
24.01.2018 04:57 0,7 °C 95 % 1027,7 hPa 0,0 mm 0,0 km/h (0 Bft) S 183 ° 0 min 0,000 mm 0,0 UV-I 0 W/m² -0,0 °C 0,7 °C 0,0 km/h (0 Bft)
24.01.2018 04:58 0,8 °C 95 % 1027,6 hPa 0,0 mm 0,0 km/h (0 Bft) S 183 ° 0 min 0,000 mm 0,0 UV-I 0 W/m² 0,1 °C 0,8 °C 0,0 km/h (0 Bft)
24.01.2018 04:59 0,8 °C 95 % 1027,6 hPa 0,0 mm 0,0 km/h (0 Bft) S 183 ° 0 min 0,000 mm 0,0 UV-I 0 W/m² 0,1 °C 0,8 °C 0,0 km/h (0 Bft)
24.01.2018 05:00 0,8 °C 95 % 1027,6 hPa 0,0 mm 0,0 km/h (0 Bft) S 183 ° 0 min 0,000 mm 0,0 UV-I 0 W/m² 0,1 °C 0,8 °C 0,0 km/h (0 Bft)
24.01.2018 05:01 0,8 °C 95 % 1027,6 hPa 0,0 mm 0,0 km/h (0 Bft) S 183 ° 0 min 0,000 mm 0,0 UV-I 0 W/m² 0,1 °C 0,8 °C 0,0 km/h (0 Bft)
24.01.2018 05:02 0,8 °C 95 % 1027,6 hPa 0,0 mm 0,0 km/h (0 Bft) S 183 ° 0 min 0,000 mm 0,0 UV-I 0 W/m² 0,1 °C 0,8 °C 0,0 km/h (0 Bft)
24.01.2018 05:03 0,8 °C 95 % 1027,6 hPa 0,0 mm 0,0 km/h (0 Bft) S 183 ° 0 min 0,000 mm 0,0 UV-I 0 W/m² 0,1 °C 0,8 °C 0,0 km/h (0 Bft)
24.01.2018 05:04 0,8 °C 95 % 1027,5 hPa 0,0 mm 0,0 km/h (0 Bft) S 183 ° 0 min 0,000 mm 0,0 UV-I 0 W/m² 0,1 °C 0,8 °C 0,0 km/h (0 Bft)
24.01.2018 05:05 0,8 °C 95 % 1027,5 hPa 0,0 mm 0,0 km/h (0 Bft) S 183 ° 0 min 0,000 mm 0,0 UV-I 0 W/m² 0,1 °C 0,8 °C 0,0 km/h (0 Bft)
24.01.2018 05:06 0,8 °C 95 % 1027,6 hPa 0,0 mm 0,0 km/h (0 Bft) S 183 ° 0 min 0,000 mm 0,0 UV-I 0 W/m² 0,1 °C 0,8 °C 0,0 km/h (0 Bft)
24.01.2018 05:07 0,8 °C 95 % 1027,6 hPa 0,0 mm 0,0 km/h (0 Bft) S 183 ° 0 min 0,000 mm 0,0 UV-I 0 W/m² 0,1 °C 0,8 °C 0,0 km/h (0 Bft)
24.01.2018 05:08 0,8 °C 95 % 1027,5 hPa 0,0 mm 0,0 km/h (0 Bft) S 183 ° 0 min 0,000 mm 0,0 UV-I 0 W/m² 0,1 °C 0,8 °C 0,0 km/h (0 Bft)
24.01.2018 05:09 0,8 °C 95 % 1027,5 hPa 0,0 mm 0,0 km/h (0 Bft) S 183 ° 0 min 0,000 mm 0,0 UV-I 0 W/m² 0,1 °C 0,8 °C 0,0 km/h (0 Bft)
24.01.2018 05:10 0,8 °C 95 % 1027,5 hPa 0,0 mm 0,0 km/h (0 Bft) S 183 ° 0 min 0,000 mm 0,0 UV-I 0 W/m² 0,1 °C 0,8 °C 0,0 km/h (0 Bft)
24.01.2018 05:11 0,8 °C 95 % 1027,5 hPa 0,0 mm 0,0 km/h (0 Bft) S 183 ° 0 min 0,000 mm 0,0 UV-I 0 W/m² 0,1 °C 0,8 °C 0,0 km/h (0 Bft)
24.01.2018 05:12 0,8 °C 95 % 1027,5 hPa 0,0 mm 0,0 km/h (0 Bft) S 183 ° 0 min 0,000 mm 0,0 UV-I 0 W/m² 0,1 °C 0,8 °C 0,0 km/h (0 Bft)
24.01.2018 05:13 0,8 °C 95 % 1027,5 hPa 0,0 mm 0,0 km/h (0 Bft) S 183 ° 0 min 0,000 mm 0,0 UV-I 0 W/m² 0,1 °C 0,8 °C 0,0 km/h (0 Bft)
24.01.2018 05:14 0,8 °C 95 % 1027,5 hPa 0,0 mm 0,0 km/h (0 Bft) S 183 ° 0 min 0,000 mm 0,0 UV-I 0 W/m² 0,1 °C 0,8 °C 0,0 km/h (0 Bft)
24.01.2018 05:15 0,8 °C 95 % 1027,5 hPa 0,0 mm 0,0 km/h (0 Bft) S 183 ° 0 min 0,000 mm 0,0 UV-I 0 W/m² 0,1 °C 0,8 °C 0,0 km/h (0 Bft)
24.01.2018 05:16 0,8 °C 95 % 1027,5 hPa 0,0 mm 0,0 km/h (0 Bft) S 183 ° 0 min 0,000 mm 0,0 UV-I 0 W/m² 0,1 °C 0,8 °C 0,0 km/h (0 Bft)
24.01.2018 05:17 0,8 °C 95 % 1027,5 hPa 0,0 mm 0,0 km/h (0 Bft) S 183 ° 0 min 0,000 mm 0,0 UV-I 0 W/m² 0,1 °C 0,8 °C 0,0 km/h (0 Bft)
24.01.2018 05:18 0,8 °C 95 % 1027,5 hPa 0,0 mm 1,1 km/h (1 Bft) W-NW 294 ° 0 min 0,000 mm 0,0 UV-I 0 W/m² 0,1 °C 0,8 °C 3,2 km/h (1 Bft)
24.01.2018 05:19 0,8 °C 95 % 1027,6 hPa 0,0 mm 1,1 km/h (1 Bft) W-NW 294 ° 0 min 0,000 mm 0,0 UV-I 0 W/m² 0,1 °C 0,8 °C 3,2 km/h (1 Bft)
24.01.2018 05:20 0,8 °C 95 % 1027,6 hPa 0,0 mm 0,0 km/h (0 Bft) W-NW 294 ° 0 min 0,000 mm 0,0 UV-I 0 W/m² 0,1 °C 0,8 °C 0,0 km/h (0 Bft)
24.01.2018 05:21 0,8 °C 95 % 1027,6 hPa 0,0 mm 0,0 km/h (0 Bft) W-NW 294 ° 0 min 0,000 mm 0,0 UV-I 0 W/m² 0,1 °C 0,8 °C 0,0 km/h (0 Bft)
24.01.2018 05:22 0,8 °C 95 % 1027,6 hPa 0,0 mm 0,0 km/h (0 Bft) W-NW 294 ° 0 min 0,000 mm 0,0 UV-I 0 W/m² 0,1 °C 0,8 °C 0,0 km/h (0 Bft)
24.01.2018 05:23 0,8 °C 95 % 1027,6 hPa 0,0 mm 0,0 km/h (0 Bft) W-NW 294 ° 0 min 0,000 mm 0,0 UV-I 0 W/m² 0,1 °C 0,8 °C 0,0 km/h (0 Bft)
24.01.2018 05:24 0,8 °C 95 % 1027,6 hPa 0,0 mm 0,0 km/h (0 Bft) W-NW 294 ° 0 min 0,000 mm 0,0 UV-I 0 W/m² 0,1 °C 0,8 °C 0,0 km/h (0 Bft)
24.01.2018 05:25 0,8 °C 95 % 1027,6 hPa 0,0 mm 0,0 km/h (0 Bft) W-NW 294 ° 0 min 0,000 mm 0,0 UV-I 0 W/m² 0,1 °C 0,8 °C 0,0 km/h (0 Bft)
24.01.2018 05:26 0,8 °C 95 % 1027,6 hPa 0,0 mm 0,0 km/h (0 Bft) W-NW 294 ° 0 min 0,000 mm 0,0 UV-I 0 W/m² 0,1 °C 0,8 °C 0,0 km/h (0 Bft)
24.01.2018 05:27 0,8 °C 95 % 1027,6 hPa 0,0 mm 0,0 km/h (0 Bft) W-NW 294 ° 0 min 0,000 mm 0,0 UV-I 0 W/m² 0,1 °C 0,8 °C 0,0 km/h (0 Bft)
24.01.2018 05:28 0,8 °C 95 % 1027,6 hPa 0,0 mm 0,1 km/h (0 Bft) W-NW 294 ° 0 min 0,000 mm 0,0 UV-I 0 W/m² 0,1 °C 0,8 °C 1,6 km/h (1 Bft)
24.01.2018 05:29 0,9 °C 95 % 1027,6 hPa 0,0 mm 0,5 km/h (0 Bft) W-NW 294 ° 0 min 0,000 mm 0,0 UV-I 0 W/m² 0,2 °C 0,9 °C 1,6 km/h (1 Bft)
24.01.2018 05:30 0,8 °C 95 % 1027,6 hPa 0,0 mm 0,0 km/h (0 Bft) W-NW 294 ° 0 min 0,000 mm 0,0 UV-I 0 W/m² 0,1 °C 0,8 °C 0,0 km/h (0 Bft)
24.01.2018 05:31 0,8 °C 95 % 1027,7 hPa 0,0 mm 0,0 km/h (0 Bft) W-NW 294 ° 0 min 0,000 mm 0,0 UV-I 0 W/m² 0,1 °C 0,8 °C 0,0 km/h (0 Bft)
24.01.2018 05:32 0,9 °C 95 % 1027,7 hPa 0,0 mm 0,0 km/h (0 Bft) W-NW 294 ° 0 min 0,000 mm 0,0 UV-I 0 W/m² 0,2 °C 0,9 °C 0,0 km/h (0 Bft)
24.01.2018 05:33 0,8 °C 95 % 1027,7 hPa 0,0 mm 0,0 km/h (0 Bft) W-NW 294 ° 0 min 0,000 mm 0,0 UV-I 0 W/m² 0,1 °C 0,8 °C 0,0 km/h (0 Bft)
24.01.2018 05:34 0,9 °C 95 % 1027,7 hPa 0,0 mm 1,0 km/h (0 Bft) W-NW 294 ° 0 min 0,000 mm 0,0 UV-I 0 W/m² 0,2 °C 0,9 °C 1,6 km/h (1 Bft)
24.01.2018 05:35 0,9 °C 95 % 1027,8 hPa 0,0 mm 0,0 km/h (0 Bft) W-NW 294 ° 0 min 0,000 mm 0,0 UV-I 0 W/m² 0,2 °C 0,9 °C 0,0 km/h (0 Bft)
24.01.2018 05:36 0,9 °C 95 % 1027,7 hPa 0,0 mm 0,0 km/h (0 Bft) W-NW 294 ° 0 min 0,000 mm 0,0 UV-I 0 W/m² 0,2 °C 0,9 °C 0,0 km/h (0 Bft)
24.01.2018 05:37 0,9 °C 95 % 1027,7 hPa 0,0 mm 0,0 km/h (0 Bft) W-NW 294 ° 0 min 0,000 mm 0,0 UV-I 0 W/m² 0,2 °C 0,9 °C 0,0 km/h (0 Bft)
24.01.2018 05:38 0,9 °C 95 % 1027,7 hPa 0,0 mm 0,0 km/h (0 Bft) W-NW 294 ° 0 min 0,000 mm 0,0 UV-I 0 W/m² 0,2 °C 0,9 °C 0,0 km/h (0 Bft)
24.01.2018 05:39 0,9 °C 95 % 1027,7 hPa 0,0 mm 0,0 km/h (0 Bft) W-NW 294 ° 0 min 0,000 mm 0,0 UV-I 0 W/m² 0,2 °C 0,9 °C 0,0 km/h (0 Bft)
24.01.2018 05:40 0,9 °C 95 % 1027,7 hPa 0,0 mm 0,0 km/h (0 Bft) W-NW 294 ° 0 min 0,000 mm 0,0 UV-I 0 W/m² 0,2 °C 0,9 °C 0,0 km/h (0 Bft)
24.01.2018 05:41 0,9 °C 95 % 1027,7 hPa 0,0 mm 0,0 km/h (0 Bft) W-NW 294 ° 0 min 0,000 mm 0,0 UV-I 0 W/m² 0,2 °C 0,9 °C 0,0 km/h (0 Bft)
24.01.2018 05:42 0,9 °C 95 % 1027,7 hPa 0,0 mm 0,0 km/h (0 Bft) W-NW 294 ° 0 min 0,000 mm 0,0 UV-I 0 W/m² 0,2 °C 0,9 °C 0,0 km/h (0 Bft)
24.01.2018 05:43 0,9 °C 95 % 1027,7 hPa 0,0 mm 0,0 km/h (0 Bft) W-NW 294 ° 0 min 0,000 mm 0,0 UV-I 0 W/m² 0,2 °C 0,9 °C 0,0 km/h (0 Bft)
24.01.2018 05:44 0,9 °C 95 % 1027,7 hPa 0,0 mm 0,0 km/h (0 Bft) W-NW 294 ° 0 min 0,000 mm 0,0 UV-I 0 W/m² 0,2 °C 0,9 °C 0,0 km/h (0 Bft)
24.01.2018 05:45 0,9 °C 95 % 1027,7 hPa 0,0 mm 0,0 km/h (0 Bft) W-NW 294 ° 0 min 0,000 mm 0,0 UV-I 0 W/m² 0,2 °C 0,9 °C 0,0 km/h (0 Bft)
24.01.2018 05:46 0,9 °C 95 % 1027,7 hPa 0,0 mm 0,0 km/h (0 Bft) W-NW 294 ° 0 min 0,000 mm 0,0 UV-I 0 W/m² 0,2 °C 0,9 °C 0,0 km/h (0 Bft)
24.01.2018 05:47 0,9 °C 95 % 1027,7 hPa 0,0 mm 0,0 km/h (0 Bft) W-NW 294 ° 0 min 0,000 mm 0,0 UV-I 0 W/m² 0,2 °C 0,9 °C 0,0 km/h (0 Bft)
24.01.2018 05:48 0,9 °C 95 % 1027,7 hPa 0,0 mm 0,0 km/h (0 Bft) W-NW 294 ° 0 min 0,000 mm 0,0 UV-I 0 W/m² 0,2 °C 0,9 °C 0,0 km/h (0 Bft)
24.01.2018 05:49 0,9 °C 95 % 1027,8 hPa 0,0 mm 0,0 km/h (0 Bft) W-NW 294 ° 0 min 0,000 mm 0,0 UV-I 0 W/m² 0,2 °C 0,9 °C 0,0 km/h (0 Bft)
24.01.2018 05:50 0,9 °C 95 % 1027,8 hPa 0,0 mm 0,0 km/h (0 Bft) W-NW 294 ° 0 min 0,000 mm 0,0 UV-I 0 W/m² 0,2 °C 0,9 °C 0,0 km/h (0 Bft)
24.01.2018 05:51 0,9 °C 95 % 1027,8 hPa 0,0 mm 0,0 km/h (0 Bft) W-NW 294 ° 0 min 0,000 mm 0,0 UV-I 0 W/m² 0,2 °C 0,9 °C 0,0 km/h (0 Bft)
24.01.2018 05:52 0,9 °C 95 % 1027,9 hPa 0,0 mm 0,0 km/h (0 Bft) W-NW 294 ° 0 min 0,000 mm 0,0 UV-I 0 W/m² 0,2 °C 0,9 °C 0,0 km/h (0 Bft)
24.01.2018 05:53 0,9 °C 95 % 1027,9 hPa 0,0 mm 1,2 km/h (1 Bft) W-NW 294 ° 0 min 0,000 mm 0,0 UV-I 0 W/m² 0,2 °C 0,9 °C 3,2 km/h (1 Bft)
24.01.2018 05:54 0,9 °C 95 % 1027,9 hPa 0,0 mm 0,5 km/h (0 Bft) W-NW 294 ° 0 min 0,000 mm 0,0 UV-I 0 W/m² 0,2 °C 0,9 °C 1,6 km/h (1 Bft)
24.01.2018 05:55 0,9 °C 95 % 1028,0 hPa 0,0 mm 0,0 km/h (0 Bft) W-NW 294 ° 0 min 0,000 mm 0,0 UV-I 0 W/m² 0,2 °C 0,9 °C 0,0 km/h (0 Bft)
24.01.2018 05:56 0,9 °C 95 % 1028,0 hPa 0,0 mm 0,0 km/h (0 Bft) W-NW 294 ° 0 min 0,000 mm 0,0 UV-I 0 W/m² 0,2 °C 0,9 °C 0,0 km/h (0 Bft)
24.01.2018 05:57 0,9 °C 95 % 1028,0 hPa 0,0 mm 0,0 km/h (0 Bft) W-NW 294 ° 0 min 0,000 mm 0,0 UV-I 0 W/m² 0,2 °C 0,9 °C 0,0 km/h (0 Bft)
24.01.2018 05:58 0,9 °C 95 % 1028,0 hPa 0,0 mm 0,0 km/h (0 Bft) W-NW 294 ° 0 min 0,000 mm 0,0 UV-I 0 W/m² 0,2 °C 0,9 °C 0,0 km/h (0 Bft)
24.01.2018 05:59 0,9 °C 95 % 1028,0 hPa 0,0 mm 0,0 km/h (0 Bft) W-NW 294 ° 0 min 0,000 mm 0,0 UV-I 0 W/m² 0,2 °C 0,9 °C 0,0 km/h (0 Bft)
24.01.2018 06:00 0,9 °C 95 % 1028,0 hPa 0,0 mm 0,0 km/h (0 Bft) W-NW 294 ° 0 min 0,000 mm 0,0 UV-I 0 W/m² 0,2 °C 0,9 °C 0,0 km/h (0 Bft)
24.01.2018 06:01 0,9 °C 95 % 1028,0 hPa 0,0 mm 0,0 km/h (0 Bft) W-NW 294 ° 0 min 0,000 mm 0,0 UV-I 0 W/m² 0,2 °C 0,9 °C 0,0 km/h (0 Bft)
24.01.2018 06:02 0,9 °C 95 % 1028,1 hPa 0,0 mm 0,0 km/h (0 Bft) W-NW 294 ° 0 min 0,000 mm 0,0 UV-I 0 W/m² 0,2 °C 0,9 °C 0,0 km/h (0 Bft)
24.01.2018 06:03 0,9 °C 95 % 1028,0 hPa 0,0 mm 0,0 km/h (0 Bft) W-NW 294 ° 0 min 0,000 mm 0,0 UV-I 0 W/m² 0,2 °C 0,9 °C 0,0 km/h (0 Bft)
24.01.2018 06:04 0,9 °C 95 % 1028,0 hPa 0,0 mm 0,0 km/h (0 Bft) W-NW 294 ° 0 min 0,000 mm 0,0 UV-I 0 W/m² 0,2 °C 0,9 °C 0,0 km/h (0 Bft)
24.01.2018 06:05 0,9 °C 95 % 1028,0 hPa 0,0 mm 0,0 km/h (0 Bft) W-NW 294 ° 0 min 0,000 mm 0,0 UV-I 0 W/m² 0,2 °C 0,9 °C 0,0 km/h (0 Bft)
24.01.2018 06:06 0,9 °C 95 % 1028,0 hPa 0,0 mm 0,0 km/h (0 Bft) W-NW 294 ° 0 min 0,000 mm 0,0 UV-I 0 W/m² 0,2 °C 0,9 °C 0,0 km/h (0 Bft)
24.01.2018 06:07 0,9 °C 95 % 1028,0 hPa 0,0 mm 0,0 km/h (0 Bft) W-NW 294 ° 0 min 0,000 mm 0,0 UV-I 0 W/m² 0,2 °C 0,9 °C 0,0 km/h (0 Bft)
24.01.2018 06:08 0,9 °C 95 % 1028,0 hPa 0,0 mm 0,0 km/h (0 Bft) W-NW 294 ° 0 min 0,000 mm 0,0 UV-I 0 W/m² 0,2 °C 0,9 °C 0,0 km/h (0 Bft)
24.01.2018 06:09 0,9 °C 95 % 1028,1 hPa 0,0 mm 0,0 km/h (0 Bft) W-NW 294 ° 0 min 0,000 mm 0,0 UV-I 0 W/m² 0,2 °C 0,9 °C 0,0 km/h (0 Bft)
24.01.2018 06:10 0,9 °C 95 % 1028,1 hPa 0,0 mm 0,0 km/h (0 Bft) W-NW 294 ° 0 min 0,000 mm 0,0 UV-I 0 W/m² 0,2 °C 0,9 °C 0,0 km/h (0 Bft)
24.01.2018 06:11 1,0 °C 95 % 1028,1 hPa 0,0 mm 0,0 km/h (0 Bft) W-NW 294 ° 0 min 0,000 mm 0,0 UV-I 0 W/m² 0,3 °C 1,0 °C 0,0 km/h (0 Bft)
24.01.2018 06:12 0,9 °C 95 % 1028,1 hPa 0,0 mm 0,0 km/h (0 Bft) W-NW 294 ° 0 min 0,000 mm 0,0 UV-I 0 W/m² 0,2 °C 0,9 °C 0,0 km/h (0 Bft)
24.01.2018 06:13 0,9 °C 95 % 1028,0 hPa 0,0 mm 0,0 km/h (0 Bft) W-NW 294 ° 0 min 0,000 mm 0,0 UV-I 0 W/m² 0,2 °C 0,9 °C 0,0 km/h (0 Bft)
24.01.2018 06:14 1,0 °C 95 % 1028,1 hPa 0,0 mm 0,1 km/h (0 Bft) W-NW 294 ° 0 min 0,000 mm 0,0 UV-I 0 W/m² 0,3 °C 1,0 °C 1,6 km/h (1 Bft)
24.01.2018 06:15 0,9 °C 95 % 1028,0 hPa 0,0 mm 1,8 km/h (1 Bft) SW 217 ° 0 min 0,000 mm 0,0 UV-I 0 W/m² 0,2 °C 0,9 °C 3,2 km/h (1 Bft)
24.01.2018 06:16 1,0 °C 95 % 1028,1 hPa 0,0 mm 2,3 km/h (1 Bft) SW 217 ° 0 min 0,000 mm 0,0 UV-I 0 W/m² 0,3 °C 1,0 °C 3,2 km/h (1 Bft)
24.01.2018 06:17 1,0 °C 95 % 1028,1 hPa 0,0 mm 0,9 km/h (0 Bft) SW 217 ° 0 min 0,000 mm 0,0 UV-I 0 W/m² 0,3 °C 1,0 °C 3,2 km/h (1 Bft)
24.01.2018 06:18 1,0 °C 95 % 1028,1 hPa 0,0 mm 0,1 km/h (0 Bft) SW 217 ° 0 min 0,000 mm 0,0 UV-I 0 W/m² 0,3 °C 1,0 °C 1,6 km/h (1 Bft)
24.01.2018 06:19 1,1 °C 95 % 1028,1 hPa 0,0 mm 1,0 km/h (0 Bft) SW 217 ° 0 min 0,000 mm 0,0 UV-I 0 W/m² 0,4 °C 1,1 °C 1,6 km/h (1 Bft)
24.01.2018 06:20 1,1 °C 95 % 1028,1 hPa 0,0 mm 0,0 km/h (0 Bft) SW 217 ° 0 min 0,000 mm 0,0 UV-I 0 W/m² 0,4 °C 1,1 °C 0,0 km/h (0 Bft)
24.01.2018 06:21 1,1 °C 95 % 1028,2 hPa 0,0 mm 0,0 km/h (0 Bft) SW 217 ° 0 min 0,000 mm 0,0 UV-I 0 W/m² 0,4 °C 1,1 °C 0,0 km/h (0 Bft)
24.01.2018 06:22 1,1 °C 95 % 1028,1 hPa 0,0 mm 0,0 km/h (0 Bft) SW 217 ° 0 min 0,000 mm 0,0 UV-I 0 W/m² 0,4 °C 1,1 °C 0,0 km/h (0 Bft)
24.01.2018 06:23 1,1 °C 95 % 1028,1 hPa 0,0 mm 0,0 km/h (0 Bft) SW 217 ° 0 min 0,000 mm 0,0 UV-I 0 W/m² 0,4 °C 1,1 °C 0,0 km/h (0 Bft)
24.01.2018 06:24 1,1 °C 95 % 1028,2 hPa 0,0 mm 0,0 km/h (0 Bft) SW 217 ° 0 min 0,000 mm 0,0 UV-I 0 W/m² 0,4 °C 1,1 °C 0,0 km/h (0 Bft)
24.01.2018 06:25 1,1 °C 94 % 1028,1 hPa 0,0 mm 2,3 km/h (1 Bft) S 182 ° 0 min 0,000 mm 0,0 UV-I 0 W/m² 0,2 °C 1,1 °C 6,4 km/h (2 Bft)
24.01.2018 06:26 1,1 °C 94 % 1028,2 hPa 0,0 mm 4,4 km/h (1 Bft) S 182 ° 0 min 0,000 mm 0,0 UV-I 0 W/m² 0,2 °C 1,1 °C 6,4 km/h (2 Bft)
24.01.2018 06:27 1,1 °C 94 % 1028,1 hPa 0,0 mm 1,1 km/h (1 Bft) S 182 ° 0 min 0,000 mm 0,0 UV-I 0 W/m² 0,2 °C 1,1 °C 3,2 km/h (1 Bft)
24.01.2018 06:28 1,1 °C 94 % 1028,1 hPa 0,0 mm 0,0 km/h (0 Bft) S 182 ° 0 min 0,000 mm 0,0 UV-I 0 W/m² 0,2 °C 1,1 °C 0,0 km/h (0 Bft)
24.01.2018 06:29 1,2 °C 95 % 1028,1 hPa 0,0 mm 0,0 km/h (0 Bft) S 182 ° 0 min 0,000 mm 0,0 UV-I 0 W/m² 0,5 °C 1,2 °C 0,0 km/h (0 Bft)
24.01.2018 06:30 1,2 °C 95 % 1028,1 hPa 0,0 mm 0,0 km/h (0 Bft) S 182 ° 0 min 0,000 mm 0,0 UV-I 0 W/m² 0,5 °C 1,2 °C 0,0 km/h (0 Bft)
24.01.2018 06:31 1,2 °C 95 % 1028,1 hPa 0,0 mm 0,0 km/h (0 Bft) S 182 ° 0 min 0,000 mm 0,0 UV-I 0 W/m² 0,5 °C 1,2 °C 0,0 km/h (0 Bft)
24.01.2018 06:32 1,2 °C 95 % 1028,1 hPa 0,0 mm 0,0 km/h (0 Bft) S 182 ° 0 min 0,000 mm 0,0 UV-I 0 W/m² 0,5 °C 1,2 °C 0,0 km/h (0 Bft)
24.01.2018 06:33 1,2 °C 95 % 1028,1 hPa 0,0 mm 0,0 km/h (0 Bft) S 182 ° 0 min 0,000 mm 0,0 UV-I 0 W/m² 0,5 °C 1,2 °C 0,0 km/h (0 Bft)
24.01.2018 06:34 1,3 °C 95 % 1028,1 hPa 0,0 mm 0,0 km/h (0 Bft) S 182 ° 0 min 0,000 mm 0,0 UV-I 0 W/m² 0,6 °C 1,3 °C 0,0 km/h (0 Bft)
24.01.2018 06:35 1,3 °C 95 % 1028,1 hPa 0,0 mm 2,0 km/h (1 Bft) S 182 ° 0 min 0,000 mm 0,0 UV-I 0 W/m² 0,6 °C 1,3 °C 3,2 km/h (1 Bft)
24.01.2018 06:36 1,3 °C 95 % 1028,0 hPa 0,0 mm 1,8 km/h (1 Bft) S 182 ° 0 min 0,000 mm 0,0 UV-I 0 W/m² 0,6 °C 1,3 °C 3,2 km/h (1 Bft)
24.01.2018 06:37 1,3 °C 95 % 1028,0 hPa 0,0 mm 1,4 km/h (1 Bft) S 182 ° 0 min 0,000 mm 0,0 UV-I 0 W/m² 0,6 °C 1,3 °C 1,6 km/h (1 Bft)
24.01.2018 06:38 1,3 °C 95 % 1028,0 hPa 0,0 mm 1,0 km/h (0 Bft) S 182 ° 0 min 0,000 mm 0,0 UV-I 0 W/m² 0,6 °C 1,3 °C 3,2 km/h (1 Bft)
24.01.2018 06:39 1,3 °C 95 % 1028,0 hPa 0,0 mm 1,5 km/h (1 Bft) S 182 ° 0 min 0,000 mm 0,0 UV-I 0 W/m² 0,6 °C 1,3 °C 3,2 km/h (1 Bft)
24.01.2018 06:40 1,3 °C 95 % 1028,0 hPa 0,0 mm 0,3 km/h (0 Bft) S 182 ° 0 min 0,000 mm 0,0 UV-I 0 W/m² 0,6 °C 1,3 °C 1,6 km/h (1 Bft)
24.01.2018 06:41 1,3 °C 95 % 1028,0 hPa 0,0 mm 0,0 km/h (0 Bft) S 182 ° 0 min 0,000 mm 0,0 UV-I 0 W/m² 0,6 °C 1,3 °C 0,0 km/h (0 Bft)
24.01.2018 06:42 1,4 °C 95 % 1028,0 hPa 0,0 mm 0,0 km/h (0 Bft) S 182 ° 0 min 0,000 mm 0,0 UV-I 0 W/m² 0,7 °C 1,4 °C 0,0 km/h (0 Bft)
24.01.2018 06:43 1,4 °C 94 % 1028,0 hPa 0,0 mm 0,0 km/h (0 Bft) S 182 ° 0 min 0,000 mm 0,0 UV-I 0 W/m² 0,5 °C 1,4 °C 0,0 km/h (0 Bft)
24.01.2018 06:44 1,4 °C 95 % 1028,0 hPa 0,0 mm 0,0 km/h (0 Bft) S 182 ° 0 min 0,000 mm 0,0 UV-I 0 W/m² 0,7 °C 1,4 °C 0,0 km/h (0 Bft)
24.01.2018 06:45 1,4 °C 94 % 1028,0 hPa 0,0 mm 0,0 km/h (0 Bft) S 182 ° 0 min 0,000 mm 0,0 UV-I 0 W/m² 0,5 °C 1,4 °C 0,0 km/h (0 Bft)
24.01.2018 06:46 1,4 °C 94 % 1028,0 hPa 0,0 mm 0,0 km/h (0 Bft) S 182 ° 0 min 0,000 mm 0,0 UV-I 0 W/m² 0,5 °C 1,4 °C 0,0 km/h (0 Bft)
24.01.2018 06:47 1,4 °C 94 % 1028,0 hPa 0,0 mm 0,0 km/h (0 Bft) S 182 ° 0 min 0,000 mm 0,0 UV-I 0 W/m² 0,5 °C 1,4 °C 0,0 km/h (0 Bft)
24.01.2018 06:48 1,4 °C 94 % 1027,9 hPa 0,0 mm 0,0 km/h (0 Bft) S 182 ° 0 min 0,000 mm 0,0 UV-I 0 W/m² 0,5 °C 1,4 °C 0,0 km/h (0 Bft)
24.01.2018 06:49 1,4 °C 94 % 1027,9 hPa 0,0 mm 0,0 km/h (0 Bft) S 182 ° 0 min 0,000 mm 0,0 UV-I 0 W/m² 0,5 °C 1,4 °C 0,0 km/h (0 Bft)
24.01.2018 06:50 1,4 °C 94 % 1027,8 hPa 0,0 mm 0,0 km/h (0 Bft) S 182 ° 0 min 0,000 mm 0,0 UV-I 0 W/m² 0,5 °C 1,4 °C 0,0 km/h (0 Bft)
24.01.2018 06:51 1,5 °C 94 % 1027,9 hPa 0,0 mm 0,0 km/h (0 Bft) S 182 ° 0 min 0,000 mm 0,0 UV-I 0 W/m² 0,6 °C 1,5 °C 0,0 km/h (0 Bft)
24.01.2018 06:52 1,4 °C 94 % 1027,9 hPa 0,0 mm 0,0 km/h (0 Bft) S 182 ° 0 min 0,000 mm 0,0 UV-I 0 W/m² 0,5 °C 1,4 °C 0,0 km/h (0 Bft)
24.01.2018 06:53 1,5 °C 94 % 1027,9 hPa 0,0 mm 0,0 km/h (0 Bft) S 182 ° 0 min 0,000 mm 0,0 UV-I 0 W/m² 0,6 °C 1,5 °C 0,0 km/h (0 Bft)
24.01.2018 06:54 1,5 °C 94 % 1027,9 hPa 0,0 mm 0,0 km/h (0 Bft) S 182 ° 0 min 0,000 mm 0,0 UV-I 0 W/m² 0,6 °C 1,5 °C 0,0 km/h (0 Bft)
24.01.2018 06:55 1,5 °C 94 % 1027,9 hPa 0,0 mm 0,0 km/h (0 Bft) S 182 ° 0 min 0,000 mm 0,0 UV-I 0 W/m² 0,6 °C 1,5 °C 0,0 km/h (0 Bft)
24.01.2018 06:56 1,5 °C 94 % 1027,9 hPa 0,0 mm 0,0 km/h (0 Bft) S 182 ° 0 min 0,000 mm 0,0 UV-I 0 W/m² 0,6 °C 1,5 °C 0,0 km/h (0 Bft)
24.01.2018 06:57 1,5 °C 94 % 1027,9 hPa 0,0 mm 0,0 km/h (0 Bft) S 182 ° 0 min 0,000 mm 0,0 UV-I 0 W/m² 0,6 °C 1,5 °C 0,0 km/h (0 Bft)
24.01.2018 06:58 1,6 °C 94 % 1027,9 hPa 0,0 mm 0,0 km/h (0 Bft) S 182 ° 0 min 0,000 mm 0,0 UV-I 0 W/m² 0,7 °C 1,6 °C 0,0 km/h (0 Bft)
24.01.2018 06:59 1,6 °C 94 % 1027,9 hPa 0,0 mm 0,0 km/h (0 Bft) S 182 ° 0 min 0,000 mm 0,0 UV-I 0 W/m² 0,7 °C 1,6 °C 0,0 km/h (0 Bft)
24.01.2018 07:00 1,6 °C 94 % 1027,9 hPa 0,0 mm 0,0 km/h (0 Bft) S 182 ° 0 min 0,000 mm 0,0 UV-I 0 W/m² 0,7 °C 1,6 °C 0,0 km/h (0 Bft)
24.01.2018 07:01 1,6 °C 94 % 1027,9 hPa 0,0 mm 0,0 km/h (0 Bft) S 182 ° 0 min 0,000 mm 0,0 UV-I 0 W/m² 0,7 °C 1,6 °C 0,0 km/h (0 Bft)
24.01.2018 07:02 1,5 °C 94 % 1028,0 hPa 0,0 mm 0,0 km/h (0 Bft) S 182 ° 0 min 0,000 mm 0,0 UV-I 0 W/m² 0,6 °C 1,5 °C 0,0 km/h (0 Bft)
24.01.2018 07:03 1,6 °C 94 % 1028,0 hPa 0,0 mm 0,0 km/h (0 Bft) S 182 ° 0 min 0,000 mm 0,0 UV-I 0 W/m² 0,7 °C 1,6 °C 0,0 km/h (0 Bft)
24.01.2018 07:04 1,5 °C 94 % 1028,0 hPa 0,0 mm 1,9 km/h (1 Bft) W-NW 296 ° 0 min 0,000 mm 0,0 UV-I 0 W/m² 0,6 °C 1,5 °C 3,2 km/h (1 Bft)
24.01.2018 07:05 1,5 °C 94 % 1028,1 hPa 0,0 mm 0,9 km/h (0 Bft) W-NW 296 ° 0 min 0,000 mm 0,0 UV-I 0 W/m² 0,6 °C 1,5 °C 3,2 km/h (1 Bft)
24.01.2018 07:06 1,5 °C 94 % 1028,1 hPa 0,0 mm 0,0 km/h (0 Bft) W-NW 296 ° 0 min 0,000 mm 0,0 UV-I 0 W/m² 0,6 °C 1,5 °C 0,0 km/h (0 Bft)
24.01.2018 07:07 1,5 °C 94 % 1028,1 hPa 0,0 mm 0,0 km/h (0 Bft) W-NW 296 ° 0 min 0,000 mm 0,0 UV-I 0 W/m² 0,6 °C 1,5 °C 0,0 km/h (0 Bft)
24.01.2018 07:08 1,5 °C 94 % 1028,1 hPa 0,0 mm 0,0 km/h (0 Bft) W-NW 296 ° 0 min 0,000 mm 0,0 UV-I 0 W/m² 0,6 °C 1,5 °C 0,0 km/h (0 Bft)
24.01.2018 07:09 1,5 °C 94 % 1028,1 hPa 0,0 mm 0,0 km/h (0 Bft) W-NW 296 ° 0 min 0,000 mm 0,0 UV-I 0 W/m² 0,6 °C 1,5 °C 0,0 km/h (0 Bft)
24.01.2018 07:10 1,5 °C 94 % 1028,1 hPa 0,0 mm 0,0 km/h (0 Bft) W-NW 296 ° 0 min 0,000 mm 0,0 UV-I 0 W/m² 0,6 °C 1,5 °C 0,0 km/h (0 Bft)
24.01.2018 07:11 1,5 °C 94 % 1028,1 hPa 0,0 mm 0,0 km/h (0 Bft) W-NW 296 ° 0 min 0,000 mm 0,0 UV-I 0 W/m² 0,6 °C 1,5 °C 0,0 km/h (0 Bft)
24.01.2018 07:12 1,5 °C 94 % 1028,0 hPa 0,0 mm 0,0 km/h (0 Bft) W-NW 296 ° 0 min 0,000 mm 0,0 UV-I 0 W/m² 0,6 °C 1,5 °C 0,0 km/h (0 Bft)
24.01.2018 07:13 1,5 °C 94 % 1028,0 hPa 0,0 mm 0,0 km/h (0 Bft) W-NW 296 ° 0 min 0,000 mm 0,0 UV-I 0 W/m² 0,6 °C 1,5 °C 0,0 km/h (0 Bft)
24.01.2018 07:14 1,5 °C 94 % 1028,0 hPa 0,0 mm 0,0 km/h (0 Bft) W-NW 296 ° 0 min 0,000 mm 0,0 UV-I 0 W/m² 0,6 °C 1,5 °C 0,0 km/h (0 Bft)
24.01.2018 07:15 1,5 °C 94 % 1027,9 hPa 0,0 mm 0,0 km/h (0 Bft) W-NW 296 ° 0 min 0,000 mm 0,0 UV-I 0 W/m² 0,6 °C 1,5 °C 0,0 km/h (0 Bft)
24.01.2018 07:16 1,5 °C 94 % 1027,8 hPa 0,0 mm 0,0 km/h (0 Bft) W-NW 296 ° 0 min 0,000 mm 0,0 UV-I 0 W/m² 0,6 °C 1,5 °C 0,0 km/h (0 Bft)
24.01.2018 07:17 1,5 °C 94 % 1027,9 hPa 0,0 mm 0,0 km/h (0 Bft) W-NW 296 ° 0 min 0,000 mm 0,0 UV-I 0 W/m² 0,6 °C 1,5 °C 0,0 km/h (0 Bft)
24.01.2018 07:18 1,5 °C 94 % 1027,9 hPa 0,0 mm 0,0 km/h (0 Bft) W-NW 296 ° 0 min 0,000 mm 0,0 UV-I 0 W/m² 0,6 °C 1,5 °C 0,0 km/h (0 Bft)
24.01.2018 07:19 1,6 °C 94 % 1027,9 hPa 0,0 mm 0,0 km/h (0 Bft) W-NW 296 ° 0 min 0,000 mm 0,0 UV-I 0 W/m² 0,7 °C 1,6 °C 0,0 km/h (0 Bft)
24.01.2018 07:20 1,6 °C 94 % 1027,8 hPa 0,0 mm 0,0 km/h (0 Bft) W-NW 296 ° 0 min 0,000 mm 0,0 UV-I 0 W/m² 0,7 °C 1,6 °C 0,0 km/h (0 Bft)
24.01.2018 07:21 1,5 °C 94 % 1027,8 hPa 0,0 mm 0,0 km/h (0 Bft) W-NW 296 ° 0 min 0,000 mm 0,0 UV-I 0 W/m² 0,6 °C 1,5 °C 0,0 km/h (0 Bft)
24.01.2018 07:22 1,6 °C 94 % 1027,8 hPa 0,0 mm 0,0 km/h (0 Bft) W-NW 296 ° 0 min 0,000 mm 0,0 UV-I 0 W/m² 0,7 °C 1,6 °C 0,0 km/h (0 Bft)
24.01.2018 07:23 1,6 °C 94 % 1027,8 hPa 0,0 mm 0,0 km/h (0 Bft) W-NW 296 ° 0 min 0,000 mm 0,0 UV-I 0 W/m² 0,7 °C 1,6 °C 0,0 km/h (0 Bft)
24.01.2018 07:24 1,6 °C 94 % 1027,8 hPa 0,0 mm 0,0 km/h (0 Bft) W-NW 296 ° 0 min 0,000 mm 0,0 UV-I 0 W/m² 0,7 °C 1,6 °C 0,0 km/h (0 Bft)
24.01.2018 07:25 1,5 °C 94 % 1027,7 hPa 0,0 mm 0,5 km/h (0 Bft) W-NW 296 ° 0 min 0,000 mm 0,0 UV-I 0 W/m² 0,6 °C 1,5 °C 1,6 km/h (1 Bft)
24.01.2018 07:26 1,6 °C 94 % 1027,8 hPa 0,0 mm 0,1 km/h (0 Bft) W-NW 296 ° 0 min 0,000 mm 0,0 UV-I 0 W/m² 0,7 °C 1,6 °C 1,6 km/h (1 Bft)
24.01.2018 07:27 1,6 °C 94 % 1027,8 hPa 0,0 mm 0,0 km/h (0 Bft) W-NW 296 ° 0 min 0,000 mm 0,0 UV-I 0 W/m² 0,7 °C 1,6 °C 0,0 km/h (0 Bft)
24.01.2018 07:28 1,6 °C 94 % 1027,8 hPa 0,0 mm 2,7 km/h (1 Bft) W-SW 237 ° 0 min 0,000 mm 0,0 UV-I 0 W/m² 0,7 °C 1,6 °C 6,4 km/h (2 Bft)
24.01.2018 07:29 1,6 °C 94 % 1027,8 hPa 0,0 mm 6,2 km/h (2 Bft) S-SW 205 ° 0 min 0,000 mm 0,0 UV-I 0 W/m² 0,7 °C -0,3 °C 8,0 km/h (2 Bft)
24.01.2018 07:30 1,6 °C 94 % 1027,8 hPa 0,0 mm 3,0 km/h (1 Bft) S-SW 200 ° 0 min 0,000 mm 0,0 UV-I 0 W/m² 0,7 °C 1,6 °C 4,8 km/h (1 Bft)
24.01.2018 07:31 1,7 °C 94 % 1027,8 hPa 0,0 mm 1,4 km/h (1 Bft) S-SW 200 ° 0 min 0,000 mm 0,0 UV-I 0 W/m² 0,8 °C 1,7 °C 4,8 km/h (1 Bft)
24.01.2018 07:32 1,7 °C 94 % 1027,8 hPa 0,0 mm 3,8 km/h (1 Bft) W 275 ° 0 min 0,000 mm 0,0 UV-I 0 W/m² 0,8 °C 1,7 °C 8,0 km/h (2 Bft)
24.01.2018 07:33 1,7 °C 94 % 1027,8 hPa 0,0 mm 5,8 km/h (2 Bft) S-SW 202 ° 0 min 0,000 mm 0,0 UV-I 0 W/m² 0,8 °C 0,0 °C 11,3 km/h (2 Bft)
24.01.2018 07:34 1,7 °C 94 % 1027,8 hPa 0,0 mm 3,6 km/h (1 Bft) O 92 ° 0 min 0,000 mm 0,0 UV-I 0 W/m² 0,8 °C 1,7 °C 4,8 km/h (1 Bft)
24.01.2018 07:35 1,8 °C 94 % 1027,8 hPa 0,0 mm 0,5 km/h (0 Bft) O 92 ° 0 min 0,000 mm 0,0 UV-I 0 W/m² 0,9 °C 1,8 °C 3,2 km/h (1 Bft)
24.01.2018 07:36 1,8 °C 94 % 1027,8 hPa 0,0 mm 0,7 km/h (0 Bft) O 91 ° 0 min 0,000 mm 0,0 UV-I 0 W/m² 0,9 °C 1,8 °C 4,8 km/h (1 Bft)
24.01.2018 07:37 1,8 °C 94 % 1027,8 hPa 0,0 mm 3,0 km/h (1 Bft) W-SW 255 ° 0 min 0,000 mm 0,0 UV-I 0 W/m² 0,9 °C 1,8 °C 4,8 km/h (1 Bft)
24.01.2018 07:38 1,8 °C 94 % 1027,8 hPa 0,0 mm 2,0 km/h (1 Bft) W-SW 255 ° 0 min 0,000 mm 0,0 UV-I 0 W/m² 0,9 °C 1,8 °C 3,2 km/h (1 Bft)
24.01.2018 07:39 1,9 °C 94 % 1027,8 hPa 0,0 mm 1,5 km/h (1 Bft) S 180 ° 0 min 0,000 mm 0,0 UV-I 0 W/m² 1,0 °C 1,9 °C 4,8 km/h (1 Bft)
24.01.2018 07:40 1,8 °C 94 % 1027,9 hPa 0,0 mm 2,1 km/h (1 Bft) S 180 ° 0 min 0,000 mm 0,0 UV-I 0 W/m² 0,9 °C 1,8 °C 3,2 km/h (1 Bft)
24.01.2018 07:41 1,8 °C 94 % 1027,9 hPa 0,0 mm 0,0 km/h (0 Bft) S 180 ° 0 min 0,000 mm 0,0 UV-I 0 W/m² 0,9 °C 1,8 °C 0,0 km/h (0 Bft)
24.01.2018 07:42 1,9 °C 94 % 1028,0 hPa 0,0 mm 0,0 km/h (0 Bft) S 180 ° 0 min 0,000 mm 0,0 UV-I 0 W/m² 1,0 °C 1,9 °C 0,0 km/h (0 Bft)
24.01.2018 07:43 1,9 °C 94 % 1027,9 hPa 0,0 mm 0,0 km/h (0 Bft) S 180 ° 0 min 0,000 mm 0,0 UV-I 0 W/m² 1,0 °C 1,9 °C 0,0 km/h (0 Bft)
24.01.2018 07:44 1,9 °C 94 % 1027,9 hPa 0,0 mm 0,0 km/h (0 Bft) S 180 ° 0 min 0,000 mm 0,0 UV-I 0 W/m² 1,0 °C 1,9 °C 0,0 km/h (0 Bft)
24.01.2018 07:45 1,9 °C 94 % 1027,9 hPa 0,0 mm 0,0 km/h (0 Bft) S 180 ° 0 min 0,000 mm 0,0 UV-I 0 W/m² 1,0 °C 1,9 °C 0,0 km/h (0 Bft)
24.01.2018 07:46 1,9 °C 94 % 1028,0 hPa 0,0 mm 0,0 km/h (0 Bft) S 180 ° 0 min 0,000 mm 0,0 UV-I 0 W/m² 1,0 °C 1,9 °C 0,0 km/h (0 Bft)
24.01.2018 07:47 1,9 °C 94 % 1028,0 hPa 0,0 mm 0,0 km/h (0 Bft) S 180 ° 0 min 0,000 mm 0,0 UV-I 0 W/m² 1,0 °C 1,9 °C 0,0 km/h (0 Bft)
24.01.2018 07:48 2,0 °C 94 % 1027,9 hPa 0,0 mm 0,0 km/h (0 Bft) S 180 ° 0 min 0,000 mm 0,0 UV-I 0 W/m² 1,1 °C 2,0 °C 0,0 km/h (0 Bft)
24.01.2018 07:49 2,0 °C 94 % 1027,9 hPa 0,0 mm 0,0 km/h (0 Bft) S 180 ° 0 min 0,000 mm 0,0 UV-I 0 W/m² 1,1 °C 2,0 °C 0,0 km/h (0 Bft)
24.01.2018 07:50 2,0 °C 94 % 1027,9 hPa 0,0 mm 0,0 km/h (0 Bft) S 180 ° 0 min 0,000 mm 0,0 UV-I 0 W/m² 1,1 °C 2,0 °C 0,0 km/h (0 Bft)
24.01.2018 07:51 2,1 °C 93 % 1027,8 hPa 0,0 mm 0,0 km/h (0 Bft) S 180 ° 0 min 0,000 mm 0,0 UV-I 0 W/m² 1,1 °C 2,1 °C 0,0 km/h (0 Bft)
24.01.2018 07:52 2,1 °C 93 % 1027,9 hPa 0,0 mm 0,0 km/h (0 Bft) S 180 ° 0 min 0,000 mm 0,0 UV-I 5 W/m² 1,1 °C 2,1 °C 0,0 km/h (0 Bft)
24.01.2018 07:53 2,1 °C 93 % 1027,8 hPa 0,0 mm 0,0 km/h (0 Bft) S 180 ° 0 min 0,000 mm 0,0 UV-I 5 W/m² 1,1 °C 2,1 °C 0,0 km/h (0 Bft)
24.01.2018 07:54 2,1 °C 93 % 1027,8 hPa 0,0 mm 0,0 km/h (0 Bft) S 180 ° 0 min 0,000 mm 0,0 UV-I 5 W/m² 1,1 °C 2,1 °C 0,0 km/h (0 Bft)
24.01.2018 07:55 2,1 °C 93 % 1027,8 hPa 0,0 mm 0,0 km/h (0 Bft) S 180 ° 0 min 0,000 mm 0,0 UV-I 5 W/m² 1,1 °C 2,1 °C 0,0 km/h (0 Bft)
24.01.2018 07:56 2,1 °C 93 % 1027,8 hPa 0,0 mm 0,0 km/h (0 Bft) S 180 ° 0 min 0,000 mm 0,0 UV-I 5 W/m² 1,1 °C 2,1 °C 0,0 km/h (0 Bft)
24.01.2018 07:57 2,1 °C 93 % 1027,8 hPa 0,0 mm 0,0 km/h (0 Bft) S 180 ° 0 min 0,000 mm 0,0 UV-I 5 W/m² 1,1 °C 2,1 °C 0,0 km/h (0 Bft)
24.01.2018 07:58 2,1 °C 93 % 1027,8 hPa 0,0 mm 0,0 km/h (0 Bft) S 180 ° 0 min 0,000 mm 0,0 UV-I 7 W/m² 1,1 °C 2,1 °C 0,0 km/h (0 Bft)
24.01.2018 07:59 2,1 °C 93 % 1027,8 hPa 0,0 mm 0,0 km/h (0 Bft) S 180 ° 0 min 0,000 mm 0,0 UV-I 7 W/m² 1,1 °C 2,1 °C 0,0 km/h (0 Bft)
24.01.2018 08:00 2,1 °C 93 % 1027,8 hPa 0,0 mm 0,0 km/h (0 Bft) S 180 ° 0 min 0,000 mm 0,0 UV-I 7 W/m² 1,1 °C 2,1 °C 0,0 km/h (0 Bft)
24.01.2018 08:01 2,1 °C 93 % 1027,8 hPa 0,0 mm 0,6 km/h (0 Bft) W-SW 251 ° 0 min 0,000 mm 0,0 UV-I 7 W/m² 1,1 °C 2,1 °C 3,2 km/h (1 Bft)
24.01.2018 08:02 2,2 °C 93 % 1027,8 hPa 0,0 mm 0,0 km/h (0 Bft) W-SW 251 ° 0 min 0,000 mm 0,0 UV-I 7 W/m² 1,2 °C 2,2 °C 0,0 km/h (0 Bft)
24.01.2018 08:03 2,2 °C 93 % 1027,8 hPa 0,0 mm 0,0 km/h (0 Bft) W-SW 251 ° 0 min 0,000 mm 0,0 UV-I 7 W/m² 1,2 °C 2,2 °C 0,0 km/h (0 Bft)
24.01.2018 08:04 2,2 °C 93 % 1027,7 hPa 0,0 mm 0,0 km/h (0 Bft) W-SW 251 ° 0 min 0,000 mm 0,0 UV-I 9 W/m² 1,2 °C 2,2 °C 0,0 km/h (0 Bft)
24.01.2018 08:05 2,2 °C 93 % 1027,8 hPa 0,0 mm 0,0 km/h (0 Bft) W-SW 251 ° 0 min 0,000 mm 0,0 UV-I 9 W/m² 1,2 °C 2,2 °C 0,0 km/h (0 Bft)
24.01.2018 08:06 2,2 °C 93 % 1027,8 hPa 0,0 mm 0,0 km/h (0 Bft) W-SW 251 ° 0 min 0,000 mm 0,0 UV-I 9 W/m² 1,2 °C 2,2 °C 0,0 km/h (0 Bft)
24.01.2018 08:07 2,2 °C 93 % 1027,8 hPa 0,0 mm 0,0 km/h (0 Bft) W-SW 251 ° 0 min 0,000 mm 0,0 UV-I 11 W/m² 1,2 °C 2,2 °C 0,0 km/h (0 Bft)
24.01.2018 08:08 2,2 °C 93 % 1027,8 hPa 0,0 mm 0,0 km/h (0 Bft) W-SW 251 ° 0 min 0,000 mm 0,0 UV-I 11 W/m² 1,2 °C 2,2 °C 0,0 km/h (0 Bft)
24.01.2018 08:09 2,2 °C 93 % 1027,8 hPa 0,0 mm 0,8 km/h (0 Bft) W-SW 251 ° 0 min 0,000 mm 0,0 UV-I 12 W/m² 1,2 °C 2,2 °C 3,2 km/h (1 Bft)
24.01.2018 08:10 2,2 °C 93 % 1027,7 hPa 0,0 mm 0,0 km/h (0 Bft) W-SW 251 ° 0 min 0,000 mm 0,0 UV-I 14 W/m² 1,2 °C 2,2 °C 0,0 km/h (0 Bft)
24.01.2018 08:11 2,2 °C 93 % 1027,7 hPa 0,0 mm 0,0 km/h (0 Bft) W-SW 251 ° 0 min 0,000 mm 0,0 UV-I 14 W/m² 1,2 °C 2,2 °C 0,0 km/h (0 Bft)
24.01.2018 08:12 2,2 °C 93 % 1027,7 hPa 0,0 mm 0,0 km/h (0 Bft) W-SW 251 ° 0 min 0,000 mm 0,0 UV-I 16 W/m² 1,2 °C 2,2 °C 0,0 km/h (0 Bft)
24.01.2018 08:13 2,2 °C 93 % 1027,7 hPa 0,0 mm 0,0 km/h (0 Bft) W-SW 251 ° 0 min 0,000 mm 0,0 UV-I 16 W/m² 1,2 °C 2,2 °C 0,0 km/h (0 Bft)
24.01.2018 08:14 2,2 °C 93 % 1027,6 hPa 0,0 mm 0,0 km/h (0 Bft) W-SW 251 ° 0 min 0,000 mm 0,0 UV-I 16 W/m² 1,2 °C 2,2 °C 0,0 km/h (0 Bft)
24.01.2018 08:15 2,2 °C 93 % 1027,6 hPa 0,0 mm 0,0 km/h (0 Bft) W-SW 251 ° 0 min 0,000 mm 0,0 UV-I 16 W/m² 1,2 °C 2,2 °C 0,0 km/h (0 Bft)
24.01.2018 08:16 2,2 °C 93 % 1027,6 hPa 0,0 mm 0,0 km/h (0 Bft) W-SW 251 ° 0 min 0,000 mm 0,0 UV-I 16 W/m² 1,2 °C 2,2 °C 0,0 km/h (0 Bft)
24.01.2018 08:17 2,2 °C 93 % 1027,6 hPa 0,0 mm 0,0 km/h (0 Bft) W-SW 251 ° 0 min 0,000 mm 0,0 UV-I 18 W/m² 1,2 °C 2,2 °C 0,0 km/h (0 Bft)
24.01.2018 08:18 2,3 °C 93 % 1027,6 hPa 0,0 mm 0,0 km/h (0 Bft) W-SW 251 ° 0 min 0,000 mm 0,0 UV-I 18 W/m² 1,3 °C 2,3 °C 0,0 km/h (0 Bft)
24.01.2018 08:19 2,2 °C 93 % 1027,6 hPa 0,0 mm 0,0 km/h (0 Bft) W-SW 251 ° 0 min 0,000 mm 0,0 UV-I 19 W/m² 1,2 °C 2,2 °C 0,0 km/h (0 Bft)
24.01.2018 08:20 2,2 °C 93 % 1027,6 hPa 0,0 mm 0,0 km/h (0 Bft) W-SW 251 ° 0 min 0,000 mm 0,0 UV-I 21 W/m² 1,2 °C 2,2 °C 0,0 km/h (0 Bft)
24.01.2018 08:21 2,3 °C 93 % 1027,6 hPa 0,0 mm 0,0 km/h (0 Bft) W-SW 251 ° 0 min 0,000 mm 0,0 UV-I 21 W/m² 1,3 °C 2,3 °C 0,0 km/h (0 Bft)
24.01.2018 08:22 2,3 °C 93 % 1027,6 hPa 0,0 mm 0,9 km/h (0 Bft) W-SW 251 ° 0 min 0,000 mm 0,0 UV-I 23 W/m² 1,3 °C 2,3 °C 1,6 km/h (1 Bft)
24.01.2018 08:23 2,3 °C 93 % 1027,6 hPa 0,0 mm 0,9 km/h (0 Bft) W-SW 251 ° 0 min 0,000 mm 0,0 UV-I 23 W/m² 1,3 °C 2,3 °C 1,6 km/h (1 Bft)
24.01.2018 08:24 2,3 °C 92 % 1027,6 hPa 0,0 mm 0,2 km/h (0 Bft) W-SW 251 ° 0 min 0,000 mm 0,0 UV-I 23 W/m² 1,1 °C 2,3 °C 1,6 km/h (1 Bft)
24.01.2018 08:25 2,3 °C 93 % 1027,6 hPa 0,0 mm 0,0 km/h (0 Bft) W-SW 251 ° 0 min 0,000 mm 0,0 UV-I 23 W/m² 1,3 °C 2,3 °C 0,0 km/h (0 Bft)
24.01.2018 08:26 2,3 °C 92 % 1027,6 hPa 0,0 mm 0,0 km/h (0 Bft) W-SW 251 ° 0 min 0,000 mm 0,0 UV-I 21 W/m² 1,1 °C 2,3 °C 0,0 km/h (0 Bft)
24.01.2018 08:27 2,3 °C 92 % 1027,6 hPa 0,0 mm 0,0 km/h (0 Bft) W-SW 251 ° 0 min 0,000 mm 0,0 UV-I 21 W/m² 1,1 °C 2,3 °C 0,0 km/h (0 Bft)
24.01.2018 08:28 2,3 °C 92 % 1027,5 hPa 0,0 mm 0,1 km/h (0 Bft) W-SW 251 ° 0 min 0,000 mm 0,0 UV-I 21 W/m² 1,1 °C 2,3 °C 1,6 km/h (1 Bft)
24.01.2018 08:29 2,3 °C 92 % 1027,5 hPa 0,0 mm 0,0 km/h (0 Bft) W-SW 251 ° 0 min 0,000 mm 0,0 UV-I 21 W/m² 1,1 °C 2,3 °C 0,0 km/h (0 Bft)
24.01.2018 08:30 2,3 °C 92 % 1027,5 hPa 0,0 mm 0,0 km/h (0 Bft) W-SW 251 ° 0 min 0,000 mm 0,0 UV-I 19 W/m² 1,1 °C 2,3 °C 0,0 km/h (0 Bft)
24.01.2018 08:31 2,3 °C 92 % 1027,5 hPa 0,0 mm 0,0 km/h (0 Bft) W-SW 251 ° 0 min 0,000 mm 0,0 UV-I 19 W/m² 1,1 °C 2,3 °C 0,0 km/h (0 Bft)
24.01.2018 08:32 2,3 °C 92 % 1027,4 hPa 0,0 mm 0,0 km/h (0 Bft) W-SW 251 ° 0 min 0,000 mm 0,0 UV-I 19 W/m² 1,1 °C 2,3 °C 0,0 km/h (0 Bft)
24.01.2018 08:33 2,3 °C 92 % 1027,4 hPa 0,0 mm 0,0 km/h (0 Bft) W-SW 251 ° 0 min 0,000 mm 0,0 UV-I 19 W/m² 1,1 °C 2,3 °C 0,0 km/h (0 Bft)
24.01.2018 08:34 2,3 °C 92 % 1027,4 hPa 0,0 mm 0,0 km/h (0 Bft) W-SW 251 ° 0 min 0,000 mm 0,0 UV-I 19 W/m² 1,1 °C 2,3 °C 0,0 km/h (0 Bft)
24.01.2018 08:35 2,3 °C 92 % 1027,4 hPa 0,0 mm 0,0 km/h (0 Bft) W-SW 251 ° 0 min 0,000 mm 0,0 UV-I 19 W/m² 1,1 °C 2,3 °C 0,0 km/h (0 Bft)
24.01.2018 08:36 2,3 °C 92 % 1027,4 hPa 0,0 mm 0,0 km/h (0 Bft) W-SW 251 ° 0 min 0,000 mm 0,0 UV-I 19 W/m² 1,1 °C 2,3 °C 0,0 km/h (0 Bft)
24.01.2018 08:37 2,3 °C 92 % 1027,3 hPa 0,0 mm 0,0 km/h (0 Bft) W-SW 251 ° 0 min 0,000 mm 0,0 UV-I 19 W/m² 1,1 °C 2,3 °C 0,0 km/h (0 Bft)
24.01.2018 08:38 2,3 °C 92 % 1027,3 hPa 0,0 mm 0,0 km/h (0 Bft) W-SW 251 ° 0 min 0,000 mm 0,0 UV-I 19 W/m² 1,1 °C 2,3 °C 0,0 km/h (0 Bft)
24.01.2018 08:39 2,3 °C 92 % 1027,4 hPa 0,0 mm 0,0 km/h (0 Bft) W-SW 251 ° 0 min 0,000 mm 0,0 UV-I 19 W/m² 1,1 °C 2,3 °C 0,0 km/h (0 Bft)
24.01.2018 08:40 2,3 °C 92 % 1027,3 hPa 0,0 mm 0,0 km/h (0 Bft) W-SW 251 ° 0 min 0,000 mm 0,0 UV-I 19 W/m² 1,1 °C 2,3 °C 0,0 km/h (0 Bft)
24.01.2018 08:41 2,3 °C 92 % 1027,3 hPa 0,0 mm 0,0 km/h (0 Bft) W-SW 251 ° 0 min 0,000 mm 0,0 UV-I 21 W/m² 1,1 °C 2,3 °C 0,0 km/h (0 Bft)
24.01.2018 08:42 2,3 °C 92 % 1027,3 hPa 0,0 mm 0,0 km/h (0 Bft) W-SW 251 ° 0 min 0,000 mm 0,0 UV-I 21 W/m² 1,1 °C 2,3 °C 0,0 km/h (0 Bft)
24.01.2018 08:43 2,3 °C 92 % 1027,3 hPa 0,0 mm 0,0 km/h (0 Bft) W-SW 251 ° 0 min 0,000 mm 0,0 UV-I 21 W/m² 1,1 °C 2,3 °C 0,0 km/h (0 Bft)
24.01.2018 08:44 2,3 °C 92 % 1027,3 hPa 0,0 mm 0,0 km/h (0 Bft) W-SW 251 ° 0 min 0,000 mm 0,0 UV-I 21 W/m² 1,1 °C 2,3 °C 0,0 km/h (0 Bft)
24.01.2018 08:45 2,3 °C 92 % 1027,3 hPa 0,0 mm 0,0 km/h (0 Bft) W-SW 251 ° 0 min 0,000 mm 0,0 UV-I 21 W/m² 1,1 °C 2,3 °C 0,0 km/h (0 Bft)
24.01.2018 08:46 2,3 °C 92 % 1027,2 hPa 0,0 mm 0,3 km/h (0 Bft) W-SW 251 ° 0 min 0,000 mm 0,0 UV-I 21 W/m² 1,1 °C 2,3 °C 1,6 km/h (1 Bft)
24.01.2018 08:47 2,3 °C 92 % 1027,2 hPa 0,0 mm 0,1 km/h (0 Bft) W-SW 251 ° 0 min 0,000 mm 0,0 UV-I 21 W/m² 1,1 °C 2,3 °C 1,6 km/h (1 Bft)
24.01.2018 08:48 2,3 °C 91 % 1027,2 hPa 0,0 mm 0,3 km/h (0 Bft) W-SW 251 ° 0 min 0,000 mm 0,0 UV-I 21 W/m² 1,0 °C 2,3 °C 1,6 km/h (1 Bft)
24.01.2018 08:49 2,4 °C 91 % 1027,1 hPa 0,0 mm 0,1 km/h (0 Bft) W-SW 251 ° 0 min 0,000 mm 0,0 UV-I 21 W/m² 1,1 °C 2,4 °C 1,6 km/h (1 Bft)
24.01.2018 08:50 2,4 °C 91 % 1027,1 hPa 0,0 mm 0,0 km/h (0 Bft) W-SW 251 ° 0 min 0,000 mm 0,0 UV-I 21 W/m² 1,1 °C 2,4 °C 0,0 km/h (0 Bft)
24.01.2018 08:51 2,4 °C 91 % 1027,1 hPa 0,0 mm 0,0 km/h (0 Bft) W-SW 251 ° 0 min 0,000 mm 0,0 UV-I 21 W/m² 1,1 °C 2,4 °C 0,0 km/h (0 Bft)
24.01.2018 08:52 2,4 °C 91 % 1027,2 hPa 0,0 mm 0,0 km/h (0 Bft) W-SW 251 ° 0 min 0,000 mm 0,0 UV-I 21 W/m² 1,1 °C 2,4 °C 0,0 km/h (0 Bft)
24.01.2018 08:53 2,3 °C 91 % 1027,1 hPa 0,0 mm 0,0 km/h (0 Bft) W-SW 251 ° 0 min 0,000 mm 0,0 UV-I 21 W/m² 1,0 °C 2,3 °C 0,0 km/h (0 Bft)
24.01.2018 08:54 2,3 °C 91 % 1027,1 hPa 0,0 mm 0,0 km/h (0 Bft) W-SW 251 ° 0 min 0,000 mm 0,0 UV-I 21 W/m² 1,0 °C 2,3 °C 0,0 km/h (0 Bft)
24.01.2018 08:55 2,3 °C 91 % 1027,1 hPa 0,0 mm 0,0 km/h (0 Bft) W-SW 251 ° 0 min 0,000 mm 0,0 UV-I 21 W/m² 1,0 °C 2,3 °C 0,0 km/h (0 Bft)
24.01.2018 08:56 2,4 °C 91 % 1027,1 hPa 0,0 mm 0,0 km/h (0 Bft) W-SW 251 ° 0 min 0,000 mm 0,0 UV-I 21 W/m² 1,1 °C 2,4 °C 0,0 km/h (0 Bft)
24.01.2018 08:57 2,4 °C 91 % 1027,1 hPa 0,0 mm 0,0 km/h (0 Bft) W-SW 251 ° 0 min 0,000 mm 0,0 UV-I 21 W/m² 1,1 °C 2,4 °C 0,0 km/h (0 Bft)
24.01.2018 08:58 2,4 °C 91 % 1027,2 hPa 0,0 mm 0,0 km/h (0 Bft) W-SW 251 ° 0 min 0,000 mm 0,0 UV-I 21 W/m² 1,1 °C 2,4 °C 0,0 km/h (0 Bft)
24.01.2018 08:59 2,4 °C 91 % 1027,1 hPa 0,0 mm 0,6 km/h (0 Bft) W-SW 251 ° 0 min 0,000 mm 0,0 UV-I 21 W/m² 1,1 °C 2,4 °C 1,6 km/h (1 Bft)
24.01.2018 09:00 2,4 °C 91 % 1027,2 hPa 0,0 mm 1,7 km/h (1 Bft) W-SW 251 ° 0 min 0,000 mm 0,0 UV-I 21 W/m² 1,1 °C 2,4 °C 3,2 km/h (1 Bft)
24.01.2018 09:01 2,4 °C 91 % 1027,2 hPa 0,0 mm 0,6 km/h (0 Bft) S 189 ° 0 min 0,000 mm 0,0 UV-I 21 W/m² 1,1 °C 2,4 °C 1,6 km/h (1 Bft)
24.01.2018 09:02 2,4 °C 91 % 1027,2 hPa 0,0 mm 0,5 km/h (0 Bft) S 189 ° 0 min 0,000 mm 0,0 UV-I 21 W/m² 1,1 °C 2,4 °C 1,6 km/h (1 Bft)
24.01.2018 09:03 2,4 °C 91 % 1027,2 hPa 0,0 mm 1,2 km/h (1 Bft) S 175 ° 0 min 0,000 mm 0,0 UV-I 23 W/m² 1,1 °C 2,4 °C 3,2 km/h (1 Bft)
24.01.2018 09:04 2,4 °C 91 % 1027,2 hPa 0,0 mm 1,0 km/h (0 Bft) S 175 ° 0 min 0,000 mm 0,0 UV-I 23 W/m² 1,1 °C 2,4 °C 3,2 km/h (1 Bft)
24.01.2018 09:05 2,4 °C 90 % 1027,2 hPa 0,0 mm 1,6 km/h (1 Bft) S 175 ° 0 min 0,000 mm 0,0 UV-I 23 W/m² 0,9 °C 2,4 °C 3,2 km/h (1 Bft)
24.01.2018 09:06 2,5 °C 90 % 1027,2 hPa 0,0 mm 0,0 km/h (0 Bft) S 175 ° 0 min 0,000 mm 0,0 UV-I 23 W/m² 1,0 °C 2,5 °C 0,0 km/h (0 Bft)
24.01.2018 09:07 2,5 °C 90 % 1027,2 hPa 0,0 mm 0,0 km/h (0 Bft) S 175 ° 0 min 0,000 mm 0,0 UV-I 23 W/m² 1,0 °C 2,5 °C 0,0 km/h (0 Bft)
24.01.2018 09:08 2,6 °C 90 % 1027,2 hPa 0,0 mm 0,0 km/h (0 Bft) S 175 ° 0 min 0,000 mm 0,0 UV-I 23 W/m² 1,1 °C 2,6 °C 0,0 km/h (0 Bft)
24.01.2018 09:09 2,6 °C 90 % 1027,2 hPa 0,0 mm 0,8 km/h (0 Bft) S 175 ° 0 min 0,000 mm 0,0 UV-I 25 W/m² 1,1 °C 2,6 °C 3,2 km/h (1 Bft)
24.01.2018 09:10 2,6 °C 90 % 1027,2 hPa 0,0 mm 3,2 km/h (1 Bft) W-NW 288 ° 0 min 0,000 mm 0,0 UV-I 25 W/m² 1,1 °C 2,6 °C 4,8 km/h (1 Bft)
24.01.2018 09:11 2,6 °C 90 % 1027,2 hPa 0,0 mm 0,1 km/h (0 Bft) W-NW 288 ° 0 min 0,000 mm 0,0 UV-I 25 W/m² 1,1 °C 2,6 °C 1,6 km/h (1 Bft)
24.01.2018 09:12 2,6 °C 90 % 1027,2 hPa 0,0 mm 0,0 km/h (0 Bft) W-NW 288 ° 0 min 0,000 mm 0,0 UV-I 26 W/m² 1,1 °C 2,6 °C 0,0 km/h (0 Bft)
24.01.2018 09:13 2,7 °C 89 % 1027,2 hPa 0,0 mm 0,0 km/h (0 Bft) W-NW 288 ° 0 min 0,000 mm 0,0 UV-I 26 W/m² 1,1 °C 2,7 °C 0,0 km/h (0 Bft)
24.01.2018 09:14 2,7 °C 90 % 1027,3 hPa 0,0 mm 0,0 km/h (0 Bft) W-NW 288 ° 0 min 0,000 mm 0,0 UV-I 26 W/m² 1,2 °C 2,7 °C 0,0 km/h (0 Bft)
24.01.2018 09:15 2,7 °C 90 % 1027,2 hPa 0,0 mm 0,0 km/h (0 Bft) W-NW 288 ° 0 min 0,000 mm 0,0 UV-I 26 W/m² 1,2 °C 2,7 °C 0,0 km/h (0 Bft)
24.01.2018 09:16 2,8 °C 89 % 1027,2 hPa 0,0 mm 0,0 km/h (0 Bft) W-NW 288 ° 0 min 0,000 mm 0,0 UV-I 28 W/m² 1,2 °C 2,8 °C 0,0 km/h (0 Bft)
24.01.2018 09:17 2,8 °C 89 % 1027,2 hPa 0,0 mm 0,0 km/h (0 Bft) W-NW 288 ° 0 min 0,000 mm 0,0 UV-I 28 W/m² 1,2 °C 2,8 °C 0,0 km/h (0 Bft)
24.01.2018 09:18 2,8 °C 89 % 1027,2 hPa 0,0 mm 0,0 km/h (0 Bft) W-NW 288 ° 0 min 0,000 mm 0,0 UV-I 28 W/m² 1,2 °C 2,8 °C 0,0 km/h (0 Bft)
24.01.2018 09:19 2,8 °C 89 % 1027,3 hPa 0,0 mm 0,0 km/h (0 Bft) W-NW 288 ° 0 min 0,000 mm 0,0 UV-I 28 W/m² 1,2 °C 2,8 °C 0,0 km/h (0 Bft)
24.01.2018 09:20 2,9 °C 89 % 1027,2 hPa 0,0 mm 0,0 km/h (0 Bft) W-NW 288 ° 0 min 0,000 mm 0,0 UV-I 30 W/m² 1,3 °C 2,9 °C 0,0 km/h (0 Bft)
24.01.2018 09:21 2,9 °C 89 % 1027,3 hPa 0,0 mm 0,0 km/h (0 Bft) W-NW 288 ° 0 min 0,000 mm 0,0 UV-I 30 W/m² 1,3 °C 2,9 °C 0,0 km/h (0 Bft)
24.01.2018 09:22 2,9 °C 89 % 1027,2 hPa 0,0 mm 0,0 km/h (0 Bft) W-NW 288 ° 0 min 0,000 mm 0,0 UV-I 30 W/m² 1,3 °C 2,9 °C 0,0 km/h (0 Bft)
24.01.2018 09:23 2,9 °C 88 % 1027,2 hPa 0,0 mm 0,0 km/h (0 Bft) W-NW 288 ° 0 min 0,000 mm 0,0 UV-I 30 W/m² 1,1 °C 2,9 °C 0,0 km/h (0 Bft)
24.01.2018 09:24 2,9 °C 88 % 1027,2 hPa 0,0 mm 0,0 km/h (0 Bft) W-NW 288 ° 0 min 0,000 mm 0,0 UV-I 30 W/m² 1,1 °C 2,9 °C 0,0 km/h (0 Bft)
24.01.2018 09:25 2,9 °C 88 % 1027,2 hPa 0,0 mm 0,0 km/h (0 Bft) W-NW 288 ° 0 min 0,000 mm 0,0 UV-I 32 W/m² 1,1 °C 2,9 °C 0,0 km/h (0 Bft)
24.01.2018 09:26 2,9 °C 88 % 1027,2 hPa 0,0 mm 0,0 km/h (0 Bft) W-NW 288 ° 0 min 0,000 mm 0,0 UV-I 32 W/m² 1,1 °C 2,9 °C 0,0 km/h (0 Bft)
24.01.2018 09:27 3,0 °C 88 % 1027,2 hPa 0,0 mm 0,0 km/h (0 Bft) W-NW 288 ° 0 min 0,000 mm 0,0 UV-I 32 W/m² 1,2 °C 3,0 °C 0,0 km/h (0 Bft)
24.01.2018 09:28 3,0 °C 88 % 1027,2 hPa 0,0 mm 0,0 km/h (0 Bft) W-NW 288 ° 0 min 0,000 mm 0,0 UV-I 32 W/m² 1,2 °C 3,0 °C 0,0 km/h (0 Bft)
24.01.2018 09:29 3,1 °C 88 % 1027,2 hPa 0,0 mm 1,1 km/h (1 Bft) W-NW 288 ° 0 min 0,000 mm 0,0 UV-I 32 W/m² 1,3 °C 3,1 °C 1,6 km/h (1 Bft)
24.01.2018 09:30 3,1 °C 88 % 1027,2 hPa 0,0 mm 0,6 km/h (0 Bft) W-NW 288 ° 0 min 0,000 mm 0,0 UV-I 32 W/m² 1,3 °C 3,1 °C 1,6 km/h (1 Bft)
24.01.2018 09:31 3,1 °C 88 % 1027,2 hPa 0,0 mm 0,9 km/h (0 Bft) W-NW 289 ° 0 min 0,000 mm 0,0 UV-I 32 W/m² 1,3 °C 3,1 °C 3,2 km/h (1 Bft)
24.01.2018 09:32 3,1 °C 88 % 1027,2 hPa 0,0 mm 0,6 km/h (0 Bft) W-NW 289 ° 0 min 0,000 mm 0,0 UV-I 33 W/m² 1,3 °C 3,1 °C 1,6 km/h (1 Bft)
24.01.2018 09:33 3,1 °C 88 % 1027,1 hPa 0,0 mm 0,0 km/h (0 Bft) W-NW 289 ° 0 min 0,000 mm 0,0 UV-I 33 W/m² 1,3 °C 3,1 °C 0,0 km/h (0 Bft)
24.01.2018 09:34 3,1 °C 88 % 1027,2 hPa 0,0 mm 0,0 km/h (0 Bft) W-NW 289 ° 0 min 0,000 mm 0,0 UV-I 33 W/m² 1,3 °C 3,1 °C 0,0 km/h (0 Bft)
24.01.2018 09:35 3,2 °C 88 % 1027,2 hPa 0,0 mm 0,0 km/h (0 Bft) W-NW 289 ° 0 min 0,000 mm 0,0 UV-I 33 W/m² 1,4 °C 3,2 °C 0,0 km/h (0 Bft)
24.01.2018 09:36 3,2 °C 88 % 1027,2 hPa 0,0 mm 0,0 km/h (0 Bft) W-NW 289 ° 0 min 0,000 mm 0,0 UV-I 33 W/m² 1,4 °C 3,2 °C 0,0 km/h (0 Bft)
24.01.2018 09:37 3,2 °C 88 % 1027,2 hPa 0,0 mm 0,0 km/h (0 Bft) W-NW 289 ° 0 min 0,000 mm 0,0 UV-I 33 W/m² 1,4 °C 3,2 °C 0,0 km/h (0 Bft)
24.01.2018 09:38 3,2 °C 87 % 1027,2 hPa 0,0 mm 0,0 km/h (0 Bft) W-NW 289 ° 0 min 0,000 mm 0,0 UV-I 33 W/m² 1,2 °C 3,2 °C 0,0 km/h (0 Bft)
24.01.2018 09:39 3,2 °C 87 % 1027,2 hPa 0,0 mm 0,0 km/h (0 Bft) W-NW 289 ° 0 min 0,000 mm 0,0 UV-I 33 W/m² 1,2 °C 3,2 °C 0,0 km/h (0 Bft)
24.01.2018 09:40 3,2 °C 87 % 1027,2 hPa 0,0 mm 0,0 km/h (0 Bft) W-NW 289 ° 0 min 0,000 mm 0,0 UV-I 32 W/m² 1,2 °C 3,2 °C 0,0 km/h (0 Bft)
24.01.2018 09:41 3,2 °C 87 % 1027,2 hPa 0,0 mm 0,0 km/h (0 Bft) W-NW 289 ° 0 min 0,000 mm 0,0 UV-I 32 W/m² 1,2 °C 3,2 °C 0,0 km/h (0 Bft)
24.01.2018 09:42 3,2 °C 87 % 1027,1 hPa 0,0 mm 0,0 km/h (0 Bft) W-NW 289 ° 0 min 0,000 mm 0,0 UV-I 32 W/m² 1,2 °C 3,2 °C 0,0 km/h (0 Bft)
24.01.2018 09:43 3,2 °C 87 % 1027,2 hPa 0,0 mm 0,0 km/h (0 Bft) W-NW 289 ° 0 min 0,000 mm 0,0 UV-I 32 W/m² 1,2 °C 3,2 °C 0,0 km/h (0 Bft)
24.01.2018 09:44 3,2 °C 87 % 1027,2 hPa 0,0 mm 0,0 km/h (0 Bft) W-NW 289 ° 0 min 0,000 mm 0,0 UV-I 32 W/m² 1,2 °C 3,2 °C 0,0 km/h (0 Bft)
24.01.2018 09:45 3,2 °C 87 % 1027,1 hPa 0,0 mm 0,0 km/h (0 Bft) W-NW 289 ° 0 min 0,000 mm 0,0 UV-I 32 W/m² 1,2 °C 3,2 °C 0,0 km/h (0 Bft)
24.01.2018 09:46 3,2 °C 87 % 1027,1 hPa 0,0 mm 0,0 km/h (0 Bft) W-NW 289 ° 0 min 0,000 mm 0,0 UV-I 30 W/m² 1,2 °C 3,2 °C 0,0 km/h (0 Bft)
24.01.2018 09:47 3,2 °C 87 % 1027,1 hPa 0,0 mm 0,0 km/h (0 Bft) W-NW 289 ° 0 min 0,000 mm 0,0 UV-I 30 W/m² 1,2 °C 3,2 °C 0,0 km/h (0 Bft)
24.01.2018 09:48 3,2 °C 87 % 1027,0 hPa 0,0 mm 0,0 km/h (0 Bft) W-NW 289 ° 0 min 0,000 mm 0,0 UV-I 30 W/m² 1,2 °C 3,2 °C 0,0 km/h (0 Bft)
24.01.2018 09:49 3,2 °C 87 % 1027,1 hPa 0,0 mm 0,0 km/h (0 Bft) W-NW 289 ° 0 min 0,000 mm 0,0 UV-I 30 W/m² 1,2 °C 3,2 °C 0,0 km/h (0 Bft)
24.01.2018 09:50 3,2 °C 87 % 1027,1 hPa 0,0 mm 0,0 km/h (0 Bft) W-NW 289 ° 0 min 0,000 mm 0,0 UV-I 30 W/m² 1,2 °C 3,2 °C 0,0 km/h (0 Bft)
24.01.2018 09:51 3,2 °C 87 % 1027,0 hPa 0,0 mm 0,0 km/h (0 Bft) W-NW 289 ° 0 min 0,000 mm 0,0 UV-I 28 W/m² 1,2 °C 3,2 °C 0,0 km/h (0 Bft)
24.01.2018 09:52 3,2 °C 87 % 1027,1 hPa 0,0 mm 0,0 km/h (0 Bft) W-NW 289 ° 0 min 0,000 mm 0,0 UV-I 28 W/m² 1,2 °C 3,2 °C 0,0 km/h (0 Bft)
24.01.2018 09:53 3,2 °C 87 % 1027,0 hPa 0,0 mm 0,0 km/h (0 Bft) W-NW 289 ° 0 min 0,000 mm 0,0 UV-I 28 W/m² 1,2 °C 3,2 °C 0,0 km/h (0 Bft)
24.01.2018 09:54 3,2 °C 87 % 1027,0 hPa 0,0 mm 0,0 km/h (0 Bft) W-NW 289 ° 0 min 0,000 mm 0,0 UV-I 28 W/m² 1,2 °C 3,2 °C 0,0 km/h (0 Bft)
24.01.2018 09:55 3,3 °C 87 % 1027,0 hPa 0,0 mm 0,0 km/h (0 Bft) W-NW 289 ° 0 min 0,000 mm 0,0 UV-I 28 W/m² 1,3 °C 3,3 °C 0,0 km/h (0 Bft)
24.01.2018 09:56 3,3 °C 87 % 1027,0 hPa 0,0 mm 0,0 km/h (0 Bft) W-NW 289 ° 0 min 0,000 mm 0,0 UV-I 26 W/m² 1,3 °C 3,3 °C 0,0 km/h (0 Bft)
24.01.2018 09:57 3,2 °C 87 % 1027,1 hPa 0,0 mm 0,0 km/h (0 Bft) W-NW 289 ° 0 min 0,000 mm 0,0 UV-I 26 W/m² 1,2 °C 3,2 °C 0,0 km/h (0 Bft)
24.01.2018 09:58 3,2 °C 87 % 1027,0 hPa 0,0 mm 0,0 km/h (0 Bft) W-NW 289 ° 0 min 0,000 mm 0,0 UV-I 26 W/m² 1,2 °C 3,2 °C 0,0 km/h (0 Bft)
24.01.2018 09:59 3,3 °C 87 % 1027,0 hPa 0,0 mm 0,0 km/h (0 Bft) W-NW 289 ° 0 min 0,000 mm 0,0 UV-I 26 W/m² 1,3 °C 3,3 °C 0,0 km/h (0 Bft)
24.01.2018 10:00 3,3 °C 86 % 1027,0 hPa 0,0 mm 0,0 km/h (0 Bft) W-NW 289 ° 0 min 0,000 mm 0,0 UV-I 26 W/m² 1,2 °C 3,3 °C 0,0 km/h (0 Bft)
24.01.2018 10:01 3,3 °C 86 % 1027,0 hPa 0,0 mm 0,0 km/h (0 Bft) W-NW 289 ° 0 min 0,000 mm 0,0 UV-I 26 W/m² 1,2 °C 3,3 °C 0,0 km/h (0 Bft)
24.01.2018 10:02 3,3 °C 86 % 1027,0 hPa 0,0 mm 0,0 km/h (0 Bft) W-NW 289 ° 0 min 0,000 mm 0,0 UV-I 26 W/m² 1,2 °C 3,3 °C 0,0 km/h (0 Bft)
24.01.2018 10:03 3,3 °C 87 % 1027,0 hPa 0,0 mm 1,3 km/h (1 Bft) W-NW 289 ° 0 min 0,000 mm 0,0 UV-I 26 W/m² 1,3 °C 3,3 °C 3,2 km/h (1 Bft)
24.01.2018 10:04 3,3 °C 86 % 1027,0 hPa 0,0 mm 0,5 km/h (0 Bft) W-NW 289 ° 0 min 0,000 mm 0,0 UV-I 26 W/m² 1,2 °C 3,3 °C 1,6 km/h (1 Bft)
24.01.2018 10:05 3,3 °C 86 % 1026,9 hPa 0,0 mm 0,0 km/h (0 Bft) W-NW 289 ° 0 min 0,000 mm 0,0 UV-I 26 W/m² 1,2 °C 3,3 °C 0,0 km/h (0 Bft)
24.01.2018 10:06 3,3 °C 86 % 1026,9 hPa 0,0 mm 0,0 km/h (0 Bft) W-NW 289 ° 0 min 0,000 mm 0,0 UV-I 25 W/m² 1,2 °C 3,3 °C 0,0 km/h (0 Bft)
24.01.2018 10:07 3,3 °C 87 % 1026,9 hPa 0,0 mm 0,0 km/h (0 Bft) W-NW 289 ° 0 min 0,000 mm 0,0 UV-I 25 W/m² 1,3 °C 3,3 °C 0,0 km/h (0 Bft)
24.01.2018 10:08 3,3 °C 86 % 1026,9 hPa 0,0 mm 0,9 km/h (0 Bft) W-NW 289 ° 0 min 0,000 mm 0,0 UV-I 26 W/m² 1,2 °C 3,3 °C 1,6 km/h (1 Bft)
24.01.2018 10:09 3,3 °C 86 % 1026,9 hPa 0,0 mm 0,1 km/h (0 Bft) W-NW 289 ° 0 min 0,000 mm 0,0 UV-I 28 W/m² 1,2 °C 3,3 °C 1,6 km/h (1 Bft)
24.01.2018 10:10 3,3 °C 86 % 1026,8 hPa 0,0 mm 0,0 km/h (0 Bft) W-NW 289 ° 0 min 0,000 mm 0,0 UV-I 28 W/m² 1,2 °C 3,3 °C 0,0 km/h (0 Bft)
24.01.2018 10:11 3,3 °C 86 % 1026,8 hPa 0,0 mm 0,0 km/h (0 Bft) W-NW 289 ° 0 min 0,000 mm 0,0 UV-I 26 W/m² 1,2 °C 3,3 °C 0,0 km/h (0 Bft)
24.01.2018 10:12 3,3 °C 87 % 1026,9 hPa 0,0 mm 0,0 km/h (0 Bft) W-NW 289 ° 0 min 0,000 mm 0,0 UV-I 26 W/m² 1,3 °C 3,3 °C 0,0 km/h (0 Bft)
24.01.2018 10:13 3,4 °C 87 % 1026,8 hPa 0,0 mm 0,0 km/h (0 Bft) W-NW 289 ° 0 min 0,000 mm 0,0 UV-I 26 W/m² 1,4 °C 3,4 °C 0,0 km/h (0 Bft)
24.01.2018 10:14 3,4 °C 86 % 1026,8 hPa 0,0 mm 0,0 km/h (0 Bft) W-NW 289 ° 0 min 0,000 mm 0,0 UV-I 26 W/m² 1,3 °C 3,4 °C 0,0 km/h (0 Bft)
24.01.2018 10:15 3,4 °C 86 % 1026,8 hPa 0,0 mm 0,0 km/h (0 Bft) W-NW 289 ° 0 min 0,000 mm 0,0 UV-I 26 W/m² 1,3 °C 3,4 °C 0,0 km/h (0 Bft)
24.01.2018 10:16 3,4 °C 86 % 1026,8 hPa 0,0 mm 0,0 km/h (0 Bft) W-NW 289 ° 0 min 0,000 mm 0,0 UV-I 26 W/m² 1,3 °C 3,4 °C 0,0 km/h (0 Bft)
24.01.2018 10:17 3,4 °C 86 % 1026,8 hPa 0,0 mm 0,0 km/h (0 Bft) W-NW 289 ° 0 min 0,000 mm 0,0 UV-I 26 W/m² 1,3 °C 3,4 °C 0,0 km/h (0 Bft)
24.01.2018 10:18 3,4 °C 87 % 1026,8 hPa 0,0 mm 0,0 km/h (0 Bft) W-NW 289 ° 0 min 0,000 mm 0,0 UV-I 26 W/m² 1,4 °C 3,4 °C 0,0 km/h (0 Bft)
24.01.2018 10:19 3,5 °C 87 % 1026,7 hPa 0,0 mm 0,0 km/h (0 Bft) W-NW 289 ° 0 min 0,000 mm 0,0 UV-I 28 W/m² 1,5 °C 3,5 °C 0,0 km/h (0 Bft)
24.01.2018 10:20 3,5 °C 87 % 1026,7 hPa 0,0 mm 0,0 km/h (0 Bft) W-NW 289 ° 0 min 0,000 mm 0,0 UV-I 28 W/m² 1,5 °C 3,5 °C 0,0 km/h (0 Bft)
24.01.2018 10:21 3,5 °C 87 % 1026,7 hPa 0,0 mm 1,0 km/h (0 Bft) W-NW 289 ° 0 min 0,000 mm 0,0 UV-I 28 W/m² 1,5 °C 3,5 °C 3,2 km/h (1 Bft)
24.01.2018 10:22 3,6 °C 86 % 1026,7 hPa 0,0 mm 0,2 km/h (0 Bft) W-NW 289 ° 0 min 0,000 mm 0,0 UV-I 30 W/m² 1,5 °C 3,6 °C 1,6 km/h (1 Bft)
24.01.2018 10:23 3,6 °C 86 % 1026,7 hPa 0,0 mm 0,0 km/h (0 Bft) W-NW 289 ° 0 min 0,000 mm 0,0 UV-I 30 W/m² 1,5 °C 3,6 °C 0,0 km/h (0 Bft)
24.01.2018 10:24 3,6 °C 86 % 1026,7 hPa 0,0 mm 0,1 km/h (0 Bft) W-NW 289 ° 0 min 0,000 mm 0,0 UV-I 32 W/m² 1,5 °C 3,6 °C 1,6 km/h (1 Bft)
24.01.2018 10:25 3,6 °C 86 % 1026,6 hPa 0,0 mm 1,3 km/h (1 Bft) W-NW 289 ° 0 min 0,000 mm 0,0 UV-I 33 W/m² 1,5 °C 3,6 °C 3,2 km/h (1 Bft)
24.01.2018 10:26 3,6 °C 86 % 1026,7 hPa 0,0 mm 0,0 km/h (0 Bft) W-NW 289 ° 0 min 0,000 mm 0,0 UV-I 32 W/m² 1,5 °C 3,6 °C 0,0 km/h (0 Bft)
24.01.2018 10:27 3,6 °C 86 % 1026,7 hPa 0,0 mm 0,1 km/h (0 Bft) W-NW 289 ° 0 min 0,000 mm 0,0 UV-I 32 W/m² 1,5 °C 3,6 °C 1,6 km/h (1 Bft)
24.01.2018 10:28 3,7 °C 86 % 1026,7 hPa 0,0 mm 0,4 km/h (0 Bft) W-NW 289 ° 0 min 0,000 mm 0,0 UV-I 32 W/m² 1,6 °C 3,7 °C 1,6 km/h (1 Bft)
24.01.2018 10:29 3,7 °C 86 % 1026,7 hPa 0,0 mm 0,9 km/h (0 Bft) W-NW 289 ° 0 min 0,000 mm 0,0 UV-I 32 W/m² 1,6 °C 3,7 °C 3,2 km/h (1 Bft)
24.01.2018 10:30 3,7 °C 85 % 1026,6 hPa 0,0 mm 0,0 km/h (0 Bft) W-NW 289 ° 0 min 0,000 mm 0,0 UV-I 33 W/m² 1,4 °C 3,7 °C 0,0 km/h (0 Bft)
24.01.2018 10:31 3,8 °C 85 % 1026,6 hPa 0,0 mm 0,0 km/h (0 Bft) W-NW 289 ° 0 min 0,000 mm 0,0 UV-I 33 W/m² 1,5 °C 3,8 °C 0,0 km/h (0 Bft)
24.01.2018 10:32 3,8 °C 85 % 1026,6 hPa 0,0 mm 0,0 km/h (0 Bft) W-NW 289 ° 0 min 0,000 mm 0,0 UV-I 33 W/m² 1,5 °C 3,8 °C 0,0 km/h (0 Bft)
24.01.2018 10:33 3,8 °C 85 % 1026,6 hPa 0,0 mm 0,0 km/h (0 Bft) W-NW 289 ° 0 min 0,000 mm 0,0 UV-I 33 W/m² 1,5 °C 3,8 °C 0,0 km/h (0 Bft)
24.01.2018 10:34 3,8 °C 85 % 1026,6 hPa 0,0 mm 0,0 km/h (0 Bft) W-NW 289 ° 0 min 0,000 mm 0,0 UV-I 33 W/m² 1,5 °C 3,8 °C 0,0 km/h (0 Bft)
24.01.2018 10:35 3,9 °C 85 % 1026,6 hPa 0,0 mm 0,0 km/h (0 Bft) W-NW 289 ° 0 min 0,000 mm 0,0 UV-I 33 W/m² 1,6 °C 3,9 °C 0,0 km/h (0 Bft)
24.01.2018 10:36 3,9 °C 85 % 1026,5 hPa 0,0 mm 0,0 km/h (0 Bft) W-NW 289 ° 0 min 0,000 mm 0,0 UV-I 33 W/m² 1,6 °C 3,9 °C 0,0 km/h (0 Bft)
24.01.2018 10:37 3,9 °C 85 % 1026,6 hPa 0,0 mm 0,0 km/h (0 Bft) W-NW 289 ° 0 min 0,000 mm 0,0 UV-I 33 W/m² 1,6 °C 3,9 °C 0,0 km/h (0 Bft)
24.01.2018 10:38 3,9 °C 85 % 1026,6 hPa 0,0 mm 2,6 km/h (1 Bft) W-NW 289 ° 0 min 0,000 mm 0,0 UV-I 33 W/m² 1,6 °C 3,9 °C 4,8 km/h (1 Bft)
24.01.2018 10:39 3,9 °C 85 % 1026,6 hPa 0,0 mm 1,3 km/h (1 Bft) W-NW 290 ° 0 min 0,000 mm 0,0 UV-I 33 W/m² 1,6 °C 3,9 °C 4,8 km/h (1 Bft)
24.01.2018 10:40 4,0 °C 85 % 1026,5 hPa 0,0 mm 0,3 km/h (0 Bft) W-NW 290 ° 0 min 0,000 mm 0,0 UV-I 33 W/m² 1,7 °C 4,0 °C 1,6 km/h (1 Bft)
24.01.2018 10:41 4,0 °C 85 % 1026,5 hPa 0,0 mm 0,0 km/h (0 Bft) W-NW 290 ° 0 min 0,000 mm 0,0 UV-I 33 W/m² 1,7 °C 4,0 °C 0,0 km/h (0 Bft)
24.01.2018 10:42 4,1 °C 85 % 1026,6 hPa 0,0 mm 0,1 km/h (0 Bft) W-NW 290 ° 0 min 0,000 mm 0,0 UV-I 33 W/m² 1,8 °C 4,1 °C 1,6 km/h (1 Bft)
24.01.2018 10:43 4,1 °C 84 % 1026,5 hPa 0,0 mm 0,9 km/h (0 Bft) W-NW 301 ° 0 min 0,000 mm 0,0 UV-I 33 W/m² 1,6 °C 4,1 °C 4,8 km/h (1 Bft)
24.01.2018 10:44 4,1 °C 84 % 1026,5 hPa 0,0 mm 1,1 km/h (1 Bft) W-NW 301 ° 0 min 0,000 mm 0,0 UV-I 33 W/m² 1,6 °C 4,1 °C 3,2 km/h (1 Bft)
24.01.2018 10:45 4,2 °C 84 % 1026,5 hPa 0,0 mm 0,0 km/h (0 Bft) W-NW 301 ° 0 min 0,000 mm 0,0 UV-I 33 W/m² 1,7 °C 4,2 °C 0,0 km/h (0 Bft)
24.01.2018 10:46 4,2 °C 83 % 1026,5 hPa 0,0 mm 0,0 km/h (0 Bft) W-NW 301 ° 0 min 0,000 mm 0,0 UV-I 33 W/m² 1,6 °C 4,2 °C 0,0 km/h (0 Bft)
24.01.2018 10:47 4,2 °C 83 % 1026,5 hPa 0,0 mm 0,0 km/h (0 Bft) W-NW 301 ° 0 min 0,000 mm 0,0 UV-I 33 W/m² 1,6 °C 4,2 °C 0,0 km/h (0 Bft)
24.01.2018 10:48 4,3 °C 83 % 1026,5 hPa 0,0 mm 0,0 km/h (0 Bft) W-NW 301 ° 0 min 0,000 mm 0,0 UV-I 33 W/m² 1,7 °C 4,3 °C 0,0 km/h (0 Bft)
24.01.2018 10:49 4,3 °C 83 % 1026,6 hPa 0,0 mm 0,1 km/h (0 Bft) W-NW 301 ° 0 min 0,000 mm 0,0 UV-I 33 W/m² 1,7 °C 4,3 °C 1,6 km/h (1 Bft)
24.01.2018 10:50 4,3 °C 83 % 1026,6 hPa 0,0 mm 0,0 km/h (0 Bft) W-NW 301 ° 0 min 0,000 mm 0,0 UV-I 33 W/m² 1,7 °C 4,3 °C 0,0 km/h (0 Bft)
24.01.2018 10:51 4,3 °C 83 % 1026,5 hPa 0,0 mm 0,0 km/h (0 Bft) W-NW 301 ° 0 min 0,000 mm 0,0 UV-I 33 W/m² 1,7 °C 4,3 °C 0,0 km/h (0 Bft)
24.01.2018 10:52 4,4 °C 83 % 1026,6 hPa 0,0 mm 0,0 km/h (0 Bft) W-NW 301 ° 0 min 0,000 mm 0,0 UV-I 33 W/m² 1,8 °C 4,4 °C 0,0 km/h (0 Bft)
24.01.2018 10:53 4,4 °C 83 % 1026,6 hPa 0,0 mm 0,0 km/h (0 Bft) W-NW 301 ° 0 min 0,000 mm 0,0 UV-I 33 W/m² 1,8 °C 4,4 °C 0,0 km/h (0 Bft)
24.01.2018 10:54 4,4 °C 83 % 1026,5 hPa 0,0 mm 0,0 km/h (0 Bft) W-NW 301 ° 0 min 0,000 mm 0,0 UV-I 35 W/m² 1,8 °C 4,4 °C 0,0 km/h (0 Bft)
24.01.2018 10:55 4,5 °C 83 % 1026,5 hPa 0,0 mm 0,5 km/h (0 Bft) W-NW 301 ° 0 min 0,000 mm 0,0 UV-I 35 W/m² 1,9 °C 4,5 °C 3,2 km/h (1 Bft)
24.01.2018 10:56 4,6 °C 82 % 1026,5 hPa 0,0 mm 2,0 km/h (1 Bft) W-NW 301 ° 0 min 0,000 mm 0,0 UV-I 37 W/m² 1,8 °C 4,6 °C 3,2 km/h (1 Bft)
24.01.2018 10:57 4,6 °C 82 % 1026,5 hPa 0,0 mm 0,5 km/h (0 Bft) W-NW 301 ° 0 min 0,000 mm 0,0 UV-I 37 W/m² 1,8 °C 4,6 °C 1,6 km/h (1 Bft)
24.01.2018 10:58 4,6 °C 82 % 1026,5 hPa 0,0 mm 0,0 km/h (0 Bft) W-NW 301 ° 0 min 0,000 mm 0,0 UV-I 39 W/m² 1,8 °C 4,6 °C 0,0 km/h (0 Bft)
24.01.2018 10:59 4,7 °C 82 % 1026,4 hPa 0,0 mm 0,0 km/h (0 Bft) W-NW 301 ° 0 min 0,000 mm 0,0 UV-I 39 W/m² 1,9 °C 4,7 °C 0,0 km/h (0 Bft)
24.01.2018 11:00 4,7 °C 81 % 1026,5 hPa 0,0 mm 0,0 km/h (0 Bft) W-NW 301 ° 0 min 0,025 mm 0,0 UV-I 40 W/m² 1,7 °C 4,7 °C 0,0 km/h (0 Bft)
24.01.2018 11:01 4,8 °C 81 % 1026,4 hPa 0,0 mm 0,0 km/h (0 Bft) W-NW 301 ° 0 min 0,000 mm 0,0 UV-I 40 W/m² 1,8 °C 4,8 °C 0,0 km/h (0 Bft)
24.01.2018 11:02 4,8 °C 81 % 1026,4 hPa 0,0 mm 2,0 km/h (1 Bft) W-NW 301 ° 0 min 0,000 mm 0,0 UV-I 40 W/m² 1,8 °C 4,8 °C 3,2 km/h (1 Bft)
24.01.2018 11:03 4,9 °C 80 % 1026,4 hPa 0,0 mm 0,0 km/h (0 Bft) W-NW 301 ° 0 min 0,000 mm 0,0 UV-I 40 W/m² 1,7 °C 4,9 °C 0,0 km/h (0 Bft)
24.01.2018 11:04 4,9 °C 80 % 1026,4 hPa 0,0 mm 0,0 km/h (0 Bft) W-NW 301 ° 0 min 0,000 mm 0,0 UV-I 40 W/m² 1,7 °C 4,9 °C 0,0 km/h (0 Bft)
24.01.2018 11:05 5,0 °C 80 % 1026,4 hPa 0,0 mm 0,0 km/h (0 Bft) W-NW 301 ° 0 min 0,000 mm 0,0 UV-I 40 W/m² 1,8 °C 5,0 °C 0,0 km/h (0 Bft)
24.01.2018 11:06 5,1 °C 80 % 1026,4 hPa 0,0 mm 1,5 km/h (1 Bft) W-NW 301 ° 0 min 0,000 mm 0,0 UV-I 40 W/m² 1,9 °C 5,1 °C 3,2 km/h (1 Bft)
24.01.2018 11:07 5,1 °C 80 % 1026,4 hPa 0,0 mm 0,0 km/h (0 Bft) W-NW 301 ° 0 min 0,000 mm 0,0 UV-I 40 W/m² 1,9 °C 5,1 °C 0,0 km/h (0 Bft)
24.01.2018 11:08 5,1 °C 79 % 1026,4 hPa 0,0 mm 0,0 km/h (0 Bft) W-NW 301 ° 0 min 0,000 mm 0,0 UV-I 40 W/m² 1,8 °C 5,1 °C 0,0 km/h (0 Bft)
24.01.2018 11:09 5,2 °C 80 % 1026,3 hPa 0,0 mm 0,0 km/h (0 Bft) W-NW 301 ° 0 min 0,000 mm 0,0 UV-I 42 W/m² 2,0 °C 5,2 °C 0,0 km/h (0 Bft)
24.01.2018 11:10 5,2 °C 79 % 1026,3 hPa 0,0 mm 0,0 km/h (0 Bft) W-NW 301 ° 0 min 0,000 mm 0,0 UV-I 42 W/m² 1,9 °C 5,2 °C 0,0 km/h (0 Bft)
24.01.2018 11:11 5,3 °C 79 % 1026,3 hPa 0,0 mm 0,0 km/h (0 Bft) W-NW 301 ° 0 min 0,000 mm 0,0 UV-I 42 W/m² 2,0 °C 5,3 °C 0,0 km/h (0 Bft)
24.01.2018 11:12 5,3 °C 79 % 1026,3 hPa 0,0 mm 0,0 km/h (0 Bft) W-NW 301 ° 0 min 0,000 mm 0,0 UV-I 44 W/m² 2,0 °C 5,3 °C 0,0 km/h (0 Bft)
24.01.2018 11:13 5,4 °C 79 % 1026,3 hPa 0,0 mm 0,0 km/h (0 Bft) W-NW 301 ° 0 min 0,000 mm 0,0 UV-I 46 W/m² 2,1 °C 5,4 °C 0,0 km/h (0 Bft)
24.01.2018 11:14 5,4 °C 79 % 1026,2 hPa 0,0 mm 0,0 km/h (0 Bft) W-NW 301 ° 0 min 0,000 mm 0,0 UV-I 46 W/m² 2,1 °C 5,4 °C 0,0 km/h (0 Bft)
24.01.2018 11:15 5,6 °C 79 % 1026,2 hPa 0,0 mm 0,0 km/h (0 Bft) W-NW 301 ° 0 min 0,000 mm 0,0 UV-I 47 W/m² 2,3 °C 5,6 °C 0,0 km/h (0 Bft)
24.01.2018 11:16 5,6 °C 79 % 1026,2 hPa 0,0 mm 0,0 km/h (0 Bft) W-NW 301 ° 0 min 0,000 mm 0,0 UV-I 47 W/m² 2,3 °C 5,6 °C 0,0 km/h (0 Bft)
24.01.2018 11:17 5,6 °C 79 % 1026,2 hPa 0,0 mm 0,0 km/h (0 Bft) W-NW 301 ° 0 min 0,000 mm 0,0 UV-I 49 W/m² 2,3 °C 5,6 °C 0,0 km/h (0 Bft)
24.01.2018 11:18 5,7 °C 78 % 1026,2 hPa 0,0 mm 0,0 km/h (0 Bft) W-NW 301 ° 0 min 0,000 mm 0,0 UV-I 49 W/m² 2,2 °C 5,7 °C 0,0 km/h (0 Bft)
24.01.2018 11:19 5,7 °C 78 % 1026,2 hPa 0,0 mm 0,0 km/h (0 Bft) W-NW 301 ° 0 min 0,000 mm 0,0 UV-I 49 W/m² 2,2 °C 5,7 °C 0,0 km/h (0 Bft)
24.01.2018 11:20 5,8 °C 77 % 1026,2 hPa 0,0 mm 0,0 km/h (0 Bft) W-NW 301 ° 0 min 0,000 mm 0,0 UV-I 51 W/m² 2,1 °C 5,8 °C 0,0 km/h (0 Bft)
24.01.2018 11:21 5,8 °C 77 % 1026,1 hPa 0,0 mm 0,0 km/h (0 Bft) W-NW 301 ° 0 min 0,000 mm 0,0 UV-I 51 W/m² 2,1 °C 5,8 °C 0,0 km/h (0 Bft)
24.01.2018 11:22 5,8 °C 77 % 1026,2 hPa 0,0 mm 0,0 km/h (0 Bft) W-NW 301 ° 0 min 0,000 mm 0,0 UV-I 51 W/m² 2,1 °C 5,8 °C 0,0 km/h (0 Bft)
24.01.2018 11:23 5,8 °C 77 % 1026,1 hPa 0,0 mm 0,0 km/h (0 Bft) W-NW 301 ° 0 min 0,000 mm 0,0 UV-I 51 W/m² 2,1 °C 5,8 °C 0,0 km/h (0 Bft)
24.01.2018 11:24 5,9 °C 77 % 1026,1 hPa 0,0 mm 0,0 km/h (0 Bft) W-NW 301 ° 0 min 0,000 mm 0,0 UV-I 51 W/m² 2,2 °C 5,9 °C 0,0 km/h (0 Bft)
24.01.2018 11:25 5,9 °C 77 % 1026,1 hPa 0,0 mm 0,0 km/h (0 Bft) W-NW 301 ° 0 min 0,000 mm 0,0 UV-I 51 W/m² 2,2 °C 5,9 °C 0,0 km/h (0 Bft)
24.01.2018 11:26 6,0 °C 77 % 1026,1 hPa 0,0 mm 0,0 km/h (0 Bft) W-NW 301 ° 0 min 0,000 mm 0,0 UV-I 51 W/m² 2,3 °C 6,0 °C 0,0 km/h (0 Bft)
24.01.2018 11:27 6,1 °C 77 % 1026,1 hPa 0,0 mm 0,0 km/h (0 Bft) W-NW 301 ° 0 min 0,000 mm 0,0 UV-I 51 W/m² 2,4 °C 6,1 °C 0,0 km/h (0 Bft)
24.01.2018 11:28 6,1 °C 76 % 1026,1 hPa 0,0 mm 0,0 km/h (0 Bft) W-NW 301 ° 0 min 0,000 mm 0,0 UV-I 51 W/m² 2,2 °C 6,1 °C 0,0 km/h (0 Bft)
24.01.2018 11:29 6,1 °C 76 % 1026,1 hPa 0,0 mm 0,0 km/h (0 Bft) W-NW 301 ° 0 min 0,000 mm 0,0 UV-I 51 W/m² 2,2 °C 6,1 °C 0,0 km/h (0 Bft)
24.01.2018 11:30 6,2 °C 76 % 1026,1 hPa 0,0 mm 0,0 km/h (0 Bft) W-NW 301 ° 0 min 0,000 mm 0,0 UV-I 53 W/m² 2,3 °C 6,2 °C 0,0 km/h (0 Bft)
24.01.2018 11:31 6,2 °C 76 % 1026,0 hPa 0,0 mm 0,0 km/h (0 Bft) W-NW 301 ° 0 min 0,000 mm 0,0 UV-I 53 W/m² 2,3 °C 6,2 °C 0,0 km/h (0 Bft)
24.01.2018 11:32 6,2 °C 76 % 1026,0 hPa 0,0 mm 0,0 km/h (0 Bft) W-NW 301 ° 0 min 0,000 mm 0,0 UV-I 53 W/m² 2,3 °C 6,2 °C 0,0 km/h (0 Bft)
24.01.2018 11:33 6,3 °C 76 % 1026,0 hPa 0,0 mm 0,0 km/h (0 Bft) W-NW 301 ° 0 min 0,000 mm 0,0 UV-I 53 W/m² 2,4 °C 6,3 °C 0,0 km/h (0 Bft)
24.01.2018 11:34 6,3 °C 75 % 1026,0 hPa 0,0 mm 0,0 km/h (0 Bft) W-NW 301 ° 0 min 0,000 mm 0,0 UV-I 53 W/m² 2,2 °C 6,3 °C 0,0 km/h (0 Bft)
24.01.2018 11:35 6,3 °C 75 % 1025,9 hPa 0,0 mm 0,0 km/h (0 Bft) W-NW 301 ° 0 min 0,000 mm 0,0 UV-I 53 W/m² 2,2 °C 6,3 °C 0,0 km/h (0 Bft)
24.01.2018 11:36 6,3 °C 75 % 1025,9 hPa 0,0 mm 0,0 km/h (0 Bft) W-NW 301 ° 0 min 0,000 mm 0,0 UV-I 53 W/m² 2,2 °C 6,3 °C 0,0 km/h (0 Bft)
24.01.2018 11:37 6,4 °C 75 % 1025,9 hPa 0,0 mm 0,0 km/h (0 Bft) W-NW 301 ° 0 min 0,000 mm 0,0 UV-I 51 W/m² 2,3 °C 6,4 °C 0,0 km/h (0 Bft)
24.01.2018 11:38 6,4 °C 75 % 1025,9 hPa 0,0 mm 0,0 km/h (0 Bft) W-NW 301 ° 0 min 0,000 mm 0,0 UV-I 51 W/m² 2,3 °C 6,4 °C 0,0 km/h (0 Bft)
24.01.2018 11:39 6,4 °C 75 % 1025,9 hPa 0,0 mm 0,0 km/h (0 Bft) W-NW 301 ° 0 min 0,000 mm 0,0 UV-I 49 W/m² 2,3 °C 6,4 °C 0,0 km/h (0 Bft)
24.01.2018 11:40 6,5 °C 75 % 1025,9 hPa 0,0 mm 0,0 km/h (0 Bft) W-NW 301 ° 0 min 0,000 mm 0,0 UV-I 49 W/m² 2,4 °C 6,5 °C 0,0 km/h (0 Bft)
24.01.2018 11:41 6,5 °C 75 % 1025,9 hPa 0,0 mm 0,0 km/h (0 Bft) W-NW 301 ° 0 min 0,000 mm 0,0 UV-I 49 W/m² 2,4 °C 6,5 °C 0,0 km/h (0 Bft)
24.01.2018 11:42 6,5 °C 75 % 1025,9 hPa 0,0 mm 0,0 km/h (0 Bft) W-NW 301 ° 0 min 0,000 mm 0,0 UV-I 47 W/m² 2,4 °C 6,5 °C 0,0 km/h (0 Bft)
24.01.2018 11:43 6,6 °C 75 % 1025,9 hPa 0,0 mm 0,0 km/h (0 Bft) W-NW 301 ° 0 min 0,000 mm 0,0 UV-I 47 W/m² 2,5 °C 6,6 °C 0,0 km/h (0 Bft)
24.01.2018 11:44 6,6 °C 74 % 1025,9 hPa 0,0 mm 0,0 km/h (0 Bft) W-NW 301 ° 0 min 0,000 mm 0,0 UV-I 47 W/m² 2,3 °C 6,6 °C 0,0 km/h (0 Bft)
24.01.2018 11:45 6,6 °C 75 % 1025,9 hPa 0,0 mm 0,0 km/h (0 Bft) W-NW 301 ° 0 min 0,000 mm 0,0 UV-I 49 W/m² 2,5 °C 6,6 °C 0,0 km/h (0 Bft)
24.01.2018 11:46 6,7 °C 75 % 1025,9 hPa 0,0 mm 0,0 km/h (0 Bft) W-NW 301 ° 0 min 0,000 mm 0,0 UV-I 49 W/m² 2,6 °C 6,7 °C 0,0 km/h (0 Bft)
24.01.2018 11:47 6,7 °C 75 % 1025,9 hPa 0,0 mm 0,0 km/h (0 Bft) W-NW 301 ° 0 min 0,000 mm 0,0 UV-I 49 W/m² 2,6 °C 6,7 °C 0,0 km/h (0 Bft)
24.01.2018 11:48 6,7 °C 74 % 1025,9 hPa 0,0 mm 0,0 km/h (0 Bft) W-NW 301 ° 0 min 0,000 mm 0,0 UV-I 49 W/m² 2,4 °C 6,7 °C 0,0 km/h (0 Bft)
24.01.2018 11:49 6,7 °C 74 % 1025,9 hPa 0,0 mm 0,0 km/h (0 Bft) W-NW 301 ° 0 min 0,000 mm 0,0 UV-I 49 W/m² 2,4 °C 6,7 °C 0,0 km/h (0 Bft)
24.01.2018 11:50 6,8 °C 74 % 1025,9 hPa 0,0 mm 0,0 km/h (0 Bft) W-NW 301 ° 0 min 0,000 mm 0,0 UV-I 51 W/m² 2,5 °C 6,8 °C 0,0 km/h (0 Bft)
24.01.2018 11:51 6,8 °C 74 % 1025,9 hPa 0,0 mm 0,0 km/h (0 Bft) W-NW 301 ° 0 min 0,000 mm 0,0 UV-I 51 W/m² 2,5 °C 6,8 °C 0,0 km/h (0 Bft)
24.01.2018 11:52 6,8 °C 74 % 1025,9 hPa 0,0 mm 0,0 km/h (0 Bft) W-NW 301 ° 0 min 0,000 mm 0,0 UV-I 49 W/m² 2,5 °C 6,8 °C 0,0 km/h (0 Bft)
24.01.2018 11:53 6,8 °C 74 % 1025,9 hPa 0,0 mm 0,0 km/h (0 Bft) W-NW 301 ° 0 min 0,000 mm 0,0 UV-I 49 W/m² 2,5 °C 6,8 °C 0,0 km/h (0 Bft)
24.01.2018 11:54 6,9 °C 74 % 1025,9 hPa 0,0 mm 0,0 km/h (0 Bft) W-NW 301 ° 0 min 0,000 mm 0,0 UV-I 49 W/m² 2,6 °C 6,9 °C 0,0 km/h (0 Bft)
24.01.2018 11:55 6,9 °C 73 % 1025,8 hPa 0,0 mm 0,0 km/h (0 Bft) W-NW 301 ° 0 min 0,000 mm 0,0 UV-I 49 W/m² 2,4 °C 6,9 °C 0,0 km/h (0 Bft)
24.01.2018 11:56 6,9 °C 74 % 1025,8 hPa 0,0 mm 0,0 km/h (0 Bft) W-NW 301 ° 0 min 0,000 mm 0,0 UV-I 47 W/m² 2,6 °C 6,9 °C 0,0 km/h (0 Bft)
24.01.2018 11:57 6,9 °C 73 % 1025,8 hPa 0,0 mm 0,0 km/h (0 Bft) W-NW 301 ° 0 min 0,000 mm 0,0 UV-I 47 W/m² 2,4 °C 6,9 °C 0,0 km/h (0 Bft)
24.01.2018 11:58 7,0 °C 73 % 1025,9 hPa 0,0 mm 0,0 km/h (0 Bft) W-NW 301 ° 0 min 0,000 mm 0,0 UV-I 46 W/m² 2,5 °C 7,0 °C 0,0 km/h (0 Bft)
24.01.2018 11:59 7,0 °C 73 % 1025,8 hPa 0,0 mm 0,0 km/h (0 Bft) W-NW 301 ° 0 min 0,000 mm 0,0 UV-I 46 W/m² 2,5 °C 7,0 °C 0,0 km/h (0 Bft)
24.01.2018 12:00 7,1 °C 73 % 1025,8 hPa 0,0 mm 0,0 km/h (0 Bft) W-NW 301 ° 0 min 0,000 mm 0,0 UV-I 46 W/m² 2,6 °C 7,1 °C 0,0 km/h (0 Bft)
24.01.2018 12:01 7,1 °C 73 % 1025,8 hPa 0,0 mm 0,0 km/h (0 Bft) W-NW 301 ° 0 min 0,026 mm 0,0 UV-I 44 W/m² 2,6 °C 7,1 °C 0,0 km/h (0 Bft)
24.01.2018 12:02 7,1 °C 73 % 1025,8 hPa 0,0 mm 0,0 km/h (0 Bft) W-NW 301 ° 0 min 0,000 mm 0,0 UV-I 44 W/m² 2,6 °C 7,1 °C 0,0 km/h (0 Bft)
24.01.2018 12:03 7,1 °C 74 % 1025,8 hPa 0,0 mm 0,0 km/h (0 Bft) W-NW 301 ° 0 min 0,000 mm 0,0 UV-I 42 W/m² 2,8 °C 7,1 °C 0,0 km/h (0 Bft)
24.01.2018 12:04 7,1 °C 75 % 1025,8 hPa 0,0 mm 0,0 km/h (0 Bft) W-NW 301 ° 0 min 0,000 mm 0,0 UV-I 42 W/m² 3,0 °C 7,1 °C 0,0 km/h (0 Bft)
24.01.2018 12:05 7,1 °C 75 % 1025,8 hPa 0,0 mm 0,0 km/h (0 Bft) W-NW 301 ° 0 min 0,000 mm 0,0 UV-I 40 W/m² 3,0 °C 7,1 °C 0,0 km/h (0 Bft)
24.01.2018 12:06 7,1 °C 74 % 1025,8 hPa 0,0 mm 0,0 km/h (0 Bft) W-NW 301 ° 0 min 0,000 mm 0,0 UV-I 40 W/m² 2,8 °C 7,1 °C 0,0 km/h (0 Bft)
24.01.2018 12:07 7,1 °C 74 % 1025,7 hPa 0,0 mm 0,0 km/h (0 Bft) W-NW 301 ° 0 min 0,000 mm 0,0 UV-I 40 W/m² 2,8 °C 7,1 °C 0,0 km/h (0 Bft)
24.01.2018 12:08 7,2 °C 73 % 1025,8 hPa 0,0 mm 0,0 km/h (0 Bft) W-NW 301 ° 0 min 0,000 mm 0,0 UV-I 42 W/m² 2,7 °C 7,2 °C 0,0 km/h (0 Bft)
24.01.2018 12:09 7,2 °C 72 % 1025,8 hPa 0,0 mm 0,0 km/h (0 Bft) W-NW 301 ° 0 min 0,000 mm 0,0 UV-I 42 W/m² 2,5 °C 7,2 °C 0,0 km/h (0 Bft)
24.01.2018 12:10 7,2 °C 72 % 1025,8 hPa 0,0 mm 0,0 km/h (0 Bft) W-NW 301 ° 0 min 0,000 mm 0,0 UV-I 42 W/m² 2,5 °C 7,2 °C 0,0 km/h (0 Bft)
24.01.2018 12:11 7,2 °C 72 % 1025,8 hPa 0,0 mm 0,0 km/h (0 Bft) W-NW 301 ° 0 min 0,000 mm 0,0 UV-I 46 W/m² 2,5 °C 7,2 °C 0,0 km/h (0 Bft)
24.01.2018 12:12 7,2 °C 73 % 1025,8 hPa 0,0 mm 0,0 km/h (0 Bft) W-NW 301 ° 0 min 0,000 mm 0,0 UV-I 46 W/m² 2,7 °C 7,2 °C 0,0 km/h (0 Bft)
24.01.2018 12:13 7,2 °C 73 % 1025,7 hPa 0,0 mm 0,0 km/h (0 Bft) W-NW 301 ° 0 min 0,000 mm 0,0 UV-I 39 W/m² 2,7 °C 7,2 °C 0,0 km/h (0 Bft)
24.01.2018 12:14 7,3 °C 74 % 1025,7 hPa 0,0 mm 0,0 km/h (0 Bft) W-NW 301 ° 0 min 0,000 mm 0,0 UV-I 37 W/m² 3,0 °C 7,3 °C 0,0 km/h (0 Bft)
24.01.2018 12:15 7,3 °C 74 % 1025,7 hPa 0,0 mm 0,0 km/h (0 Bft) W-NW 301 ° 0 min 0,000 mm 0,0 UV-I 37 W/m² 3,0 °C 7,3 °C 0,0 km/h (0 Bft)
24.01.2018 12:16 7,3 °C 74 % 1025,8 hPa 0,0 mm 0,0 km/h (0 Bft) W-NW 301 ° 0 min 0,000 mm 0,0 UV-I 37 W/m² 3,0 °C 7,3 °C 0,0 km/h (0 Bft)
24.01.2018 12:17 7,4 °C 74 % 1025,7 hPa 0,0 mm 0,0 km/h (0 Bft) W-NW 301 ° 0 min 0,000 mm 0,0 UV-I 37 W/m² 3,1 °C 7,4 °C 0,0 km/h (0 Bft)
24.01.2018 12:18 7,4 °C 75 % 1025,7 hPa 0,0 mm 1,2 km/h (1 Bft) W-NW 301 ° 0 min 0,000 mm 0,0 UV-I 37 W/m² 3,3 °C 7,4 °C 3,2 km/h (1 Bft)
24.01.2018 12:19 7,4 °C 75 % 1025,7 hPa 0,0 mm 1,7 km/h (1 Bft) W-NW 301 ° 0 min 0,000 mm 0,0 UV-I 37 W/m² 3,3 °C 7,4 °C 3,2 km/h (1 Bft)
24.01.2018 12:20 7,5 °C 76 % 1025,7 hPa 0,0 mm 1,5 km/h (1 Bft) W-NW 301 ° 0 min 0,000 mm 0,0 UV-I 39 W/m² 3,5 °C 7,5 °C 3,2 km/h (1 Bft)
24.01.2018 12:21 7,5 °C 76 % 1025,7 hPa 0,0 mm 1,2 km/h (1 Bft) W-NW 301 ° 0 min 0,000 mm 0,0 UV-I 40 W/m² 3,5 °C 7,5 °C 3,2 km/h (1 Bft)
24.01.2018 12:22 7,5 °C 76 % 1025,7 hPa 0,0 mm 1,1 km/h (1 Bft) W-NW 301 ° 0 min 0,000 mm 0,0 UV-I 40 W/m² 3,5 °C 7,5 °C 1,6 km/h (1 Bft)
24.01.2018 12:23 7,6 °C 76 % 1025,6 hPa 0,0 mm 1,6 km/h (1 Bft) W-NW 301 ° 0 min 0,000 mm 0,0 UV-I 39 W/m² 3,6 °C 7,6 °C 3,2 km/h (1 Bft)
24.01.2018 12:24 7,6 °C 76 % 1025,6 hPa 0,0 mm 2,1 km/h (1 Bft) W-NW 301 ° 0 min 0,000 mm 0,0 UV-I 39 W/m² 3,6 °C 7,6 °C 3,2 km/h (1 Bft)
24.01.2018 12:25 7,6 °C 76 % 1025,7 hPa 0,0 mm 0,8 km/h (0 Bft) W-NW 301 ° 0 min 0,000 mm 0,0 UV-I 40 W/m² 3,6 °C 7,6 °C 1,6 km/h (1 Bft)
24.01.2018 12:26 7,7 °C 76 % 1025,7 hPa 0,0 mm 0,1 km/h (0 Bft) W-NW 301 ° 0 min 0,000 mm 0,0 UV-I 40 W/m² 3,7 °C 7,7 °C 1,6 km/h (1 Bft)
24.01.2018 12:27 7,7 °C 76 % 1025,7 hPa 0,0 mm 1,5 km/h (1 Bft) W-NW 301 ° 0 min 0,000 mm 0,0 UV-I 42 W/m² 3,7 °C 7,7 °C 3,2 km/h (1 Bft)
24.01.2018 12:28 7,7 °C 77 % 1025,7 hPa 0,0 mm 0,3 km/h (0 Bft) W-NW 301 ° 0 min 0,000 mm 0,0 UV-I 40 W/m² 3,9 °C 7,7 °C 1,6 km/h (1 Bft)
24.01.2018 12:29 7,7 °C 77 % 1025,7 hPa 0,0 mm 1,1 km/h (1 Bft) W-NW 301 ° 0 min 0,000 mm 0,0 UV-I 40 W/m² 3,9 °C 7,7 °C 1,6 km/h (1 Bft)
24.01.2018 12:30 7,8 °C 77 % 1025,7 hPa 0,0 mm 0,0 km/h (0 Bft) W-NW 301 ° 0 min 0,000 mm 0,0 UV-I 39 W/m² 4,0 °C 7,8 °C 0,0 km/h (0 Bft)
24.01.2018 12:31 7,8 °C 78 % 1025,7 hPa 0,0 mm 0,5 km/h (0 Bft) W-NW 301 ° 0 min 0,000 mm 0,0 UV-I 39 W/m² 4,2 °C 7,8 °C 1,6 km/h (1 Bft)
24.01.2018 12:32 7,8 °C 78 % 1025,6 hPa 0,0 mm 1,9 km/h (1 Bft) W-NW 301 ° 0 min 0,000 mm 0,0 UV-I 39 W/m² 4,2 °C 7,8 °C 3,2 km/h (1 Bft)
24.01.2018 12:33 7,8 °C 78 % 1025,6 hPa 0,0 mm 0,2 km/h (0 Bft) W-NW 301 ° 0 min 0,000 mm 0,0 UV-I 39 W/m² 4,2 °C 7,8 °C 1,6 km/h (1 Bft)
24.01.2018 12:34 7,8 °C 78 % 1025,7 hPa 0,0 mm 0,0 km/h (0 Bft) W-NW 301 ° 0 min 0,000 mm 0,0 UV-I 40 W/m² 4,2 °C 7,8 °C 0,0 km/h (0 Bft)
24.01.2018 12:35 7,8 °C 78 % 1025,6 hPa 0,0 mm 0,0 km/h (0 Bft) W-NW 301 ° 0 min 0,000 mm 0,0 UV-I 40 W/m² 4,2 °C 7,8 °C 0,0 km/h (0 Bft)
24.01.2018 12:36 7,8 °C 78 % 1025,6 hPa 0,0 mm 0,0 km/h (0 Bft) W-NW 301 ° 0 min 0,000 mm 0,0 UV-I 42 W/m² 4,2 °C 7,8 °C 0,0 km/h (0 Bft)
24.01.2018 12:37 7,8 °C 78 % 1025,6 hPa 0,0 mm 0,0 km/h (0 Bft) W-NW 301 ° 0 min 0,000 mm 0,0 UV-I 42 W/m² 4,2 °C 7,8 °C 0,0 km/h (0 Bft)
24.01.2018 12:38 7,9 °C 78 % 1025,6 hPa 0,0 mm 0,0 km/h (0 Bft) W-NW 301 ° 0 min 0,000 mm 0,0 UV-I 42 W/m² 4,3 °C 7,9 °C 0,0 km/h (0 Bft)
24.01.2018 12:39 7,9 °C 78 % 1025,6 hPa 0,0 mm 0,0 km/h (0 Bft) W-NW 301 ° 0 min 0,000 mm 0,0 UV-I 44 W/m² 4,3 °C 7,9 °C 0,0 km/h (0 Bft)
24.01.2018 12:40 7,8 °C 78 % 1025,6 hPa 0,0 mm 0,0 km/h (0 Bft) W-NW 301 ° 0 min 0,000 mm 0,0 UV-I 46 W/m² 4,2 °C 7,8 °C 0,0 km/h (0 Bft)
24.01.2018 12:41 7,9 °C 78 % 1025,5 hPa 0,0 mm 0,0 km/h (0 Bft) W-NW 301 ° 0 min 0,000 mm 0,0 UV-I 47 W/m² 4,3 °C 7,9 °C 0,0 km/h (0 Bft)
24.01.2018 12:42 7,8 °C 78 % 1025,5 hPa 0,0 mm 0,0 km/h (0 Bft) W-NW 301 ° 0 min 0,000 mm 0,0 UV-I 47 W/m² 4,2 °C 7,8 °C 0,0 km/h (0 Bft)
24.01.2018 12:43 7,9 °C 78 % 1025,5 hPa 0,0 mm 0,0 km/h (0 Bft) W-NW 301 ° 0 min 0,000 mm 0,0 UV-I 49 W/m² 4,3 °C 7,9 °C 0,0 km/h (0 Bft)
24.01.2018 12:44 7,9 °C 78 % 1025,5 hPa 0,0 mm 0,0 km/h (0 Bft) W-NW 301 ° 0 min 0,000 mm 0,0 UV-I 51 W/m² 4,3 °C 7,9 °C 0,0 km/h (0 Bft)
24.01.2018 12:45 7,9 °C 78 % 1025,5 hPa 0,0 mm 0,0 km/h (0 Bft) W-NW 301 ° 0 min 0,000 mm 0,0 UV-I 74 W/m² 4,3 °C 7,9 °C 0,0 km/h (0 Bft)
24.01.2018 12:46 7,9 °C 78 % 1025,5 hPa 0,0 mm 0,0 km/h (0 Bft) W-NW 301 ° 0 min 0,000 mm 1,3 UV-I 77 W/m² 4,3 °C 7,9 °C 0,0 km/h (0 Bft)
24.01.2018 12:47 7,9 °C 78 % 1025,5 hPa 0,0 mm 0,0 km/h (0 Bft) W-NW 301 ° 0 min 0,000 mm 1,3 UV-I 69 W/m² 4,3 °C 7,9 °C 0,0 km/h (0 Bft)
24.01.2018 12:48 8,1 °C 77 % 1025,5 hPa 0,0 mm 0,0 km/h (0 Bft) W-NW 301 ° 0 min 0,000 mm 0,0 UV-I 54 W/m² 4,3 °C 8,1 °C 0,0 km/h (0 Bft)
24.01.2018 12:49 8,2 °C 77 % 1025,5 hPa 0,0 mm 0,0 km/h (0 Bft) W-NW 301 ° 0 min 0,000 mm 0,0 UV-I 54 W/m² 4,4 °C 8,2 °C 0,0 km/h (0 Bft)
24.01.2018 12:50 8,3 °C 75 % 1025,5 hPa 0,0 mm 0,0 km/h (0 Bft) W-NW 301 ° 0 min 0,000 mm 0,0 UV-I 51 W/m² 4,1 °C 8,3 °C 0,0 km/h (0 Bft)
24.01.2018 12:51 8,3 °C 75 % 1025,5 hPa 0,0 mm 0,0 km/h (0 Bft) W-NW 301 ° 0 min 0,000 mm 0,0 UV-I 49 W/m² 4,1 °C 8,3 °C 0,0 km/h (0 Bft)
24.01.2018 12:52 8,4 °C 75 % 1025,4 hPa 0,0 mm 0,0 km/h (0 Bft) W-NW 301 ° 0 min 0,000 mm 0,0 UV-I 49 W/m² 4,2 °C 8,4 °C 0,0 km/h (0 Bft)
24.01.2018 12:53 8,6 °C 74 % 1025,4 hPa 0,0 mm 0,0 km/h (0 Bft) W-NW 301 ° 0 min 0,000 mm 0,0 UV-I 49 W/m² 4,2 °C 8,6 °C 0,0 km/h (0 Bft)
24.01.2018 12:54 8,6 °C 74 % 1025,4 hPa 0,0 mm 0,0 km/h (0 Bft) W-NW 301 ° 0 min 0,000 mm 0,0 UV-I 51 W/m² 4,2 °C 8,6 °C 0,0 km/h (0 Bft)
24.01.2018 12:55 8,7 °C 73 % 1025,4 hPa 0,0 mm 0,0 km/h (0 Bft) W-NW 301 ° 0 min 0,000 mm 0,0 UV-I 51 W/m² 4,1 °C 8,7 °C 0,0 km/h (0 Bft)
24.01.2018 12:56 8,7 °C 72 % 1025,3 hPa 0,0 mm 0,0 km/h (0 Bft) W-NW 301 ° 0 min 0,000 mm 0,0 UV-I 53 W/m² 3,9 °C 8,7 °C 0,0 km/h (0 Bft)
24.01.2018 12:57 8,8 °C 71 % 1025,3 hPa 0,0 mm 0,0 km/h (0 Bft) W-NW 301 ° 0 min 0,000 mm 0,0 UV-I 56 W/m² 3,8 °C 8,8 °C 0,0 km/h (0 Bft)
24.01.2018 12:58 8,9 °C 70 % 1025,3 hPa 0,0 mm 0,0 km/h (0 Bft) W-NW 301 ° 0 min 0,000 mm 1,3 UV-I 56 W/m² 3,7 °C 8,9 °C 0,0 km/h (0 Bft)
24.01.2018 12:59 9,0 °C 70 % 1025,3 hPa 0,0 mm 0,0 km/h (0 Bft) W-NW 301 ° 0 min 0,000 mm 1,3 UV-I 58 W/m² 3,8 °C 9,0 °C 0,0 km/h (0 Bft)
24.01.2018 13:00 9,1 °C 69 % 1025,3 hPa 0,0 mm 0,0 km/h (0 Bft) W-NW 301 ° 0 min 0,000 mm 1,3 UV-I 60 W/m² 3,7 °C 9,1 °C 0,0 km/h (0 Bft)
24.01.2018 13:01 9,1 °C 69 % 1025,3 hPa 0,0 mm 0,0 km/h (0 Bft) W-NW 301 ° 0 min 0,025 mm 1,3 UV-I 62 W/m² 3,7 °C 9,1 °C 0,0 km/h (0 Bft)
24.01.2018 13:02 9,1 °C 69 % 1025,3 hPa 0,0 mm 0,0 km/h (0 Bft) W-NW 301 ° 0 min 0,000 mm 1,3 UV-I 62 W/m² 3,7 °C 9,1 °C 0,0 km/h (0 Bft)
24.01.2018 13:03 9,0 °C 69 % 1025,3 hPa 0,0 mm 0,0 km/h (0 Bft) W-NW 301 ° 0 min 0,000 mm 1,3 UV-I 63 W/m² 3,6 °C 9,0 °C 0,0 km/h (0 Bft)
24.01.2018 13:04 9,0 °C 69 % 1025,3 hPa 0,0 mm 0,0 km/h (0 Bft) W-NW 301 ° 0 min 0,000 mm 1,3 UV-I 63 W/m² 3,6 °C 9,0 °C 0,0 km/h (0 Bft)
24.01.2018 13:05 8,9 °C 69 % 1025,2 hPa 0,0 mm 0,0 km/h (0 Bft) W-NW 301 ° 0 min 0,000 mm 1,3 UV-I 63 W/m² 3,5 °C 8,9 °C 0,0 km/h (0 Bft)
24.01.2018 13:06 8,9 °C 68 % 1025,2 hPa 0,0 mm 0,0 km/h (0 Bft) W-NW 301 ° 0 min 0,000 mm 1,3 UV-I 63 W/m² 3,3 °C 8,9 °C 0,0 km/h (0 Bft)
24.01.2018 13:07 8,9 °C 67 % 1025,2 hPa 0,0 mm 0,0 km/h (0 Bft) W-NW 301 ° 0 min 0,000 mm 1,2 UV-I 63 W/m² 3,1 °C 8,9 °C 0,0 km/h (0 Bft)
24.01.2018 13:08 9,1 °C 67 % 1025,1 hPa 0,0 mm 0,0 km/h (0 Bft) W-NW 301 ° 0 min 0,000 mm 1,2 UV-I 62 W/m² 3,3 °C 9,1 °C 0,0 km/h (0 Bft)
24.01.2018 13:09 9,2 °C 66 % 1025,1 hPa 0,0 mm 0,0 km/h (0 Bft) W-NW 301 ° 0 min 0,000 mm 1,2 UV-I 62 W/m² 3,2 °C 9,2 °C 0,0 km/h (0 Bft)
24.01.2018 13:10 9,2 °C 67 % 1025,1 hPa 0,0 mm 0,0 km/h (0 Bft) W-NW 301 ° 0 min 0,000 mm 1,2 UV-I 62 W/m² 3,4 °C 9,2 °C 0,0 km/h (0 Bft)
24.01.2018 13:11 9,2 °C 67 % 1025,1 hPa 0,0 mm 0,0 km/h (0 Bft) W-NW 301 ° 0 min 0,000 mm 1,2 UV-I 60 W/m² 3,4 °C 9,2 °C 0,0 km/h (0 Bft)
24.01.2018 13:12 9,2 °C 66 % 1025,1 hPa 0,0 mm 0,0 km/h (0 Bft) W-NW 301 ° 0 min 0,000 mm 1,2 UV-I 60 W/m² 3,2 °C 9,2 °C 0,0 km/h (0 Bft)
24.01.2018 13:13 9,2 °C 66 % 1025,0 hPa 0,0 mm 0,0 km/h (0 Bft) W-NW 301 ° 0 min 0,000 mm 1,2 UV-I 58 W/m² 3,2 °C 9,2 °C 0,0 km/h (0 Bft)
24.01.2018 13:14 8,9 °C 67 % 1025,0 hPa 0,0 mm 0,0 km/h (0 Bft) W-NW 301 ° 0 min 0,000 mm 1,2 UV-I 58 W/m² 3,1 °C 8,9 °C 0,0 km/h (0 Bft)
24.01.2018 13:15 8,7 °C 68 % 1025,0 hPa 0,0 mm 0,1 km/h (0 Bft) W-NW 301 ° 0 min 0,000 mm 1,2 UV-I 54 W/m² 3,1 °C 8,7 °C 1,6 km/h (1 Bft)
24.01.2018 13:16 8,7 °C 68 % 1025,0 hPa 0,0 mm 0,7 km/h (0 Bft) W-NW 301 ° 0 min 0,000 mm 0,0 UV-I 54 W/m² 3,1 °C 8,7 °C 1,6 km/h (1 Bft)
24.01.2018 13:17 8,8 °C 68 % 1025,0 hPa 0,0 mm 1,5 km/h (1 Bft) W-NW 301 ° 0 min 0,000 mm 0,0 UV-I 53 W/m² 3,2 °C 8,8 °C 1,6 km/h (1 Bft)
24.01.2018 13:18 8,9 °C 68 % 1025,0 hPa 0,0 mm 1,3 km/h (1 Bft) W-NW 301 ° 0 min 0,000 mm 0,0 UV-I 51 W/m² 3,3 °C 8,9 °C 1,6 km/h (1 Bft)
24.01.2018 13:19 9,0 °C 68 % 1024,9 hPa 0,0 mm 1,3 km/h (1 Bft) W-NW 301 ° 0 min 0,000 mm 0,0 UV-I 51 W/m² 3,4 °C 9,0 °C 1,6 km/h (1 Bft)
24.01.2018 13:20 9,0 °C 69 % 1024,9 hPa 0,0 mm 1,5 km/h (1 Bft) W-NW 301 ° 0 min 0,000 mm 0,0 UV-I 51 W/m² 3,6 °C 9,0 °C 3,2 km/h (1 Bft)
24.01.2018 13:21 8,9 °C 69 % 1024,9 hPa 0,0 mm 1,7 km/h (1 Bft) W-NW 301 ° 0 min 0,000 mm 0,0 UV-I 51 W/m² 3,5 °C 8,9 °C 3,2 km/h (1 Bft)
24.01.2018 13:22 9,0 °C 69 % 1024,9 hPa 0,0 mm 0,4 km/h (0 Bft) W-NW 301 ° 0 min 0,000 mm 0,0 UV-I 51 W/m² 3,6 °C 9,0 °C 1,6 km/h (1 Bft)
24.01.2018 13:23 9,0 °C 68 % 1024,8 hPa 0,0 mm 0,0 km/h (0 Bft) W-NW 301 ° 0 min 0,000 mm 0,0 UV-I 53 W/m² 3,4 °C 9,0 °C 0,0 km/h (0 Bft)
24.01.2018 13:24 8,8 °C 68 % 1024,8 hPa 0,0 mm 1,1 km/h (1 Bft) W-NW 301 ° 0 min 0,000 mm 0,0 UV-I 53 W/m² 3,2 °C 8,8 °C 1,6 km/h (1 Bft)
24.01.2018 13:25 8,8 °C 69 % 1024,7 hPa 0,0 mm 1,0 km/h (0 Bft) W-NW 301 ° 0 min 0,000 mm 0,0 UV-I 54 W/m² 3,4 °C 8,8 °C 1,6 km/h (1 Bft)
24.01.2018 13:26 8,8 °C 70 % 1024,7 hPa 0,0 mm 0,1 km/h (0 Bft) W-NW 301 ° 0 min 0,000 mm 0,0 UV-I 54 W/m² 3,6 °C 8,8 °C 1,6 km/h (1 Bft)
24.01.2018 13:27 8,9 °C 69 % 1024,7 hPa 0,0 mm 0,0 km/h (0 Bft) W-NW 301 ° 0 min 0,000 mm 1,2 UV-I 56 W/m² 3,5 °C 8,9 °C 0,0 km/h (0 Bft)
24.01.2018 13:28 9,0 °C 69 % 1024,7 hPa 0,0 mm 0,0 km/h (0 Bft) W-NW 301 ° 0 min 0,000 mm 1,2 UV-I 56 W/m² 3,6 °C 9,0 °C 0,0 km/h (0 Bft)
24.01.2018 13:29 9,1 °C 69 % 1024,6 hPa 0,0 mm 0,0 km/h (0 Bft) W-NW 301 ° 0 min 0,000 mm 1,2 UV-I 56 W/m² 3,7 °C 9,1 °C 0,0 km/h (0 Bft)
24.01.2018 13:30 9,1 °C 69 % 1024,7 hPa 0,0 mm 0,0 km/h (0 Bft) W-NW 301 ° 0 min 0,000 mm 1,2 UV-I 56 W/m² 3,7 °C 9,1 °C 0,0 km/h (0 Bft)
24.01.2018 13:31 9,2 °C 68 % 1024,7 hPa 0,0 mm 0,0 km/h (0 Bft) W-NW 301 ° 0 min 0,000 mm 1,2 UV-I 58 W/m² 3,6 °C 9,2 °C 0,0 km/h (0 Bft)
24.01.2018 13:32 9,2 °C 68 % 1024,7 hPa 0,0 mm 0,0 km/h (0 Bft) W-NW 301 ° 0 min 0,000 mm 1,2 UV-I 60 W/m² 3,6 °C 9,2 °C 0,0 km/h (0 Bft)
24.01.2018 13:33 9,2 °C 68 % 1024,6 hPa 0,0 mm 0,0 km/h (0 Bft) W-NW 301 ° 0 min 0,000 mm 1,2 UV-I 60 W/m² 3,6 °C 9,2 °C 0,0 km/h (0 Bft)
24.01.2018 13:34 9,1 °C 68 % 1024,7 hPa 0,0 mm 0,0 km/h (0 Bft) W-NW 301 ° 0 min 0,000 mm 1,2 UV-I 62 W/m² 3,5 °C 9,1 °C 0,0 km/h (0 Bft)
24.01.2018 13:35 9,1 °C 68 % 1024,7 hPa 0,0 mm 0,0 km/h (0 Bft) W-NW 301 ° 0 min 0,000 mm 1,2 UV-I 63 W/m² 3,5 °C 9,1 °C 0,0 km/h (0 Bft)
24.01.2018 13:36 9,1 °C 69 % 1024,6 hPa 0,0 mm 0,0 km/h (0 Bft) W-NW 301 ° 0 min 0,000 mm 1,2 UV-I 65 W/m² 3,7 °C 9,1 °C 0,0 km/h (0 Bft)
24.01.2018 13:37 9,0 °C 67 % 1024,5 hPa 0,0 mm 0,0 km/h (0 Bft) W-NW 301 ° 0 min 0,000 mm 1,2 UV-I 67 W/m² 3,2 °C 9,0 °C 0,0 km/h (0 Bft)
24.01.2018 13:38 8,7 °C 68 % 1024,5 hPa 0,0 mm 0,0 km/h (0 Bft) W-NW 301 ° 0 min 0,000 mm 1,2 UV-I 70 W/m² 3,1 °C 8,7 °C 0,0 km/h (0 Bft)
24.01.2018 13:39 8,6 °C 69 % 1024,6 hPa 0,0 mm 0,0 km/h (0 Bft) W-NW 301 ° 0 min 0,000 mm 1,2 UV-I 72 W/m² 3,2 °C 8,6 °C 0,0 km/h (0 Bft)
24.01.2018 13:40 8,5 °C 70 % 1024,5 hPa 0,0 mm 0,0 km/h (0 Bft) W-NW 301 ° 0 min 0,000 mm 1,2 UV-I 76 W/m² 3,3 °C 8,5 °C 0,0 km/h (0 Bft)
24.01.2018 13:41 8,6 °C 70 % 1024,6 hPa 0,0 mm 0,0 km/h (0 Bft) W-NW 301 ° 0 min 0,000 mm 1,2 UV-I 77 W/m² 3,4 °C 8,6 °C 0,0 km/h (0 Bft)
24.01.2018 13:42 8,7 °C 69 % 1024,5 hPa 0,0 mm 0,0 km/h (0 Bft) W-NW 301 ° 0 min 0,000 mm 1,2 UV-I 81 W/m² 3,3 °C 8,7 °C 0,0 km/h (0 Bft)
24.01.2018 13:43 8,4 °C 69 % 1024,5 hPa 0,0 mm 0,0 km/h (0 Bft) W-NW 301 ° 0 min 0,000 mm 1,2 UV-I 83 W/m² 3,0 °C 8,4 °C 0,0 km/h (0 Bft)
24.01.2018 13:44 8,3 °C 71 % 1024,5 hPa 0,0 mm 0,0 km/h (0 Bft) W-NW 301 ° 0 min 0,000 mm 1,2 UV-I 86 W/m² 3,4 °C 8,3 °C 0,0 km/h (0 Bft)
24.01.2018 13:45 8,3 °C 71 % 1024,5 hPa 0,0 mm 0,0 km/h (0 Bft) W-NW 301 ° 0 min 0,000 mm 1,2 UV-I 91 W/m² 3,4 °C 8,3 °C 0,0 km/h (0 Bft)
24.01.2018 13:46 8,4 °C 70 % 1024,5 hPa 0,0 mm 0,0 km/h (0 Bft) W-NW 301 ° 0 min 0,000 mm 1,2 UV-I 93 W/m² 3,3 °C 8,4 °C 0,0 km/h (0 Bft)
24.01.2018 13:47 8,5 °C 70 % 1024,5 hPa 0,0 mm 0,0 km/h (0 Bft) W-NW 301 ° 0 min 0,000 mm 1,2 UV-I 95 W/m² 3,3 °C 8,5 °C 0,0 km/h (0 Bft)
24.01.2018 13:48 8,6 °C 70 % 1024,4 hPa 0,0 mm 0,0 km/h (0 Bft) W-NW 301 ° 0 min 0,000 mm 1,2 UV-I 98 W/m² 3,4 °C 8,6 °C 0,0 km/h (0 Bft)
24.01.2018 13:49 8,8 °C 70 % 1024,4 hPa 0,0 mm 0,0 km/h (0 Bft) W-NW 301 ° 0 min 0,000 mm 1,2 UV-I 113 W/m² 3,6 °C 8,8 °C 0,0 km/h (0 Bft)
24.01.2018 13:50 8,8 °C 69 % 1024,4 hPa 0,0 mm 0,0 km/h (0 Bft) W-NW 301 ° 0 min 0,000 mm 1,2 UV-I 134 W/m² 3,4 °C 8,8 °C 0,0 km/h (0 Bft)
24.01.2018 13:51 8,9 °C 69 % 1024,4 hPa 0,0 mm 0,0 km/h (0 Bft) W-NW 301 ° 0 min 0,000 mm 1,2 UV-I 132 W/m² 3,5 °C 8,9 °C 0,0 km/h (0 Bft)
24.01.2018 13:52 9,0 °C 69 % 1024,4 hPa 0,0 mm 0,0 km/h (0 Bft) W-NW 301 ° 0 min 0,000 mm 1,2 UV-I 127 W/m² 3,6 °C 9,0 °C 0,0 km/h (0 Bft)
24.01.2018 13:53 9,1 °C 69 % 1024,4 hPa 0,0 mm 1,0 km/h (0 Bft) W-NW 301 ° 0 min 0,000 mm 1,2 UV-I 130 W/m² 3,7 °C 9,1 °C 1,6 km/h (1 Bft)
24.01.2018 13:54 9,1 °C 68 % 1024,4 hPa 0,0 mm 1,5 km/h (1 Bft) W-NW 301 ° 0 min 0,000 mm 1,2 UV-I 135 W/m² 3,5 °C 9,1 °C 3,2 km/h (1 Bft)
24.01.2018 13:55 8,7 °C 68 % 1024,3 hPa 0,0 mm 0,1 km/h (0 Bft) W-NW 301 ° 0 min 0,000 mm 1,2 UV-I 142 W/m² 3,1 °C 8,7 °C 1,6 km/h (1 Bft)
24.01.2018 13:56 8,4 °C 70 % 1024,3 hPa 0,0 mm 0,1 km/h (0 Bft) W-NW 301 ° 0 min 0,000 mm 1,2 UV-I 183 W/m² 3,3 °C 8,4 °C 1,6 km/h (1 Bft)
24.01.2018 13:57 8,5 °C 72 % 1024,3 hPa 0,0 mm 0,1 km/h (0 Bft) W-NW 301 ° 0 min 0,000 mm 1,2 UV-I 153 W/m² 3,7 °C 8,5 °C 1,6 km/h (1 Bft)
24.01.2018 13:58 8,7 °C 72 % 1024,3 hPa 0,0 mm 0,0 km/h (0 Bft) W-NW 301 ° 0 min 0,000 mm 1,3 UV-I 178 W/m² 3,9 °C 8,7 °C 0,0 km/h (0 Bft)
24.01.2018 13:59 8,4 °C 71 % 1024,3 hPa 0,0 mm 0,4 km/h (0 Bft) W-NW 301 ° 0 min 0,000 mm 1,3 UV-I 220 W/m² 3,5 °C 8,4 °C 1,6 km/h (1 Bft)
24.01.2018 14:00 8,4 °C 72 % 1024,3 hPa 0,0 mm 0,0 km/h (0 Bft) W-NW 301 ° 0 min 0,000 mm 1,3 UV-I 218 W/m² 3,7 °C 8,4 °C 0,0 km/h (0 Bft)
24.01.2018 14:01 8,6 °C 71 % 1024,3 hPa 0,0 mm 0,0 km/h (0 Bft) W-NW 301 ° 0 min 0,051 mm 1,3 UV-I 225 W/m² 3,6 °C 8,6 °C 0,0 km/h (0 Bft)
24.01.2018 14:02 8,8 °C 70 % 1024,2 hPa 0,0 mm 0,0 km/h (0 Bft) W-NW 301 ° 0 min 0,000 mm 1,3 UV-I 257 W/m² 3,6 °C 8,8 °C 0,0 km/h (0 Bft)
24.01.2018 14:03 8,9 °C 70 % 1024,2 hPa 0,0 mm 0,0 km/h (0 Bft) W-NW 301 ° 0 min 0,000 mm 1,3 UV-I 236 W/m² 3,7 °C 8,9 °C 0,0 km/h (0 Bft)
24.01.2018 14:04 9,0 °C 70 % 1024,2 hPa 0,0 mm 0,0 km/h (0 Bft) W-NW 301 ° 0 min 0,000 mm 1,3 UV-I 223 W/m² 3,8 °C 9,0 °C 0,0 km/h (0 Bft)
24.01.2018 14:05 9,1 °C 69 % 1024,2 hPa 0,0 mm 0,0 km/h (0 Bft) W-NW 301 ° 0 min 0,000 mm 1,2 UV-I 192 W/m² 3,7 °C 9,1 °C 0,0 km/h (0 Bft)
24.01.2018 14:06 8,9 °C 68 % 1024,2 hPa 0,0 mm 0,0 km/h (0 Bft) W-NW 301 ° 0 min 0,000 mm 1,2 UV-I 192 W/m² 3,3 °C 8,9 °C 0,0 km/h (0 Bft)
24.01.2018 14:07 8,7 °C 69 % 1024,2 hPa 0,0 mm 1,0 km/h (0 Bft) W-NW 301 ° 0 min 0,000 mm 1,2 UV-I 214 W/m² 3,3 °C 8,7 °C 3,2 km/h (1 Bft)
24.01.2018 14:08 8,7 °C 69 % 1024,2 hPa 0,0 mm 2,3 km/h (1 Bft) W-NW 301 ° 0 min 0,000 mm 1,2 UV-I 211 W/m² 3,3 °C 8,7 °C 3,2 km/h (1 Bft)
24.01.2018 14:09 8,8 °C 68 % 1024,2 hPa 0,0 mm 1,7 km/h (1 Bft) W-NW 301 ° 0 min 0,000 mm 1,2 UV-I 216 W/m² 3,2 °C 8,8 °C 3,2 km/h (1 Bft)
24.01.2018 14:10 8,9 °C 68 % 1024,2 hPa 0,0 mm 0,8 km/h (0 Bft) W-NW 301 ° 0 min 0,000 mm 1,2 UV-I 214 W/m² 3,3 °C 8,9 °C 1,6 km/h (1 Bft)
24.01.2018 14:11 9,1 °C 67 % 1024,2 hPa 0,0 mm 1,7 km/h (1 Bft) W-NW 301 ° 0 min 0,000 mm 1,3 UV-I 223 W/m² 3,3 °C 9,1 °C 3,2 km/h (1 Bft)
24.01.2018 14:12 8,8 °C 67 % 1024,2 hPa 0,0 mm 0,2 km/h (0 Bft) W-NW 301 ° 0 min 0,000 mm 1,3 UV-I 229 W/m² 3,0 °C 8,8 °C 1,6 km/h (1 Bft)
24.01.2018 14:13 8,4 °C 68 % 1024,2 hPa 0,0 mm 0,0 km/h (0 Bft) W-NW 301 ° 0 min 0,000 mm 1,3 UV-I 239 W/m² 2,8 °C 8,4 °C 0,0 km/h (0 Bft)
24.01.2018 14:14 8,4 °C 69 % 1024,1 hPa 0,0 mm 0,0 km/h (0 Bft) W-NW 301 ° 0 min 0,000 mm 1,3 UV-I 244 W/m² 3,0 °C 8,4 °C 0,0 km/h (0 Bft)
24.01.2018 14:15 8,7 °C 69 % 1024,2 hPa 0,0 mm 0,0 km/h (0 Bft) W-NW 301 ° 0 min 0,000 mm 1,3 UV-I 253 W/m² 3,3 °C 8,7 °C 0,0 km/h (0 Bft)
24.01.2018 14:16 8,6 °C 71 % 1024,1 hPa 0,0 mm 0,0 km/h (0 Bft) W-NW 301 ° 0 min 0,000 mm 1,2 UV-I 239 W/m² 3,6 °C 8,6 °C 0,0 km/h (0 Bft)
24.01.2018 14:17 8,3 °C 71 % 1024,1 hPa 0,0 mm 0,0 km/h (0 Bft) W-NW 301 ° 0 min 0,000 mm 1,2 UV-I 227 W/m² 3,4 °C 8,3 °C 0,0 km/h (0 Bft)
24.01.2018 14:18 8,5 °C 71 % 1024,1 hPa 0,0 mm 0,0 km/h (0 Bft) W-NW 301 ° 0 min 0,000 mm 1,2 UV-I 220 W/m² 3,5 °C 8,5 °C 0,0 km/h (0 Bft)
24.01.2018 14:19 8,7 °C 70 % 1024,0 hPa 0,0 mm 0,0 km/h (0 Bft) W-NW 301 ° 0 min 0,000 mm 1,2 UV-I 192 W/m² 3,5 °C 8,7 °C 0,0 km/h (0 Bft)
24.01.2018 14:20 8,9 °C 70 % 1024,0 hPa 0,0 mm 0,0 km/h (0 Bft) W-NW 301 ° 0 min 0,000 mm 1,1 UV-I 181 W/m² 3,7 °C 8,9 °C 0,0 km/h (0 Bft)
24.01.2018 14:21 9,1 °C 69 % 1024,0 hPa 0,0 mm 0,0 km/h (0 Bft) W-NW 301 ° 0 min 0,000 mm 1,1 UV-I 181 W/m² 3,7 °C 9,1 °C 0,0 km/h (0 Bft)
24.01.2018 14:22 9,1 °C 67 % 1024,0 hPa 0,0 mm 0,8 km/h (0 Bft) W-NW 301 ° 0 min 0,000 mm 1,1 UV-I 169 W/m² 3,3 °C 9,1 °C 3,2 km/h (1 Bft)
24.01.2018 14:23 9,2 °C 67 % 1023,9 hPa 0,0 mm 2,3 km/h (1 Bft) W-NW 301 ° 0 min 0,000 mm 1,1 UV-I 162 W/m² 3,4 °C 9,2 °C 3,2 km/h (1 Bft)
24.01.2018 14:24 9,2 °C 69 % 1023,9 hPa 0,0 mm 1,9 km/h (1 Bft) W-NW 301 ° 0 min 0,000 mm 1,1 UV-I 146 W/m² 3,8 °C 9,2 °C 3,2 km/h (1 Bft)
24.01.2018 14:25 9,2 °C 68 % 1023,9 hPa 0,0 mm 0,9 km/h (0 Bft) W-NW 301 ° 0 min 0,000 mm 1,1 UV-I 125 W/m² 3,6 °C 9,2 °C 3,2 km/h (1 Bft)
24.01.2018 14:26 9,2 °C 68 % 1023,9 hPa 0,0 mm 1,4 km/h (1 Bft) W-NW 301 ° 0 min 0,000 mm 1,0 UV-I 125 W/m² 3,6 °C 9,2 °C 3,2 km/h (1 Bft)
24.01.2018 14:27 9,3 °C 68 % 1023,9 hPa 0,0 mm 1,0 km/h (0 Bft) W-NW 301 ° 0 min 0,000 mm 1,0 UV-I 114 W/m² 3,7 °C 9,3 °C 3,2 km/h (1 Bft)
24.01.2018 14:28 9,3 °C 69 % 1023,9 hPa 0,0 mm 1,3 km/h (1 Bft) W-NW 301 ° 0 min 0,000 mm 1,0 UV-I 109 W/m² 3,9 °C 9,3 °C 1,6 km/h (1 Bft)
24.01.2018 14:29 9,3 °C 69 % 1023,9 hPa 0,0 mm 0,6 km/h (0 Bft) W-NW 301 ° 0 min 0,000 mm 1,0 UV-I 109 W/m² 3,9 °C 9,3 °C 1,6 km/h (1 Bft)
24.01.2018 14:30 9,4 °C 69 % 1023,8 hPa 0,0 mm 0,0 km/h (0 Bft) W-NW 301 ° 0 min 0,000 mm 1,0 UV-I 105 W/m² 4,0 °C 9,4 °C 0,0 km/h (0 Bft)
24.01.2018 14:31 9,4 °C 69 % 1023,8 hPa 0,0 mm 0,0 km/h (0 Bft) W-NW 301 ° 0 min 0,000 mm 1,0 UV-I 111 W/m² 4,0 °C 9,4 °C 0,0 km/h (0 Bft)
24.01.2018 14:32 9,4 °C 69 % 1023,8 hPa 0,0 mm 0,0 km/h (0 Bft) W-NW 301 ° 0 min 0,000 mm 1,0 UV-I 113 W/m² 4,0 °C 9,4 °C 0,0 km/h (0 Bft)
24.01.2018 14:33 9,3 °C 69 % 1023,8 hPa 0,0 mm 0,1 km/h (0 Bft) W-NW 301 ° 0 min 0,000 mm 1,0 UV-I 109 W/m² 3,9 °C 9,3 °C 1,6 km/h (1 Bft)
24.01.2018 14:34 9,3 °C 69 % 1023,7 hPa 0,0 mm 2,1 km/h (1 Bft) W-NW 301 ° 0 min 0,000 mm 1,0 UV-I 104 W/m² 3,9 °C 9,3 °C 3,2 km/h (1 Bft)
24.01.2018 14:35 9,3 °C 70 % 1023,8 hPa 0,0 mm 0,2 km/h (0 Bft) W-NW 301 ° 0 min 0,000 mm 1,0 UV-I 95 W/m² 4,1 °C 9,3 °C 1,6 km/h (1 Bft)
24.01.2018 14:36 9,3 °C 70 % 1023,7 hPa 0,0 mm 0,1 km/h (0 Bft) W-NW 301 ° 0 min 0,000 mm 0,9 UV-I 90 W/m² 4,1 °C 9,3 °C 1,6 km/h (1 Bft)
24.01.2018 14:37 9,4 °C 69 % 1023,7 hPa 0,0 mm 0,1 km/h (0 Bft) W-NW 301 ° 0 min 0,000 mm 0,9 UV-I 90 W/m² 4,0 °C 9,4 °C 1,6 km/h (1 Bft)
24.01.2018 14:38 9,4 °C 69 % 1023,6 hPa 0,0 mm 0,1 km/h (0 Bft) W-NW 301 ° 0 min 0,000 mm 0,9 UV-I 90 W/m² 4,0 °C 9,4 °C 1,6 km/h (1 Bft)
24.01.2018 14:39 9,4 °C 69 % 1023,6 hPa 0,0 mm 1,1 km/h (1 Bft) W-NW 301 ° 0 min 0,000 mm 0,9 UV-I 91 W/m² 4,0 °C 9,4 °C 3,2 km/h (1 Bft)
24.01.2018 14:40 9,3 °C 70 % 1023,6 hPa 0,0 mm 0,5 km/h (0 Bft) W-NW 301 ° 0 min 0,000 mm 0,9 UV-I 93 W/m² 4,1 °C 9,3 °C 1,6 km/h (1 Bft)
24.01.2018 14:41 9,3 °C 69 % 1023,7 hPa 0,0 mm 0,0 km/h (0 Bft) W-NW 301 ° 0 min 0,000 mm 0,9 UV-I 95 W/m² 3,9 °C 9,3 °C 0,0 km/h (0 Bft)
24.01.2018 14:42 9,2 °C 70 % 1023,7 hPa 0,0 mm 0,9 km/h (0 Bft) W-NW 301 ° 0 min 0,000 mm 0,9 UV-I 102 W/m² 4,0 °C 9,2 °C 1,6 km/h (1 Bft)
24.01.2018 14:43 9,2 °C 69 % 1023,6 hPa 0,0 mm 0,1 km/h (0 Bft) W-NW 301 ° 0 min 0,000 mm 0,9 UV-I 105 W/m² 3,8 °C 9,2 °C 1,6 km/h (1 Bft)
24.01.2018 14:44 9,2 °C 70 % 1023,5 hPa 0,0 mm 0,0 km/h (0 Bft) W-NW 301 ° 0 min 0,000 mm 0,9 UV-I 98 W/m² 4,0 °C 9,2 °C 0,0 km/h (0 Bft)
24.01.2018 14:45 9,3 °C 70 % 1023,5 hPa 0,0 mm 0,0 km/h (0 Bft) W-NW 301 ° 0 min 0,000 mm 0,9 UV-I 95 W/m² 4,1 °C 9,3 °C 0,0 km/h (0 Bft)
24.01.2018 14:46 9,2 °C 69 % 1023,5 hPa 0,0 mm 0,0 km/h (0 Bft) W-NW 301 ° 0 min 0,000 mm 0,9 UV-I 104 W/m² 3,8 °C 9,2 °C 0,0 km/h (0 Bft)
24.01.2018 14:47 9,2 °C 69 % 1023,5 hPa 0,0 mm 0,1 km/h (0 Bft) W-NW 301 ° 0 min 0,000 mm 0,9 UV-I 102 W/m² 3,8 °C 9,2 °C 1,6 km/h (1 Bft)
24.01.2018 14:48 9,2 °C 68 % 1023,4 hPa 0,0 mm 0,1 km/h (0 Bft) W-NW 301 ° 0 min 0,000 mm 0,9 UV-I 128 W/m² 3,6 °C 9,2 °C 1,6 km/h (1 Bft)
24.01.2018 14:49 9,2 °C 68 % 1023,4 hPa 0,0 mm 0,6 km/h (0 Bft) W-NW 301 ° 0 min 0,000 mm 0,9 UV-I 127 W/m² 3,6 °C 9,2 °C 1,6 km/h (1 Bft)
24.01.2018 14:50 9,3 °C 68 % 1023,4 hPa 0,0 mm 1,0 km/h (0 Bft) W-NW 301 ° 0 min 0,000 mm 0,9 UV-I 127 W/m² 3,7 °C 9,3 °C 1,6 km/h (1 Bft)
24.01.2018 14:51 9,3 °C 68 % 1023,4 hPa 0,0 mm 1,3 km/h (1 Bft) W-NW 301 ° 0 min 0,000 mm 0,9 UV-I 132 W/m² 3,7 °C 9,3 °C 3,2 km/h (1 Bft)
24.01.2018 14:52 9,3 °C 68 % 1023,4 hPa 0,0 mm 0,8 km/h (0 Bft) W-NW 301 ° 0 min 0,000 mm 0,9 UV-I 151 W/m² 3,7 °C 9,3 °C 1,6 km/h (1 Bft)
24.01.2018 14:53 9,3 °C 67 % 1023,4 hPa 0,0 mm 1,3 km/h (1 Bft) W-NW 301 ° 0 min 0,000 mm 0,9 UV-I 153 W/m² 3,5 °C 9,3 °C 3,2 km/h (1 Bft)
24.01.2018 14:54 9,3 °C 67 % 1023,4 hPa 0,0 mm 1,7 km/h (1 Bft) W-NW 301 ° 0 min 0,000 mm 0,9 UV-I 158 W/m² 3,5 °C 9,3 °C 3,2 km/h (1 Bft)
24.01.2018 14:55 9,4 °C 67 % 1023,4 hPa 0,0 mm 0,4 km/h (0 Bft) W-NW 301 ° 0 min 0,000 mm 0,9 UV-I 162 W/m² 3,6 °C 9,4 °C 1,6 km/h (1 Bft)
24.01.2018 14:56 9,4 °C 67 % 1023,4 hPa 0,0 mm 2,5 km/h (1 Bft) W-NW 301 ° 0 min 0,000 mm 0,9 UV-I 163 W/m² 3,6 °C 9,4 °C 3,2 km/h (1 Bft)
24.01.2018 14:57 9,4 °C 67 % 1023,4 hPa 0,0 mm 1,7 km/h (1 Bft) W-NW 301 ° 0 min 0,000 mm 0,9 UV-I 172 W/m² 3,6 °C 9,4 °C 3,2 km/h (1 Bft)
24.01.2018 14:58 9,5 °C 66 % 1023,3 hPa 0,0 mm 1,9 km/h (1 Bft) W-NW 301 ° 0 min 0,000 mm 0,9 UV-I 174 W/m² 3,5 °C 9,5 °C 3,2 km/h (1 Bft)
24.01.2018 14:59 9,5 °C 66 % 1023,3 hPa 0,0 mm 2,3 km/h (1 Bft) W-NW 296 ° 0 min 0,000 mm 0,9 UV-I 163 W/m² 3,5 °C 9,5 °C 3,2 km/h (1 Bft)
24.01.2018 15:00 9,5 °C 66 % 1023,4 hPa 0,0 mm 0,0 km/h (0 Bft) W-NW 295 ° 0 min 0,000 mm 0,9 UV-I 155 W/m² 3,5 °C 9,5 °C 0,0 km/h (0 Bft)
24.01.2018 15:01 9,4 °C 66 % 1023,3 hPa 0,0 mm 0,6 km/h (0 Bft) W-NW 295 ° 0 min 0,076 mm 0,9 UV-I 162 W/m² 3,4 °C 9,4 °C 1,6 km/h (1 Bft)
24.01.2018 15:02 9,5 °C 66 % 1023,3 hPa 0,0 mm 0,8 km/h (0 Bft) W-NW 295 ° 0 min 0,000 mm 0,9 UV-I 158 W/m² 3,5 °C 9,5 °C 1,6 km/h (1 Bft)
24.01.2018 15:03 9,5 °C 67 % 1023,3 hPa 0,0 mm 0,6 km/h (0 Bft) W-NW 295 ° 0 min 0,000 mm 0,9 UV-I 155 W/m² 3,7 °C 9,5 °C 1,6 km/h (1 Bft)
24.01.2018 15:04 9,4 °C 66 % 1023,3 hPa 0,0 mm 0,0 km/h (0 Bft) W-NW 295 ° 0 min 0,000 mm 0,9 UV-I 160 W/m² 3,4 °C 9,4 °C 0,0 km/h (0 Bft)
24.01.2018 15:05 9,4 °C 66 % 1023,3 hPa 0,0 mm 1,1 km/h (1 Bft) SW 219 ° 0 min 0,000 mm 0,9 UV-I 169 W/m² 3,4 °C 9,4 °C 4,8 km/h (1 Bft)
24.01.2018 15:06 9,3 °C 67 % 1023,3 hPa 0,0 mm 1,6 km/h (1 Bft) SW 217 ° 0 min 0,000 mm 0,9 UV-I 167 W/m² 3,5 °C 9,3 °C 3,2 km/h (1 Bft)
24.01.2018 15:07 9,3 °C 68 % 1023,3 hPa 0,0 mm 1,0 km/h (0 Bft) SW 217 ° 0 min 0,000 mm 0,9 UV-I 202 W/m² 3,7 °C 9,3 °C 1,6 km/h (1 Bft)
24.01.2018 15:08 9,3 °C 68 % 1023,2 hPa 0,0 mm 0,0 km/h (0 Bft) SW 217 ° 0 min 0,000 mm 0,9 UV-I 204 W/m² 3,7 °C 9,3 °C 0,0 km/h (0 Bft)
24.01.2018 15:09 9,2 °C 68 % 1023,2 hPa 0,0 mm 0,0 km/h (0 Bft) SW 217 ° 0 min 0,000 mm 0,9 UV-I 202 W/m² 3,6 °C 9,2 °C 0,0 km/h (0 Bft)
24.01.2018 15:10 9,3 °C 68 % 1023,1 hPa 0,0 mm 0,4 km/h (0 Bft) SW 217 ° 0 min 0,000 mm 0,9 UV-I 193 W/m² 3,7 °C 9,3 °C 1,6 km/h (1 Bft)
24.01.2018 15:11 9,3 °C 69 % 1023,2 hPa 0,0 mm 0,4 km/h (0 Bft) SW 217 ° 0 min 0,000 mm 0,9 UV-I 192 W/m² 3,9 °C 9,3 °C 1,6 km/h (1 Bft)
24.01.2018 15:12 9,3 °C 68 % 1023,1 hPa 0,0 mm 0,5 km/h (0 Bft) SW 217 ° 0 min 0,000 mm 0,8 UV-I 178 W/m² 3,7 °C 9,3 °C 1,6 km/h (1 Bft)
24.01.2018 15:13 9,3 °C 69 % 1023,2 hPa 0,0 mm 2,3 km/h (1 Bft) SW 215 ° 0 min 0,000 mm 0,8 UV-I 171 W/m² 3,9 °C 9,3 °C 3,2 km/h (1 Bft)
24.01.2018 15:14 9,3 °C 69 % 1023,1 hPa 0,0 mm 1,8 km/h (1 Bft) SW 215 ° 0 min 0,000 mm 0,8 UV-I 174 W/m² 3,9 °C 9,3 °C 3,2 km/h (1 Bft)
24.01.2018 15:15 9,3 °C 70 % 1023,1 hPa 0,0 mm 0,7 km/h (0 Bft) SW 215 ° 0 min 0,000 mm 0,8 UV-I 172 W/m² 4,1 °C 9,3 °C 1,6 km/h (1 Bft)
24.01.2018 15:16 9,3 °C 70 % 1023,0 hPa 0,0 mm 1,9 km/h (1 Bft) SW 215 ° 0 min 0,000 mm 0,8 UV-I 169 W/m² 4,1 °C 9,3 °C 3,2 km/h (1 Bft)
24.01.2018 15:17 9,2 °C 70 % 1023,0 hPa 0,0 mm 1,1 km/h (1 Bft) SW 215 ° 0 min 0,000 mm 0,8 UV-I 167 W/m² 4,0 °C 9,2 °C 3,2 km/h (1 Bft)
24.01.2018 15:18 9,1 °C 69 % 1023,1 hPa 0,0 mm 0,0 km/h (0 Bft) SW 215 ° 0 min 0,000 mm 0,8 UV-I 146 W/m² 3,7 °C 9,1 °C 0,0 km/h (0 Bft)
24.01.2018 15:19 9,1 °C 70 % 1023,0 hPa 0,0 mm 0,0 km/h (0 Bft) SW 215 ° 0 min 0,000 mm 0,7 UV-I 128 W/m² 3,9 °C 9,1 °C 0,0 km/h (0 Bft)
24.01.2018 15:20 8,9 °C 69 % 1023,0 hPa 0,0 mm 0,0 km/h (0 Bft) SW 215 ° 0 min 0,000 mm 0,7 UV-I 113 W/m² 3,5 °C 8,9 °C 0,0 km/h (0 Bft)
24.01.2018 15:21 8,8 °C 71 % 1023,0 hPa 0,0 mm 0,0 km/h (0 Bft) SW 215 ° 0 min 0,000 mm 0,7 UV-I 104 W/m² 3,8 °C 8,8 °C 0,0 km/h (0 Bft)
24.01.2018 15:22 8,8 °C 71 % 1023,0 hPa 0,0 mm 0,0 km/h (0 Bft) SW 215 ° 0 min 0,000 mm 0,7 UV-I 97 W/m² 3,8 °C 8,8 °C 0,0 km/h (0 Bft)
24.01.2018 15:23 8,8 °C 70 % 1023,0 hPa 0,0 mm 0,0 km/h (0 Bft) SW 215 ° 0 min 0,000 mm 0,7 UV-I 90 W/m² 3,6 °C 8,8 °C 0,0 km/h (0 Bft)
24.01.2018 15:24 8,8 °C 70 % 1023,0 hPa 0,0 mm 0,0 km/h (0 Bft) SW 215 ° 0 min 0,000 mm 0,7 UV-I 88 W/m² 3,6 °C 8,8 °C 0,0 km/h (0 Bft)
24.01.2018 15:25 8,6 °C 70 % 1023,0 hPa 0,0 mm 0,0 km/h (0 Bft) SW 215 ° 0 min 0,000 mm 0,7 UV-I 86 W/m² 3,4 °C 8,6 °C 0,0 km/h (0 Bft)
24.01.2018 15:26 8,5 °C 70 % 1023,0 hPa 0,0 mm 0,0 km/h (0 Bft) SW 215 ° 0 min 0,000 mm 0,7 UV-I 84 W/m² 3,3 °C 8,5 °C 0,0 km/h (0 Bft)
24.01.2018 15:27 8,6 °C 72 % 1023,0 hPa 0,0 mm 0,0 km/h (0 Bft) SW 215 ° 0 min 0,000 mm 0,7 UV-I 83 W/m² 3,8 °C 8,6 °C 0,0 km/h (0 Bft)
24.01.2018 15:28 8,6 °C 71 % 1023,0 hPa 0,0 mm 0,0 km/h (0 Bft) SW 215 ° 0 min 0,000 mm 0,6 UV-I 81 W/m² 3,6 °C 8,6 °C 0,0 km/h (0 Bft)
24.01.2018 15:29 8,7 °C 72 % 1022,9 hPa 0,0 mm 0,1 km/h (0 Bft) SW 215 ° 0 min 0,000 mm 0,6 UV-I 77 W/m² 3,9 °C 8,7 °C 1,6 km/h (1 Bft)
24.01.2018 15:30 8,8 °C 72 % 1023,0 hPa 0,0 mm 1,0 km/h (0 Bft) SW 215 ° 0 min 0,000 mm 0,6 UV-I 76 W/m² 4,0 °C 8,8 °C 1,6 km/h (1 Bft)
24.01.2018 15:31 8,8 °C 71 % 1023,0 hPa 0,0 mm 0,0 km/h (0 Bft) SW 215 ° 0 min 0,000 mm 0,6 UV-I 74 W/m² 3,8 °C 8,8 °C 0,0 km/h (0 Bft)
24.01.2018 15:32 8,9 °C 71 % 1023,0 hPa 0,0 mm 0,0 km/h (0 Bft) SW 215 ° 0 min 0,000 mm 0,6 UV-I 72 W/m² 3,9 °C 8,9 °C 0,0 km/h (0 Bft)
24.01.2018 15:33 8,9 °C 71 % 1022,9 hPa 0,0 mm 0,0 km/h (0 Bft) SW 215 ° 0 min 0,000 mm 0,6 UV-I 70 W/m² 3,9 °C 8,9 °C 0,0 km/h (0 Bft)
24.01.2018 15:34 8,8 °C 70 % 1022,9 hPa 0,0 mm 0,0 km/h (0 Bft) SW 215 ° 0 min 0,000 mm 0,6 UV-I 69 W/m² 3,6 °C 8,8 °C 0,0 km/h (0 Bft)
24.01.2018 15:35 8,8 °C 71 % 1022,9 hPa 0,0 mm 0,1 km/h (0 Bft) SW 215 ° 0 min 0,000 mm 0,6 UV-I 67 W/m² 3,8 °C 8,8 °C 1,6 km/h (1 Bft)
24.01.2018 15:36 8,8 °C 71 % 1023,0 hPa 0,0 mm 2,1 km/h (1 Bft) SW 215 ° 0 min 0,000 mm 0,6 UV-I 65 W/m² 3,8 °C 8,8 °C 3,2 km/h (1 Bft)
24.01.2018 15:37 8,8 °C 71 % 1022,9 hPa 0,0 mm 1,7 km/h (1 Bft) SW 215 ° 0 min 0,000 mm 0,6 UV-I 63 W/m² 3,8 °C 8,8 °C 3,2 km/h (1 Bft)
24.01.2018 15:38 8,8 °C 72 % 1023,0 hPa 0,0 mm 2,1 km/h (1 Bft) SW 215 ° 0 min 0,000 mm 0,5 UV-I 62 W/m² 4,0 °C 8,8 °C 3,2 km/h (1 Bft)
24.01.2018 15:39 8,9 °C 70 % 1023,0 hPa 0,0 mm 1,3 km/h (1 Bft) SW 215 ° 0 min 0,000 mm 0,5 UV-I 62 W/m² 3,7 °C 8,9 °C 1,6 km/h (1 Bft)
24.01.2018 15:40 8,9 °C 70 % 1022,9 hPa 0,0 mm 2,3 km/h (1 Bft) SW 215 ° 0 min 0,000 mm 0,5 UV-I 60 W/m² 3,7 °C 8,9 °C 3,2 km/h (1 Bft)
24.01.2018 15:41 8,9 °C 69 % 1022,9 hPa 0,0 mm 0,5 km/h (0 Bft) SW 215 ° 0 min 0,000 mm 0,5 UV-I 58 W/m² 3,5 °C 8,9 °C 1,6 km/h (1 Bft)
24.01.2018 15:42 8,9 °C 69 % 1022,9 hPa 0,0 mm 0,0 km/h (0 Bft) SW 215 ° 0 min 0,000 mm 0,5 UV-I 56 W/m² 3,5 °C 8,9 °C 0,0 km/h (0 Bft)
24.01.2018 15:43 8,8 °C 68 % 1022,9 hPa 0,0 mm 0,8 km/h (0 Bft) SW 215 ° 0 min 0,000 mm 0,5 UV-I 56 W/m² 3,2 °C 8,8 °C 3,2 km/h (1 Bft)
24.01.2018 15:44 8,7 °C 70 % 1022,9 hPa 0,0 mm 1,9 km/h (1 Bft) SW 215 ° 0 min 0,000 mm 0,0 UV-I 54 W/m² 3,5 °C 8,7 °C 3,2 km/h (1 Bft)
24.01.2018 15:45 8,7 °C 69 % 1022,9 hPa 0,0 mm 0,3 km/h (0 Bft) SW 215 ° 0 min 0,000 mm 0,0 UV-I 54 W/m² 3,3 °C 8,7 °C 1,6 km/h (1 Bft)
24.01.2018 15:46 8,6 °C 69 % 1022,8 hPa 0,0 mm 0,0 km/h (0 Bft) SW 215 ° 0 min 0,000 mm 0,0 UV-I 53 W/m² 3,2 °C 8,6 °C 0,0 km/h (0 Bft)
24.01.2018 15:47 8,2 °C 71 % 1022,8 hPa 0,0 mm 2,3 km/h (1 Bft) SW 215 ° 0 min 0,000 mm 0,0 UV-I 51 W/m² 3,3 °C 8,2 °C 4,8 km/h (1 Bft)
24.01.2018 15:48 8,1 °C 70 % 1022,8 hPa 0,0 mm 2,2 km/h (1 Bft) SW 215 ° 0 min 0,000 mm 0,0 UV-I 51 W/m² 3,0 °C 8,1 °C 3,2 km/h (1 Bft)
24.01.2018 15:49 7,8 °C 71 % 1022,8 hPa 0,0 mm 2,1 km/h (1 Bft) SW 215 ° 0 min 0,000 mm 0,0 UV-I 51 W/m² 2,9 °C 7,8 °C 3,2 km/h (1 Bft)
24.01.2018 15:50 7,6 °C 72 % 1022,8 hPa 0,0 mm 2,2 km/h (1 Bft) SW 214 ° 0 min 0,000 mm 0,0 UV-I 49 W/m² 2,9 °C 7,6 °C 3,2 km/h (1 Bft)
24.01.2018 15:51 7,4 °C 73 % 1022,8 hPa 0,0 mm 3,0 km/h (1 Bft) NO 55 ° 0 min 0,000 mm 0,0 UV-I 49 W/m² 2,9 °C 7,4 °C 6,4 km/h (2 Bft)
24.01.2018 15:52 7,3 °C 73 % 1022,8 hPa 0,0 mm 2,8 km/h (1 Bft) O-SO 103 ° 0 min 0,000 mm 0,0 UV-I 49 W/m² 2,8 °C 7,3 °C 4,8 km/h (1 Bft)
24.01.2018 15:53 7,4 °C 73 % 1022,8 hPa 0,0 mm 2,0 km/h (1 Bft) O-SO 103 ° 0 min 0,000 mm 0,0 UV-I 47 W/m² 2,9 °C 7,4 °C 3,2 km/h (1 Bft)
24.01.2018 15:54 7,5 °C 73 % 1022,8 hPa 0,0 mm 0,5 km/h (0 Bft) O-SO 103 ° 0 min 0,000 mm 0,0 UV-I 47 W/m² 3,0 °C 7,5 °C 1,6 km/h (1 Bft)
24.01.2018 15:55 7,6 °C 72 % 1022,8 hPa 0,0 mm 0,2 km/h (0 Bft) O-SO 103 ° 0 min 0,000 mm 0,0 UV-I 47 W/m² 2,9 °C 7,6 °C 1,6 km/h (1 Bft)
24.01.2018 15:56 7,6 °C 73 % 1022,8 hPa 0,0 mm 1,6 km/h (1 Bft) O-SO 105 ° 0 min 0,000 mm 0,0 UV-I 47 W/m² 3,1 °C 7,6 °C 3,2 km/h (1 Bft)
24.01.2018 15:57 7,7 °C 72 % 1022,8 hPa 0,0 mm 0,1 km/h (0 Bft) O-SO 105 ° 0 min 0,000 mm 0,0 UV-I 47 W/m² 3,0 °C 7,7 °C 1,6 km/h (1 Bft)
24.01.2018 15:58 7,7 °C 71 % 1022,8 hPa 0,0 mm 1,7 km/h (1 Bft) O-SO 105 ° 0 min 0,000 mm 0,0 UV-I 46 W/m² 2,8 °C 7,7 °C 3,2 km/h (1 Bft)
24.01.2018 15:59 7,8 °C 71 % 1022,8 hPa 0,0 mm 3,3 km/h (1 Bft) SO 130 ° 0 min 0,000 mm 0,0 UV-I 46 W/m² 2,9 °C 7,8 °C 6,4 km/h (2 Bft)
24.01.2018 16:00 7,9 °C 71 % 1022,8 hPa 0,0 mm 2,5 km/h (1 Bft) SO 130 ° 0 min 0,000 mm 0,0 UV-I 44 W/m² 3,0 °C 7,9 °C 4,8 km/h (1 Bft)
24.01.2018 16:01 8,1 °C 70 % 1022,7 hPa 0,0 mm 1,5 km/h (1 Bft) SO 130 ° 0 min 0,051 mm 0,0 UV-I 44 W/m² 3,0 °C 8,1 °C 3,2 km/h (1 Bft)
24.01.2018 16:02 8,2 °C 69 % 1022,7 hPa 0,0 mm 1,5 km/h (1 Bft) SO 130 ° 0 min 0,000 mm 0,0 UV-I 44 W/m² 2,9 °C 8,2 °C 3,2 km/h (1 Bft)
24.01.2018 16:03 8,3 °C 68 % 1022,7 hPa 0,0 mm 1,6 km/h (1 Bft) SO 130 ° 0 min 0,000 mm 0,0 UV-I 44 W/m² 2,7 °C 8,3 °C 1,6 km/h (1 Bft)
24.01.2018 16:04 8,5 °C 69 % 1022,7 hPa 0,0 mm 0,6 km/h (0 Bft) SO 130 ° 0 min 0,000 mm 0,0 UV-I 42 W/m² 3,1 °C 8,5 °C 1,6 km/h (1 Bft)
24.01.2018 16:05 8,5 °C 68 % 1022,7 hPa 0,0 mm 0,0 km/h (0 Bft) SO 130 ° 0 min 0,000 mm 0,0 UV-I 42 W/m² 2,9 °C 8,5 °C 0,0 km/h (0 Bft)
24.01.2018 16:06 8,2 °C 67 % 1022,7 hPa 0,0 mm 0,0 km/h (0 Bft) SO 130 ° 0 min 0,000 mm 0,0 UV-I 40 W/m² 2,4 °C 8,2 °C 0,0 km/h (0 Bft)
24.01.2018 16:07 7,8 °C 68 % 1022,7 hPa 0,0 mm 0,0 km/h (0 Bft) SO 130 ° 0 min 0,000 mm 0,0 UV-I 40 W/m² 2,3 °C 7,8 °C 0,0 km/h (0 Bft)
24.01.2018 16:08 7,8 °C 70 % 1022,7 hPa 0,0 mm 0,0 km/h (0 Bft) SO 130 ° 0 min 0,000 mm 0,0 UV-I 40 W/m² 2,7 °C 7,8 °C 0,0 km/h (0 Bft)
24.01.2018 16:09 7,9 °C 70 % 1022,7 hPa 0,0 mm 1,2 km/h (1 Bft) SO 130 ° 0 min 0,000 mm 0,0 UV-I 40 W/m² 2,8 °C 7,9 °C 3,2 km/h (1 Bft)
24.01.2018 16:10 8,0 °C 69 % 1022,7 hPa 0,0 mm 2,5 km/h (1 Bft) SO 130 ° 0 min 0,000 mm 0,0 UV-I 39 W/m² 2,7 °C 8,0 °C 3,2 km/h (1 Bft)
24.01.2018 16:11 7,9 °C 69 % 1022,7 hPa 0,0 mm 3,0 km/h (1 Bft) SO 130 ° 0 min 0,000 mm 0,0 UV-I 39 W/m² 2,6 °C 7,9 °C 4,8 km/h (1 Bft)
24.01.2018 16:12 8,1 °C 69 % 1022,7 hPa 0,0 mm 3,6 km/h (1 Bft) SO 130 ° 0 min 0,000 mm 0,0 UV-I 39 W/m² 2,8 °C 8,1 °C 4,8 km/h (1 Bft)
24.01.2018 16:13 8,1 °C 69 % 1022,7 hPa 0,0 mm 0,5 km/h (0 Bft) SO 130 ° 0 min 0,000 mm 0,0 UV-I 37 W/m² 2,8 °C 8,1 °C 1,6 km/h (1 Bft)
24.01.2018 16:14 7,9 °C 69 % 1022,7 hPa 0,0 mm 0,0 km/h (0 Bft) SO 130 ° 0 min 0,000 mm 0,0 UV-I 37 W/m² 2,6 °C 7,9 °C 0,0 km/h (0 Bft)
24.01.2018 16:15 7,6 °C 70 % 1022,7 hPa 0,0 mm 0,5 km/h (0 Bft) SO 130 ° 0 min 0,000 mm 0,0 UV-I 37 W/m² 2,5 °C 7,6 °C 1,6 km/h (1 Bft)
24.01.2018 16:16 7,3 °C 71 % 1022,7 hPa 0,0 mm 0,3 km/h (0 Bft) SO 130 ° 0 min 0,000 mm 0,0 UV-I 35 W/m² 2,4 °C 7,3 °C 1,6 km/h (1 Bft)
24.01.2018 16:17 7,2 °C 72 % 1022,6 hPa 0,0 mm 0,7 km/h (0 Bft) SO 130 ° 0 min 0,000 mm 0,0 UV-I 35 W/m² 2,5 °C 7,2 °C 1,6 km/h (1 Bft)
24.01.2018 16:18 7,2 °C 73 % 1022,6 hPa 0,0 mm 1,9 km/h (1 Bft) SO 130 ° 0 min 0,000 mm 0,0 UV-I 33 W/m² 2,7 °C 7,2 °C 3,2 km/h (1 Bft)
24.01.2018 16:19 7,3 °C 74 % 1022,6 hPa 0,0 mm 5,4 km/h (1 Bft) SO 130 ° 0 min 0,000 mm 0,0 UV-I 33 W/m² 3,0 °C 6,6 °C 6,4 km/h (2 Bft)
24.01.2018 16:20 7,2 °C 74 % 1022,6 hPa 0,0 mm 3,9 km/h (1 Bft) SO 130 ° 0 min 0,000 mm 0,0 UV-I 33 W/m² 2,9 °C 7,2 °C 6,4 km/h (2 Bft)
24.01.2018 16:21 7,2 °C 74 % 1022,6 hPa 0,0 mm 3,8 km/h (1 Bft) SO 130 ° 0 min 0,000 mm 0,0 UV-I 33 W/m² 2,9 °C 7,2 °C 4,8 km/h (1 Bft)
24.01.2018 16:22 7,1 °C 74 % 1022,6 hPa 0,0 mm 6,0 km/h (2 Bft) S-SW 198 ° 0 min 0,000 mm 0,0 UV-I 32 W/m² 2,8 °C 6,1 °C 8,0 km/h (2 Bft)
24.01.2018 16:23 7,1 °C 75 % 1022,6 hPa 0,0 mm 4,2 km/h (1 Bft) S-SW 195 ° 0 min 0,000 mm 0,0 UV-I 30 W/m² 3,0 °C 7,1 °C 6,4 km/h (2 Bft)
24.01.2018 16:24 7,2 °C 75 % 1022,6 hPa 0,0 mm 3,9 km/h (1 Bft) S 189 ° 0 min 0,000 mm 0,0 UV-I 30 W/m² 3,1 °C 7,2 °C 6,4 km/h (2 Bft)
24.01.2018 16:25 7,1 °C 75 % 1022,6 hPa 0,0 mm 3,5 km/h (1 Bft) S 189 ° 0 min 0,000 mm 0,0 UV-I 30 W/m² 3,0 °C 7,1 °C 6,4 km/h (2 Bft)
24.01.2018 16:26 7,1 °C 75 % 1022,6 hPa 0,0 mm 4,4 km/h (1 Bft) S 189 ° 0 min 0,000 mm 0,0 UV-I 28 W/m² 3,0 °C 7,1 °C 6,4 km/h (2 Bft)
24.01.2018 16:27 7,1 °C 75 % 1022,6 hPa 0,0 mm 2,6 km/h (1 Bft) S 189 ° 0 min 0,000 mm 0,0 UV-I 28 W/m² 3,0 °C 7,1 °C 4,8 km/h (1 Bft)
24.01.2018 16:28 7,1 °C 76 % 1022,6 hPa 0,0 mm 2,8 km/h (1 Bft) S 189 ° 0 min 0,000 mm 0,0 UV-I 26 W/m² 3,2 °C 7,1 °C 4,8 km/h (1 Bft)
24.01.2018 16:29 7,1 °C 76 % 1022,6 hPa 0,0 mm 3,1 km/h (1 Bft) S 189 ° 0 min 0,000 mm 0,0 UV-I 26 W/m² 3,2 °C 7,1 °C 4,8 km/h (1 Bft)
24.01.2018 16:30 7,1 °C 76 % 1022,6 hPa 0,0 mm 2,4 km/h (1 Bft) S 189 ° 0 min 0,000 mm 0,0 UV-I 25 W/m² 3,2 °C 7,1 °C 4,8 km/h (1 Bft)
24.01.2018 16:31 7,1 °C 76 % 1022,6 hPa 0,0 mm 2,8 km/h (1 Bft) S 189 ° 0 min 0,000 mm 0,0 UV-I 25 W/m² 3,2 °C 7,1 °C 4,8 km/h (1 Bft)
24.01.2018 16:32 7,2 °C 75 % 1022,6 hPa 0,0 mm 2,8 km/h (1 Bft) S 189 ° 0 min 0,000 mm 0,0 UV-I 25 W/m² 3,1 °C 7,2 °C 4,8 km/h (1 Bft)
24.01.2018 16:33 7,2 °C 76 % 1022,6 hPa 0,0 mm 2,6 km/h (1 Bft) S 189 ° 0 min 0,000 mm 0,0 UV-I 23 W/m² 3,3 °C 7,2 °C 4,8 km/h (1 Bft)
24.01.2018 16:34 7,2 °C 76 % 1022,6 hPa 0,0 mm 2,0 km/h (1 Bft) S 189 ° 0 min 0,000 mm 0,0 UV-I 21 W/m² 3,3 °C 7,2 °C 4,8 km/h (1 Bft)
24.01.2018 16:35 7,2 °C 76 % 1022,6 hPa 0,0 mm 1,7 km/h (1 Bft) S 189 ° 0 min 0,000 mm 0,0 UV-I 21 W/m² 3,3 °C 7,2 °C 4,8 km/h (1 Bft)
24.01.2018 16:36 7,1 °C 76 % 1022,6 hPa 0,0 mm 0,0 km/h (0 Bft) S 189 ° 0 min 0,000 mm 0,0 UV-I 21 W/m² 3,2 °C 7,1 °C 0,0 km/h (0 Bft)
24.01.2018 16:37 6,9 °C 76 % 1022,6 hPa 0,0 mm 0,0 km/h (0 Bft) S 189 ° 0 min 0,000 mm 0,0 UV-I 19 W/m² 3,0 °C 6,9 °C 0,0 km/h (0 Bft)
24.01.2018 16:38 6,4 °C 76 % 1022,7 hPa 0,0 mm 0,0 km/h (0 Bft) S 189 ° 0 min 0,000 mm 0,0 UV-I 19 W/m² 2,5 °C 6,4 °C 0,0 km/h (0 Bft)
24.01.2018 16:39 6,1 °C 78 % 1022,6 hPa 0,0 mm 0,0 km/h (0 Bft) S 189 ° 0 min 0,000 mm 0,0 UV-I 19 W/m² 2,6 °C 6,1 °C 0,0 km/h (0 Bft)
24.01.2018 16:40 5,8 °C 80 % 1022,6 hPa 0,0 mm 0,0 km/h (0 Bft) S 189 ° 0 min 0,000 mm 0,0 UV-I 18 W/m² 2,6 °C 5,8 °C 0,0 km/h (0 Bft)
24.01.2018 16:41 5,8 °C 81 % 1022,7 hPa 0,0 mm 0,0 km/h (0 Bft) S 189 ° 0 min 0,000 mm 0,0 UV-I 16 W/m² 2,8 °C 5,8 °C 0,0 km/h (0 Bft)
24.01.2018 16:42 5,8 °C 82 % 1022,6 hPa 0,0 mm 0,1 km/h (0 Bft) S 189 ° 0 min 0,000 mm 0,0 UV-I 16 W/m² 3,0 °C 5,8 °C 1,6 km/h (1 Bft)
24.01.2018 16:43 5,9 °C 82 % 1022,6 hPa 0,0 mm 0,0 km/h (0 Bft) S 189 ° 0 min 0,000 mm 0,0 UV-I 16 W/m² 3,1 °C 5,9 °C 0,0 km/h (0 Bft)
24.01.2018 16:44 6,0 °C 82 % 1022,6 hPa 0,0 mm 0,1 km/h (0 Bft) S 189 ° 0 min 0,000 mm 0,0 UV-I 14 W/m² 3,2 °C 6,0 °C 1,6 km/h (1 Bft)
24.01.2018 16:45 6,1 °C 82 % 1022,7 hPa 0,0 mm 0,6 km/h (0 Bft) S 189 ° 0 min 0,000 mm 0,0 UV-I 12 W/m² 3,3 °C 6,1 °C 3,2 km/h (1 Bft)
24.01.2018 16:46 6,1 °C 82 % 1022,6 hPa 0,0 mm 0,0 km/h (0 Bft) S 189 ° 0 min 0,000 mm 0,0 UV-I 12 W/m² 3,3 °C 6,1 °C 0,0 km/h (0 Bft)
24.01.2018 16:47 6,2 °C 82 % 1022,7 hPa 0,0 mm 1,2 km/h (1 Bft) S 189 ° 0 min 0,000 mm 0,0 UV-I 12 W/m² 3,4 °C 6,2 °C 4,8 km/h (1 Bft)
24.01.2018 16:48 6,2 °C 82 % 1022,6 hPa 0,0 mm 0,1 km/h (0 Bft) S 189 ° 0 min 0,000 mm 0,0 UV-I 11 W/m² 3,4 °C 6,2 °C 1,6 km/h (1 Bft)
24.01.2018 16:49 6,2 °C 82 % 1022,6 hPa 0,0 mm 0,0 km/h (0 Bft) S 189 ° 0 min 0,000 mm 0,0 UV-I 11 W/m² 3,4 °C 6,2 °C 0,0 km/h (0 Bft)
24.01.2018 16:50 6,2 °C 82 % 1022,6 hPa 0,0 mm 0,1 km/h (0 Bft) S 189 ° 0 min 0,000 mm 0,0 UV-I 11 W/m² 3,4 °C 6,2 °C 1,6 km/h (1 Bft)
24.01.2018 16:51 6,1 °C 82 % 1022,6 hPa 0,0 mm 0,7 km/h (0 Bft) S 189 ° 0 min 0,000 mm 0,0 UV-I 9 W/m² 3,3 °C 6,1 °C 3,2 km/h (1 Bft)
24.01.2018 16:52 6,1 °C 82 % 1022,6 hPa 0,0 mm 2,6 km/h (1 Bft) S 189 ° 0 min 0,000 mm 0,0 UV-I 9 W/m² 3,3 °C 6,1 °C 3,2 km/h (1 Bft)
24.01.2018 16:53 6,1 °C 82 % 1022,6 hPa 0,0 mm 3,1 km/h (1 Bft) S 189 ° 0 min 0,000 mm 0,0 UV-I 7 W/m² 3,3 °C 6,1 °C 4,8 km/h (1 Bft)
24.01.2018 16:54 6,1 °C 82 % 1022,6 hPa 0,0 mm 3,1 km/h (1 Bft) S 189 ° 0 min 0,000 mm 0,0 UV-I 7 W/m² 3,3 °C 6,1 °C 4,8 km/h (1 Bft)
24.01.2018 16:55 6,1 °C 83 % 1022,6 hPa 0,0 mm 3,4 km/h (1 Bft) S 189 ° 0 min 0,000 mm 0,0 UV-I 7 W/m² 3,4 °C 6,1 °C 6,4 km/h (2 Bft)
24.01.2018 16:56 6,1 °C 83 % 1022,6 hPa 0,0 mm 2,8 km/h (1 Bft) S 189 ° 0 min 0,000 mm 0,0 UV-I 5 W/m² 3,4 °C 6,1 °C 6,4 km/h (2 Bft)
24.01.2018 16:57 6,1 °C 84 % 1022,5 hPa 0,0 mm 2,5 km/h (1 Bft) S 189 ° 0 min 0,000 mm 0,0 UV-I 5 W/m² 3,6 °C 6,1 °C 4,8 km/h (1 Bft)
24.01.2018 16:58 6,1 °C 84 % 1022,5 hPa 0,0 mm 4,1 km/h (1 Bft) S 189 ° 0 min 0,000 mm 0,0 UV-I 5 W/m² 3,6 °C 6,1 °C 6,4 km/h (2 Bft)
24.01.2018 16:59 6,1 °C 84 % 1022,6 hPa 0,0 mm 4,6 km/h (1 Bft) S-SW 201 ° 0 min 0,000 mm 0,0 UV-I 5 W/m² 3,6 °C 5,5 °C 6,4 km/h (2 Bft)
24.01.2018 17:00 6,2 °C 84 % 1022,5 hPa 0,0 mm 5,7 km/h (1 Bft) SW 223 ° 0 min 0,025 mm 0,0 UV-I 0 W/m² 3,7 °C 5,2 °C 6,4 km/h (2 Bft)
24.01.2018 17:01 6,2 °C 84 % 1022,6 hPa 0,0 mm 7,0 km/h (2 Bft) S-SW 196 ° 0 min 0,000 mm 0,0 UV-I 0 W/m² 3,7 °C 4,8 °C 8,0 km/h (2 Bft)
24.01.2018 17:02 6,2 °C 83 % 1022,5 hPa 0,0 mm 7,5 km/h (2 Bft) S-SW 194 ° 0 min 0,000 mm 0,0 UV-I 0 W/m² 3,5 °C 4,7 °C 9,7 km/h (2 Bft)
24.01.2018 17:03 6,2 °C 83 % 1022,6 hPa 0,0 mm 7,3 km/h (2 Bft) S-SW 201 ° 0 min 0,000 mm 0,0 UV-I 0 W/m² 3,5 °C 4,7 °C 9,7 km/h (2 Bft)
24.01.2018 17:04 6,2 °C 83 % 1022,6 hPa 0,0 mm 6,5 km/h (2 Bft) S-SW 209 ° 0 min 0,000 mm 0,0 UV-I 0 W/m² 3,5 °C 4,9 °C 9,7 km/h (2 Bft)
24.01.2018 17:05 6,1 °C 83 % 1022,6 hPa 0,0 mm 7,1 km/h (2 Bft) S-SW 210 ° 0 min 0,000 mm 0,0 UV-I 0 W/m² 3,4 °C 4,7 °C 9,7 km/h (2 Bft)
24.01.2018 17:06 6,0 °C 83 % 1022,6 hPa 0,0 mm 6,3 km/h (2 Bft) S-SW 201 ° 0 min 0,000 mm 0,0 UV-I 0 W/m² 3,3 °C 4,8 °C 8,0 km/h (2 Bft)
24.01.2018 17:07 5,9 °C 84 % 1022,6 hPa 0,0 mm 7,1 km/h (2 Bft) SW 214 ° 0 min 0,000 mm 0,0 UV-I 0 W/m² 3,4 °C 4,4 °C 9,7 km/h (2 Bft)
24.01.2018 17:08 5,9 °C 84 % 1022,6 hPa 0,0 mm 10,5 km/h (2 Bft) SW 214 ° 0 min 0,000 mm 0,0 UV-I 0 W/m² 3,4 °C 3,6 °C 14,5 km/h (3 Bft)
24.01.2018 17:09 5,8 °C 84 % 1022,5 hPa 0,0 mm 8,0 km/h (2 Bft) S-SW 211 ° 0 min 0,000 mm 0,0 UV-I 0 W/m² 3,3 °C 4,1 °C 11,3 km/h (2 Bft)
24.01.2018 17:10 5,8 °C 84 % 1022,5 hPa 0,0 mm 10,4 km/h (2 Bft) SW 214 ° 0 min 0,000 mm 0,0 UV-I 0 W/m² 3,3 °C 3,5 °C 12,9 km/h (3 Bft)
24.01.2018 17:11 5,9 °C 85 % 1022,5 hPa 0,0 mm 10,6 km/h (2 Bft) SW 215 ° 0 min 0,000 mm 0,0 UV-I 0 W/m² 3,6 °C 3,6 °C 12,9 km/h (3 Bft)
24.01.2018 17:12 5,8 °C 85 % 1022,5 hPa 0,0 mm 9,5 km/h (2 Bft) S-SW 204 ° 0 min 0,000 mm 0,0 UV-I 0 W/m² 3,5 °C 3,7 °C 12,9 km/h (3 Bft)
24.01.2018 17:13 5,9 °C 85 % 1022,5 hPa 0,0 mm 8,1 km/h (2 Bft) S-SW 196 ° 0 min 0,000 mm 0,0 UV-I 0 W/m² 3,6 °C 4,2 °C 11,3 km/h (2 Bft)
24.01.2018 17:14 5,9 °C 85 % 1022,5 hPa 0,0 mm 8,0 km/h (2 Bft) S-SW 205 ° 0 min 0,000 mm 0,0 UV-I 0 W/m² 3,6 °C 4,2 °C 11,3 km/h (2 Bft)
24.01.2018 17:15 5,9 °C 84 % 1022,5 hPa 0,0 mm 6,4 km/h (2 Bft) S 190 ° 0 min 0,000 mm 0,0 UV-I 0 W/m² 3,4 °C 4,6 °C 9,7 km/h (2 Bft)
24.01.2018 17:16 5,9 °C 84 % 1022,5 hPa 0,0 mm 5,7 km/h (1 Bft) S-SW 192 ° 0 min 0,000 mm 0,0 UV-I 0 W/m² 3,4 °C 4,9 °C 6,4 km/h (2 Bft)
24.01.2018 17:17 5,9 °C 84 % 1022,5 hPa 0,0 mm 6,1 km/h (2 Bft) S-SW 192 ° 0 min 0,000 mm 0,0 UV-I 0 W/m² 3,4 °C 4,7 °C 8,0 km/h (2 Bft)
24.01.2018 17:18 5,9 °C 84 % 1022,5 hPa 0,0 mm 5,5 km/h (1 Bft) S 184 ° 0 min 0,000 mm 0,0 UV-I 0 W/m² 3,4 °C 4,9 °C 6,4 km/h (2 Bft)
24.01.2018 17:19 6,0 °C 84 % 1022,5 hPa 0,0 mm 7,8 km/h (2 Bft) S-SW 196 ° 0 min 0,000 mm 0,0 UV-I 0 W/m² 3,5 °C 4,4 °C 11,3 km/h (2 Bft)
24.01.2018 17:20 6,0 °C 84 % 1022,5 hPa 0,0 mm 7,3 km/h (2 Bft) S-SW 194 ° 0 min 0,000 mm 0,0 UV-I 0 W/m² 3,5 °C 4,5 °C 8,0 km/h (2 Bft)
24.01.2018 17:21 5,9 °C 84 % 1022,6 hPa 0,0 mm 7,6 km/h (2 Bft) S 183 ° 0 min 0,000 mm 0,0 UV-I 0 W/m² 3,4 °C 4,3 °C 11,3 km/h (2 Bft)
24.01.2018 17:22 5,9 °C 84 % 1022,6 hPa 0,0 mm 5,8 km/h (2 Bft) S-SW 202 ° 0 min 0,000 mm 0,0 UV-I 0 W/m² 3,4 °C 4,8 °C 8,0 km/h (2 Bft)
24.01.2018 17:23 5,9 °C 83 % 1022,5 hPa 0,0 mm 5,0 km/h (1 Bft) S 180 ° 0 min 0,000 mm 0,0 UV-I 0 W/m² 3,2 °C 5,1 °C 8,0 km/h (2 Bft)
24.01.2018 17:24 5,9 °C 83 % 1022,5 hPa 0,0 mm 5,9 km/h (2 Bft) S 173 ° 0 min 0,000 mm 0,0 UV-I 0 W/m² 3,2 °C 4,8 °C 9,7 km/h (2 Bft)
24.01.2018 17:25 5,9 °C 83 % 1022,5 hPa 0,0 mm 6,8 km/h (2 Bft) S 182 ° 0 min 0,000 mm 0,0 UV-I 0 W/m² 3,2 °C 4,5 °C 9,7 km/h (2 Bft)
24.01.2018 17:26 6,0 °C 84 % 1022,5 hPa 0,0 mm 6,6 km/h (2 Bft) S-SW 212 ° 0 min 0,000 mm 0,0 UV-I 0 W/m² 3,5 °C 4,7 °C 9,7 km/h (2 Bft)
24.01.2018 17:27 6,1 °C 84 % 1022,5 hPa 0,0 mm 8,9 km/h (2 Bft) S-SW 198 ° 0 min 0,000 mm 0,0 UV-I 0 W/m² 3,6 °C 4,2 °C 11,3 km/h (2 Bft)
24.01.2018 17:28 6,1 °C 83 % 1022,5 hPa 0,0 mm 8,0 km/h (2 Bft) S-SO 165 ° 0 min 0,000 mm 0,0 UV-I 0 W/m² 3,4 °C 4,4 °C 9,7 km/h (2 Bft)
24.01.2018 17:29 6,1 °C 83 % 1022,5 hPa 0,0 mm 6,1 km/h (2 Bft) S-SO 160 ° 0 min 0,000 mm 0,0 UV-I 0 W/m² 3,4 °C 5,0 °C 9,7 km/h (2 Bft)
24.01.2018 17:30 6,1 °C 83 % 1022,5 hPa 0,0 mm 5,9 km/h (2 Bft) S-SW 192 ° 0 min 0,000 mm 0,0 UV-I 0 W/m² 3,4 °C 5,0 °C 6,4 km/h (2 Bft)
24.01.2018 17:31 6,1 °C 83 % 1022,5 hPa 0,0 mm 6,9 km/h (2 Bft) S-SW 204 ° 0 min 0,000 mm 0,0 UV-I 0 W/m² 3,4 °C 4,7 °C 8,0 km/h (2 Bft)
24.01.2018 17:32 6,0 °C 82 % 1022,5 hPa 0,0 mm 8,6 km/h (2 Bft) S 186 ° 0 min 0,000 mm 0,0 UV-I 0 W/m² 3,2 °C 4,2 °C 11,3 km/h (2 Bft)
24.01.2018 17:33 5,9 °C 82 % 1022,6 hPa 0,0 mm 10,5 km/h (2 Bft) S-SW 196 ° 0 min 0,000 mm 0,0 UV-I 0 W/m² 3,1 °C 3,6 °C 12,9 km/h (3 Bft)
24.01.2018 17:34 5,9 °C 83 % 1022,5 hPa 0,0 mm 10,7 km/h (2 Bft) S-SW 202 ° 0 min 0,000 mm 0,0 UV-I 0 W/m² 3,2 °C 3,6 °C 12,9 km/h (3 Bft)
24.01.2018 17:35 5,8 °C 83 % 1022,6 hPa 0,0 mm 10,5 km/h (2 Bft) SW 217 ° 0 min 0,000 mm 0,0 UV-I 0 W/m² 3,1 °C 3,5 °C 12,9 km/h (3 Bft)
24.01.2018 17:36 5,8 °C 83 % 1022,5 hPa 0,0 mm 10,2 km/h (2 Bft) S 185 ° 0 min 0,000 mm 0,0 UV-I 0 W/m² 3,1 °C 3,6 °C 14,5 km/h (3 Bft)
24.01.2018 17:37 5,9 °C 84 % 1022,5 hPa 0,0 mm 7,5 km/h (2 Bft) S 191 ° 0 min 0,000 mm 0,0 UV-I 0 W/m² 3,4 °C 4,3 °C 9,7 km/h (2 Bft)
24.01.2018 17:38 5,8 °C 84 % 1022,5 hPa 0,0 mm 6,6 km/h (2 Bft) S 190 ° 0 min 0,000 mm 0,0 UV-I 0 W/m² 3,3 °C 4,5 °C 9,7 km/h (2 Bft)
24.01.2018 17:39 5,8 °C 83 % 1022,5 hPa 0,0 mm 8,4 km/h (2 Bft) S-SW 198 ° 0 min 0,000 mm 0,0 UV-I 0 W/m² 3,1 °C 4,0 °C 11,3 km/h (2 Bft)
24.01.2018 17:40 5,8 °C 83 % 1022,5 hPa 0,0 mm 8,4 km/h (2 Bft) S 186 ° 0 min 0,000 mm 0,0 UV-I 0 W/m² 3,1 °C 4,0 °C 11,3 km/h (2 Bft)
24.01.2018 17:41 5,8 °C 83 % 1022,4 hPa 0,0 mm 7,1 km/h (2 Bft) S 181 ° 0 min 0,000 mm 0,0 UV-I 0 W/m² 3,1 °C 4,3 °C 8,0 km/h (2 Bft)
24.01.2018 17:42 5,7 °C 84 % 1022,4 hPa 0,0 mm 7,5 km/h (2 Bft) S 183 ° 0 min 0,000 mm 0,0 UV-I 0 W/m² 3,2 °C 4,1 °C 9,7 km/h (2 Bft)
24.01.2018 17:43 5,7 °C 83 % 1022,4 hPa 0,0 mm 7,1 km/h (2 Bft) S 180 ° 0 min 0,000 mm 0,0 UV-I 0 W/m² 3,0 °C 4,2 °C 8,0 km/h (2 Bft)
24.01.2018 17:44 5,6 °C 84 % 1022,4 hPa 0,0 mm 7,0 km/h (2 Bft) S 180 ° 0 min 0,000 mm 0,0 UV-I 0 W/m² 3,1 °C 4,1 °C 8,0 km/h (2 Bft)
24.01.2018 17:45 5,6 °C 84 % 1022,4 hPa 0,0 mm 7,0 km/h (2 Bft) S 178 ° 0 min 0,000 mm 0,0 UV-I 0 W/m² 3,1 °C 4,1 °C 9,7 km/h (2 Bft)
24.01.2018 17:46 5,5 °C 84 % 1022,4 hPa 0,0 mm 7,4 km/h (2 Bft) S-SW 196 ° 0 min 0,000 mm 0,0 UV-I 0 W/m² 3,0 °C 3,9 °C 9,7 km/h (2 Bft)
24.01.2018 17:47 5,4 °C 84 % 1022,4 hPa 0,0 mm 7,2 km/h (2 Bft) S 178 ° 0 min 0,000 mm 0,0 UV-I 0 W/m² 2,9 °C 3,8 °C 9,7 km/h (2 Bft)
24.01.2018 17:48 5,4 °C 84 % 1022,4 hPa 0,0 mm 5,5 km/h (1 Bft) S 178 ° 0 min 0,000 mm 0,0 UV-I 0 W/m² 2,9 °C 4,4 °C 8,0 km/h (2 Bft)
24.01.2018 17:49 5,3 °C 85 % 1022,4 hPa 0,0 mm 4,8 km/h (1 Bft) S 178 ° 0 min 0,000 mm 0,0 UV-I 0 W/m² 3,0 °C 4,5 °C 8,0 km/h (2 Bft)
24.01.2018 17:50 5,3 °C 85 % 1022,4 hPa 0,0 mm 4,5 km/h (1 Bft) S 178 ° 0 min 0,000 mm 0,0 UV-I 0 W/m² 3,0 °C 5,3 °C 6,4 km/h (2 Bft)
24.01.2018 17:51 5,3 °C 85 % 1022,4 hPa 0,0 mm 4,6 km/h (1 Bft) S 178 ° 0 min 0,000 mm 0,0 UV-I 0 W/m² 3,0 °C 4,6 °C 6,4 km/h (2 Bft)
24.01.2018 17:52 5,2 °C 85 % 1022,4 hPa 0,0 mm 4,3 km/h (1 Bft) S-SO 168 ° 0 min 0,000 mm 0,0 UV-I 0 W/m² 2,9 °C 5,2 °C 6,4 km/h (2 Bft)
24.01.2018 17:53 5,2 °C 85 % 1022,4 hPa 0,0 mm 6,8 km/h (2 Bft) S 176 ° 0 min 0,000 mm 0,0 UV-I 0 W/m² 2,9 °C 3,7 °C 9,7 km/h (2 Bft)
24.01.2018 17:54 5,1 °C 85 % 1022,3 hPa 0,0 mm 7,2 km/h (2 Bft) S 176 ° 0 min 0,000 mm 0,0 UV-I 0 W/m² 2,8 °C 3,5 °C 8,0 km/h (2 Bft)
24.01.2018 17:55 5,1 °C 85 % 1022,3 hPa 0,0 mm 7,8 km/h (2 Bft) S-SW 209 ° 0 min 0,000 mm 0,0 UV-I 0 W/m² 2,8 °C 3,3 °C 11,3 km/h (2 Bft)
24.01.2018 17:56 5,1 °C 85 % 1022,3 hPa 0,0 mm 7,6 km/h (2 Bft) S 188 ° 0 min 0,000 mm 0,0 UV-I 0 W/m² 2,8 °C 3,4 °C 9,7 km/h (2 Bft)
24.01.2018 17:57 5,1 °C 85 % 1022,3 hPa 0,0 mm 8,4 km/h (2 Bft) S-SW 194 ° 0 min 0,000 mm 0,0 UV-I 0 W/m² 2,8 °C 3,1 °C 9,7 km/h (2 Bft)
24.01.2018 17:58 5,1 °C 84 % 1022,3 hPa 0,0 mm 12,3 km/h (3 Bft) S-SW 201 ° 0 min 0,000 mm 0,0 UV-I 0 W/m² 2,6 °C 2,3 °C 14,5 km/h (3 Bft)
24.01.2018 17:59 5,1 °C 84 % 1022,3 hPa 0,0 mm 12,1 km/h (2 Bft) S-SW 199 ° 0 min 0,000 mm 0,0 UV-I 0 W/m² 2,6 °C 2,4 °C 14,5 km/h (3 Bft)
24.01.2018 18:00 5,0 °C 84 % 1022,3 hPa 0,0 mm 12,2 km/h (2 Bft) S-SW 192 ° 0 min 0,000 mm 0,0 UV-I 0 W/m² 2,5 °C 2,2 °C 12,9 km/h (3 Bft)
24.01.2018 18:01 4,9 °C 84 % 1022,3 hPa 0,0 mm 9,8 km/h (2 Bft) S 178 ° 0 min 0,026 mm 0,0 UV-I 0 W/m² 2,4 °C 2,6 °C 14,5 km/h (3 Bft)
24.01.2018 18:02 4,9 °C 85 % 1022,3 hPa 0,0 mm 7,4 km/h (2 Bft) S 182 ° 0 min 0,000 mm 0,0 UV-I 0 W/m² 2,6 °C 3,2 °C 8,0 km/h (2 Bft)
24.01.2018 18:03 4,9 °C 85 % 1022,3 hPa 0,0 mm 6,1 km/h (2 Bft) S 176 ° 0 min 0,000 mm 0,0 UV-I 0 W/m² 2,6 °C 3,6 °C 8,0 km/h (2 Bft)
24.01.2018 18:04 4,9 °C 85 % 1022,2 hPa 0,0 mm 6,7 km/h (2 Bft) S 170 ° 0 min 0,000 mm 0,0 UV-I 0 W/m² 2,6 °C 3,4 °C 9,7 km/h (2 Bft)
24.01.2018 18:05 4,8 °C 85 % 1022,2 hPa 0,0 mm 7,2 km/h (2 Bft) S 170 ° 0 min 0,000 mm 0,0 UV-I 0 W/m² 2,5 °C 3,1 °C 9,7 km/h (2 Bft)
24.01.2018 18:06 4,8 °C 85 % 1022,2 hPa 0,0 mm 7,2 km/h (2 Bft) S 170 ° 0 min 0,000 mm 0,0 UV-I 0 W/m² 2,5 °C 3,1 °C 8,0 km/h (2 Bft)
24.01.2018 18:07 4,7 °C 85 % 1022,2 hPa 0,0 mm 8,3 km/h (2 Bft) S 174 ° 0 min 0,000 mm 0,0 UV-I 0 W/m² 2,4 °C 2,7 °C 11,3 km/h (2 Bft)
24.01.2018 18:08 4,7 °C 85 % 1022,2 hPa 0,0 mm 8,1 km/h (2 Bft) S-SW 196 ° 0 min 0,000 mm 0,0 UV-I 0 W/m² 2,4 °C 2,8 °C 11,3 km/h (2 Bft)
24.01.2018 18:09 4,6 °C 85 % 1022,2 hPa 0,0 mm 6,1 km/h (2 Bft) S 180 ° 0 min 0,000 mm 0,0 UV-I 0 W/m² 2,3 °C 3,2 °C 8,0 km/h (2 Bft)
24.01.2018 18:10 4,6 °C 85 % 1022,2 hPa 0,0 mm 5,4 km/h (1 Bft) S 180 ° 0 min 0,000 mm 0,0 UV-I 0 W/m² 2,3 °C 3,5 °C 6,4 km/h (2 Bft)
24.01.2018 18:11 4,6 °C 86 % 1022,2 hPa 0,0 mm 4,1 km/h (1 Bft) S 180 ° 0 min 0,000 mm 0,0 UV-I 0 W/m² 2,5 °C 4,6 °C 6,4 km/h (2 Bft)
24.01.2018 18:12 4,5 °C 86 % 1022,2 hPa 0,0 mm 3,9 km/h (1 Bft) S 180 ° 0 min 0,000 mm 0,0 UV-I 0 W/m² 2,4 °C 4,5 °C 6,4 km/h (2 Bft)
24.01.2018 18:13 4,5 °C 86 % 1022,1 hPa 0,0 mm 3,1 km/h (1 Bft) S 180 ° 0 min 0,000 mm 0,0 UV-I 0 W/m² 2,4 °C 4,5 °C 4,8 km/h (1 Bft)
24.01.2018 18:14 4,5 °C 86 % 1022,1 hPa 0,0 mm 3,7 km/h (1 Bft) S 180 ° 0 min 0,000 mm 0,0 UV-I 0 W/m² 2,4 °C 4,5 °C 4,8 km/h (1 Bft)
24.01.2018 18:15 4,4 °C 86 % 1022,1 hPa 0,0 mm 3,2 km/h (1 Bft) S 180 ° 0 min 0,000 mm 0,0 UV-I 0 W/m² 2,3 °C 4,4 °C 4,8 km/h (1 Bft)
24.01.2018 18:16 4,4 °C 86 % 1022,1 hPa 0,0 mm 2,0 km/h (1 Bft) S 180 ° 0 min 0,000 mm 0,0 UV-I 0 W/m² 2,3 °C 4,4 °C 3,2 km/h (1 Bft)
24.01.2018 18:17 4,4 °C 85 % 1022,2 hPa 0,0 mm 1,1 km/h (1 Bft) S 180 ° 0 min 0,000 mm 0,0 UV-I 0 W/m² 2,1 °C 4,4 °C 1,6 km/h (1 Bft)
24.01.2018 18:18 4,4 °C 85 % 1022,1 hPa 0,0 mm 0,7 km/h (0 Bft) S 180 ° 0 min 0,000 mm 0,0 UV-I 0 W/m² 2,1 °C 4,4 °C 3,2 km/h (1 Bft)
24.01.2018 18:19 4,4 °C 85 % 1022,1 hPa 0,0 mm 0,2 km/h (0 Bft) S 180 ° 0 min 0,000 mm 0,0 UV-I 0 W/m² 2,1 °C 4,4 °C 1,6 km/h (1 Bft)
24.01.2018 18:20 4,4 °C 85 % 1022,1 hPa 0,0 mm 0,2 km/h (0 Bft) S 180 ° 0 min 0,000 mm 0,0 UV-I 0 W/m² 2,1 °C 4,4 °C 1,6 km/h (1 Bft)
24.01.2018 18:21 4,4 °C 85 % 1022,2 hPa 0,0 mm 0,0 km/h (0 Bft) S 180 ° 0 min 0,000 mm 0,0 UV-I 0 W/m² 2,1 °C 4,4 °C 0,0 km/h (0 Bft)
24.01.2018 18:22 4,4 °C 85 % 1022,2 hPa 0,0 mm 0,1 km/h (0 Bft) S 180 ° 0 min 0,000 mm 0,0 UV-I 0 W/m² 2,1 °C 4,4 °C 1,6 km/h (1 Bft)
24.01.2018 18:23 4,4 °C 85 % 1022,2 hPa 0,0 mm 2,3 km/h (1 Bft) S 180 ° 0 min 0,000 mm 0,0 UV-I 0 W/m² 2,1 °C 4,4 °C 4,8 km/h (1 Bft)
24.01.2018 18:24 4,3 °C 85 % 1022,1 hPa 0,0 mm 2,2 km/h (1 Bft) S 180 ° 0 min 0,000 mm 0,0 UV-I 0 W/m² 2,0 °C 4,3 °C 4,8 km/h (1 Bft)
24.01.2018 18:25 4,3 °C 85 % 1022,2 hPa 0,0 mm 0,5 km/h (0 Bft) S 180 ° 0 min 0,000 mm 0,0 UV-I 0 W/m² 2,0 °C 4,3 °C 3,2 km/h (1 Bft)
24.01.2018 18:26 4,3 °C 85 % 1022,3 hPa 0,0 mm 2,6 km/h (1 Bft) S 180 ° 0 min 0,000 mm 0,0 UV-I 0 W/m² 2,0 °C 4,3 °C 3,2 km/h (1 Bft)
24.01.2018 18:27 4,2 °C 86 % 1022,2 hPa 0,0 mm 1,7 km/h (1 Bft) S 180 ° 0 min 0,000 mm 0,0 UV-I 0 W/m² 2,1 °C 4,2 °C 3,2 km/h (1 Bft)
24.01.2018 18:28 4,2 °C 86 % 1022,2 hPa 0,0 mm 0,7 km/h (0 Bft) S 180 ° 0 min 0,000 mm 0,0 UV-I 0 W/m² 2,1 °C 4,2 °C 3,2 km/h (1 Bft)
24.01.2018 18:29 4,2 °C 86 % 1022,2 hPa 0,0 mm 2,0 km/h (1 Bft) S 180 ° 0 min 0,000 mm 0,0 UV-I 0 W/m² 2,1 °C 4,2 °C 3,2 km/h (1 Bft)
24.01.2018 18:30 4,1 °C 86 % 1022,2 hPa 0,0 mm 2,1 km/h (1 Bft) S 180 ° 0 min 0,000 mm 0,0 UV-I 0 W/m² 2,0 °C 4,1 °C 4,8 km/h (1 Bft)
24.01.2018 18:31 4,1 °C 86 % 1022,2 hPa 0,0 mm 0,7 km/h (0 Bft) S 180 ° 0 min 0,000 mm 0,0 UV-I 0 W/m² 2,0 °C 4,1 °C 3,2 km/h (1 Bft)
24.01.2018 18:32 4,1 °C 86 % 1022,3 hPa 0,0 mm 2,5 km/h (1 Bft) S 180 ° 0 min 0,000 mm 0,0 UV-I 0 W/m² 2,0 °C 4,1 °C 3,2 km/h (1 Bft)
24.01.2018 18:33 4,0 °C 86 % 1022,3 hPa 0,0 mm 2,0 km/h (1 Bft) S 180 ° 0 min 0,000 mm 0,0 UV-I 0 W/m² 1,9 °C 4,0 °C 3,2 km/h (1 Bft)
24.01.2018 18:34 3,9 °C 86 % 1022,3 hPa 0,0 mm 0,5 km/h (0 Bft) S 180 ° 0 min 0,000 mm 0,0 UV-I 0 W/m² 1,8 °C 3,9 °C 1,6 km/h (1 Bft)
24.01.2018 18:35 3,9 °C 86 % 1022,3 hPa 0,0 mm 0,0 km/h (0 Bft) S 180 ° 0 min 0,000 mm 0,0 UV-I 0 W/m² 1,8 °C 3,9 °C 0,0 km/h (0 Bft)
24.01.2018 18:36 3,9 °C 86 % 1022,2 hPa 0,0 mm 1,1 km/h (1 Bft) S 180 ° 0 min 0,000 mm 0,0 UV-I 0 W/m² 1,8 °C 3,9 °C 3,2 km/h (1 Bft)
24.01.2018 18:37 3,8 °C 86 % 1022,2 hPa 0,0 mm 1,9 km/h (1 Bft) S 180 ° 0 min 0,000 mm 0,0 UV-I 0 W/m² 1,7 °C 3,8 °C 3,2 km/h (1 Bft)
24.01.2018 18:38 3,8 °C 86 % 1022,3 hPa 0,0 mm 3,4 km/h (1 Bft) S 180 ° 0 min 0,000 mm 0,0 UV-I 0 W/m² 1,7 °C 3,8 °C 4,8 km/h (1 Bft)
24.01.2018 18:39 3,8 °C 87 % 1022,2 hPa 0,0 mm 2,9 km/h (1 Bft) S 176 ° 0 min 0,000 mm 0,0 UV-I 0 W/m² 1,8 °C 3,8 °C 4,8 km/h (1 Bft)
24.01.2018 18:40 3,8 °C 87 % 1022,2 hPa 0,0 mm 7,0 km/h (2 Bft) S 184 ° 0 min 0,000 mm 0,0 UV-I 0 W/m² 1,8 °C 2,0 °C 11,3 km/h (2 Bft)
24.01.2018 18:41 3,7 °C 87 % 1022,2 hPa 0,0 mm 7,1 km/h (2 Bft) S 173 ° 0 min 0,000 mm 0,0 UV-I 0 W/m² 1,7 °C 1,9 °C 9,7 km/h (2 Bft)
24.01.2018 18:42 3,7 °C 87 % 1022,2 hPa 0,0 mm 7,8 km/h (2 Bft) S 178 ° 0 min 0,000 mm 0,0 UV-I 0 W/m² 1,7 °C 1,7 °C 9,7 km/h (2 Bft)
24.01.2018 18:43 3,7 °C 88 % 1022,2 hPa 0,0 mm 8,4 km/h (2 Bft) S 169 ° 0 min 0,000 mm 0,0 UV-I 0 W/m² 1,9 °C 1,5 °C 11,3 km/h (2 Bft)
24.01.2018 18:44 3,7 °C 88 % 1022,2 hPa 0,0 mm 6,6 km/h (2 Bft) S 179 ° 0 min 0,000 mm 0,0 UV-I 0 W/m² 1,9 °C 2,0 °C 9,7 km/h (2 Bft)
24.01.2018 18:45 3,7 °C 88 % 1022,1 hPa 0,0 mm 6,4 km/h (2 Bft) S 179 ° 0 min 0,000 mm 0,0 UV-I 0 W/m² 1,9 °C 2,1 °C 8,0 km/h (2 Bft)
24.01.2018 18:46 3,7 °C 88 % 1022,1 hPa 0,0 mm 5,1 km/h (1 Bft) S 179 ° 0 min 0,000 mm 0,0 UV-I 0 W/m² 1,9 °C 2,6 °C 6,4 km/h (2 Bft)
24.01.2018 18:47 3,7 °C 88 % 1022,0 hPa 0,0 mm 2,1 km/h (1 Bft) S 179 ° 0 min 0,000 mm 0,0 UV-I 0 W/m² 1,9 °C 3,7 °C 4,8 km/h (1 Bft)
24.01.2018 18:48 3,6 °C 87 % 1022,0 hPa 0,0 mm 0,5 km/h (0 Bft) S 179 ° 0 min 0,000 mm 0,0 UV-I 0 W/m² 1,6 °C 3,6 °C 1,6 km/h (1 Bft)
24.01.2018 18:49 3,6 °C 87 % 1022,0 hPa 0,0 mm 0,0 km/h (0 Bft) S 179 ° 0 min 0,000 mm 0,0 UV-I 0 W/m² 1,6 °C 3,6 °C 0,0 km/h (0 Bft)
24.01.2018 18:50 3,6 °C 87 % 1022,0 hPa 0,0 mm 0,0 km/h (0 Bft) S 179 ° 0 min 0,000 mm 0,0 UV-I 0 W/m² 1,6 °C 3,6 °C 0,0 km/h (0 Bft)
24.01.2018 18:51 3,6 °C 87 % 1022,0 hPa 0,0 mm 0,0 km/h (0 Bft) S 179 ° 0 min 0,000 mm 0,0 UV-I 0 W/m² 1,6 °C 3,6 °C 0,0 km/h (0 Bft)
24.01.2018 18:52 3,6 °C 87 % 1021,9 hPa 0,0 mm 0,0 km/h (0 Bft) S 179 ° 0 min 0,000 mm 0,0 UV-I 0 W/m² 1,6 °C 3,6 °C 0,0 km/h (0 Bft)
24.01.2018 18:53 3,6 °C 87 % 1021,9 hPa 0,0 mm 0,0 km/h (0 Bft) S 179 ° 0 min 0,000 mm 0,0 UV-I 0 W/m² 1,6 °C 3,6 °C 0,0 km/h (0 Bft)
24.01.2018 18:54 3,6 °C 87 % 1021,9 hPa 0,0 mm 0,0 km/h (0 Bft) S 179 ° 0 min 0,000 mm 0,0 UV-I 0 W/m² 1,6 °C 3,6 °C 0,0 km/h (0 Bft)
24.01.2018 18:55 3,6 °C 87 % 1021,9 hPa 0,0 mm 0,0 km/h (0 Bft) S 179 ° 0 min 0,000 mm 0,0 UV-I 0 W/m² 1,6 °C 3,6 °C 0,0 km/h (0 Bft)
24.01.2018 18:56 3,6 °C 87 % 1021,9 hPa 0,0 mm 0,0 km/h (0 Bft) S 179 ° 0 min 0,000 mm 0,0 UV-I 0 W/m² 1,6 °C 3,6 °C 0,0 km/h (0 Bft)
24.01.2018 18:57 3,6 °C 87 % 1021,9 hPa 0,0 mm 0,0 km/h (0 Bft) S 179 ° 0 min 0,000 mm 0,0 UV-I 0 W/m² 1,6 °C 3,6 °C 0,0 km/h (0 Bft)
24.01.2018 18:58 3,6 °C 87 % 1022,0 hPa 0,0 mm 0,0 km/h (0 Bft) S 179 ° 0 min 0,000 mm 0,0 UV-I 0 W/m² 1,6 °C 3,6 °C 0,0 km/h (0 Bft)
24.01.2018 18:59 3,6 °C 86 % 1021,9 hPa 0,0 mm 0,0 km/h (0 Bft) S 179 ° 0 min 0,000 mm 0,0 UV-I 0 W/m² 1,5 °C 3,6 °C 0,0 km/h (0 Bft)
24.01.2018 19:00 3,6 °C 86 % 1021,9 hPa 0,0 mm 0,0 km/h (0 Bft) S 179 ° 0 min 0,000 mm 0,0 UV-I 0 W/m² 1,5 °C 3,6 °C 0,0 km/h (0 Bft)
24.01.2018 19:01 3,5 °C 86 % 1021,9 hPa 0,0 mm 0,0 km/h (0 Bft) S 179 ° 0 min 0,000 mm 0,0 UV-I 0 W/m² 1,4 °C 3,5 °C 0,0 km/h (0 Bft)
24.01.2018 19:02 3,5 °C 86 % 1021,9 hPa 0,0 mm 0,0 km/h (0 Bft) S 179 ° 0 min 0,000 mm 0,0 UV-I 0 W/m² 1,4 °C 3,5 °C 0,0 km/h (0 Bft)
24.01.2018 19:03 3,5 °C 86 % 1021,9 hPa 0,0 mm 3,9 km/h (1 Bft) S 179 ° 0 min 0,000 mm 0,0 UV-I 0 W/m² 1,4 °C 3,5 °C 4,8 km/h (1 Bft)
24.01.2018 19:04 3,4 °C 87 % 1021,9 hPa 0,0 mm 5,2 km/h (1 Bft) S-SW 194 ° 0 min 0,000 mm 0,0 UV-I 0 W/m² 1,4 °C 2,2 °C 6,4 km/h (2 Bft)
24.01.2018 19:05 3,4 °C 87 % 1021,8 hPa 0,0 mm 2,9 km/h (1 Bft) S-SW 198 ° 0 min 0,000 mm 0,0 UV-I 0 W/m² 1,4 °C 3,4 °C 4,8 km/h (1 Bft)
24.01.2018 19:06 3,4 °C 87 % 1021,9 hPa 0,0 mm 3,0 km/h (1 Bft) S-SW 198 ° 0 min 0,000 mm 0,0 UV-I 0 W/m² 1,4 °C 3,4 °C 4,8 km/h (1 Bft)
24.01.2018 19:07 3,4 °C 87 % 1021,9 hPa 0,0 mm 3,6 km/h (1 Bft) S-SW 198 ° 0 min 0,000 mm 0,0 UV-I 0 W/m² 1,4 °C 3,4 °C 4,8 km/h (1 Bft)
24.01.2018 19:08 3,3 °C 87 % 1021,8 hPa 0,0 mm 3,0 km/h (1 Bft) S-SW 198 ° 0 min 0,000 mm 0,0 UV-I 0 W/m² 1,3 °C 3,3 °C 4,8 km/h (1 Bft)
24.01.2018 19:09 3,3 °C 87 % 1021,8 hPa 0,0 mm 2,1 km/h (1 Bft) S-SW 198 ° 0 min 0,000 mm 0,0 UV-I 0 W/m² 1,3 °C 3,3 °C 3,2 km/h (1 Bft)
24.01.2018 19:10 3,3 °C 88 % 1021,8 hPa 0,0 mm 2,6 km/h (1 Bft) S-SW 198 ° 0 min 0,000 mm 0,0 UV-I 0 W/m² 1,5 °C 3,3 °C 4,8 km/h (1 Bft)
24.01.2018 19:11 3,3 °C 88 % 1021,8 hPa 0,0 mm 1,9 km/h (1 Bft) S-SW 198 ° 0 min 0,000 mm 0,0 UV-I 0 W/m² 1,5 °C 3,3 °C 3,2 km/h (1 Bft)
24.01.2018 19:12 3,3 °C 88 % 1021,7 hPa 0,0 mm 2,1 km/h (1 Bft) S-SW 198 ° 0 min 0,000 mm 0,0 UV-I 0 W/m² 1,5 °C 3,3 °C 3,2 km/h (1 Bft)
24.01.2018 19:13 3,3 °C 88 % 1021,7 hPa 0,0 mm 3,3 km/h (1 Bft) S-SW 198 ° 0 min 0,000 mm 0,0 UV-I 0 W/m² 1,5 °C 3,3 °C 4,8 km/h (1 Bft)
24.01.2018 19:14 3,3 °C 88 % 1021,7 hPa 0,0 mm 3,0 km/h (1 Bft) S-SW 198 ° 0 min 0,000 mm 0,0 UV-I 0 W/m² 1,5 °C 3,3 °C 4,8 km/h (1 Bft)
24.01.2018 19:15 3,2 °C 87 % 1021,7 hPa 0,0 mm 4,1 km/h (1 Bft) S-SW 198 ° 0 min 0,000 mm 0,0 UV-I 0 W/m² 1,2 °C 3,2 °C 4,8 km/h (1 Bft)
24.01.2018 19:16 3,2 °C 87 % 1021,7 hPa 0,0 mm 2,9 km/h (1 Bft) S-SW 198 ° 0 min 0,000 mm 0,0 UV-I 0 W/m² 1,2 °C 3,2 °C 4,8 km/h (1 Bft)
24.01.2018 19:17 3,2 °C 87 % 1021,6 hPa 0,0 mm 2,8 km/h (1 Bft) S-SW 198 ° 0 min 0,000 mm 0,0 UV-I 0 W/m² 1,2 °C 3,2 °C 4,8 km/h (1 Bft)
24.01.2018 19:18 3,2 °C 87 % 1021,6 hPa 0,0 mm 0,0 km/h (0 Bft) S-SW 198 ° 0 min 0,000 mm 0,0 UV-I 0 W/m² 1,2 °C 3,2 °C 0,0 km/h (0 Bft)
24.01.2018 19:19 3,2 °C 87 % 1021,5 hPa 0,0 mm 0,0 km/h (0 Bft) S-SW 198 ° 0 min 0,000 mm 0,0 UV-I 0 W/m² 1,2 °C 3,2 °C 0,0 km/h (0 Bft)
24.01.2018 19:20 3,1 °C 87 % 1021,6 hPa 0,0 mm 0,0 km/h (0 Bft) S-SW 198 ° 0 min 0,000 mm 0,0 UV-I 0 W/m² 1,2 °C 3,1 °C 0,0 km/h (0 Bft)
24.01.2018 19:21 3,1 °C 86 % 1021,5 hPa 0,0 mm 0,0 km/h (0 Bft) S-SW 198 ° 0 min 0,000 mm 0,0 UV-I 0 W/m² 1,0 °C 3,1 °C 0,0 km/h (0 Bft)
24.01.2018 19:22 3,1 °C 86 % 1021,5 hPa 0,0 mm 0,0 km/h (0 Bft) S-SW 198 ° 0 min 0,000 mm 0,0 UV-I 0 W/m² 1,0 °C 3,1 °C 0,0 km/h (0 Bft)
24.01.2018 19:23 3,1 °C 86 % 1021,6 hPa 0,0 mm 0,0 km/h (0 Bft) S-SW 198 ° 0 min 0,000 mm 0,0 UV-I 0 W/m² 1,0 °C 3,1 °C 0,0 km/h (0 Bft)
24.01.2018 19:24 3,1 °C 86 % 1021,6 hPa 0,0 mm 0,0 km/h (0 Bft) S-SW 198 ° 0 min 0,000 mm 0,0 UV-I 0 W/m² 1,0 °C 3,1 °C 0,0 km/h (0 Bft)
24.01.2018 19:25 3,0 °C 86 % 1021,6 hPa 0,0 mm 0,0 km/h (0 Bft) S-SW 198 ° 0 min 0,000 mm 0,0 UV-I 0 W/m² 0,9 °C 3,0 °C 0,0 km/h (0 Bft)
24.01.2018 19:26 3,0 °C 86 % 1021,5 hPa 0,0 mm 0,0 km/h (0 Bft) S-SW 198 ° 0 min 0,000 mm 0,0 UV-I 0 W/m² 0,9 °C 3,0 °C 0,0 km/h (0 Bft)
24.01.2018 19:27 3,0 °C 86 % 1021,5 hPa 0,0 mm 0,0 km/h (0 Bft) S-SW 198 ° 0 min 0,000 mm 0,0 UV-I 0 W/m² 0,9 °C 3,0 °C 0,0 km/h (0 Bft)
24.01.2018 19:28 3,0 °C 86 % 1021,5 hPa 0,0 mm 0,0 km/h (0 Bft) S-SW 198 ° 0 min 0,000 mm 0,0 UV-I 0 W/m² 0,9 °C 3,0 °C 0,0 km/h (0 Bft)
24.01.2018 19:29 3,0 °C 86 % 1021,4 hPa 0,0 mm 0,0 km/h (0 Bft) S-SW 198 ° 0 min 0,000 mm 0,0 UV-I 0 W/m² 0,9 °C 3,0 °C 0,0 km/h (0 Bft)
24.01.2018 19:30 2,9 °C 86 % 1021,5 hPa 0,0 mm 0,0 km/h (0 Bft) S-SW 198 ° 0 min 0,000 mm 0,0 UV-I 0 W/m² 0,8 °C 2,9 °C 0,0 km/h (0 Bft)
24.01.2018 19:31 2,9 °C 86 % 1021,5 hPa 0,0 mm 0,0 km/h (0 Bft) S-SW 198 ° 0 min 0,000 mm 0,0 UV-I 0 W/m² 0,8 °C 2,9 °C 0,0 km/h (0 Bft)
24.01.2018 19:32 2,9 °C 86 % 1021,4 hPa 0,0 mm 0,0 km/h (0 Bft) S-SW 198 ° 0 min 0,000 mm 0,0 UV-I 0 W/m² 0,8 °C 2,9 °C 0,0 km/h (0 Bft)
24.01.2018 19:33 2,9 °C 86 % 1021,5 hPa 0,0 mm 0,0 km/h (0 Bft) S-SW 198 ° 0 min 0,000 mm 0,0 UV-I 0 W/m² 0,8 °C 2,9 °C 0,0 km/h (0 Bft)
24.01.2018 19:34 2,9 °C 86 % 1021,5 hPa 0,0 mm 0,0 km/h (0 Bft) S-SW 198 ° 0 min 0,000 mm 0,0 UV-I 0 W/m² 0,8 °C 2,9 °C 0,0 km/h (0 Bft)
24.01.2018 19:35 2,9 °C 86 % 1021,4 hPa 0,0 mm 0,0 km/h (0 Bft) S-SW 198 ° 0 min 0,000 mm 0,0 UV-I 0 W/m² 0,8 °C 2,9 °C 0,0 km/h (0 Bft)
24.01.2018 19:36 2,8 °C 86 % 1021,5 hPa 0,0 mm 0,0 km/h (0 Bft) S-SW 198 ° 0 min 0,000 mm 0,0 UV-I 0 W/m² 0,7 °C 2,8 °C 0,0 km/h (0 Bft)
24.01.2018 19:37 2,8 °C 86 % 1021,4 hPa 0,0 mm 0,0 km/h (0 Bft) S-SW 198 ° 0 min 0,000 mm 0,0 UV-I 0 W/m² 0,7 °C 2,8 °C 0,0 km/h (0 Bft)
24.01.2018 19:38 2,8 °C 86 % 1021,5 hPa 0,0 mm 0,0 km/h (0 Bft) S-SW 198 ° 0 min 0,000 mm 0,0 UV-I 0 W/m² 0,7 °C 2,8 °C 0,0 km/h (0 Bft)
24.01.2018 19:39 2,8 °C 86 % 1021,4 hPa 0,0 mm 0,0 km/h (0 Bft) S-SW 198 ° 0 min 0,000 mm 0,0 UV-I 0 W/m² 0,7 °C 2,8 °C 0,0 km/h (0 Bft)
24.01.2018 19:40 2,8 °C 86 % 1021,4 hPa 0,0 mm 0,0 km/h (0 Bft) S-SW 198 ° 0 min 0,000 mm 0,0 UV-I 0 W/m² 0,7 °C 2,8 °C 0,0 km/h (0 Bft)
24.01.2018 19:41 2,7 °C 86 % 1021,4 hPa 0,0 mm 0,0 km/h (0 Bft) S-SW 198 ° 0 min 0,000 mm 0,0 UV-I 0 W/m² 0,6 °C 2,7 °C 0,0 km/h (0 Bft)
24.01.2018 19:42 2,7 °C 86 % 1021,4 hPa 0,0 mm 0,0 km/h (0 Bft) S-SW 198 ° 0 min 0,000 mm 0,0 UV-I 0 W/m² 0,6 °C 2,7 °C 0,0 km/h (0 Bft)
24.01.2018 19:43 2,7 °C 86 % 1021,3 hPa 0,0 mm 0,0 km/h (0 Bft) S-SW 198 ° 0 min 0,000 mm 0,0 UV-I 0 W/m² 0,6 °C 2,7 °C 0,0 km/h (0 Bft)
24.01.2018 19:44 2,7 °C 86 % 1021,3 hPa 0,0 mm 0,0 km/h (0 Bft) S-SW 198 ° 0 min 0,000 mm 0,0 UV-I 0 W/m² 0,6 °C 2,7 °C 0,0 km/h (0 Bft)
24.01.2018 19:45 2,7 °C 85 % 1021,4 hPa 0,0 mm 0,0 km/h (0 Bft) S-SW 198 ° 0 min 0,000 mm 0,0 UV-I 0 W/m² 0,4 °C 2,7 °C 0,0 km/h (0 Bft)
24.01.2018 19:46 2,6 °C 85 % 1021,3 hPa 0,0 mm 0,0 km/h (0 Bft) S-SW 198 ° 0 min 0,000 mm 0,0 UV-I 0 W/m² 0,3 °C 2,6 °C 0,0 km/h (0 Bft)
24.01.2018 19:47 2,6 °C 86 % 1021,3 hPa 0,0 mm 0,1 km/h (0 Bft) S-SW 198 ° 0 min 0,000 mm 0,0 UV-I 0 W/m² 0,5 °C 2,6 °C 1,6 km/h (1 Bft)
24.01.2018 19:48 2,6 °C 85 % 1021,3 hPa 0,0 mm 0,0 km/h (0 Bft) S-SW 198 ° 0 min 0,000 mm 0,0 UV-I 0 W/m² 0,3 °C 2,6 °C 0,0 km/h (0 Bft)
24.01.2018 19:49 2,6 °C 85 % 1021,3 hPa 0,0 mm 0,0 km/h (0 Bft) S-SW 198 ° 0 min 0,000 mm 0,0 UV-I 0 W/m² 0,3 °C 2,6 °C 0,0 km/h (0 Bft)
24.01.2018 19:50 2,5 °C 86 % 1021,3 hPa 0,0 mm 0,0 km/h (0 Bft) S-SW 198 ° 0 min 0,000 mm 0,0 UV-I 0 W/m² 0,4 °C 2,5 °C 0,0 km/h (0 Bft)
24.01.2018 19:51 2,4 °C 86 % 1021,3 hPa 0,0 mm 0,0 km/h (0 Bft) S-SW 198 ° 0 min 0,000 mm 0,0 UV-I 0 W/m² 0,3 °C 2,4 °C 0,0 km/h (0 Bft)
24.01.2018 19:52 2,4 °C 86 % 1021,3 hPa 0,0 mm 0,0 km/h (0 Bft) S-SW 198 ° 0 min 0,000 mm 0,0 UV-I 0 W/m² 0,3 °C 2,4 °C 0,0 km/h (0 Bft)
24.01.2018 19:53 2,4 °C 86 % 1021,3 hPa 0,0 mm 0,0 km/h (0 Bft) S-SW 198 ° 0 min 0,000 mm 0,0 UV-I 0 W/m² 0,3 °C 2,4 °C 0,0 km/h (0 Bft)
24.01.2018 19:54 2,4 °C 86 % 1021,3 hPa 0,0 mm 0,0 km/h (0 Bft) S-SW 198 ° 0 min 0,000 mm 0,0 UV-I 0 W/m² 0,3 °C 2,4 °C 0,0 km/h (0 Bft)
24.01.2018 19:55 2,4 °C 86 % 1021,3 hPa 0,0 mm 0,0 km/h (0 Bft) S-SW 198 ° 0 min 0,000 mm 0,0 UV-I 0 W/m² 0,3 °C 2,4 °C 0,0 km/h (0 Bft)
24.01.2018 19:56 2,3 °C 86 % 1021,3 hPa 0,0 mm 0,0 km/h (0 Bft) S-SW 198 ° 0 min 0,000 mm 0,0 UV-I 0 W/m² 0,2 °C 2,3 °C 0,0 km/h (0 Bft)
24.01.2018 19:57 2,3 °C 86 % 1021,3 hPa 0,0 mm 0,0 km/h (0 Bft) S-SW 198 ° 0 min 0,000 mm 0,0 UV-I 0 W/m² 0,2 °C 2,3 °C 0,0 km/h (0 Bft)
24.01.2018 19:58 2,3 °C 86 % 1021,3 hPa 0,0 mm 0,0 km/h (0 Bft) S-SW 198 ° 0 min 0,000 mm 0,0 UV-I 0 W/m² 0,2 °C 2,3 °C 0,0 km/h (0 Bft)
24.01.2018 19:59 2,3 °C 86 % 1021,3 hPa 0,0 mm 0,0 km/h (0 Bft) S-SW 198 ° 0 min 0,000 mm 0,0 UV-I 0 W/m² 0,2 °C 2,3 °C 0,0 km/h (0 Bft)
24.01.2018 20:00 2,3 °C 87 % 1021,3 hPa 0,0 mm 0,0 km/h (0 Bft) S-SW 198 ° 0 min 0,000 mm 0,0 UV-I 0 W/m² 0,4 °C 2,3 °C 0,0 km/h (0 Bft)
24.01.2018 20:01 2,2 °C 87 % 1021,3 hPa 0,0 mm 0,0 km/h (0 Bft) S-SW 198 ° 0 min 0,000 mm 0,0 UV-I 0 W/m² 0,3 °C 2,2 °C 0,0 km/h (0 Bft)
24.01.2018 20:02 2,2 °C 86 % 1021,3 hPa 0,0 mm 0,0 km/h (0 Bft) S-SW 198 ° 0 min 0,000 mm 0,0 UV-I 0 W/m² 0,1 °C 2,2 °C 0,0 km/h (0 Bft)
24.01.2018 20:03 2,2 °C 86 % 1021,3 hPa 0,0 mm 0,0 km/h (0 Bft) S-SW 198 ° 0 min 0,000 mm 0,0 UV-I 0 W/m² 0,1 °C 2,2 °C 0,0 km/h (0 Bft)
24.01.2018 20:04 2,1 °C 86 % 1021,3 hPa 0,0 mm 0,0 km/h (0 Bft) S-SW 198 ° 0 min 0,000 mm 0,0 UV-I 0 W/m² 0,0 °C 2,1 °C 0,0 km/h (0 Bft)
24.01.2018 20:05 2,1 °C 87 % 1021,2 hPa 0,0 mm 0,0 km/h (0 Bft) S-SW 198 ° 0 min 0,000 mm 0,0 UV-I 0 W/m² 0,2 °C 2,1 °C 0,0 km/h (0 Bft)
24.01.2018 20:06 2,1 °C 87 % 1021,2 hPa 0,0 mm 0,0 km/h (0 Bft) S-SW 198 ° 0 min 0,000 mm 0,0 UV-I 0 W/m² 0,2 °C 2,1 °C 0,0 km/h (0 Bft)
24.01.2018 20:07 2,0 °C 87 % 1021,3 hPa 0,0 mm 0,0 km/h (0 Bft) S-SW 198 ° 0 min 0,000 mm 0,0 UV-I 0 W/m² 0,1 °C 2,0 °C 0,0 km/h (0 Bft)
24.01.2018 20:08 1,9 °C 87 % 1021,2 hPa 0,0 mm 0,0 km/h (0 Bft) S-SW 198 ° 0 min 0,000 mm 0,0 UV-I 0 W/m² -0,0 °C 1,9 °C 0,0 km/h (0 Bft)
24.01.2018 20:09 1,9 °C 87 % 1021,2 hPa 0,0 mm 0,0 km/h (0 Bft) S-SW 198 ° 0 min 0,000 mm 0,0 UV-I 0 W/m² -0,0 °C 1,9 °C 0,0 km/h (0 Bft)
24.01.2018 20:10 1,9 °C 87 % 1021,2 hPa 0,0 mm 0,0 km/h (0 Bft) S-SW 198 ° 0 min 0,000 mm 0,0 UV-I 0 W/m² -0,0 °C 1,9 °C 0,0 km/h (0 Bft)
24.01.2018 20:11 1,9 °C 87 % 1021,3 hPa 0,0 mm 0,0 km/h (0 Bft) S-SW 198 ° 0 min 0,000 mm 0,0 UV-I 0 W/m² -0,0 °C 1,9 °C 0,0 km/h (0 Bft)
24.01.2018 20:12 1,9 °C 87 % 1021,3 hPa 0,0 mm 0,0 km/h (0 Bft) S-SW 198 ° 0 min 0,000 mm 0,0 UV-I 0 W/m² -0,0 °C 1,9 °C 0,0 km/h (0 Bft)
24.01.2018 20:13 1,8 °C 87 % 1021,3 hPa 0,0 mm 0,0 km/h (0 Bft) S-SW 198 ° 0 min 0,000 mm 0,0 UV-I 0 W/m² -0,1 °C 1,8 °C 0,0 km/h (0 Bft)
24.01.2018 20:14 1,8 °C 87 % 1021,3 hPa 0,0 mm 0,0 km/h (0 Bft) S-SW 198 ° 0 min 0,000 mm 0,0 UV-I 0 W/m² -0,1 °C 1,8 °C 0,0 km/h (0 Bft)
24.01.2018 20:15 1,8 °C 87 % 1021,4 hPa 0,0 mm 0,0 km/h (0 Bft) S-SW 198 ° 0 min 0,000 mm 0,0 UV-I 0 W/m² -0,1 °C 1,8 °C 0,0 km/h (0 Bft)
24.01.2018 20:16 1,8 °C 87 % 1021,4 hPa 0,0 mm 0,0 km/h (0 Bft) S-SW 198 ° 0 min 0,000 mm 0,0 UV-I 0 W/m² -0,1 °C 1,8 °C 0,0 km/h (0 Bft)
24.01.2018 20:17 1,8 °C 87 % 1021,4 hPa 0,0 mm 0,0 km/h (0 Bft) S-SW 198 ° 0 min 0,000 mm 0,0 UV-I 0 W/m² -0,1 °C 1,8 °C 0,0 km/h (0 Bft)
24.01.2018 20:18 1,7 °C 87 % 1021,3 hPa 0,0 mm 0,0 km/h (0 Bft) S-SW 198 ° 0 min 0,000 mm 0,0 UV-I 0 W/m² -0,2 °C 1,7 °C 0,0 km/h (0 Bft)
24.01.2018 20:19 1,7 °C 87 % 1021,3 hPa 0,0 mm 0,0 km/h (0 Bft) S-SW 198 ° 0 min 0,000 mm 0,0 UV-I 0 W/m² -0,2 °C 1,7 °C 0,0 km/h (0 Bft)
24.01.2018 20:20 1,7 °C 88 % 1021,3 hPa 0,0 mm 2,6 km/h (1 Bft) S 188 ° 0 min 0,000 mm 0,0 UV-I 0 W/m² -0,1 °C 1,7 °C 3,2 km/h (1 Bft)
24.01.2018 20:21 1,7 °C 88 % 1021,3 hPa 0,0 mm 2,0 km/h (1 Bft) S 188 ° 0 min 0,000 mm 0,0 UV-I 0 W/m² -0,1 °C 1,7 °C 3,2 km/h (1 Bft)
24.01.2018 20:22 1,7 °C 88 % 1021,2 hPa 0,0 mm 2,2 km/h (1 Bft) S 188 ° 0 min 0,000 mm 0,0 UV-I 0 W/m² -0,1 °C 1,7 °C 4,8 km/h (1 Bft)
24.01.2018 20:23 1,7 °C 88 % 1021,2 hPa 0,0 mm 0,9 km/h (0 Bft) S 188 ° 0 min 0,000 mm 0,0 UV-I 0 W/m² -0,1 °C 1,7 °C 1,6 km/h (1 Bft)
24.01.2018 20:24 1,7 °C 88 % 1021,2 hPa 0,0 mm 0,8 km/h (0 Bft) S-SW 194 ° 0 min 0,000 mm 0,0 UV-I 0 W/m² -0,1 °C 1,7 °C 3,2 km/h (1 Bft)
24.01.2018 20:25 1,7 °C 88 % 1021,2 hPa 0,0 mm 2,0 km/h (1 Bft) S-SW 204 ° 0 min 0,000 mm 0,0 UV-I 0 W/m² -0,1 °C 1,7 °C 3,2 km/h (1 Bft)
24.01.2018 20:26 1,7 °C 88 % 1021,2 hPa 0,0 mm 2,3 km/h (1 Bft) S-SW 204 ° 0 min 0,000 mm 0,0 UV-I 0 W/m² -0,1 °C 1,7 °C 4,8 km/h (1 Bft)
24.01.2018 20:27 1,7 °C 89 % 1021,1 hPa 0,0 mm 0,4 km/h (0 Bft) S-SW 204 ° 0 min 0,000 mm 0,0 UV-I 0 W/m² 0,1 °C 1,7 °C 1,6 km/h (1 Bft)
24.01.2018 20:28 1,7 °C 89 % 1021,1 hPa 0,0 mm 0,0 km/h (0 Bft) S-SW 204 ° 0 min 0,000 mm 0,0 UV-I 0 W/m² 0,1 °C 1,7 °C 0,0 km/h (0 Bft)
24.01.2018 20:29 1,7 °C 89 % 1021,1 hPa 0,0 mm 0,0 km/h (0 Bft) S-SW 204 ° 0 min 0,000 mm 0,0 UV-I 0 W/m² 0,1 °C 1,7 °C 0,0 km/h (0 Bft)
24.01.2018 20:30 1,7 °C 89 % 1021,1 hPa 0,0 mm 0,2 km/h (0 Bft) S-SW 208 ° 0 min 0,000 mm 0,0 UV-I 0 W/m² 0,1 °C 1,7 °C 1,6 km/h (1 Bft)
24.01.2018 20:31 1,8 °C 89 % 1021,2 hPa 0,0 mm 0,2 km/h (0 Bft) S-SW 208 ° 0 min 0,000 mm 0,0 UV-I 0 W/m² 0,2 °C 1,8 °C 1,6 km/h (1 Bft)
24.01.2018 20:32 1,8 °C 89 % 1021,1 hPa 0,0 mm 0,1 km/h (0 Bft) S-SW 209 ° 0 min 0,000 mm 0,0 UV-I 0 W/m² 0,2 °C 1,8 °C 3,2 km/h (1 Bft)
24.01.2018 20:33 1,7 °C 89 % 1021,1 hPa 0,0 mm 2,0 km/h (1 Bft) S-SW 205 ° 0 min 0,000 mm 0,0 UV-I 0 W/m² 0,1 °C 1,7 °C 4,8 km/h (1 Bft)
24.01.2018 20:34 1,8 °C 89 % 1021,1 hPa 0,0 mm 0,6 km/h (0 Bft) S-SW 205 ° 0 min 0,000 mm 0,0 UV-I 0 W/m² 0,2 °C 1,8 °C 1,6 km/h (1 Bft)
24.01.2018 20:35 1,8 °C 89 % 1021,1 hPa 0,0 mm 0,1 km/h (0 Bft) S-SW 205 ° 0 min 0,000 mm 0,0 UV-I 0 W/m² 0,2 °C 1,8 °C 1,6 km/h (1 Bft)
24.01.2018 20:36 1,8 °C 88 % 1021,2 hPa 0,0 mm 0,1 km/h (0 Bft) S-SW 205 ° 0 min 0,000 mm 0,0 UV-I 0 W/m² 0,0 °C 1,8 °C 1,6 km/h (1 Bft)
24.01.2018 20:37 1,8 °C 88 % 1021,1 hPa 0,0 mm 0,0 km/h (0 Bft) S-SW 205 ° 0 min 0,000 mm 0,0 UV-I 0 W/m² 0,0 °C 1,8 °C 0,0 km/h (0 Bft)
24.01.2018 20:38 1,8 °C 88 % 1021,1 hPa 0,0 mm 0,0 km/h (0 Bft) S-SW 205 ° 0 min 0,000 mm 0,0 UV-I 0 W/m² 0,0 °C 1,8 °C 0,0 km/h (0 Bft)
24.01.2018 20:39 1,8 °C 88 % 1021,2 hPa 0,0 mm 0,0 km/h (0 Bft) S-SW 205 ° 0 min 0,000 mm 0,0 UV-I 0 W/m² 0,0 °C 1,8 °C 0,0 km/h (0 Bft)
24.01.2018 20:40 1,8 °C 88 % 1021,1 hPa 0,0 mm 0,0 km/h (0 Bft) S-SW 205 ° 0 min 0,000 mm 0,0 UV-I 0 W/m² 0,0 °C 1,8 °C 0,0 km/h (0 Bft)
24.01.2018 20:41 1,7 °C 88 % 1021,1 hPa 0,0 mm 0,0 km/h (0 Bft) S-SW 205 ° 0 min 0,000 mm 0,0 UV-I 0 W/m² -0,1 °C 1,7 °C 0,0 km/h (0 Bft)
24.01.2018 20:42 1,7 °C 88 % 1021,1 hPa 0,0 mm 0,0 km/h (0 Bft) S-SW 205 ° 0 min 0,000 mm 0,0 UV-I 0 W/m² -0,1 °C 1,7 °C 0,0 km/h (0 Bft)
24.01.2018 20:43 1,7 °C 88 % 1021,1 hPa 0,0 mm 0,0 km/h (0 Bft) S-SW 205 ° 0 min 0,000 mm 0,0 UV-I 0 W/m² -0,1 °C 1,7 °C 0,0 km/h (0 Bft)
24.01.2018 20:44 1,7 °C 88 % 1021,1 hPa 0,0 mm 0,0 km/h (0 Bft) S-SW 205 ° 0 min 0,000 mm 0,0 UV-I 0 W/m² -0,1 °C 1,7 °C 0,0 km/h (0 Bft)
24.01.2018 20:45 1,7 °C 88 % 1021,1 hPa 0,0 mm 0,0 km/h (0 Bft) S-SW 205 ° 0 min 0,000 mm 0,0 UV-I 0 W/m² -0,1 °C 1,7 °C 0,0 km/h (0 Bft)
24.01.2018 20:46 1,7 °C 88 % 1021,1 hPa 0,0 mm 0,0 km/h (0 Bft) S-SW 205 ° 0 min 0,000 mm 0,0 UV-I 0 W/m² -0,1 °C 1,7 °C 0,0 km/h (0 Bft)
24.01.2018 20:47 1,7 °C 88 % 1021,1 hPa 0,0 mm 0,0 km/h (0 Bft) S-SW 205 ° 0 min 0,000 mm 0,0 UV-I 0 W/m² -0,1 °C 1,7 °C 0,0 km/h (0 Bft)
24.01.2018 20:48 1,7 °C 88 % 1021,1 hPa 0,0 mm 0,0 km/h (0 Bft) S-SW 205 ° 0 min 0,000 mm 0,0 UV-I 0 W/m² -0,1 °C 1,7 °C 0,0 km/h (0 Bft)
24.01.2018 20:49 1,7 °C 88 % 1021,1 hPa 0,0 mm 0,0 km/h (0 Bft) S-SW 205 ° 0 min 0,000 mm 0,0 UV-I 0 W/m² -0,1 °C 1,7 °C 0,0 km/h (0 Bft)
24.01.2018 20:50 1,6 °C 88 % 1021,0 hPa 0,0 mm 0,0 km/h (0 Bft) S-SW 205 ° 0 min 0,000 mm 0,0 UV-I 0 W/m² -0,2 °C 1,6 °C 0,0 km/h (0 Bft)
24.01.2018 20:51 1,6 °C 88 % 1021,0 hPa 0,0 mm 1,2 km/h (1 Bft) S-SW 205 ° 0 min 0,000 mm 0,0 UV-I 0 W/m² -0,2 °C 1,6 °C 3,2 km/h (1 Bft)
24.01.2018 20:52 1,6 °C 88 % 1021,0 hPa 0,0 mm 0,0 km/h (0 Bft) S-SW 205 ° 0 min 0,000 mm 0,0 UV-I 0 W/m² -0,2 °C 1,6 °C 0,0 km/h (0 Bft)
24.01.2018 20:53 1,6 °C 88 % 1021,0 hPa 0,0 mm 0,0 km/h (0 Bft) S-SW 205 ° 0 min 0,000 mm 0,0 UV-I 0 W/m² -0,2 °C 1,6 °C 0,0 km/h (0 Bft)
24.01.2018 20:54 1,5 °C 88 % 1021,0 hPa 0,0 mm 0,0 km/h (0 Bft) S-SW 205 ° 0 min 0,000 mm 0,0 UV-I 0 W/m² -0,3 °C 1,5 °C 0,0 km/h (0 Bft)
24.01.2018 20:55 1,5 °C 88 % 1021,0 hPa 0,0 mm 0,0 km/h (0 Bft) S-SW 205 ° 0 min 0,000 mm 0,0 UV-I 0 W/m² -0,3 °C 1,5 °C 0,0 km/h (0 Bft)
24.01.2018 20:56 1,5 °C 88 % 1021,0 hPa 0,0 mm 0,0 km/h (0 Bft) S-SW 205 ° 0 min 0,000 mm 0,0 UV-I 0 W/m² -0,3 °C 1,5 °C 0,0 km/h (0 Bft)
24.01.2018 20:57 1,4 °C 88 % 1021,0 hPa 0,0 mm 1,2 km/h (1 Bft) S-SW 210 ° 0 min 0,000 mm 0,0 UV-I 0 W/m² -0,4 °C 1,4 °C 6,4 km/h (2 Bft)
24.01.2018 20:58 1,4 °C 88 % 1021,0 hPa 0,0 mm 1,5 km/h (1 Bft) S-SW 210 ° 0 min 0,000 mm 0,0 UV-I 0 W/m² -0,4 °C 1,4 °C 4,8 km/h (1 Bft)
24.01.2018 20:59 1,4 °C 88 % 1020,9 hPa 0,0 mm 1,0 km/h (0 Bft) S-SW 210 ° 0 min 0,000 mm 0,0 UV-I 0 W/m² -0,4 °C 1,4 °C 3,2 km/h (1 Bft)
24.01.2018 21:00 1,4 °C 89 % 1021,0 hPa 0,0 mm 3,2 km/h (1 Bft) S-SW 210 ° 0 min 0,000 mm 0,0 UV-I 0 W/m² -0,2 °C 1,4 °C 6,4 km/h (2 Bft)
24.01.2018 21:01 1,5 °C 89 % 1020,9 hPa 0,0 mm 3,6 km/h (1 Bft) S-SW 210 ° 0 min 0,000 mm 0,0 UV-I 0 W/m² -0,1 °C 1,5 °C 6,4 km/h (2 Bft)
24.01.2018 21:02 1,6 °C 89 % 1020,9 hPa 0,0 mm 3,2 km/h (1 Bft) S-SW 203 ° 0 min 0,000 mm 0,0 UV-I 0 W/m² -0,0 °C 1,6 °C 4,8 km/h (1 Bft)
24.01.2018 21:03 1,6 °C 89 % 1020,9 hPa 0,0 mm 4,7 km/h (1 Bft) S-SW 210 ° 0 min 0,000 mm 0,0 UV-I 0 W/m² -0,0 °C 0,4 °C 8,0 km/h (2 Bft)
24.01.2018 21:04 1,7 °C 89 % 1020,9 hPa 0,0 mm 5,4 km/h (1 Bft) S-SW 210 ° 0 min 0,000 mm 0,0 UV-I 0 W/m² 0,1 °C 0,2 °C 6,4 km/h (2 Bft)
24.01.2018 21:05 1,7 °C 89 % 1020,9 hPa 0,0 mm 5,7 km/h (1 Bft) S-SW 210 ° 0 min 0,000 mm 0,0 UV-I 0 W/m² 0,1 °C 0,0 °C 6,4 km/h (2 Bft)
24.01.2018 21:06 1,7 °C 90 % 1020,9 hPa 0,0 mm 3,7 km/h (1 Bft) S-SW 210 ° 0 min 0,000 mm 0,0 UV-I 0 W/m² 0,2 °C 1,7 °C 4,8 km/h (1 Bft)
24.01.2018 21:07 1,8 °C 89 % 1020,9 hPa 0,0 mm 4,4 km/h (1 Bft) S-SW 209 ° 0 min 0,000 mm 0,0 UV-I 0 W/m² 0,2 °C 1,8 °C 8,0 km/h (2 Bft)
24.01.2018 21:08 1,8 °C 89 % 1020,9 hPa 0,0 mm 2,8 km/h (1 Bft) S-SW 209 ° 0 min 0,000 mm 0,0 UV-I 0 W/m² 0,2 °C 1,8 °C 6,4 km/h (2 Bft)
24.01.2018 21:09 1,8 °C 89 % 1020,9 hPa 0,0 mm 3,2 km/h (1 Bft) S-SW 209 ° 0 min 0,000 mm 0,0 UV-I 0 W/m² 0,2 °C 1,8 °C 4,8 km/h (1 Bft)
24.01.2018 21:10 1,8 °C 89 % 1020,8 hPa 0,0 mm 1,9 km/h (1 Bft) S-SW 209 ° 0 min 0,000 mm 0,0 UV-I 0 W/m² 0,2 °C 1,8 °C 3,2 km/h (1 Bft)
24.01.2018 21:11 1,8 °C 89 % 1020,8 hPa 0,0 mm 1,5 km/h (1 Bft) S-SW 209 ° 0 min 0,000 mm 0,0 UV-I 0 W/m² 0,2 °C 1,8 °C 3,2 km/h (1 Bft)
24.01.2018 21:12 1,8 °C 89 % 1020,8 hPa 0,0 mm 0,0 km/h (0 Bft) S-SW 209 ° 0 min 0,000 mm 0,0 UV-I 0 W/m² 0,2 °C 1,8 °C 0,0 km/h (0 Bft)
24.01.2018 21:13 1,8 °C 88 % 1020,8 hPa 0,0 mm 0,0 km/h (0 Bft) S-SW 209 ° 0 min 0,000 mm 0,0 UV-I 0 W/m² 0,0 °C 1,8 °C 0,0 km/h (0 Bft)
24.01.2018 21:14 1,7 °C 88 % 1020,8 hPa 0,0 mm 0,0 km/h (0 Bft) S-SW 209 ° 0 min 0,000 mm 0,0 UV-I 0 W/m² -0,1 °C 1,7 °C 0,0 km/h (0 Bft)
24.01.2018 21:15 1,7 °C 87 % 1020,9 hPa 0,0 mm 0,0 km/h (0 Bft) S-SW 209 ° 0 min 0,000 mm 0,0 UV-I 0 W/m² -0,2 °C 1,7 °C 0,0 km/h (0 Bft)
24.01.2018 21:16 1,6 °C 87 % 1020,8 hPa 0,0 mm 0,0 km/h (0 Bft) S-SW 209 ° 0 min 0,000 mm 0,0 UV-I 0 W/m² -0,3 °C 1,6 °C 0,0 km/h (0 Bft)
24.01.2018 21:17 1,6 °C 87 % 1020,8 hPa 0,0 mm 0,0 km/h (0 Bft) S-SW 209 ° 0 min 0,000 mm 0,0 UV-I 0 W/m² -0,3 °C 1,6 °C 0,0 km/h (0 Bft)
24.01.2018 21:18 1,6 °C 88 % 1020,8 hPa 0,0 mm 0,0 km/h (0 Bft) S-SW 209 ° 0 min 0,000 mm 0,0 UV-I 0 W/m² -0,2 °C 1,6 °C 0,0 km/h (0 Bft)
24.01.2018 21:19 1,6 °C 88 % 1020,7 hPa 0,0 mm 0,0 km/h (0 Bft) S-SW 209 ° 0 min 0,000 mm 0,0 UV-I 0 W/m² -0,2 °C 1,6 °C 0,0 km/h (0 Bft)
24.01.2018 21:20 1,6 °C 88 % 1020,7 hPa 0,0 mm 0,0 km/h (0 Bft) S-SW 209 ° 0 min 0,000 mm 0,0 UV-I 0 W/m² -0,2 °C 1,6 °C 0,0 km/h (0 Bft)
24.01.2018 21:21 1,6 °C 88 % 1020,7 hPa 0,0 mm 0,0 km/h (0 Bft) S-SW 209 ° 0 min 0,000 mm 0,0 UV-I 0 W/m² -0,2 °C 1,6 °C 0,0 km/h (0 Bft)
24.01.2018 21:22 1,6 °C 88 % 1020,7 hPa 0,0 mm 0,0 km/h (0 Bft) S-SW 209 ° 0 min 0,000 mm 0,0 UV-I 0 W/m² -0,2 °C 1,6 °C 0,0 km/h (0 Bft)
24.01.2018 21:23 1,6 °C 88 % 1020,7 hPa 0,0 mm 0,0 km/h (0 Bft) S-SW 209 ° 0 min 0,000 mm 0,0 UV-I 0 W/m² -0,2 °C 1,6 °C 0,0 km/h (0 Bft)
24.01.2018 21:24 1,6 °C 88 % 1020,7 hPa 0,0 mm 0,0 km/h (0 Bft) S-SW 209 ° 0 min 0,000 mm 0,0 UV-I 0 W/m² -0,2 °C 1,6 °C 0,0 km/h (0 Bft)
24.01.2018 21:25 1,6 °C 88 % 1020,8 hPa 0,0 mm 0,0 km/h (0 Bft) S-SW 209 ° 0 min 0,000 mm 0,0 UV-I 0 W/m² -0,2 °C 1,6 °C 0,0 km/h (0 Bft)
24.01.2018 21:26 1,6 °C 88 % 1020,8 hPa 0,0 mm 0,0 km/h (0 Bft) S-SW 209 ° 0 min 0,000 mm 0,0 UV-I 0 W/m² -0,2 °C 1,6 °C 0,0 km/h (0 Bft)
24.01.2018 21:27 1,5 °C 88 % 1020,8 hPa 0,0 mm 0,0 km/h (0 Bft) S-SW 209 ° 0 min 0,000 mm 0,0 UV-I 0 W/m² -0,3 °C 1,5 °C 0,0 km/h (0 Bft)
24.01.2018 21:28 1,5 °C 88 % 1020,8 hPa 0,0 mm 0,0 km/h (0 Bft) S-SW 209 ° 0 min 0,000 mm 0,0 UV-I 0 W/m² -0,3 °C 1,5 °C 0,0 km/h (0 Bft)
24.01.2018 21:29 1,5 °C 88 % 1020,7 hPa 0,0 mm 0,0 km/h (0 Bft) S-SW 209 ° 0 min 0,000 mm 0,0 UV-I 0 W/m² -0,3 °C 1,5 °C 0,0 km/h (0 Bft)
24.01.2018 21:30 1,5 °C 88 % 1020,7 hPa 0,0 mm 0,0 km/h (0 Bft) S-SW 209 ° 0 min 0,000 mm 0,0 UV-I 0 W/m² -0,3 °C 1,5 °C 0,0 km/h (0 Bft)
24.01.2018 21:31 1,4 °C 88 % 1020,7 hPa 0,0 mm 0,0 km/h (0 Bft) S-SW 209 ° 0 min 0,000 mm 0,0 UV-I 0 W/m² -0,4 °C 1,4 °C 0,0 km/h (0 Bft)
24.01.2018 21:32 1,4 °C 88 % 1020,7 hPa 0,0 mm 0,0 km/h (0 Bft) S-SW 209 ° 0 min 0,000 mm 0,0 UV-I 0 W/m² -0,4 °C 1,4 °C 0,0 km/h (0 Bft)
24.01.2018 21:33 1,4 °C 88 % 1020,8 hPa 0,0 mm 0,4 km/h (0 Bft) S-SW 209 ° 0 min 0,000 mm 0,0 UV-I 0 W/m² -0,4 °C 1,4 °C 1,6 km/h (1 Bft)
24.01.2018 21:34 1,4 °C 88 % 1020,8 hPa 0,0 mm 0,9 km/h (0 Bft) S-SW 209 ° 0 min 0,000 mm 0,0 UV-I 0 W/m² -0,4 °C 1,4 °C 1,6 km/h (1 Bft)
24.01.2018 21:35 1,4 °C 88 % 1020,7 hPa 0,0 mm 0,0 km/h (0 Bft) S-SW 209 ° 0 min 0,000 mm 0,0 UV-I 0 W/m² -0,4 °C 1,4 °C 0,0 km/h (0 Bft)
24.01.2018 21:36 1,4 °C 88 % 1020,8 hPa 0,0 mm 0,0 km/h (0 Bft) S-SW 209 ° 0 min 0,000 mm 0,0 UV-I 0 W/m² -0,4 °C 1,4 °C 0,0 km/h (0 Bft)
24.01.2018 21:37 1,3 °C 88 % 1020,7 hPa 0,0 mm 0,0 km/h (0 Bft) S-SW 209 ° 0 min 0,000 mm 0,0 UV-I 0 W/m² -0,5 °C 1,3 °C 0,0 km/h (0 Bft)
24.01.2018 21:38 1,3 °C 88 % 1020,7 hPa 0,0 mm 0,0 km/h (0 Bft) S-SW 209 ° 0 min 0,000 mm 0,0 UV-I 0 W/m² -0,5 °C 1,3 °C 0,0 km/h (0 Bft)
24.01.2018 21:39 1,3 °C 89 % 1020,8 hPa 0,0 mm 0,0 km/h (0 Bft) S-SW 209 ° 0 min 0,000 mm 0,0 UV-I 0 W/m² -0,3 °C 1,3 °C 0,0 km/h (0 Bft)
24.01.2018 21:40 1,3 °C 89 % 1020,7 hPa 0,0 mm 0,0 km/h (0 Bft) S-SW 209 ° 0 min 0,000 mm 0,0 UV-I 0 W/m² -0,3 °C 1,3 °C 0,0 km/h (0 Bft)
24.01.2018 21:41 1,3 °C 89 % 1020,7 hPa 0,0 mm 0,0 km/h (0 Bft) S-SW 209 ° 0 min 0,000 mm 0,0 UV-I 0 W/m² -0,3 °C 1,3 °C 0,0 km/h (0 Bft)
24.01.2018 21:42 1,3 °C 89 % 1020,7 hPa 0,0 mm 0,0 km/h (0 Bft) S-SW 209 ° 0 min 0,000 mm 0,0 UV-I 0 W/m² -0,3 °C 1,3 °C 0,0 km/h (0 Bft)
24.01.2018 21:43 1,3 °C 89 % 1020,7 hPa 0,0 mm 0,0 km/h (0 Bft) S-SW 209 ° 0 min 0,000 mm 0,0 UV-I 0 W/m² -0,3 °C 1,3 °C 0,0 km/h (0 Bft)
24.01.2018 21:44 1,3 °C 89 % 1020,7 hPa 0,0 mm 0,0 km/h (0 Bft) S-SW 209 ° 0 min 0,000 mm 0,0 UV-I 0 W/m² -0,3 °C 1,3 °C 0,0 km/h (0 Bft)
24.01.2018 21:45 1,3 °C 89 % 1020,7 hPa 0,0 mm 0,0 km/h (0 Bft) S-SW 209 ° 0 min 0,000 mm 0,0 UV-I 0 W/m² -0,3 °C 1,3 °C 0,0 km/h (0 Bft)
24.01.2018 21:46 1,3 °C 89 % 1020,6 hPa 0,0 mm 0,0 km/h (0 Bft) S-SW 209 ° 0 min 0,000 mm 0,0 UV-I 0 W/m² -0,3 °C 1,3 °C 0,0 km/h (0 Bft)
24.01.2018 21:47 1,3 °C 89 % 1020,6 hPa 0,0 mm 0,0 km/h (0 Bft) S-SW 209 ° 0 min 0,000 mm 0,0 UV-I 0 W/m² -0,3 °C 1,3 °C 0,0 km/h (0 Bft)
24.01.2018 21:48 1,3 °C 89 % 1020,6 hPa 0,0 mm 0,0 km/h (0 Bft) S-SW 209 ° 0 min 0,000 mm 0,0 UV-I 0 W/m² -0,3 °C 1,3 °C 0,0 km/h (0 Bft)
24.01.2018 21:49 1,2 °C 89 % 1020,6 hPa 0,0 mm 0,0 km/h (0 Bft) S-SW 209 ° 0 min 0,000 mm 0,0 UV-I 0 W/m² -0,4 °C 1,2 °C 0,0 km/h (0 Bft)
24.01.2018 21:50 1,2 °C 89 % 1020,6 hPa 0,0 mm 0,0 km/h (0 Bft) S-SW 209 ° 0 min 0,000 mm 0,0 UV-I 0 W/m² -0,4 °C 1,2 °C 0,0 km/h (0 Bft)
24.01.2018 21:51 1,2 °C 89 % 1020,5 hPa 0,0 mm 0,0 km/h (0 Bft) S-SW 209 ° 0 min 0,000 mm 0,0 UV-I 0 W/m² -0,4 °C 1,2 °C 0,0 km/h (0 Bft)
24.01.2018 21:52 1,2 °C 89 % 1020,5 hPa 0,0 mm 0,0 km/h (0 Bft) S-SW 209 ° 0 min 0,000 mm 0,0 UV-I 0 W/m² -0,4 °C 1,2 °C 0,0 km/h (0 Bft)
24.01.2018 21:53 1,2 °C 89 % 1020,5 hPa 0,0 mm 0,0 km/h (0 Bft) S-SW 209 ° 0 min 0,000 mm 0,0 UV-I 0 W/m² -0,4 °C 1,2 °C 0,0 km/h (0 Bft)
24.01.2018 21:54 1,2 °C 89 % 1020,5 hPa 0,0 mm 0,0 km/h (0 Bft) S-SW 209 ° 0 min 0,000 mm 0,0 UV-I 0 W/m² -0,4 °C 1,2 °C 0,0 km/h (0 Bft)
24.01.2018 21:55 1,2 °C 89 % 1020,5 hPa 0,0 mm 0,0 km/h (0 Bft) S-SW 209 ° 0 min 0,000 mm 0,0 UV-I 0 W/m² -0,4 °C 1,2 °C 0,0 km/h (0 Bft)
24.01.2018 21:56 1,2 °C 89 % 1020,5 hPa 0,0 mm 0,0 km/h (0 Bft) S-SW 209 ° 0 min 0,000 mm 0,0 UV-I 0 W/m² -0,4 °C 1,2 °C 0,0 km/h (0 Bft)
24.01.2018 21:57 1,2 °C 89 % 1020,4 hPa 0,0 mm 0,1 km/h (0 Bft) S-SW 209 ° 0 min 0,000 mm 0,0 UV-I 0 W/m² -0,4 °C 1,2 °C 1,6 km/h (1 Bft)
24.01.2018 21:58 1,2 °C 89 % 1020,5 hPa 0,0 mm 0,0 km/h (0 Bft) S-SW 209 ° 0 min 0,000 mm 0,0 UV-I 0 W/m² -0,4 °C 1,2 °C 0,0 km/h (0 Bft)
24.01.2018 21:59 1,2 °C 89 % 1020,5 hPa 0,0 mm 0,0 km/h (0 Bft) S-SW 209 ° 0 min 0,000 mm 0,0 UV-I 0 W/m² -0,4 °C 1,2 °C 0,0 km/h (0 Bft)
24.01.2018 22:00 1,1 °C 89 % 1020,6 hPa 0,0 mm 0,0 km/h (0 Bft) S-SW 209 ° 0 min 0,000 mm 0,0 UV-I 0 W/m² -0,5 °C 1,1 °C 0,0 km/h (0 Bft)
24.01.2018 22:01 1,1 °C 89 % 1020,5 hPa 0,0 mm 0,0 km/h (0 Bft) S-SW 209 ° 0 min 0,000 mm 0,0 UV-I 0 W/m² -0,5 °C 1,1 °C 0,0 km/h (0 Bft)
24.01.2018 22:02 1,1 °C 89 % 1020,5 hPa 0,0 mm 0,0 km/h (0 Bft) S-SW 209 ° 0 min 0,000 mm 0,0 UV-I 0 W/m² -0,5 °C 1,1 °C 0,0 km/h (0 Bft)
24.01.2018 22:03 1,1 °C 89 % 1020,6 hPa 0,0 mm 0,3 km/h (0 Bft) S-SW 209 ° 0 min 0,000 mm 0,0 UV-I 0 W/m² -0,5 °C 1,1 °C 1,6 km/h (1 Bft)
24.01.2018 22:04 1,1 °C 90 % 1020,6 hPa 0,0 mm 1,6 km/h (1 Bft) S-SW 209 ° 0 min 0,000 mm 0,0 UV-I 0 W/m² -0,4 °C 1,1 °C 4,8 km/h (1 Bft)
24.01.2018 22:05 1,2 °C 90 % 1020,6 hPa 0,0 mm 2,9 km/h (1 Bft) S-SW 209 ° 0 min 0,000 mm 0,0 UV-I 0 W/m² -0,3 °C 1,2 °C 4,8 km/h (1 Bft)
24.01.2018 22:06 1,2 °C 90 % 1020,6 hPa 0,0 mm 0,8 km/h (0 Bft) S-SW 209 ° 0 min 0,000 mm 0,0 UV-I 0 W/m² -0,3 °C 1,2 °C 3,2 km/h (1 Bft)
24.01.2018 22:07 1,3 °C 90 % 1020,6 hPa 0,0 mm 2,4 km/h (1 Bft) S-SW 209 ° 0 min 0,000 mm 0,0 UV-I 0 W/m² -0,2 °C 1,3 °C 3,2 km/h (1 Bft)
24.01.2018 22:08 1,3 °C 90 % 1020,6 hPa 0,0 mm 1,7 km/h (1 Bft) S-SW 209 ° 0 min 0,000 mm 0,0 UV-I 0 W/m² -0,2 °C 1,3 °C 3,2 km/h (1 Bft)
24.01.2018 22:09 1,4 °C 90 % 1020,5 hPa 0,0 mm 2,8 km/h (1 Bft) S-SW 204 ° 0 min 0,000 mm 0,0 UV-I 0 W/m² -0,1 °C 1,4 °C 6,4 km/h (2 Bft)
24.01.2018 22:10 1,4 °C 90 % 1020,6 hPa 0,0 mm 2,6 km/h (1 Bft) S-SW 206 ° 0 min 0,000 mm 0,0 UV-I 0 W/m² -0,1 °C 1,4 °C 4,8 km/h (1 Bft)
24.01.2018 22:11 1,6 °C 90 % 1020,6 hPa 0,0 mm 5,3 km/h (1 Bft) S 171 ° 0 min 0,000 mm 0,0 UV-I 0 W/m² 0,1 °C 0,1 °C 11,3 km/h (2 Bft)
24.01.2018 22:12 1,6 °C 90 % 1020,6 hPa 0,0 mm 6,0 km/h (2 Bft) S 171 ° 0 min 0,000 mm 0,0 UV-I 0 W/m² 0,1 °C -0,2 °C 8,0 km/h (2 Bft)
24.01.2018 22:13 1,7 °C 90 % 1020,5 hPa 0,0 mm 4,8 km/h (1 Bft) S 171 ° 0 min 0,000 mm 0,0 UV-I 0 W/m² 0,2 °C 0,4 °C 8,0 km/h (2 Bft)
24.01.2018 22:14 1,8 °C 90 % 1020,6 hPa 0,0 mm 7,3 km/h (2 Bft) S 171 ° 0 min 0,000 mm 0,0 UV-I 0 W/m² 0,3 °C -0,4 °C 9,7 km/h (2 Bft)
24.01.2018 22:15 1,9 °C 89 % 1020,5 hPa 0,0 mm 6,2 km/h (2 Bft) S-SW 196 ° 0 min 0,000 mm 0,0 UV-I 0 W/m² 0,3 °C 0,1 °C 9,7 km/h (2 Bft)
24.01.2018 22:16 2,0 °C 89 % 1020,5 hPa 0,0 mm 6,2 km/h (2 Bft) S-SW 198 ° 0 min 0,000 mm 0,0 UV-I 0 W/m² 0,4 °C 0,2 °C 9,7 km/h (2 Bft)
24.01.2018 22:17 2,1 °C 88 % 1020,5 hPa 0,0 mm 5,2 km/h (1 Bft) S 181 ° 0 min 0,000 mm 0,0 UV-I 0 W/m² 0,3 °C 0,7 °C 8,0 km/h (2 Bft)
24.01.2018 22:18 2,2 °C 88 % 1020,5 hPa 0,0 mm 5,7 km/h (1 Bft) S-SW 193 ° 0 min 0,000 mm 0,0 UV-I 0 W/m² 0,4 °C 0,6 °C 8,0 km/h (2 Bft)
24.01.2018 22:19 2,2 °C 88 % 1020,5 hPa 0,0 mm 7,4 km/h (2 Bft) S 186 ° 0 min 0,000 mm 0,0 UV-I 0 W/m² 0,4 °C 0,0 °C 9,7 km/h (2 Bft)
24.01.2018 22:20 2,3 °C 88 % 1020,5 hPa 0,0 mm 4,9 km/h (1 Bft) S 178 ° 0 min 0,000 mm 0,0 UV-I 0 W/m² 0,5 °C 1,1 °C 6,4 km/h (2 Bft)
24.01.2018 22:21 2,3 °C 88 % 1020,5 hPa 0,0 mm 3,1 km/h (1 Bft) S 178 ° 0 min 0,000 mm 0,0 UV-I 0 W/m² 0,5 °C 2,3 °C 4,8 km/h (1 Bft)
24.01.2018 22:22 2,3 °C 88 % 1020,4 hPa 0,0 mm 3,0 km/h (1 Bft) S 178 ° 0 min 0,000 mm 0,0 UV-I 0 W/m² 0,5 °C 2,3 °C 4,8 km/h (1 Bft)
24.01.2018 22:23 2,4 °C 87 % 1020,4 hPa 0,0 mm 3,5 km/h (1 Bft) S 178 ° 0 min 0,000 mm 0,0 UV-I 0 W/m² 0,5 °C 2,4 °C 6,4 km/h (2 Bft)
24.01.2018 22:24 2,4 °C 87 % 1020,5 hPa 0,0 mm 3,7 km/h (1 Bft) S 182 ° 0 min 0,000 mm 0,0 UV-I 0 W/m² 0,5 °C 2,4 °C 6,4 km/h (2 Bft)
24.01.2018 22:25 2,5 °C 87 % 1020,4 hPa 0,0 mm 4,3 km/h (1 Bft) S-SW 196 ° 0 min 0,000 mm 0,0 UV-I 0 W/m² 0,6 °C 2,5 °C 6,4 km/h (2 Bft)
24.01.2018 22:26 2,6 °C 87 % 1020,4 hPa 0,0 mm 2,4 km/h (1 Bft) S-SW 196 ° 0 min 0,000 mm 0,0 UV-I 0 W/m² 0,7 °C 2,6 °C 4,8 km/h (1 Bft)
24.01.2018 22:27 2,6 °C 87 % 1020,4 hPa 0,0 mm 1,7 km/h (1 Bft) S-SW 196 ° 0 min 0,000 mm 0,0 UV-I 0 W/m² 0,7 °C 2,6 °C 3,2 km/h (1 Bft)
24.01.2018 22:28 2,7 °C 86 % 1020,5 hPa 0,0 mm 3,0 km/h (1 Bft) S-SW 196 ° 0 min 0,000 mm 0,0 UV-I 0 W/m² 0,6 °C 2,7 °C 4,8 km/h (1 Bft)
24.01.2018 22:29 2,7 °C 86 % 1020,5 hPa 0,0 mm 0,4 km/h (0 Bft) S-SW 196 ° 0 min 0,000 mm 0,0 UV-I 0 W/m² 0,6 °C 2,7 °C 3,2 km/h (1 Bft)
24.01.2018 22:30 2,7 °C 86 % 1020,5 hPa 0,0 mm 0,9 km/h (0 Bft) S-SW 196 ° 0 min 0,000 mm 0,0 UV-I 0 W/m² 0,6 °C 2,7 °C 1,6 km/h (1 Bft)
24.01.2018 22:31 2,7 °C 86 % 1020,5 hPa 0,0 mm 0,0 km/h (0 Bft) S-SW 196 ° 0 min 0,000 mm 0,0 UV-I 0 W/m² 0,6 °C 2,7 °C 0,0 km/h (0 Bft)
24.01.2018 22:32 2,7 °C 86 % 1020,4 hPa 0,0 mm 0,0 km/h (0 Bft) S-SW 196 ° 0 min 0,000 mm 0,0 UV-I 0 W/m² 0,6 °C 2,7 °C 0,0 km/h (0 Bft)
24.01.2018 22:33 2,7 °C 86 % 1020,5 hPa 0,0 mm 1,2 km/h (1 Bft) S-SW 198 ° 0 min 0,000 mm 0,0 UV-I 0 W/m² 0,6 °C 2,7 °C 3,2 km/h (1 Bft)
24.01.2018 22:34 2,7 °C 85 % 1020,5 hPa 0,0 mm 2,4 km/h (1 Bft) SW 227 ° 0 min 0,000 mm 0,0 UV-I 0 W/m² 0,4 °C 2,7 °C 4,8 km/h (1 Bft)
24.01.2018 22:35 2,7 °C 85 % 1020,4 hPa 0,0 mm 0,3 km/h (0 Bft) SW 227 ° 0 min 0,000 mm 0,0 UV-I 0 W/m² 0,4 °C 2,7 °C 1,6 km/h (1 Bft)
24.01.2018 22:36 2,7 °C 84 % 1020,5 hPa 0,0 mm 1,0 km/h (0 Bft) SW 227 ° 0 min 0,000 mm 0,0 UV-I 0 W/m² 0,3 °C 2,7 °C 3,2 km/h (1 Bft)
24.01.2018 22:37 2,6 °C 84 % 1020,5 hPa 0,0 mm 0,0 km/h (0 Bft) SW 227 ° 0 min 0,000 mm 0,0 UV-I 0 W/m² 0,2 °C 2,6 °C 0,0 km/h (0 Bft)
24.01.2018 22:38 2,7 °C 85 % 1020,5 hPa 0,0 mm 4,0 km/h (1 Bft) S-SW 207 ° 0 min 0,000 mm 0,0 UV-I 0 W/m² 0,4 °C 2,7 °C 8,0 km/h (2 Bft)
24.01.2018 22:39 2,6 °C 85 % 1020,5 hPa 0,0 mm 5,3 km/h (1 Bft) S-SW 198 ° 0 min 0,000 mm 0,0 UV-I 0 W/m² 0,3 °C 1,2 °C 8,0 km/h (2 Bft)
24.01.2018 22:40 2,7 °C 85 % 1020,5 hPa 0,0 mm 4,1 km/h (1 Bft) S 184 ° 0 min 0,000 mm 0,0 UV-I 0 W/m² 0,4 °C 2,7 °C 6,4 km/h (2 Bft)
24.01.2018 22:41 2,7 °C 85 % 1020,5 hPa 0,0 mm 1,9 km/h (1 Bft) S 184 ° 0 min 0,000 mm 0,0 UV-I 0 W/m² 0,4 °C 2,7 °C 3,2 km/h (1 Bft)
24.01.2018 22:42 2,7 °C 85 % 1020,5 hPa 0,0 mm 2,4 km/h (1 Bft) S 184 ° 0 min 0,000 mm 0,0 UV-I 0 W/m² 0,4 °C 2,7 °C 4,8 km/h (1 Bft)
24.01.2018 22:43 2,7 °C 85 % 1020,4 hPa 0,0 mm 1,6 km/h (1 Bft) S 184 ° 0 min 0,000 mm 0,0 UV-I 0 W/m² 0,4 °C 2,7 °C 3,2 km/h (1 Bft)
24.01.2018 22:44 2,7 °C 85 % 1020,4 hPa 0,0 mm 2,1 km/h (1 Bft) S 184 ° 0 min 0,000 mm 0,0 UV-I 0 W/m² 0,4 °C 2,7 °C 3,2 km/h (1 Bft)
24.01.2018 22:45 2,7 °C 85 % 1020,4 hPa 0,0 mm 1,4 km/h (1 Bft) S 184 ° 0 min 0,000 mm 0,0 UV-I 0 W/m² 0,4 °C 2,7 °C 4,8 km/h (1 Bft)
24.01.2018 22:46 2,6 °C 84 % 1020,4 hPa 0,0 mm 0,1 km/h (0 Bft) S 184 ° 0 min 0,000 mm 0,0 UV-I 0 W/m² 0,2 °C 2,6 °C 1,6 km/h (1 Bft)
24.01.2018 22:47 2,7 °C 84 % 1020,4 hPa 0,0 mm 0,0 km/h (0 Bft) S 184 ° 0 min 0,000 mm 0,0 UV-I 0 W/m² 0,3 °C 2,7 °C 0,0 km/h (0 Bft)
24.01.2018 22:48 2,7 °C 84 % 1020,4 hPa 0,0 mm 0,0 km/h (0 Bft) S 184 ° 0 min 0,000 mm 0,0 UV-I 0 W/m² 0,3 °C 2,7 °C 0,0 km/h (0 Bft)
24.01.2018 22:49 2,6 °C 84 % 1020,4 hPa 0,0 mm 0,0 km/h (0 Bft) S 184 ° 0 min 0,000 mm 0,0 UV-I 0 W/m² 0,2 °C 2,6 °C 0,0 km/h (0 Bft)
24.01.2018 22:50 2,6 °C 84 % 1020,3 hPa 0,0 mm 0,0 km/h (0 Bft) S 184 ° 0 min 0,000 mm 0,0 UV-I 0 W/m² 0,2 °C 2,6 °C 0,0 km/h (0 Bft)
24.01.2018 22:51 2,6 °C 84 % 1020,4 hPa 0,0 mm 0,0 km/h (0 Bft) S 184 ° 0 min 0,000 mm 0,0 UV-I 0 W/m² 0,2 °C 2,6 °C 0,0 km/h (0 Bft)
24.01.2018 22:52 2,6 °C 84 % 1020,4 hPa 0,0 mm 0,0 km/h (0 Bft) S 184 ° 0 min 0,000 mm 0,0 UV-I 0 W/m² 0,2 °C 2,6 °C 0,0 km/h (0 Bft)
24.01.2018 22:53 2,6 °C 84 % 1020,4 hPa 0,0 mm 0,0 km/h (0 Bft) S 184 ° 0 min 0,000 mm 0,0 UV-I 0 W/m² 0,2 °C 2,6 °C 0,0 km/h (0 Bft)
24.01.2018 22:54 2,6 °C 84 % 1020,3 hPa 0,0 mm 0,0 km/h (0 Bft) S 184 ° 0 min 0,000 mm 0,0 UV-I 0 W/m² 0,2 °C 2,6 °C 0,0 km/h (0 Bft)
24.01.2018 22:55 2,6 °C 84 % 1020,4 hPa 0,0 mm 0,0 km/h (0 Bft) S 184 ° 0 min 0,000 mm 0,0 UV-I 0 W/m² 0,2 °C 2,6 °C 0,0 km/h (0 Bft)
24.01.2018 22:56 2,5 °C 84 % 1020,4 hPa 0,0 mm 0,0 km/h (0 Bft) S 184 ° 0 min 0,000 mm 0,0 UV-I 0 W/m² 0,1 °C 2,5 °C 0,0 km/h (0 Bft)
24.01.2018 22:57 2,5 °C 84 % 1020,4 hPa 0,0 mm 0,0 km/h (0 Bft) S 184 ° 0 min 0,000 mm 0,0 UV-I 0 W/m² 0,1 °C 2,5 °C 0,0 km/h (0 Bft)
24.01.2018 22:58 2,4 °C 84 % 1020,4 hPa 0,0 mm 0,0 km/h (0 Bft) S 184 ° 0 min 0,000 mm 0,0 UV-I 0 W/m² -0,0 °C 2,4 °C 0,0 km/h (0 Bft)
24.01.2018 22:59 2,4 °C 84 % 1020,5 hPa 0,0 mm 0,0 km/h (0 Bft) S 184 ° 0 min 0,000 mm 0,0 UV-I 0 W/m² -0,0 °C 2,4 °C 0,0 km/h (0 Bft)
24.01.2018 23:00 2,4 °C 84 % 1020,4 hPa 0,0 mm 0,0 km/h (0 Bft) S 184 ° 0 min 0,000 mm 0,0 UV-I 0 W/m² -0,0 °C 2,4 °C 0,0 km/h (0 Bft)
24.01.2018 23:01 2,4 °C 84 % 1020,4 hPa 0,0 mm 0,0 km/h (0 Bft) S 184 ° 0 min 0,000 mm 0,0 UV-I 0 W/m² -0,0 °C 2,4 °C 0,0 km/h (0 Bft)
24.01.2018 23:02 2,4 °C 84 % 1020,5 hPa 0,0 mm 0,0 km/h (0 Bft) S 184 ° 0 min 0,000 mm 0,0 UV-I 0 W/m² -0,0 °C 2,4 °C 0,0 km/h (0 Bft)
24.01.2018 23:03 2,4 °C 84 % 1020,5 hPa 0,0 mm 0,0 km/h (0 Bft) S 184 ° 0 min 0,000 mm 0,0 UV-I 0 W/m² -0,0 °C 2,4 °C 0,0 km/h (0 Bft)
24.01.2018 23:04 2,4 °C 84 % 1020,5 hPa 0,0 mm 0,0 km/h (0 Bft) S 184 ° 0 min 0,000 mm 0,0 UV-I 0 W/m² -0,0 °C 2,4 °C 0,0 km/h (0 Bft)
24.01.2018 23:05 2,3 °C 84 % 1020,5 hPa 0,0 mm 0,0 km/h (0 Bft) S 184 ° 0 min 0,000 mm 0,0 UV-I 0 W/m² -0,1 °C 2,3 °C 0,0 km/h (0 Bft)
24.01.2018 23:06 2,3 °C 85 % 1020,5 hPa 0,0 mm 0,0 km/h (0 Bft) S 184 ° 0 min 0,000 mm 0,0 UV-I 0 W/m² 0,0 °C 2,3 °C 0,0 km/h (0 Bft)
24.01.2018 23:07 2,3 °C 85 % 1020,5 hPa 0,0 mm 0,0 km/h (0 Bft) S 184 ° 0 min 0,000 mm 0,0 UV-I 0 W/m² 0,0 °C 2,3 °C 0,0 km/h (0 Bft)
24.01.2018 23:08 2,3 °C 85 % 1020,5 hPa 0,0 mm 0,5 km/h (0 Bft) S 184 ° 0 min 0,000 mm 0,0 UV-I 0 W/m² 0,0 °C 2,3 °C 3,2 km/h (1 Bft)
24.01.2018 23:09 2,2 °C 85 % 1020,5 hPa 0,0 mm 3,3 km/h (1 Bft) S 184 ° 0 min 0,000 mm 0,0 UV-I 0 W/m² -0,1 °C 2,2 °C 4,8 km/h (1 Bft)
24.01.2018 23:10 2,2 °C 85 % 1020,5 hPa 0,0 mm 3,9 km/h (1 Bft) S-SW 195 ° 0 min 0,000 mm 0,0 UV-I 0 W/m² -0,1 °C 2,2 °C 4,8 km/h (1 Bft)
24.01.2018 23:11 2,2 °C 85 % 1020,5 hPa 0,0 mm 3,8 km/h (1 Bft) S-SW 197 ° 0 min 0,000 mm 0,0 UV-I 0 W/m² -0,1 °C 2,2 °C 6,4 km/h (2 Bft)
24.01.2018 23:12 2,2 °C 85 % 1020,6 hPa 0,0 mm 4,3 km/h (1 Bft) S-SW 197 ° 0 min 0,000 mm 0,0 UV-I 0 W/m² -0,1 °C 2,2 °C 4,8 km/h (1 Bft)
24.01.2018 23:13 2,2 °C 85 % 1020,5 hPa 0,0 mm 2,6 km/h (1 Bft) S-SW 197 ° 0 min 0,000 mm 0,0 UV-I 0 W/m² -0,1 °C 2,2 °C 4,8 km/h (1 Bft)
24.01.2018 23:14 2,1 °C 85 % 1020,5 hPa 0,0 mm 1,9 km/h (1 Bft) S-SW 197 ° 0 min 0,000 mm 0,0 UV-I 0 W/m² -0,2 °C 2,1 °C 3,2 km/h (1 Bft)
24.01.2018 23:15 2,1 °C 85 % 1020,6 hPa 0,0 mm 0,0 km/h (0 Bft) S-SW 197 ° 0 min 0,000 mm 0,0 UV-I 0 W/m² -0,2 °C 2,1 °C 0,0 km/h (0 Bft)
24.01.2018 23:16 2,1 °C 85 % 1020,6 hPa 0,0 mm 0,0 km/h (0 Bft) S-SW 197 ° 0 min 0,000 mm 0,0 UV-I 0 W/m² -0,2 °C 2,1 °C 0,0 km/h (0 Bft)
24.01.2018 23:17 2,1 °C 85 % 1020,6 hPa 0,0 mm 0,0 km/h (0 Bft) S-SW 197 ° 0 min 0,000 mm 0,0 UV-I 0 W/m² -0,2 °C 2,1 °C 0,0 km/h (0 Bft)
24.01.2018 23:18 2,0 °C 85 % 1020,6 hPa 0,0 mm 0,0 km/h (0 Bft) S-SW 197 ° 0 min 0,000 mm 0,0 UV-I 0 W/m² -0,3 °C 2,0 °C 0,0 km/h (0 Bft)
24.01.2018 23:19 2,0 °C 85 % 1020,6 hPa 0,0 mm 0,0 km/h (0 Bft) S-SW 197 ° 0 min 0,000 mm 0,0 UV-I 0 W/m² -0,3 °C 2,0 °C 0,0 km/h (0 Bft)
24.01.2018 23:20 2,0 °C 85 % 1020,6 hPa 0,0 mm 0,0 km/h (0 Bft) S-SW 197 ° 0 min 0,000 mm 0,0 UV-I 0 W/m² -0,3 °C 2,0 °C 0,0 km/h (0 Bft)
24.01.2018 23:21 2,0 °C 85 % 1020,6 hPa 0,0 mm 0,0 km/h (0 Bft) S-SW 197 ° 0 min 0,000 mm 0,0 UV-I 0 W/m² -0,3 °C 2,0 °C 0,0 km/h (0 Bft)
24.01.2018 23:22 2,0 °C 85 % 1020,6 hPa 0,0 mm 0,0 km/h (0 Bft) S-SW 197 ° 0 min 0,000 mm 0,0 UV-I 0 W/m² -0,3 °C 2,0 °C 0,0 km/h (0 Bft)
24.01.2018 23:23 1,9 °C 85 % 1020,6 hPa 0,0 mm 0,0 km/h (0 Bft) S-SW 197 ° 0 min 0,000 mm 0,0 UV-I 0 W/m² -0,3 °C 1,9 °C 0,0 km/h (0 Bft)
24.01.2018 23:24 1,9 °C 86 % 1020,6 hPa 0,0 mm 0,0 km/h (0 Bft) S-SW 197 ° 0 min 0,000 mm 0,0 UV-I 0 W/m² -0,2 °C 1,9 °C 0,0 km/h (0 Bft)
24.01.2018 23:25 1,9 °C 86 % 1020,6 hPa 0,0 mm 1,1 km/h (1 Bft) S-SW 200 ° 0 min 0,000 mm 0,0 UV-I 0 W/m² -0,2 °C 1,9 °C 3,2 km/h (1 Bft)
24.01.2018 23:26 1,9 °C 86 % 1020,6 hPa 0,0 mm 1,1 km/h (1 Bft) S-SW 200 ° 0 min 0,000 mm 0,0 UV-I 0 W/m² -0,2 °C 1,9 °C 3,2 km/h (1 Bft)
24.01.2018 23:27 1,9 °C 86 % 1020,6 hPa 0,0 mm 1,5 km/h (1 Bft) S-SW 200 ° 0 min 0,000 mm 0,0 UV-I 0 W/m² -0,2 °C 1,9 °C 3,2 km/h (1 Bft)
24.01.2018 23:28 1,9 °C 86 % 1020,6 hPa 0,0 mm 0,3 km/h (0 Bft) S-SW 200 ° 0 min 0,000 mm 0,0 UV-I 0 W/m² -0,2 °C 1,9 °C 3,2 km/h (1 Bft)
24.01.2018 23:29 1,9 °C 86 % 1020,6 hPa 0,0 mm 1,9 km/h (1 Bft) S-SW 200 ° 0 min 0,000 mm 0,0 UV-I 0 W/m² -0,2 °C 1,9 °C 4,8 km/h (1 Bft)
24.01.2018 23:30 1,9 °C 86 % 1020,7 hPa 0,0 mm 3,2 km/h (1 Bft) W 264 ° 0 min 0,000 mm 0,0 UV-I 0 W/m² -0,2 °C 1,9 °C 6,4 km/h (2 Bft)
24.01.2018 23:31 2,0 °C 86 % 1020,7 hPa 0,0 mm 2,3 km/h (1 Bft) W 264 ° 0 min 0,000 mm 0,0 UV-I 0 W/m² -0,1 °C 2,0 °C 3,2 km/h (1 Bft)
24.01.2018 23:32 2,0 °C 86 % 1020,7 hPa 0,0 mm 1,4 km/h (1 Bft) W 264 ° 0 min 0,000 mm 0,0 UV-I 0 W/m² -0,1 °C 2,0 °C 3,2 km/h (1 Bft)
24.01.2018 23:33 2,1 °C 86 % 1020,7 hPa 0,0 mm 0,9 km/h (0 Bft) W 264 ° 0 min 0,000 mm 0,0 UV-I 0 W/m² 0,0 °C 2,1 °C 3,2 km/h (1 Bft)
24.01.2018 23:34 2,0 °C 86 % 1020,7 hPa 0,0 mm 0,0 km/h (0 Bft) W 264 ° 0 min 0,000 mm 0,0 UV-I 0 W/m² -0,1 °C 2,0 °C 0,0 km/h (0 Bft)
24.01.2018 23:35 2,1 °C 86 % 1020,8 hPa 0,0 mm 4,1 km/h (1 Bft) S-SW 204 ° 0 min 0,000 mm 0,0 UV-I 0 W/m² 0,0 °C 2,1 °C 6,4 km/h (2 Bft)
24.01.2018 23:36 2,1 °C 86 % 1020,8 hPa 0,0 mm 4,0 km/h (1 Bft) S 191 ° 0 min 0,000 mm 0,0 UV-I 0 W/m² 0,0 °C 2,1 °C 6,4 km/h (2 Bft)
24.01.2018 23:37 2,1 °C 86 % 1020,8 hPa 0,0 mm 7,3 km/h (2 Bft) S-SW 197 ° 0 min 0,000 mm 0,0 UV-I 0 W/m² 0,0 °C -0,1 °C 11,3 km/h (2 Bft)
24.01.2018 23:38 2,2 °C 86 % 1020,9 hPa 0,0 mm 9,1 km/h (2 Bft) S-SW 206 ° 0 min 0,000 mm 0,0 UV-I 0 W/m² 0,1 °C -0,5 °C 11,3 km/h (2 Bft)
24.01.2018 23:39 2,2 °C 86 % 1020,8 hPa 0,0 mm 13,9 km/h (3 Bft) S-SW 196 ° 0 min 0,000 mm 0,0 UV-I 0 W/m² 0,1 °C -1,5 °C 16,1 km/h (3 Bft)
24.01.2018 23:40 2,4 °C 86 % 1020,8 hPa 0,0 mm 16,0 km/h (3 Bft) S-SW 204 ° 0 min 0,000 mm 0,0 UV-I 0 W/m² 0,3 °C -1,6 °C 17,7 km/h (3 Bft)
24.01.2018 23:41 2,5 °C 86 % 1020,8 hPa 0,0 mm 14,1 km/h (3 Bft) S 175 ° 0 min 0,000 mm 0,0 UV-I 0 W/m² 0,4 °C -1,2 °C 17,7 km/h (3 Bft)
24.01.2018 23:42 2,6 °C 86 % 1020,8 hPa 0,0 mm 12,9 km/h (3 Bft) S 188 ° 0 min 0,000 mm 0,0 UV-I 0 W/m² 0,5 °C -0,8 °C 14,5 km/h (3 Bft)
24.01.2018 23:43 2,8 °C 85 % 1020,8 hPa 0,0 mm 8,0 km/h (2 Bft) S 179 ° 0 min 0,000 mm 0,0 UV-I 0 W/m² 0,5 °C 0,6 °C 11,3 km/h (2 Bft)
24.01.2018 23:44 2,8 °C 85 % 1020,8 hPa 0,0 mm 3,6 km/h (1 Bft) SW 218 ° 0 min 0,000 mm 0,0 UV-I 0 W/m² 0,5 °C 2,8 °C 4,8 km/h (1 Bft)
24.01.2018 23:45 2,9 °C 84 % 1020,9 hPa 0,0 mm 3,2 km/h (1 Bft) S 190 ° 0 min 0,000 mm 0,0 UV-I 0 W/m² 0,5 °C 2,9 °C 4,8 km/h (1 Bft)
24.01.2018 23:46 2,9 °C 84 % 1020,8 hPa 0,0 mm 1,8 km/h (1 Bft) S 190 ° 0 min 0,000 mm 0,0 UV-I 0 W/m² 0,5 °C 2,9 °C 3,2 km/h (1 Bft)
24.01.2018 23:47 2,9 °C 84 % 1020,8 hPa 0,0 mm 0,3 km/h (0 Bft) S 190 ° 0 min 0,000 mm 0,0 UV-I 0 W/m² 0,5 °C 2,9 °C 1,6 km/h (1 Bft)
24.01.2018 23:48 2,9 °C 83 % 1020,8 hPa 0,0 mm 0,1 km/h (0 Bft) S 190 ° 0 min 0,000 mm 0,0 UV-I 0 W/m² 0,3 °C 2,9 °C 1,6 km/h (1 Bft)
24.01.2018 23:49 2,9 °C 83 % 1020,9 hPa 0,0 mm 0,0 km/h (0 Bft) S 190 ° 0 min 0,000 mm 0,0 UV-I 0 W/m² 0,3 °C 2,9 °C 0,0 km/h (0 Bft)
24.01.2018 23:50 3,0 °C 83 % 1020,8 hPa 0,0 mm 0,0 km/h (0 Bft) S 190 ° 0 min 0,000 mm 0,0 UV-I 0 W/m² 0,4 °C 3,0 °C 0,0 km/h (0 Bft)
24.01.2018 23:51 2,9 °C 83 % 1020,9 hPa 0,0 mm 0,0 km/h (0 Bft) S 190 ° 0 min 0,000 mm 0,0 UV-I 0 W/m² 0,3 °C 2,9 °C 0,0 km/h (0 Bft)
24.01.2018 23:52 2,9 °C 83 % 1020,9 hPa 0,0 mm 0,0 km/h (0 Bft) S 190 ° 0 min 0,000 mm 0,0 UV-I 0 W/m² 0,3 °C 2,9 °C 0,0 km/h (0 Bft)
24.01.2018 23:53 2,9 °C 82 % 1020,9 hPa 0,0 mm 0,0 km/h (0 Bft) S 190 ° 0 min 0,000 mm 0,0 UV-I 0 W/m² 0,1 °C 2,9 °C 0,0 km/h (0 Bft)
24.01.2018 23:54 2,9 °C 82 % 1020,9 hPa 0,0 mm 0,0 km/h (0 Bft) S 190 ° 0 min 0,000 mm 0,0 UV-I 0 W/m² 0,1 °C 2,9 °C 0,0 km/h (0 Bft)
24.01.2018 23:55 2,9 °C 82 % 1020,9 hPa 0,0 mm 0,0 km/h (0 Bft) S 190 ° 0 min 0,000 mm 0,0 UV-I 0 W/m² 0,1 °C 2,9 °C 0,0 km/h (0 Bft)
24.01.2018 23:56 2,9 °C 82 % 1020,9 hPa 0,0 mm 0,0 km/h (0 Bft) S 190 ° 0 min 0,000 mm 0,0 UV-I 0 W/m² 0,1 °C 2,9 °C 0,0 km/h (0 Bft)
24.01.2018 23:57 2,9 °C 82 % 1020,9 hPa 0,0 mm 0,0 km/h (0 Bft) S 190 ° 0 min 0,000 mm 0,0 UV-I 0 W/m² 0,1 °C 2,9 °C 0,0 km/h (0 Bft)
24.01.2018 23:58 2,8 °C 82 % 1020,9 hPa 0,0 mm 0,0 km/h (0 Bft) S 190 ° 0 min 0,000 mm 0,0 UV-I 0 W/m² 0,0 °C 2,8 °C 0,0 km/h (0 Bft)
24.01.2018 23:59 2,8 °C 82 % 1020,9 hPa 0,0 mm 0,0 km/h (0 Bft) S 190 ° 0 min 0,000 mm 0,0 UV-I 0 W/m² 0,0 °C 2,8 °C 0,0 km/h (0 Bft)
_ Min-Zeit 01:55 15:05 22:54 - 23:59 - - - - - - 01:55 02:55 23:59
Minimum _ -2,2 °C 66 % 1020,3 hPa - 0,0 km/h (0 Bft) - - - - - - -3,0 °C -3,0 °C 0,0 km/h (0 Bft)
_ Max-Zeit 15:03 06:44 00:27 23:59 23:40 - - 23:59 15:01 14:15 14:02 12:49 15:03 23:41
Maximum _ 9,6 °C 95 % 1028,3 hPa 0,0 mm 16,0 km/h
S-SW (3 Bft)
- - 0 min 0,076 mm 1,3 UV-I 257 W/m² 4,4 °C 9,5 °C 17,7 km/h
S-SW (3 Bft)
Durchschnitt _ 3,2 °C 86 % 1025,0 hPa #0,0 mm 1,0 km/h (0 Bft) S - #0 min. #0,305 mm 1,0 UV-I 22 W/m² 0,9 °C 3,0 °C 1,7 km/h (1 Bft)